# Wetter Temperatur Luftdruck Luftfeuchtigkeit Sichtweite Windgeschwindigkeit Windrichtung Zeit
1 Clouds 5 998 80 10000 9.8 240 09:57 29.01.2020
2 Clouds 5 998 80 10000 9.8 240 09:39 29.01.2020
3 Clouds 5 998 80 10000 9.8 240 09:18 29.01.2020
4 Clouds 5 998 80 10000 8.7 240 08:42 29.01.2020
5 Clouds 5 998 80 10000 8.7 240 08:42 29.01.2020
6 Clouds 5 998 86 10000 9.3 240 08:22 29.01.2020
7 Rain 4 998 93 10000 9.3 240 07:45 29.01.2020
8 Rain 4 997 93 10000 8.7 240 07:26 29.01.2020
9 Clouds 4 997 93 10000 9.8 240 06:56 29.01.2020
10 Clouds 4 997 93 10000 9.8 240 06:56 29.01.2020
11 Clouds 4 997 93 10000 9.8 240 06:37 29.01.2020
12 Rain 4 997 86 10000 7.7 240 06:19 29.01.2020
13 Rain 4 997 86 10000 7.2 240 05:50 29.01.2020
14 Clouds 4 996 86 10000 7.7 240 05:31 29.01.2020
15 Clouds 4 996 86 10000 6.2 240 04:38 29.01.2020
16 Clouds 4 996 93 10000 7.2 240 03:59 29.01.2020
17 Clouds 3 995 86 10000 7.2 240 02:34 29.01.2020
18 Clouds 3 994 94 0 2.68 255 01:18 29.01.2020
19 Rain 3 995 93 10000 6.2 240 00:39 29.01.2020
20 Rain 3 995 93 10000 5.1 250 00:20 29.01.2020
21 Clouds 3 995 93 0 5.1 250 23:40 28.01.2020
22 Rain 3 995 93 10000 6.2 260 23:19 28.01.2020
23 Rain 3 994 80 10000 9.8 250 22:51 28.01.2020
24 Clouds 3 994 80 10000 8.7 250 22:27 28.01.2020
25 Clouds 4 994 80 10000 9.8 250 21:58 28.01.2020
26 Clouds 4 994 80 10000 9.8 250 21:39 28.01.2020
27 Clouds 4 993 80 10000 9.3 250 21:20 28.01.2020
28 Clouds 4 993 80 10000 10.8 250 20:46 28.01.2020
29 Clouds 4 993 80 10000 9.3 250 20:27 28.01.2020
30 Clouds 4 992 86 10000 10.3 250 19:58 28.01.2020
31 Clouds 4 992 86 10000 10.3 250 19:38 28.01.2020
32 Rain 4 992 86 10000 12.3 250 19:19 28.01.2020
33 Rain 4 992 86 10000 12.3 250 19:19 28.01.2020
34 Rain 4 991 86 10000 12.9 250 18:54 28.01.2020
35 Rain 4 991 86 10000 11.3 250 18:36 28.01.2020
36 Rain 4 991 86 10000 11.3 250 18:18 28.01.2020
37 Rain 4 990 86 10000 10.3 240 17:55 28.01.2020
38 Rain 4 990 86 10000 10.8 240 17:36 28.01.2020
39 Rain 4 990 86 10000 10.8 240 17:18 28.01.2020
40 Rain 4 989 86 10000 11.8 250 16:44 28.01.2020
41 Rain 4 989 86 10000 12.3 250 16:26 28.01.2020
42 Rain 4 988 86 10000 13.4 240 15:59 28.01.2020
43 Rain 4 988 86 10000 13.4 240 15:40 28.01.2020
44 Rain 5 987 86 10000 10.8 230 15:18 28.01.2020
45 Rain 5 987 86 10000 9.3 230 14:44 28.01.2020
46 Rain 5 987 86 10000 9.3 230 14:20 28.01.2020
47 Rain 5 987 86 10000 8.7 230 13:43 28.01.2020
48 Rain 5 987 81 10000 9.8 220 13:25 28.01.2020
49 Rain 6 987 87 10000 7.2 220 12:58 28.01.2020
50 Rain 6 987 87 10000 7.2 220 12:40 28.01.2020
51 Rain 6 987 87 10000 7.7 200 12:22 28.01.2020
52 Clouds 6 987 87 10000 5.7 190 11:42 28.01.2020
53 Clouds 6 987 87 10000 5.1 180 11:22 28.01.2020
54 Clouds 6 987 87 10000 4.6 180 10:55 28.01.2020
55 Clouds 6 988 87 10000 5.7 190 10:37 28.01.2020
56 Clouds 6 988 87 10000 5.7 190 10:18 28.01.2020
57 Clouds 6 988 87 10000 4.6 200 09:42 28.01.2020
58 Clouds 6 988 87 10000 5.7 200 09:20 28.01.2020
59 Clouds 6 989 87 10000 6.2 210 08:46 28.01.2020
60 Clouds 6 989 87 10000 6.7 210 08:26 28.01.2020
61 Clouds 6 989 87 10000 4.6 200 07:57 28.01.2020
62 Clouds 6 989 81 10000 3.1 200 07:36 28.01.2020
63 Clouds 6 989 81 10000 4.6 230 06:49 28.01.2020
64 Clouds 6 985 99 0 6.35 216 06:25 28.01.2020
65 Clouds 6 990 81 10000 6.7 230 05:53 28.01.2020
66 Rain 6 990 87 10000 6.2 210 05:25 28.01.2020
67 Rain 6 991 93 10000 6.7 150 03:59 28.01.2020
68 Rain 5 992 93 10000 4.6 140 02:58 28.01.2020
69 Clouds 6 993 93 10000 5.7 150 02:25 28.01.2020
70 Clouds 5 994 93 10000 5.7 150 01:57 28.01.2020
71 Clouds 5 995 93 10000 4.6 140 01:24 28.01.2020
72 Clouds 5 995 93 10000 4.1 140 00:48 28.01.2020
73 Clouds 5 996 93 10000 4.1 130 00:28 28.01.2020
74 Clouds 5 997 93 10000 3.6 150 23:49 27.01.2020
75 Clouds 5 997 93 10000 3.6 160 23:30 27.01.2020
76 Clouds 6 998 93 10000 4.1 170 22:56 27.01.2020
77 Clouds 6 998 93 10000 4.1 170 22:38 27.01.2020
78 Clouds 6 998 100 10000 3.6 150 22:18 27.01.2020
79 Clouds 7 999 93 10000 3.6 170 21:54 27.01.2020
80 Clouds 7 1000 93 10000 3.6 180 21:36 27.01.2020
81 Clouds 7 1000 93 10000 3.6 180 21:18 27.01.2020
82 Rain 7 1000 93 0 2.6 180 20:43 27.01.2020
83 Clouds 7 1001 100 10000 3.1 180 20:22 27.01.2020
84 Clouds 7 1001 100 9000 3.1 180 19:59 27.01.2020
85 Clouds 7 1001 100 9000 3.1 180 19:41 27.01.2020
86 Drizzle 7 1001 100 5000 3.6 180 19:22 27.01.2020
87 Drizzle 7 1002 100 6000 3.6 170 18:56 27.01.2020
88 Drizzle 7 1002 100 6000 3.6 170 18:38 27.01.2020
89 Drizzle 8 1002 100 4500 3.1 180 18:19 27.01.2020
90 Clouds 8 1002 93 8000 4.1 170 17:39 27.01.2020
91 Clouds 8 1003 93 10000 5.7 170 17:21 27.01.2020
92 Clouds 8 1003 93 10000 5.7 170 16:59 27.01.2020
93 Clouds 8 1003 93 10000 5.7 170 16:41 27.01.2020
94 Clouds 8 1003 81 10000 4.6 180 16:23 27.01.2020
95 Clouds 8 1004 81 10000 4.6 200 15:55 27.01.2020
96 Clouds 8 1004 81 10000 4.1 200 15:37 27.01.2020
97 Clouds 8 1004 81 10000 4.1 200 15:37 27.01.2020
98 Clouds 8 1004 81 10000 4.1 200 15:18 27.01.2020
99 Clouds 8 1004 87 10000 4.6 200 14:42 27.01.2020
100 Clouds 8 1005 93 10000 4.1 200 14:22 27.01.2020
101 Drizzle 8 1005 93 7000 4.6 200 13:58 27.01.2020
102 Drizzle 8 1005 93 7000 4.6 200 13:40 27.01.2020
103 Drizzle 8 1005 93 7000 4.6 200 13:20 27.01.2020
104 Drizzle 8 1006 87 6000 5.1 200 12:55 27.01.2020
105 Clouds 8 1006 87 6000 5.1 200 12:37 27.01.2020
106 Clouds 8 1006 87 6000 5.1 200 12:18 27.01.2020
107 Clouds 7 1006 93 7000 5.1 200 11:41 27.01.2020
108 Clouds 7 1006 93 6000 5.1 200 11:21 27.01.2020
109 Drizzle 7 1007 93 6000 5.7 200 10:43 27.01.2020
110 Clouds 7 1007 93 7000 5.1 200 10:25 27.01.2020
111 Clouds 7 1007 93 6000 5.1 200 09:57 27.01.2020
112 Clouds 7 1007 93 6000 5.1 200 09:38 27.01.2020
113 Drizzle 7 1007 93 5000 5.7 200 09:18 27.01.2020
114 Clouds 6 1007 93 8000 6.2 200 08:43 27.01.2020
115 Rain 6 1007 93 8000 5.1 190 08:22 27.01.2020
116 Rain 6 1007 93 8000 4.1 190 07:54 27.01.2020
117 Rain 6 1008 93 8000 5.1 190 07:35 27.01.2020
118 Rain 6 1008 93 10000 5.1 190 06:53 27.01.2020
119 Rain 6 1008 87 10000 5.1 180 06:27 27.01.2020
120 Rain 6 1009 87 10000 5.1 180 05:28 27.01.2020
121 Clouds 5 1010 86 10000 5.1 180 03:58 27.01.2020
122 Clouds 4 1010 93 10000 4.1 170 02:43 27.01.2020
123 Clouds 4 1011 86 10000 4.6 180 01:31 27.01.2020
124 Clouds 4 1011 93 10000 2.6 160 00:59 27.01.2020
125 Clouds 4 1012 93 10000 3.6 150 00:37 27.01.2020
126 Clouds 4 1012 93 10000 3.6 150 00:19 27.01.2020
127 Clouds 4 1012 93 10000 3.6 150 23:41 26.01.2020
128 Clouds 4 1012 93 10000 2.6 140 23:19 26.01.2020
129 Clouds 3 1012 86 10000 2.6 140 22:57 26.01.2020
130 Clouds 3 1013 93 10000 2.1 140 22:37 26.01.2020
131 Clouds 3 1013 93 10000 2.1 140 22:18 26.01.2020
132 Clouds 3 1013 93 0 2.6 150 21:56 26.01.2020
133 Clouds 2 1013 100 10000 2.6 140 21:38 26.01.2020
134 Clouds 3 1013 100 10000 2.6 140 21:19 26.01.2020
135 Clouds 3 1013 100 10000 2.6 140 21:19 26.01.2020
136 Clouds 3 1013 100 10000 2.6 140 20:56 26.01.2020
137 Clouds 3 1013 100 10000 2.6 140 20:38 26.01.2020
138 Clouds 3 1013 93 10000 2.6 140 20:18 26.01.2020
139 Clouds 3 1013 93 10000 3.1 150 19:57 26.01.2020
140 Clouds 3 1013 93 10000 3.1 140 19:37 26.01.2020
141 Clouds 3 1013 93 10000 3.1 140 19:18 26.01.2020
142 Clouds 3 1014 93 10000 2.6 140 18:54 26.01.2020
143 Clouds 3 1014 100 9000 3.1 140 18:36 26.01.2020
144 Clouds 3 1014 100 9000 3.1 140 18:18 26.01.2020
145 Clouds 3 1014 100 7000 3.1 130 17:54 26.01.2020
146 Clouds 4 1014 93 6000 3.6 130 17:36 26.01.2020
147 Clouds 4 1014 93 6000 3.6 130 17:18 26.01.2020
148 Mist 4 1014 93 5000 3.1 130 16:54 26.01.2020
149 Mist 4 1014 93 5000 3.6 150 16:36 26.01.2020
150 Mist 4 1014 93 5000 3.6 150 16:18 26.01.2020
151 Clouds 4 1014 97 0 1.34 136 15:41 26.01.2020
152 Clouds 4 1013 97 0 1.79 171 15:19 26.01.2020
153 Clouds 4 1011 99 0 3.24 166 14:41 26.01.2020
154 Clouds 4 1014 97 0 1.34 176 14:23 26.01.2020
155 Clouds 4 1014 97 0 0.89 155 13:59 26.01.2020
156 Clouds 4 1014 97 0 0.89 155 13:59 26.01.2020
157 Clouds 3 1014 97 0 1.34 170 13:38 26.01.2020
158 Clouds 3 1015 97 0 1.34 167 13:18 26.01.2020
159 Clouds 3 1014 99 0 1.34 139 12:43 26.01.2020
160 Clouds 3 1014 99 0 1.34 139 12:43 26.01.2020
161 Clouds 3 1012 99 0 3.84 177 12:25 26.01.2020
162 Clouds 2 1016 96 0 1.79 128 11:59 26.01.2020
163 Clouds 2 1013 99 0 3.84 177 11:40 26.01.2020
164 Mist 2 1018 100 1300 4.6 150 11:19 26.01.2020
165 Mist 2 1018 100 1300 4.6 150 10:59 26.01.2020
166 Mist 1 1018 100 1300 4.6 150 10:39 26.01.2020
167 Mist 1 1018 100 1300 4.6 150 10:21 26.01.2020
168 Mist 1 1018 100 1800 4.6 160 09:59 26.01.2020
169 Mist 1 1018 100 1800 4.6 160 09:41 26.01.2020
170 Mist 1 1018 78 2200 3.6 150 09:22 26.01.2020
171 Mist 1 1018 78 2800 4.1 140 08:55 26.01.2020
172 Mist 1 1018 78 3800 3.6 140 08:37 26.01.2020
173 Mist 1 1018 73 3800 3.6 140 08:18 26.01.2020
174 Mist 1 1018 73 5000 4.1 170 07:45 26.01.2020
175 Mist 1 1018 73 5000 4.1 160 07:22 26.01.2020
176 Clouds 1 1018 73 6000 3.6 160 06:32 26.01.2020
177 Clouds 1 1018 73 7000 3.6 180 05:37 26.01.2020
178 Clouds 1 1018 71 7000 3.1 170 04:58 26.01.2020
179 Clouds 1 1019 71 7000 2.1 180 02:59 26.01.2020
180 Clouds 1 1019 76 7000 1.5 160 01:59 26.01.2020
181 Clouds 1 1019 76 7000 1.5 160 01:39 26.01.2020
182 Clouds 1 1020 76 7000 1.5 150 01:19 26.01.2020
183 Clouds 0 1020 74 7000 2.1 150 00:39 26.01.2020
184 Clouds 0 1020 74 7000 2.1 190 00:20 26.01.2020
185 Clouds 1 1019 96 0 1.34 192 23:38 25.01.2020
186 Clouds 1 1019 100 0 1.34 194 23:20 25.01.2020
187 Clouds 1 1019 96 0 1.34 170 22:44 25.01.2020
188 Clouds 1 1019 96 0 1.34 181 22:21 25.01.2020
189 Clouds 1 1019 96 0 0.89 195 21:59 25.01.2020
190 Clouds 1 1019 96 0 0.89 195 21:59 25.01.2020
191 Clouds 1 1019 96 0 0.45 175 21:41 25.01.2020
192 Clouds 1 1019 96 0 0.89 161 21:22 25.01.2020
193 Clouds 1 1017 99 0 2.58 202 20:55 25.01.2020
194 Clouds 1 1017 99 0 2.58 202 20:36 25.01.2020
195 Clouds 0 1020 81 0 2.89 188 20:18 25.01.2020
196 Clouds 0 1020 81 0 2.89 188 19:42 25.01.2020
197 Clouds 2 1019 96 0 0.45 214 19:20 25.01.2020
198 Clouds 2 1019 96 0 0.45 214 18:57 25.01.2020
199 Clouds 2 1016 99 0 2.87 193 18:57 25.01.2020
200 Clouds 2 1019 96 0 0.89 217 18:38 25.01.2020
201 Clouds 2 1019 96 0 0.45 197 18:20 25.01.2020
202 Clouds 2 1016 99 0 2.87 193 17:42 25.01.2020
203 Clouds 2 1019 96 0 0.45 187 17:23 25.01.2020
204 Clouds 2 1019 96 0 0.45 201 16:58 25.01.2020
205 Clouds 2 1019 96 0 1.34 216 16:40 25.01.2020
206 Clouds 2 1016 99 0 1.68 218 16:21 25.01.2020
207 Clouds 3 1019 97 0 0.45 233 15:55 25.01.2020
208 Clouds 3 1016 99 0 1.68 218 15:37 25.01.2020
209 Clouds 3 1019 96 0 1.34 213 15:18 25.01.2020
210 Clouds 3 1017 99 0 1.68 218 14:41 25.01.2020
211 Clouds 3 1020 97 0 3.34 234 14:19 25.01.2020
212 Clouds 2 1020 97 0 0.89 238 13:43 25.01.2020
213 Clouds 2 1017 99 0 3.4 224 13:25 25.01.2020
214 Mist 2 1022 93 4500 4.1 230 12:50 25.01.2020
215 Mist 2 1022 93 4500 4.1 230 12:30 25.01.2020
216 Mist 2 1022 93 4500 4.1 230 11:57 25.01.2020
217 Mist 2 1022 93 4500 4.1 230 11:38 25.01.2020
218 Mist 2 1021 93 4000 4.6 220 11:19 25.01.2020
219 Mist 2 1021 93 3600 3.6 230 10:42 25.01.2020
220 Mist 2 1021 93 3400 3.6 220 10:21 25.01.2020
221 Mist 2 1021 93 3100 2.6 230 09:59 25.01.2020
222 Mist 2 1021 93 3100 2.6 230 09:38 25.01.2020
223 Mist 2 1021 93 3100 3.1 230 09:19 25.01.2020
224 Drizzle 1 1021 93 2500 3.1 220 08:42 25.01.2020
225 Drizzle 1 1021 93 2500 3.1 220 08:42 25.01.2020
226 Mist 1 1021 93 4800 3.1 220 07:54 25.01.2020
227 Mist 1 1020 93 4800 3.1 220 07:28 25.01.2020
228 Drizzle 1 1020 93 3500 3.6 220 06:31 25.01.2020
229 Drizzle 2 1020 93 4000 2.6 240 05:57 25.01.2020
230 Drizzle 2 1020 93 4000 2.6 240 05:38 25.01.2020
231 Clouds 2 1021 93 6000 2.1 240 03:58 25.01.2020
232 Clouds 2 1021 93 6000 2.1 240 03:39 25.01.2020
233 Drizzle 2 1021 93 4500 3.1 210 02:36 25.01.2020
234 Drizzle 1 1021 100 4500 3.1 230 01:57 25.01.2020
235 Drizzle 1 1021 100 4500 4.1 220 01:23 25.01.2020
236 Drizzle 1 1021 100 3500 4.1 220 00:39 25.01.2020
237 Drizzle 1 1021 100 3200 3.1 210 00:18 25.01.2020
238 Drizzle 1 1022 78 3800 3.1 220 23:42 24.01.2020
239 Drizzle 1 1022 78 3800 3.1 220 23:42 24.01.2020
240 Drizzle 1 1022 78 4000 3.6 230 23:24 24.01.2020
241 Mist 1 1022 73 5000 3.1 220 22:46 24.01.2020
242 Mist 1 1022 73 5000 3.6 230 22:28 24.01.2020
243 Mist 1 1022 73 4500 4.6 210 21:59 24.01.2020
244 Mist 1 1022 73 4500 4.6 210 21:40 24.01.2020
245 Drizzle 1 1022 73 4000 3.6 230 21:19 24.01.2020
246 Mist 1 1022 73 4000 5.1 210 20:44 24.01.2020
247 Drizzle 1 1022 73 4000 4.6 220 20:22 24.01.2020
248 Mist 1 1022 93 5000 3.6 220 19:59 24.01.2020
249 Mist 2 1022 93 5000 3.6 220 19:40 24.01.2020
250 Mist 2 1022 93 4500 3.1 210 19:22 24.01.2020
251 Mist 1 1022 93 4200 3.1 240 18:57 24.01.2020
252 Mist 2 1022 93 4200 3.1 240 18:39 24.01.2020
253 Mist 2 1021 93 4200 3.6 220 18:21 24.01.2020
254 Drizzle 2 1022 93 2500 3.6 220 17:42 24.01.2020
255 Drizzle 2 1021 93 2000 3.6 220 17:21 24.01.2020
256 Mist 2 1021 93 4000 3.6 210 16:57 24.01.2020
257 Mist 2 1021 93 4000 3.6 210 16:38 24.01.2020
258 Mist 2 1021 93 4200 4.6 220 16:18 24.01.2020
259 Mist 2 1021 93 3800 4.6 240 15:41 24.01.2020
260 Mist 2 1021 93 2800 5.7 220 15:21 24.01.2020
261 Drizzle 2 1021 100 2000 4.6 210 14:42 24.01.2020
262 Mist 2 1022 100 2200 4.6 230 14:24 24.01.2020
263 Mist 2 1022 93 2200 5.1 220 13:59 24.01.2020
264 Mist 2 1022 93 2200 5.1 220 13:40 24.01.2020
265 Mist 2 1022 93 2200 4.6 230 13:21 24.01.2020
266 Mist 1 1022 93 2200 4.6 220 12:42 24.01.2020
267 Mist 1 1023 100 1800 4.6 220 12:20 24.01.2020
268 Mist 1 1022 100 1400 4.1 210 11:45 24.01.2020
269 Drizzle 1 1023 100 1300 3.6 220 11:19 24.01.2020
270 Drizzle 1 1023 100 1300 3.6 220 11:19 24.01.2020
271 Drizzle 1 1023 100 1300 3.1 230 10:58 24.01.2020
272 Drizzle 1 1023 100 1300 3.1 230 10:40 24.01.2020
273 Drizzle 1 1023 100 1500 2.6 230 10:19 24.01.2020
274 Mist 0 1023 86 1900 2.1 260 09:41 24.01.2020
275 Mist 0 1023 86 1500 2.1 270 09:23 24.01.2020
276 Drizzle 0 1023 86 1100 2.6 280 08:41 24.01.2020
277 Drizzle 0 1023 86 1100 2.6 280 08:41 24.01.2020
278 Fog 0 1023 92 500 2.1 240 08:21 24.01.2020
279 Fog 0 1023 92 450 2.6 230 07:58 24.01.2020
280 Fog 0 1023 92 450 2.6 230 07:39 24.01.2020
281 Fog 0 1023 100 200 1.5 210 06:54 24.01.2020
282 Fog 0 1023 100 200 1.5 200 06:33 24.01.2020
283 Fog 0 1023 100 200 2.1 280 05:59 24.01.2020
284 Fog -1 1023 100 200 2.1 250 05:18 24.01.2020
285 Fog -1 1025 100 200 1.5 290 02:54 24.01.2020
286 Fog -1 1025 100 300 2.1 300 02:27 24.01.2020
287 Fog -1 1026 100 700 2.6 290 01:56 24.01.2020
288 Fog -1 1026 92 700 1.5 290 01:35 24.01.2020
289 Clear -1 1026 100 6000 2.1 310 00:39 24.01.2020
290 Clear 0 1025 91 0 1.61 205 23:58 23.01.2020
291 Clear 0 1025 91 0 1.61 205 23:58 23.01.2020
292 Mist 0 1026 100 2300 2.1 300 23:40 23.01.2020
293 Fog 0 1027 100 300 1 270 23:21 23.01.2020
294 Clear 0 1027 92 6000 0.5 0 22:58 23.01.2020
295 Clouds 0 1027 100 8000 1.24 219 22:36 23.01.2020
296 Clouds 0 1027 100 8000 1.24 219 22:18 23.01.2020
297 Clouds 1 1028 91 8000 1 290 21:55 23.01.2020
298 Clear 1 1028 91 10000 1 220 21:37 23.01.2020
299 Clear 1 1028 91 10000 1 220 21:18 23.01.2020
300 Clouds 1 1028 91 10000 1.5 240 20:41 23.01.2020
301 Clouds 1 1028 92 10000 1 180 20:22 23.01.2020
302 Clouds 2 1028 93 10000 0.5 160 19:57 23.01.2020
303 Clouds 2 1028 93 10000 0.5 160 19:39 23.01.2020
304 Clouds 2 1028 93 10000 0.5 160 19:39 23.01.2020
305 Clear 2 1029 93 10000 0.5 180 19:21 23.01.2020
306 Clouds 2 1029 93 10000 1 180 18:57 23.01.2020
307 Clouds 2 1029 93 10000 1 180 18:38 23.01.2020
308 Clouds 3 1029 86 10000 1 190 18:19 23.01.2020
309 Clouds 3 1029 86 10000 1.5 270 17:55 23.01.2020
310 Clouds 4 1029 80 10000 2.1 240 17:37 23.01.2020
311 Clouds 4 1029 80 10000 2.1 240 17:18 23.01.2020
312 Clouds 5 1029 80 10000 2.6 220 16:39 23.01.2020
313 Clouds 6 1030 75 10000 3.1 210 16:20 23.01.2020
314 Clouds 6 1030 75 10000 3.1 210 16:20 23.01.2020
315 Clouds 5 1030 80 10000 2.6 230 15:58 23.01.2020
316 Clouds 6 1030 80 10000 2.6 230 15:39 23.01.2020
317 Clouds 6 1030 75 10000 3.1 240 15:19 23.01.2020
318 Clouds 6 1031 65 10000 3.6 220 14:58 23.01.2020
319 Clouds 6 1031 65 10000 3.6 220 14:40 23.01.2020
320 Clouds 6 1031 70 10000 3.6 240 14:22 23.01.2020
321 Clouds 6 1031 70 10000 3.6 220 13:56 23.01.2020
322 Clouds 6 1032 70 10000 3.6 220 13:37 23.01.2020
323 Clouds 6 1032 70 10000 3.6 220 13:18 23.01.2020
324 Clear 6 1032 70 10000 3.1 200 12:43 23.01.2020
325 Clouds 6 1033 87 10000 2.1 220 12:24 23.01.2020
326 Clouds 5 1033 86 10000 1 220 11:56 23.01.2020
327 Clouds 5 1033 86 10000 1 220 11:37 23.01.2020
328 Clouds 5 1033 86 10000 1 220 11:37 23.01.2020
329 Clouds 4 1033 93 10000 1.5 220 11:18 23.01.2020
330 Clouds 4 1033 93 10000 1.5 220 11:18 23.01.2020
331 Clouds 4 1034 93 10000 1.5 250 10:43 23.01.2020
332 Clouds 4 1034 93 10000 1 0 10:19 23.01.2020
333 Clouds 3 1034 100 10000 0.5 190 09:43 23.01.2020
334 Clouds 3 1034 100 10000 1 0 09:25 23.01.2020
335 Fog 3 1034 100 10000 1.5 190 08:59 23.01.2020
336 Fog 2 1034 100 10000 1.5 190 08:40 23.01.2020
337 Clouds 3 1034 100 10000 1 230 08:22 23.01.2020
338 Clouds 3 1034 100 10000 0.5 0 07:45 23.01.2020
339 Clouds 3 1034 93 10000 1 0 07:26 23.01.2020
340 Clouds 3 1034 93 10000 0.5 0 06:51 23.01.2020
341 Clouds 4 1034 93 10000 0.5 0 06:22 23.01.2020
342 Clouds 4 1034 93 10000 0.5 0 05:44 23.01.2020
343 Clouds 4 1035 93 10000 0.5 0 04:24 23.01.2020
344 Clouds 4 1035 93 10000 1 0 02:34 23.01.2020
345 Clouds 4 1036 93 10000 1.5 0 01:32 23.01.2020
346 Clouds 3 1036 100 10000 1 0 00:27 23.01.2020
347 Clouds 3 1036 100 10000 2.1 240 23:48 22.01.2020
348 Clouds 3 1036 100 10000 1.5 240 23:30 22.01.2020
349 Fog 3 1035 100 10000 1.5 260 22:59 22.01.2020
350 Fog 3 1035 100 10000 1.5 260 22:40 22.01.2020
351 Fog 3 1035 100 1800 1.5 250 22:22 22.01.2020
352 Fog 3 1035 100 10000 1.5 250 21:40 22.01.2020
353 Clouds 3 1035 100 10000 2.6 280 21:22 22.01.2020
354 Clouds 3 1035 100 10000 2.1 280 20:57 22.01.2020
355 Clouds 3 1035 100 10000 2.1 280 20:39 22.01.2020
356 Clouds 4 1035 100 10000 2.6 300 20:21 22.01.2020
357 Clouds 4 1035 93 10000 2.6 280 19:57 22.01.2020
358 Clouds 4 1035 93 10000 2.6 280 19:38 22.01.2020
359 Clouds 5 1035 93 10000 2.1 290 19:18 22.01.2020
360 Clouds 5 1035 93 10000 2.6 280 18:56 22.01.2020
361 Clouds 5 1035 93 10000 2.6 280 18:38 22.01.2020
362 Clouds 5 1033 91 0 2.52 317 18:19 22.01.2020
363 Clouds 5 1033 90 0 2.52 317 17:54 22.01.2020
364 Clouds 6 1033 81 10000 3.6 330 17:36 22.01.2020
365 Clouds 6 1033 81 10000 3.6 330 17:18 22.01.2020
366 Clouds 6 1033 81 10000 3.6 330 17:18 22.01.2020
367 Clouds 7 1033 81 10000 3.6 320 16:43 22.01.2020
368 Clouds 7 1033 75 10000 4.1 330 16:23 22.01.2020
369 Clouds 7 1033 75 10000 4.6 320 15:58 22.01.2020
370 Clouds 7 1033 75 10000 4.6 320 15:39 22.01.2020
371 Clouds 7 1034 81 10000 3.1 310 15:21 22.01.2020
372 Clouds 7 1034 87 10000 5.1 320 14:56 22.01.2020
373 Clouds 7 1034 87 10000 3.1 310 14:36 22.01.2020
374 Clouds 7 1034 87 10000 3.1 310 14:18 22.01.2020
375 Clouds 7 1034 93 10000 4.1 310 13:54 22.01.2020
376 Drizzle 7 1034 93 6000 4.6 290 13:36 22.01.2020
377 Drizzle 6 1034 93 6000 4.6 290 13:18 22.01.2020
378 Clouds 6 1034 93 6000 3.6 280 12:54 22.01.2020
379 Drizzle 6 1034 100 4200 3.6 280 12:36 22.01.2020
380 Drizzle 6 1034 100 4200 3.6 280 12:18 22.01.2020
381 Drizzle 6 1034 100 3600 3.6 290 11:54 22.01.2020
382 Drizzle 6 1034 100 2300 4.1 280 11:36 22.01.2020
383 Drizzle 5 1034 100 2300 4.1 280 11:18 22.01.2020
384 Drizzle 5 1034 93 3600 3.6 270 10:42 22.01.2020
385 Drizzle 5 1034 100 1800 3.6 260 10:19 22.01.2020
386 Drizzle 5 1034 100 1400 3.1 280 09:43 22.01.2020
387 Mist 4 1034 93 2000 3.1 270 09:24 22.01.2020
388 Mist 4 1033 100 2300 3.6 260 08:57 22.01.2020
389 Mist 4 1033 100 2300 3.6 260 08:57 22.01.2020
390 Mist 4 1033 100 2300 3.6 260 08:39 22.01.2020
391 Mist 4 1033 100 4000 4.1 270 08:21 22.01.2020
392 Drizzle 4 1033 100 4000 4.1 270 07:54 22.01.2020
393 Mist 4 1033 100 4000 4.1 260 07:36 22.01.2020
394 Mist 4 1033 100 4000 4.1 260 07:18 22.01.2020
395 Drizzle 4 1033 93 2800 4.1 250 06:30 22.01.2020
396 Drizzle 4 1033 93 3500 4.1 260 05:41 22.01.2020
397 Clouds 4 1035 93 10000 4.1 250 04:18 22.01.2020
398 Clouds 4 1035 93 10000 4.1 260 03:22 22.01.2020
399 Clouds 4 1036 93 10000 4.1 250 01:44 22.01.2020
400 Clouds 4 1036 93 10000 3.1 250 00:44 22.01.2020
401 Clouds 4 1036 86 10000 3.6 240 00:26 22.01.2020
402 Clouds 4 1036 86 10000 3.1 240 23:39 21.01.2020
403 Clouds 4 1036 93 10000 3.1 250 23:21 21.01.2020
404 Clouds 4 1037 93 10000 3.1 260 22:59 21.01.2020
405 Clouds 4 1037 93 10000 3.1 260 22:39 21.01.2020
406 Clouds 4 1037 86 10000 3.1 260 22:20 21.01.2020
407 Clouds 4 1037 86 10000 3.6 240 21:56 21.01.2020
408 Clouds 4 1037 86 10000 4.1 240 21:37 21.01.2020
409 Clouds 4 1037 86 10000 4.1 240 21:19 21.01.2020
410 Clouds 4 1037 86 10000 3.1 240 20:55 21.01.2020
411 Clouds 4 1038 93 10000 2.6 250 20:37 21.01.2020
412 Clouds 4 1038 93 10000 2.6 250 20:18 21.01.2020
413 Clouds 4 1038 93 10000 2.6 250 20:18 21.01.2020
414 Clouds 4 1038 93 10000 2.1 240 19:55 21.01.2020
415 Clouds 3 1037 93 10000 1 0 19:37 21.01.2020
416 Clouds 3 1037 93 10000 1 0 19:19 21.01.2020
417 Clouds 3 1037 93 9000 2.6 210 18:55 21.01.2020
418 Clouds 3 1037 86 9000 2.6 240 18:36 21.01.2020
419 Clouds 3 1037 86 9000 2.6 240 18:18 21.01.2020
420 Clouds 4 1038 86 10000 4.1 260 17:43 21.01.2020
421 Clouds 4 1038 86 10000 4.1 260 17:20 21.01.2020
422 Clouds 5 1039 80 10000 4.6 280 16:58 21.01.2020
423 Clouds 5 1039 80 10000 5.1 300 16:37 21.01.2020
424 Clouds 5 1039 80 10000 5.1 300 16:18 21.01.2020
425 Clouds 5 1039 75 10000 5.7 310 15:42 21.01.2020
426 Clouds 6 1039 75 10000 4.6 260 15:21 21.01.2020
427 Clouds 6 1039 81 10000 5.7 270 14:59 21.01.2020
428 Clouds 6 1040 75 10000 4.6 260 14:38 21.01.2020
429 Clouds 6 1040 75 10000 4.6 260 14:19 21.01.2020
430 Clouds 6 1040 75 10000 5.1 250 13:40 21.01.2020
431 Clouds 6 1040 75 10000 5.7 270 13:19 21.01.2020
432 Clear 5 1041 75 10000 6.2 270 12:44 21.01.2020
433 Clear 5 1040 80 10000 4.6 250 12:25 21.01.2020
434 Clear 4 1041 80 10000 3.6 240 11:58 21.01.2020
435 Clear 4 1041 80 10000 3.6 240 11:40 21.01.2020
436 Clear 4 1041 86 10000 3.6 240 11:21 21.01.2020
437 Clear 3 1041 86 10000 3.6 240 10:55 21.01.2020
438 Clear 3 1041 93 8000 3.6 250 10:37 21.01.2020
439 Clear 2 1041 93 8000 3.6 250 10:18 21.01.2020
440 Clear 1 1041 84 7000 3.1 240 09:41 21.01.2020
441 Clear 1 1041 84 6000 3.6 240 09:22 21.01.2020
442 Clear 1 1041 84 6000 4.6 230 08:50 21.01.2020
443 Clouds 1 1041 100 6000 4.1 230 08:30 21.01.2020
444 Mist 1 1041 90 4000 3.1 230 07:59 21.01.2020
445 Mist 2 1041 90 4000 3.1 230 07:40 21.01.2020
446 Mist 2 1041 90 4000 3.1 230 07:40 21.01.2020
447 Mist 2 1041 100 3000 3.6 220 07:21 21.01.2020
448 Clouds 2 1041 100 10000 4.1 230 06:49 21.01.2020
449 Clouds 2 1041 93 7000 4.1 220 06:29 21.01.2020
450 Mist 2 1041 100 4800 4.1 230 05:42 21.01.2020
451 Mist 2 1041 100 4500 4.1 230 04:40 21.01.2020
452 Clear 3 1042 93 10000 3.6 230 02:56 21.01.2020
453 Clouds 3 1043 93 10000 3.6 220 01:55 21.01.2020
454 Clouds 4 1043 93 10000 3.6 220 01:18 21.01.2020
455 Clouds 4 1043 93 10000 3.6 220 00:37 21.01.2020
456 Clouds 4 1044 93 10000 3.6 230 23:59 20.01.2020
457 Clouds 4 1044 93 10000 3.6 230 23:41 20.01.2020
458 Clouds 4 1044 93 10000 3.1 220 23:19 20.01.2020
459 Clouds 4 1044 93 10000 3.1 230 22:58 20.01.2020
460 Clouds 4 1044 93 10000 3.1 230 22:38 20.01.2020
461 Clouds 4 1044 93 10000 3.6 230 22:20 20.01.2020
462 Clouds 4 1044 93 10000 3.6 230 22:20 20.01.2020
463 Clouds 5 1044 93 10000 3.6 220 21:58 20.01.2020
464 Clouds 4 1044 86 10000 3.6 220 21:37 20.01.2020
465 Clouds 4 1044 86 10000 3.6 220 21:19 20.01.2020
466 Clouds 5 1044 93 10000 3.6 210 20:56 20.01.2020
467 Clouds 5 1044 93 10000 3.6 210 20:38 20.01.2020
468 Clouds 4 1045 93 10000 3.1 220 20:18 20.01.2020
469 Clouds 5 1045 93 10000 3.1 240 19:56 20.01.2020
470 Clouds 5 1045 93 10000 3.1 240 19:38 20.01.2020
471 Clouds 5 1045 93 10000 3.6 230 19:18 20.01.2020
472 Clouds 5 1045 93 10000 3.6 220 18:44 20.01.2020
473 Clouds 5 1045 93 10000 4.1 220 18:23 20.01.2020
474 Clouds 5 1045 87 10000 3.6 220 17:58 20.01.2020
475 Clouds 6 1045 87 10000 3.6 220 17:36 20.01.2020
476 Clouds 6 1045 87 10000 3.6 220 17:36 20.01.2020
477 Clouds 6 1045 87 10000 3.6 220 17:18 20.01.2020
478 Clouds 6 1045 87 10000 3.6 230 16:43 20.01.2020
479 Clouds 6 1045 87 10000 3.6 230 16:25 20.01.2020
480 Clouds 6 1045 87 10000 4.1 230 15:58 20.01.2020
481 Clouds 6 1045 87 10000 4.1 230 15:39 20.01.2020
482 Clouds 6 1045 93 10000 4.1 230 15:21 20.01.2020
483 Clouds 6 1045 93 10000 3.6 230 14:44 20.01.2020
484 Clouds 6 1046 93 10000 3.6 230 14:25 20.01.2020
485 Clouds 6 1046 87 10000 3.6 220 13:59 20.01.2020
486 Clouds 6 1046 87 10000 3.6 220 13:40 20.01.2020
487 Clouds 6 1046 87 10000 3.1 220 13:22 20.01.2020
488 Clouds 6 1046 87 10000 3.1 220 12:48 20.01.2020
489 Clouds 6 1047 93 10000 3.1 230 12:29 20.01.2020
490 Clouds 5 1047 93 10000 2.6 230 11:59 20.01.2020
491 Clouds 5 1047 93 10000 2.6 230 11:40 20.01.2020
492 Clouds 5 1047 93 10000 2.1 250 11:22 20.01.2020
493 Clouds 5 1046 100 9000 1.5 230 10:57 20.01.2020
494 Clouds 4 1046 100 9000 1.5 230 10:39 20.01.2020
495 Clouds 4 1046 100 8000 1.5 230 10:19 20.01.2020
496 Clouds 4 1046 100 8000 1 0 09:41 20.01.2020
497 Clouds 4 1046 100 8000 1 0 09:41 20.01.2020
498 Clouds 4 1046 100 8000 1.5 260 09:22 20.01.2020
499 Clouds 3 1046 100 8000 2.1 280 08:51 20.01.2020
500 Clouds 3 1045 100 7000 1.5 260 08:31 20.01.2020
501 Mist 3 1045 100 4500 1 230 07:55 20.01.2020
502 Mist 3 1045 100 1500 1.5 220 07:31 20.01.2020
503 Mist 3 1045 93 1800 1 260 06:59 20.01.2020
504 Mist 3 1045 93 1800 1 260 06:59 20.01.2020
505 Mist 3 1045 100 2500 1.5 220 06:34 20.01.2020
506 Mist 3 1045 93 4500 2.1 230 05:56 20.01.2020
507 Mist 3 1045 100 4500 2.1 250 05:37 20.01.2020
508 Mist 3 1045 100 4500 2.1 250 05:18 20.01.2020
509 Clouds 3 1045 100 8000 1.5 260 03:46 20.01.2020
510 Clouds 3 1044 100 10000 2.6 300 01:58 20.01.2020
511 Clouds 3 1044 100 10000 2.6 300 01:38 20.01.2020
512 Clouds 3 1044 93 7000 1.5 280 00:46 20.01.2020
513 Clouds 3 1044 100 8000 1.5 270 00:27 20.01.2020
514 Clouds 3 1044 93 10000 3.1 300 23:55 19.01.2020
515 Clouds 3 1043 100 10000 2.1 300 23:36 19.01.2020
516 Clouds 3 1043 100 10000 2.1 300 23:18 19.01.2020
517 Clouds 3 1043 93 10000 3.1 300 22:54 19.01.2020
518 Clouds 3 1043 93 10000 2.6 300 22:36 19.01.2020
519 Clouds 3 1043 93 10000 2.6 300 22:18 19.01.2020
520 Clouds 3 1043 93 10000 2.6 300 21:55 19.01.2020
521 Clouds 3 1043 93 10000 2.6 300 21:55 19.01.2020
522 Clouds 4 1042 93 10000 3.6 300 21:36 19.01.2020
523 Clouds 4 1042 93 10000 3.6 300 21:36 19.01.2020
524 Clouds 4 1042 93 10000 3.6 300 21:18 19.01.2020
525 Clouds 4 1042 93 10000 3.6 300 20:55 19.01.2020
526 Clouds 4 1041 93 10000 4.1 310 20:37 19.01.2020
527 Clouds 4 1041 93 10000 4.1 310 20:18 19.01.2020
528 Clouds 4 1041 86 10000 3.6 310 19:54 19.01.2020
529 Clouds 4 1040 86 10000 2.6 300 19:36 19.01.2020
530 Clouds 4 1040 86 10000 2.6 300 19:18 19.01.2020
531 Clouds 5 1040 86 10000 4.6 310 18:55 19.01.2020
532 Clouds 5 1040 81 10000 4.1 310 18:36 19.01.2020
533 Clouds 5 1040 81 10000 4.1 310 18:18 19.01.2020
534 Clouds 5 1039 75 10000 5.1 320 17:56 19.01.2020
535 Clouds 5 1039 75 10000 5.1 320 17:38 19.01.2020
536 Clear 5 1039 84 0 0.89 333 17:18 19.01.2020
537 Clouds 6 1039 70 10000 4.6 320 16:55 19.01.2020
538 Clouds 6 1038 70 10000 5.1 320 16:36 19.01.2020
539 Clouds 6 1038 70 10000 5.1 320 16:18 19.01.2020
540 Clouds 7 1038 65 10000 6.2 340 15:55 19.01.2020
541 Clouds 7 1037 65 10000 5.7 340 15:36 19.01.2020
542 Clouds 7 1037 65 10000 5.7 340 15:18 19.01.2020
543 Clouds 7 1037 65 10000 5.7 340 15:18 19.01.2020
544 Clouds 7 1037 70 10000 4.6 330 14:41 19.01.2020
545 Clouds 7 1037 70 10000 5.1 320 14:21 19.01.2020
546 Clouds 7 1037 75 10000 5.1 330 13:59 19.01.2020
547 Clouds 7 1037 75 10000 5.1 330 13:40 19.01.2020
548 Clouds 7 1036 81 10000 3.6 310 13:22 19.01.2020
549 Clouds 7 1036 81 10000 3.6 310 13:22 19.01.2020
550 Clouds 7 1036 87 10000 3.6 300 12:59 19.01.2020
551 Clouds 7 1036 87 10000 3.6 300 12:41 19.01.2020
552 Clouds 6 1036 93 10000 3.6 300 12:21 19.01.2020
553 Clouds 6 1035 93 10000 3.1 290 11:57 19.01.2020
554 Clouds 5 1035 93 10000 3.1 290 11:38 19.01.2020
555 Clouds 4 1035 93 10000 2.6 280 11:18 19.01.2020
556 Clouds 3 1035 93 10000 3.1 300 10:41 19.01.2020
557 Clouds 3 1034 100 10000 3.6 290 10:21 19.01.2020
558 Clouds 2 1034 100 10000 2.6 280 09:58 19.01.2020
559 Clouds 2 1034 100 10000 2.6 280 09:39 19.01.2020
560 Clouds 2 1033 100 10000 1.5 270 09:21 19.01.2020
561 Clouds 2 1032 100 10000 1.5 270 08:56 19.01.2020
562 Clouds 1 1032 100 10000 1.5 270 08:38 19.01.2020
563 Clouds 1 1031 100 10000 2.1 260 08:19 19.01.2020
564 Clouds 1 1031 93 10000 2.1 250 07:30 19.01.2020
565 Clouds 1 1030 93 10000 1.5 260 06:56 19.01.2020
566 Clouds 1 1030 93 10000 2.6 240 06:25 19.01.2020
567 Clear 1 1028 95 0 3.5 272 04:41 19.01.2020
568 Clouds 2 1027 100 10000 3.1 260 02:37 19.01.2020
569 Clouds 2 1027 100 10000 3.1 260 02:19 19.01.2020
570 Clouds 2 1027 93 10000 3.6 260 01:24 19.01.2020
571 Clouds 2 1027 93 10000 3.6 260 01:24 19.01.2020
572 Clouds 2 1026 93 10000 2.6 270 00:45 19.01.2020
573 Clouds 3 1026 100 10000 3.1 260 00:27 19.01.2020
574 Clouds 3 1026 100 10000 3.1 260 23:55 18.01.2020
575 Clouds 3 1026 93 10000 3.1 270 23:37 18.01.2020
576 Clouds 3 1026 93 10000 3.1 270 23:18 18.01.2020
577 Clouds 3 1025 100 10000 4.1 260 22:54 18.01.2020
578 Clouds 3 1025 93 10000 3.6 270 22:36 18.01.2020
579 Clouds 3 1025 93 10000 3.6 270 22:18 18.01.2020
580 Clouds 3 1025 93 10000 4.1 260 21:56 18.01.2020
581 Clouds 3 1025 93 10000 4.6 260 21:36 18.01.2020
582 Clouds 3 1025 93 10000 4.6 260 21:18 18.01.2020
583 Clouds 3 1025 100 10000 3.1 260 20:42 18.01.2020
584 Clouds 3 1024 93 10000 2.1 250 20:20 18.01.2020
585 Clouds 3 1024 93 10000 3.1 230 19:55 18.01.2020
586 Rain 3 1020 99 0 4.97 252 19:37 18.01.2020
587 Rain 3 1020 99 0 4.97 252 19:37 18.01.2020
588 Rain 4 1023 93 0 0.89 263 19:19 18.01.2020
589 Clouds 4 1023 93 10000 2.1 240 18:42 18.01.2020
590 Clouds 4 1023 93 10000 2.1 220 18:21 18.01.2020
591 Rain 4 1022 93 0 1.34 236 17:55 18.01.2020
592 Rain 4 1022 93 8000 3.1 280 17:37 18.01.2020
593 Rain 4 1022 93 8000 3.1 280 17:18 18.01.2020
594 Rain 5 1022 86 8000 3.6 310 16:42 18.01.2020
595 Clouds 5 1022 86 10000 3.6 250 16:24 18.01.2020
596 Rain 5 1021 86 10000 5.7 260 15:59 18.01.2020
597 Rain 5 1021 86 10000 5.7 260 15:41 18.01.2020
598 Rain 5 1021 86 10000 5.7 250 15:22 18.01.2020
599 Clouds 5 1021 86 10000 6.2 240 14:55 18.01.2020
600 Clouds 6 1021 81 10000 7.7 240 14:37 18.01.2020
601 Clouds 6 1021 81 10000 7.7 240 14:18 18.01.2020
602 Clouds 6 1021 81 10000 7.7 240 13:43 18.01.2020
603 Rain 6 1021 81 10000 8.7 240 13:24 18.01.2020
604 Clouds 5 1021 81 10000 7.7 230 12:57 18.01.2020
605 Clouds 5 1021 81 10000 7.7 230 12:38 18.01.2020
606 Clouds 5 1021 80 10000 7.7 230 12:19 18.01.2020
607 Clouds 5 1021 86 10000 7.2 230 11:44 18.01.2020
608 Clouds 5 1021 80 10000 7.7 230 11:21 18.01.2020
609 Clouds 5 1021 80 10000 7.7 230 11:21 18.01.2020
610 Clouds 5 1020 86 10000 7.7 230 10:57 18.01.2020
611 Clouds 4 1020 86 10000 7.7 230 10:38 18.01.2020
612 Clouds 4 1020 86 10000 5.7 230 10:19 18.01.2020
613 Clouds 4 1020 93 10000 5.7 230 09:43 18.01.2020
614 Clouds 4 1020 93 10000 6.2 220 09:24 18.01.2020
615 Clouds 3 1020 93 10000 5.1 220 08:55 18.01.2020
616 Clouds 3 1019 93 10000 5.7 230 08:37 18.01.2020
617 Clouds 3 1019 93 10000 5.7 230 08:18 18.01.2020
618 Clouds 4 1019 86 10000 4.6 220 07:45 18.01.2020
619 Clouds 4 1019 86 10000 4.6 210 07:26 18.01.2020
620 Clouds 4 1019 86 10000 4.6 210 06:47 18.01.2020
621 Clouds 4 1019 86 10000 4.6 210 06:47 18.01.2020
622 Clouds 4 1018 86 10000 5.1 220 05:59 18.01.2020
623 Clouds 4 1018 86 10000 5.7 230 05:19 18.01.2020
624 Drizzle 6 1017 75 10000 8.2 240 02:55 18.01.2020
625 Clouds 6 1016 75 10000 9.8 250 01:52 18.01.2020
626 Clouds 6 1016 75 10000 8.7 250 01:30 18.01.2020
627 Clouds 7 1015 75 10000 6.2 240 00:37 18.01.2020
628 Clouds 7 1015 75 10000 6.2 240 00:18 18.01.2020
629 Clouds 7 1014 81 10000 7.2 250 23:41 17.01.2020
630 Clouds 7 1014 87 10000 6.2 240 23:20 17.01.2020
631 Clouds 8 1014 87 10000 6.2 230 22:45 17.01.2020
632 Clouds 8 1014 93 10000 4.1 210 22:22 17.01.2020
633 Clouds 8 1013 93 10000 4.6 220 21:59 17.01.2020
634 Clouds 8 1013 93 10000 4.6 220 21:41 17.01.2020
635 Clouds 8 1013 93 10000 5.1 240 21:22 17.01.2020
636 Rain 8 1013 100 4500 5.1 220 20:58 17.01.2020
637 Rain 8 1013 100 4500 5.1 220 20:38 17.01.2020
638 Clouds 8 1013 93 10000 4.6 220 20:20 17.01.2020
639 Rain 8 1013 93 8000 4.6 220 19:55 17.01.2020
640 Rain 8 1013 93 8000 4.6 220 19:55 17.01.2020
641 Rain 8 1013 93 8000 4.6 210 19:37 17.01.2020
642 Rain 8 1013 93 8000 4.6 210 19:19 17.01.2020
643 Rain 8 1013 93 10000 3.6 210 18:56 17.01.2020
644 Rain 8 1013 93 10000 3.6 210 18:56 17.01.2020
645 Rain 8 1013 93 10000 4.1 210 18:36 17.01.2020
646 Rain 8 1013 93 10000 4.1 210 18:18 17.01.2020
647 Rain 9 1013 81 10000 6.2 220 17:39 17.01.2020
648 Rain 9 1013 76 10000 4.1 220 17:20 17.01.2020
649 Clouds 10 1012 76 10000 4.1 200 16:44 17.01.2020
650 Clouds 10 1012 71 10000 3.6 210 16:21 17.01.2020
651 Clouds 10 1012 71 10000 3.6 210 16:21 17.01.2020
652 Clouds 10 1012 76 10000 3.1 200 15:58 17.01.2020
653 Clouds 10 1012 76 10000 3.1 200 15:40 17.01.2020
654 Clouds 10 1012 76 10000 3.1 200 15:40 17.01.2020
655 Clouds 10 1012 76 10000 2.6 190 15:21 17.01.2020
656 Clouds 10 1013 71 10000 3.1 180 14:43 17.01.2020
657 Clouds 10 1013 76 10000 2.6 190 14:24 17.01.2020
658 Clouds 10 1013 71 10000 3.6 190 13:45 17.01.2020
659 Clouds 10 1013 66 10000 5.1 190 13:23 17.01.2020
660 Clouds 10 1014 71 10000 4.6 180 12:48 17.01.2020
661 Clouds 10 1014 76 10000 5.7 180 12:24 17.01.2020
662 Clouds 9 1014 76 10000 4.6 180 11:56 17.01.2020
663 Clouds 10 1015 76 10000 4.1 160 11:37 17.01.2020
664 Clouds 9 1015 76 10000 4.1 160 11:18 17.01.2020
665 Clouds 8 1015 81 10000 3.1 160 10:42 17.01.2020
666 Clouds 8 1015 81 10000 3.1 160 10:42 17.01.2020
667 Clouds 7 1015 81 10000 5.7 140 10:22 17.01.2020
668 Clouds 7 1015 81 10000 5.7 130 09:57 17.01.2020
669 Clouds 6 1015 86 10000 2.1 150 09:37 17.01.2020
670 Clouds 6 1015 86 10000 2.1 150 09:18 17.01.2020
671 Clouds 6 1016 86 10000 3.1 130 08:42 17.01.2020
672 Clouds 6 1016 86 10000 2.6 130 08:24 17.01.2020
673 Clouds 6 1016 93 10000 3.6 120 07:53 17.01.2020
674 Clouds 6 1016 93 10000 2.6 130 07:31 17.01.2020
675 Clouds 6 1016 87 10000 4.1 130 06:57 17.01.2020
676 Clouds 6 1017 87 10000 5.7 140 06:38 17.01.2020
677 Clouds 6 1017 93 10000 3.6 140 05:38 17.01.2020
678 Clouds 6 1018 94 0 5.59 168 03:39 17.01.2020
679 Clouds 6 1015 99 0 5.59 168 02:47 17.01.2020
680 Clouds 6 1015 99 0 4.61 168 01:47 17.01.2020
681 Clouds 6 1019 93 0 4.76 169 01:28 17.01.2020
682 Clouds 6 1019 93 0 4.76 169 00:48 17.01.2020
683 Clouds 6 1021 87 10000 3.6 150 00:23 17.01.2020
684 Clouds 6 1021 87 10000 3.6 150 23:44 16.01.2020
685 Clouds 6 1021 87 10000 3.6 150 23:25 16.01.2020
686 Clear 6 1021 87 10000 4.6 150 22:57 16.01.2020
687 Clear 6 1021 87 10000 4.6 150 22:39 16.01.2020
688 Clear 6 1022 87 10000 4.1 140 22:20 16.01.2020
689 Clear 6 1022 87 10000 3.6 140 21:55 16.01.2020
690 Clear 6 1023 87 10000 3.6 140 21:36 16.01.2020
691 Clear 6 1023 87 10000 3.6 140 21:18 16.01.2020
692 Clear 6 1023 87 10000 4.1 150 20:41 16.01.2020
693 Clouds 6 1023 87 10000 4.1 140 20:21 16.01.2020
694 Clouds 6 1023 81 10000 5.1 140 19:59 16.01.2020
695 Clouds 6 1023 81 10000 5.1 140 19:41 16.01.2020
696 Clouds 6 1023 81 10000 4.6 140 19:22 16.01.2020
697 Clouds 6 1023 81 10000 4.1 130 18:57 16.01.2020
698 Clouds 7 1023 81 10000 4.1 130 18:39 16.01.2020
699 Clouds 7 1023 81 10000 3.6 130 18:20 16.01.2020
700 Clouds 7 1024 75 10000 3.6 130 17:59 16.01.2020
701 Clouds 7 1024 75 10000 3.6 130 17:40 16.01.2020
702 Clouds 7 1024 75 10000 4.1 130 17:20 16.01.2020
703 Clouds 8 1024 75 10000 3.6 140 16:56 16.01.2020
704 Clouds 8 1024 76 10000 4.1 140 16:36 16.01.2020
705 Clouds 9 1024 76 10000 4.1 140 16:18 16.01.2020
706 Clouds 9 1024 71 10000 3.6 150 15:42 16.01.2020
707 Clouds 10 1025 71 10000 5.1 170 15:21 16.01.2020
708 Clouds 10 1025 71 10000 3.6 170 14:55 16.01.2020
709 Clouds 10 1025 76 10000 3.6 170 14:37 16.01.2020
710 Clear 10 1025 76 10000 3.6 170 14:18 16.01.2020
711 Clear 9 1026 81 10000 4.6 200 13:43 16.01.2020
712 Clear 9 1025 81 10000 4.1 170 13:24 16.01.2020
713 Clear 8 1026 81 10000 3.6 180 12:46 16.01.2020
714 Clear 8 1026 87 10000 3.6 190 12:28 16.01.2020
715 Clear 8 1026 87 10000 3.6 190 11:57 16.01.2020
716 Clear 7 1026 87 10000 3.6 190 11:39 16.01.2020
717 Clouds 7 1027 87 10000 3.1 200 11:21 16.01.2020
718 Clouds 5 1026 87 10000 2.6 210 10:39 16.01.2020
719 Clouds 5 1026 93 10000 2.1 210 10:21 16.01.2020
720 Clouds 4 1026 93 8000 2.1 210 09:58 16.01.2020
721 Clouds 4 1026 93 8000 2.1 210 09:40 16.01.2020
722 Clouds 4 1026 100 8000 2.6 200 09:22 16.01.2020
723 Clouds 3 1025 100 8000 2.6 200 08:53 16.01.2020
724 Clouds 4 1025 93 8000 2.6 190 08:35 16.01.2020
725 Clear 4 1025 93 8000 3.1 200 07:59 16.01.2020
726 Clear 4 1025 93 8000 3.1 200 07:39 16.01.2020
727 Clear 4 1024 93 8000 2.6 210 07:21 16.01.2020
728 Clear 4 1024 93 7000 2.6 210 06:43 16.01.2020
729 Clear 5 1024 93 8000 3.1 210 06:22 16.01.2020
730 Clear 5 1023 100 8000 3.6 220 05:46 16.01.2020
731 Clear 5 1023 93 10000 4.1 210 04:40 16.01.2020
732 Clear 5 1022 93 10000 4.6 230 03:28 16.01.2020
733 Clear 5 1021 93 10000 5.1 240 02:44 16.01.2020
734 Clouds 6 1020 93 10000 5.1 240 01:24 16.01.2020
735 Clouds 6 1019 93 10000 4.6 230 00:41 16.01.2020
736 Clouds 6 1019 93 10000 4.6 230 00:19 16.01.2020
737 Clouds 6 1018 87 10000 4.6 230 23:40 15.01.2020
738 Rain 6 1018 87 10000 4.6 240 23:19 15.01.2020
739 Rain 6 1017 93 10000 4.6 240 22:56 15.01.2020
740 Clouds 7 1016 87 10000 5.1 250 22:36 15.01.2020
741 Clouds 7 1016 87 10000 5.1 250 22:18 15.01.2020
742 Clouds 7 1015 81 10000 6.2 260 21:55 15.01.2020
743 Clouds 7 1015 87 10000 6.7 270 21:36 15.01.2020
744 Clouds 7 1015 87 10000 6.7 270 21:18 15.01.2020
745 Rain 8 1014 87 10000 7.7 280 20:54 15.01.2020
746 Rain 9 1013 87 10000 7.2 230 20:36 15.01.2020
747 Rain 9 1013 87 10000 7.2 230 20:18 15.01.2020
748 Rain 9 1012 81 10000 8.7 230 19:54 15.01.2020
749 Rain 10 1011 76 10000 10.8 230 19:36 15.01.2020
750 Rain 10 1011 76 10000 10.8 230 19:18 15.01.2020
751 Rain 10 1011 76 10000 10.8 230 19:18 15.01.2020
752 Rain 11 1011 66 10000 9.3 220 18:54 15.01.2020
753 Clouds 11 1010 62 10000 9.3 220 18:36 15.01.2020
754 Clouds 11 1010 62 10000 9.3 220 18:18 15.01.2020
755 Clouds 12 1010 62 10000 6.2 210 17:40 15.01.2020
756 Clouds 12 1010 62 10000 6.2 210 17:40 15.01.2020
757 Clouds 12 1009 62 10000 6.2 210 17:21 15.01.2020
758 Clouds 12 1009 58 10000 7.7 210 16:57 15.01.2020
759 Clouds 13 1009 58 10000 7.7 210 16:38 15.01.2020
760 Clouds 13 1009 58 10000 6.2 210 16:20 15.01.2020
761 Clouds 13 1009 58 10000 6.2 210 16:20 15.01.2020
762 Clouds 13 1008 58 10000 6.7 200 15:43 15.01.2020
763 Clouds 13 1008 58 10000 7.7 200 15:21 15.01.2020
764 Clouds 13 1008 58 10000 7.2 200 14:56 15.01.2020
765 Clouds 13 1008 62 10000 7.7 200 14:37 15.01.2020
766 Clouds 13 1008 62 10000 7.7 200 14:18 15.01.2020
767 Clouds 13 1008 58 10000 7.2 200 13:44 15.01.2020
768 Clouds 13 1008 58 10000 8.7 200 13:23 15.01.2020
769 Clouds 13 1008 62 10000 7.2 200 12:56 15.01.2020
770 Clouds 13 1008 62 10000 7.2 200 12:37 15.01.2020
771 Clouds 13 1008 58 10000 8.7 210 12:19 15.01.2020
772 Clouds 13 1008 58 10000 8.2 200 11:55 15.01.2020
773 Clouds 13 1008 58 10000 7.7 210 11:36 15.01.2020
774 Clouds 13 1008 58 10000 7.7 210 11:36 15.01.2020
775 Clouds 13 1008 58 10000 7.7 210 11:18 15.01.2020
776 Clouds 12 1008 66 10000 8.2 200 10:41 15.01.2020
777 Clouds 12 1008 66 10000 7.7 210 10:21 15.01.2020
778 Clouds 12 1008 66 10000 7.7 200 09:42 15.01.2020
779 Clouds 12 1007 66 10000 8.7 200 09:22 15.01.2020
780 Clouds 11 1007 66 10000 8.7 200 08:46 15.01.2020
781 Clouds 12 1007 66 10000 7.2 200 08:28 15.01.2020
782 Clouds 12 1007 71 10000 7.7 210 07:59 15.01.2020
783 Clouds 12 1007 71 10000 7.7 210 07:40 15.01.2020
784 Clouds 12 1006 71 10000 7.2 210 07:21 15.01.2020
785 Clouds 12 1006 71 10000 7.7 210 06:43 15.01.2020
786 Clouds 12 1006 71 10000 7.2 210 05:57 15.01.2020
787 Clouds 12 1006 71 10000 8.2 210 03:56 15.01.2020
788 Rain 12 1005 71 10000 9.8 210 02:28 15.01.2020
789 Rain 11 1005 76 10000 9.8 210 01:22 15.01.2020
790 Rain 11 1005 71 10000 10.3 210 00:45 15.01.2020
791 Rain 11 1005 71 10000 8.7 210 00:26 15.01.2020
792 Clouds 12 1005 71 10000 9.3 210 23:47 14.01.2020
793 Clouds 12 1004 71 10000 10.3 210 23:29 14.01.2020
794 Clouds 12 1004 71 10000 7.7 200 22:59 14.01.2020
795 Clouds 12 1004 71 10000 7.7 200 22:40 14.01.2020
796 Clouds 11 1004 71 10000 9.8 200 22:19 14.01.2020
797 Clouds 11 1004 71 10000 9.3 210 21:58 14.01.2020
798 Clouds 11 1004 76 10000 9.3 200 21:39 14.01.2020
799 Clouds 11 1004 76 10000 9.3 200 21:21 14.01.2020
800 Clouds 11 1004 76 10000 9.3 210 20:58 14.01.2020
801 Clouds 11 1004 76 10000 9.3 210 20:40 14.01.2020
802 Clouds 11 1004 71 10000 8.7 200 20:19 14.01.2020
803 Clouds 11 1004 71 10000 8.7 200 19:56 14.01.2020
804 Clouds 11 1004 76 10000 7.7 200 19:37 14.01.2020
805 Clouds 11 1004 76 10000 7.7 200 19:18 14.01.2020
806 Clouds 10 1004 81 10000 7.7 190 18:55 14.01.2020
807 Clouds 10 1004 81 10000 6.7 200 18:37 14.01.2020
808 Clouds 10 1004 81 10000 6.7 200 18:18 14.01.2020
809 Clouds 10 1004 81 10000 6.7 200 17:38 14.01.2020
810 Clouds 10 1005 81 10000 7.7 200 17:19 14.01.2020
811 Clouds 10 1005 81 10000 7.7 200 16:55 14.01.2020
812 Clouds 10 1005 81 10000 7.7 200 16:37 14.01.2020
813 Clouds 10 1005 81 10000 7.7 200 16:19 14.01.2020
814 Clouds 10 1004 81 10000 7.7 200 15:43 14.01.2020
815 Clouds 10 1004 81 10000 7.7 210 15:19 14.01.2020
816 Clouds 10 1005 81 10000 7.2 200 14:57 14.01.2020
817 Clouds 10 1004 76 10000 8.2 210 14:39 14.01.2020
818 Clouds 10 1004 81 10000 7.7 210 14:18 14.01.2020
819 Clouds 10 1004 87 10000 7.7 200 13:42 14.01.2020
820 Clouds 10 1005 87 10000 7.2 210 13:19 14.01.2020
821 Clouds 9 1005 93 10000 7.7 220 12:43 14.01.2020
822 Clouds 9 1004 93 10000 7.2 210 12:25 14.01.2020
823 Rain 9 1004 93 10000 6.7 210 11:59 14.01.2020
824 Rain 9 1004 93 10000 6.7 210 11:40 14.01.2020
825 Rain 9 1004 93 10000 8.7 220 11:40 14.01.2020
826 Rain 9 1004 93 10000 8.7 220 11:22 14.01.2020
827 Rain 9 1003 93 9000 7.7 210 10:56 14.01.2020
828 Rain 9 1003 93 9000 7.7 210 10:38 14.01.2020
829 Rain 9 1003 87 10000 7.2 210 10:19 14.01.2020
830 Rain 9 1003 87 10000 7.7 210 09:56 14.01.2020
831 Rain 9 1003 87 10000 7.7 210 09:37 14.01.2020
832 Rain 9 1003 81 10000 7.7 210 09:19 14.01.2020
833 Rain 9 1002 81 10000 7.7 200 08:41 14.01.2020
834 Rain 9 1002 81 10000 7.2 200 08:23 14.01.2020
835 Rain 9 1002 87 10000 7.2 200 07:53 14.01.2020
836 Rain 9 1002 87 10000 7.2 190 07:26 14.01.2020
837 Rain 9 1002 87 10000 7.2 190 06:50 14.01.2020
838 Rain 9 1002 87 10000 6.2 180 06:23 14.01.2020
839 Clouds 8 1003 76 10000 8.2 180 04:58 14.01.2020
840 Clouds 8 1004 76 10000 7.7 180 03:48 14.01.2020
841 Clouds 7 1005 81 10000 7.2 170 02:42 14.01.2020
842 Clouds 7 1007 81 10000 6.2 170 01:35 14.01.2020
843 Clouds 7 1007 81 10000 7.2 160 00:49 14.01.2020
844 Clouds 7 1008 81 10000 7.2 160 00:28 14.01.2020
845 Clouds 6 1008 81 10000 6.2 170 23:54 13.01.2020
846 Clouds 6 1009 81 10000 5.7 160 23:36 13.01.2020
847 Clouds 6 1009 81 10000 5.7 160 23:18 13.01.2020
848 Clouds 6 1010 81 10000 6.2 160 22:41 13.01.2020
849 Clouds 6 1010 81 10000 6.2 170 22:21 13.01.2020
850 Clouds 6 1010 86 10000 5.1 160 21:56 13.01.2020
851 Clouds 6 1010 86 10000 5.1 160 21:38 13.01.2020
852 Clouds 6 1011 86 10000 5.7 150 21:19 13.01.2020
853 Clouds 6 1012 86 10000 5.1 150 20:58 13.01.2020
854 Clouds 6 1012 86 10000 5.1 150 20:40 13.01.2020
855 Clouds 6 1012 86 10000 5.1 150 20:22 13.01.2020
856 Clouds 6 1012 81 10000 4.6 140 19:58 13.01.2020
857 Clouds 6 1012 81 10000 4.6 140 19:39 13.01.2020
858 Clouds 6 1013 87 10000 4.6 140 19:20 13.01.2020
859 Clouds 6 1013 87 10000 4.1 140 18:56 13.01.2020
860 Clouds 6 1014 86 10000 3.1 150 18:37 13.01.2020
861 Clouds 6 1014 86 10000 3.1 150 18:37 13.01.2020
862 Clouds 6 1014 86 10000 3.1 150 18:18 13.01.2020
863 Clouds 6 1014 93 10000 3.1 160 17:43 13.01.2020
864 Clouds 6 1014 87 10000 4.1 170 17:24 13.01.2020
865 Clouds 7 1015 87 10000 3.6 190 16:57 13.01.2020
866 Clouds 7 1013 89 0 2.24 200 16:38 13.01.2020
867 Clouds 7 1013 88 0 1.34 192 16:20 13.01.2020
868 Clouds 8 1014 88 0 0.89 180 15:44 13.01.2020
869 Clouds 8 1014 87 0 2.24 169 15:24 13.01.2020
870 Clouds 8 1014 87 0 1.34 226 14:59 13.01.2020
871 Clouds 8 1014 87 0 2.24 165 14:40 13.01.2020
872 Clouds 8 1014 86 0 1.34 178 14:22 13.01.2020
873 Clouds 8 1015 88 0 1.79 219 13:56 13.01.2020
874 Clouds 8 1012 99 0 5.18 226 13:37 13.01.2020
875 Clouds 8 1015 91 0 1.79 191 13:19 13.01.2020
876 Clouds 8 1018 81 10000 5.1 210 12:43 13.01.2020
877 Clouds 8 1018 81 10000 5.1 210 12:23 13.01.2020
878 Clouds 8 1018 81 10000 5.1 210 12:23 13.01.2020
879 Clouds 8 1018 81 10000 5.1 210 11:58 13.01.2020
880 Clouds 7 1018 93 10000 3.6 210 11:38 13.01.2020
881 Clouds 7 1018 93 10000 3.6 210 11:38 13.01.2020
882 Clouds 7 1018 93 10000 3.6 210 11:19 13.01.2020
883 Clouds 7 1018 93 8000 3.6 210 10:56 13.01.2020
884 Clouds 7 1018 93 7000 3.1 210 10:38 13.01.2020
885 Clouds 7 1018 93 7000 3.1 210 10:19 13.01.2020
886 Clouds 6 1018 100 7000 3.1 200 09:44 13.01.2020
887 Clouds 6 1018 93 8000 3.1 210 09:26 13.01.2020
888 Clouds 6 1018 93 9000 3.6 220 08:59 13.01.2020
889 Clouds 6 1018 93 9000 3.6 220 08:38 13.01.2020
890 Clouds 6 1018 100 10000 2.6 190 08:19 13.01.2020
891 Clouds 5 1018 93 10000 2.1 200 07:45 13.01.2020
892 Clouds 5 1018 100 10000 2.1 200 07:27 13.01.2020
893 Clouds 5 1018 93 10000 1.5 150 06:39 13.01.2020
894 Clouds 5 1018 93 10000 2.6 190 06:18 13.01.2020
895 Clouds 5 1019 93 10000 3.1 200 05:20 13.01.2020
896 Clouds 5 1020 87 10000 3.6 220 03:47 13.01.2020
897 Clouds 5 1020 87 10000 4.6 250 02:51 13.01.2020
898 Clouds 6 1020 93 10000 4.1 250 02:31 13.01.2020
899 Clouds 6 1020 81 10000 5.1 250 01:47 13.01.2020
900 Clouds 7 1019 81 10000 5.7 260 00:59 13.01.2020
901 Clouds 7 1019 81 10000 5.7 260 00:40 13.01.2020
902 Rain 7 1019 87 10000 7.2 260 00:21 13.01.2020
903 Clouds 7 1018 87 10000 8.2 260 23:41 12.01.2020
904 Clouds 7 1018 81 10000 8.2 260 23:23 12.01.2020
905 Clouds 8 1017 81 10000 9.3 260 22:57 12.01.2020
906 Clouds 8 1017 81 10000 9.3 260 22:39 12.01.2020
907 Clouds 8 1017 81 10000 10.3 260 22:21 12.01.2020
908 Rain 8 1017 89 0 1.34 270 21:55 12.01.2020
909 Rain 8 1017 89 0 1.34 270 21:55 12.01.2020
910 Rain 8 1013 99 0 1.79 225 21:37 12.01.2020
911 Rain 8 1015 93 0 2.68 270 21:19 12.01.2020
912 Clouds 8 1015 87 10000 8.2 230 20:56 12.01.2020
913 Clouds 8 1015 93 10000 7.7 230 20:37 12.01.2020
914 Clouds 8 1015 93 10000 7.7 230 20:19 12.01.2020
915 Clouds 8 1015 93 10000 7.7 230 19:55 12.01.2020
916 Rain 8 1015 93 10000 6.7 230 19:37 12.01.2020
917 Rain 8 1015 93 10000 6.7 230 19:18 12.01.2020
918 Rain 8 1015 87 10000 7.7 230 18:56 12.01.2020
919 Rain 8 1015 87 10000 7.7 230 18:38 12.01.2020
920 Rain 7 1015 93 10000 7.7 220 18:19 12.01.2020
921 Drizzle 7 1015 93 10000 8.2 220 17:42 12.01.2020
922 Drizzle 7 1015 93 6000 7.7 220 17:22 12.01.2020
923 Drizzle 7 1015 93 8000 8.7 220 16:58 12.01.2020
924 Drizzle 7 1015 93 8000 8.7 220 16:39 12.01.2020
925 Drizzle 6 1015 93 10000 7.7 220 16:20 12.01.2020
926 Drizzle 6 1015 93 3500 8.2 220 15:57 12.01.2020
927 Drizzle 6 1015 93 3500 8.2 220 15:38 12.01.2020
928 Rain 6 1015 93 10000 7.7 220 15:20 12.01.2020
929 Drizzle 6 1015 93 10000 7.7 210 14:43 12.01.2020
930 Drizzle 6 1015 93 3800 7.7 220 14:24 12.01.2020
931 Rain 6 1015 87 10000 7.7 210 13:57 12.01.2020
932 Rain 6 1015 87 10000 7.7 210 13:39 12.01.2020
933 Rain 6 1016 87 10000 8.2 220 13:20 12.01.2020
934 Rain 6 1016 87 10000 8.2 220 13:20 12.01.2020
935 Rain 6 1012 99 0 0.89 270 12:57 12.01.2020
936 Clouds 6 1017 81 10000 9.3 220 12:37 12.01.2020
937 Clouds 6 1017 81 10000 9.3 220 12:19 12.01.2020
938 Clouds 6 1017 75 10000 8.7 220 11:42 12.01.2020
939 Clouds 6 1017 75 10000 8.2 220 11:22 12.01.2020
940 Clouds 6 1017 75 10000 8.2 220 10:58 12.01.2020
941 Clouds 6 1017 75 10000 8.2 220 10:40 12.01.2020
942 Clouds 6 1017 75 10000 8.7 210 10:20 12.01.2020
943 Clouds 6 1018 75 10000 8.2 220 09:44 12.01.2020
944 Clouds 5 1018 75 10000 7.7 220 09:24 12.01.2020
945 Clouds 5 1018 75 10000 8.2 220 08:57 12.01.2020
946 Clouds 5 1018 75 10000 8.2 220 08:38 12.01.2020
947 Clouds 5 1018 75 10000 8.2 220 08:19 12.01.2020
948 Clouds 5 1019 80 10000 7.7 220 07:38 12.01.2020
949 Clouds 6 1019 75 10000 7.7 220 07:19 12.01.2020
950 Clouds 5 1019 75 10000 7.7 220 06:42 12.01.2020
951 Clouds 5 1019 75 10000 8.7 220 06:18 12.01.2020
952 Rain 6 1020 75 10000 7.7 220 05:20 12.01.2020
953 Clouds 6 1020 81 10000 8.7 220 03:45 12.01.2020
954 Clouds 6 1021 81 10000 8.7 220 02:59 12.01.2020
955 Clouds 6 1021 81 10000 7.2 220 02:30 12.01.2020
956 Clouds 6 1021 75 10000 7.7 210 01:42 12.01.2020
957 Clouds 6 1022 75 10000 7.2 220 01:21 12.01.2020
958 Clouds 6 1022 75 10000 7.2 220 01:21 12.01.2020
959 Clouds 6 1022 81 10000 6.7 220 00:40 12.01.2020
960 Clouds 6 1022 75 10000 7.7 210 00:19 12.01.2020
961 Clouds 6 1023 75 10000 7.2 210 23:42 11.01.2020
962 Clouds 6 1023 75 10000 7.7 210 23:19 11.01.2020
963 Clouds 6 1023 75 10000 7.2 210 22:57 11.01.2020
964 Clouds 6 1023 75 10000 7.2 210 22:39 11.01.2020
965 Clouds 6 1024 75 10000 6.7 210 22:20 11.01.2020
966 Clouds 6 1024 75 10000 6.2 210 21:58 11.01.2020
967 Clouds 6 1024 75 10000 6.2 210 21:39 11.01.2020
968 Clouds 6 1024 75 10000 6.2 210 21:18 11.01.2020
969 Clouds 6 1025 75 10000 7.2 220 20:40 11.01.2020
970 Clouds 6 1025 75 10000 5.7 210 20:22 11.01.2020
971 Clouds 6 1025 80 10000 5.7 210 19:58 11.01.2020
972 Clouds 5 1025 80 10000 5.7 210 19:39 11.01.2020
973 Clouds 5 1025 80 10000 5.1 200 19:21 11.01.2020
974 Clouds 5 1025 80 10000 5.7 200 18:58 11.01.2020
975 Clouds 5 1025 80 10000 5.7 200 18:38 11.01.2020
976 Clouds 5 1025 80 10000 6.2 200 18:20 11.01.2020
977 Clouds 5 1026 80 10000 6.2 200 17:57 11.01.2020
978 Clouds 5 1026 80 10000 6.2 200 17:39 11.01.2020
979 Clouds 5 1026 80 10000 5.1 200 17:19 11.01.2020
980 Clouds 5 1026 80 10000 5.7 210 16:46 11.01.2020
981 Clouds 5 1026 80 10000 5.7 210 16:46 11.01.2020
982 Clouds 6 1026 75 10000 5.7 200 16:27 11.01.2020
983 Clouds 6 1027 75 10000 6.7 210 15:59 11.01.2020
984 Clouds 6 1027 75 10000 6.7 210 15:41 11.01.2020
985 Clouds 6 1027 75 10000 6.2 210 15:22 11.01.2020
986 Clouds 6 1027 75 10000 6.7 220 14:58 11.01.2020
987 Clouds 6 1027 75 10000 6.7 220 14:39 11.01.2020
988 Clouds 6 1027 75 10000 6.2 210 14:21 11.01.2020
989 Clouds 5 1027 80 10000 7.2 210 13:55 11.01.2020
990 Clouds 5 1028 80 10000 6.2 210 13:36 11.01.2020
991 Clouds 5 1028 80 10000 6.2 210 13:18 11.01.2020
992 Clouds 5 1028 80 10000 6.7 210 12:41 11.01.2020
993 Clouds 5 1029 80 10000 5.7 210 12:23 11.01.2020
994 Clouds 4 1029 86 10000 6.2 210 11:48 11.01.2020
995 Clouds 4 1030 86 10000 4.6 200 11:27 11.01.2020
996 Clouds 4 1030 93 10000 3.6 210 10:58 11.01.2020
997 Clouds 3 1030 93 10000 3.6 210 10:40 11.01.2020
998 Clouds 3 1029 86 10000 3.6 200 10:22 11.01.2020
999 Clouds 2 1029 93 10000 3.1 190 09:39 11.01.2020
1000 Clouds 2 1029 100 10000 3.1 200 09:21 11.01.2020
1001 Clouds 2 1029 100 10000 3.1 210 08:43 11.01.2020
1002 Clouds 1 1029 100 10000 3.1 210 08:22 11.01.2020
1003 Clouds 1 1029 100 10000 3.1 210 07:44 11.01.2020
1004 Clouds 1 1029 100 10000 3.1 200 07:26 11.01.2020
1005 Clouds 1 1029 100 10000 3.1 210 06:55 11.01.2020
1006 Clouds 1 1029 94 10000 2.6 220 06:22 11.01.2020
1007 Clear 2 1029 94 0 0.45 241 04:48 11.01.2020
1008 Clear 2 1029 94 0 0.89 237 04:30 11.01.2020
1009 Clear 2 1028 94 0 1.34 311 03:49 11.01.2020
1010 Clear 3 1025 99 0 3.54 257 02:41 11.01.2020
1011 Clouds 3 1028 93 10000 3.1 270 01:44 11.01.2020
1012 Clouds 3 1028 86 10000 3.6 270 01:20 11.01.2020
1013 Clouds 3 1027 93 10000 4.1 270 00:46 11.01.2020
1014 Clouds 4 1027 86 10000 4.6 270 00:20 11.01.2020
1015 Clouds 4 1027 86 10000 5.1 270 23:41 10.01.2020
1016 Clouds 4 1026 93 10000 4.1 270 23:22 10.01.2020
1017 Clouds 4 1026 93 10000 4.1 270 22:59 10.01.2020
1018 Clouds 4 1026 93 10000 4.1 270 22:41 10.01.2020
1019 Clouds 4 1025 93 10000 4.1 270 22:21 10.01.2020
1020 Clouds 4 1025 93 10000 4.1 260 21:58 10.01.2020
1021 Clouds 4 1025 93 10000 4.1 260 21:39 10.01.2020
1022 Clouds 4 1024 92 0 4.32 283 21:20 10.01.2020
1023 Clouds 4 1024 95 0 4.32 283 20:55 10.01.2020
1024 Clouds 5 1020 99 0 4.32 283 20:37 10.01.2020
1025 Rain 5 1023 92 0 0.45 272 20:19 10.01.2020
1026 Clouds 5 1022 80 10000 4.6 300 19:39 10.01.2020
1027 Clouds 5 1022 80 10000 4.6 300 19:20 10.01.2020
1028 Clouds 5 1022 87 10000 5.7 300 18:55 10.01.2020
1029 Rain 5 1019 99 0 6.4 315 18:36 10.01.2020
1030 Rain 5 1021 87 10000 7.2 310 18:18 10.01.2020
1031 Clouds 5 1020 81 10000 8.2 310 17:56 10.01.2020
1032 Rain 6 1019 81 10000 9.3 310 17:37 10.01.2020
1033 Rain 6 1019 81 10000 9.3 310 17:19 10.01.2020
1034 Clouds 6 1017 75 10000 7.2 310 16:41 10.01.2020
1035 Clouds 6 1017 75 10000 7.2 310 16:21 10.01.2020
1036 Rain 7 1016 81 10000 7.7 320 15:56 10.01.2020
1037 Rain 7 1016 81 10000 7.7 320 15:56 10.01.2020
1038 Clouds 7 1016 87 10000 9.3 310 15:37 10.01.2020
1039 Clouds 7 1016 87 10000 9.3 310 15:19 10.01.2020
1040 Rain 7 1015 93 10000 7.2 310 14:57 10.01.2020
1041 Rain 7 1015 93 10000 7.2 310 14:39 10.01.2020
1042 Rain 8 1014 87 6000 6.7 260 14:19 10.01.2020
1043 Clouds 8 1014 81 10000 7.2 280 13:56 10.01.2020
1044 Clouds 8 1013 81 10000 6.7 250 13:37 10.01.2020
1045 Clouds 9 1013 81 10000 6.7 250 13:18 10.01.2020
1046 Clouds 9 1013 81 10000 7.7 250 12:56 10.01.2020
1047 Clouds 9 1012 81 10000 7.2 250 12:38 10.01.2020
1048 Clouds 9 1012 81 10000 7.2 250 12:18 10.01.2020
1049 Clouds 9 1013 81 10000 7.7 250 11:42 10.01.2020
1050 -273 0 0 0 0 0 11:22 10.01.2020
1051 Clouds 8 1012 87 10000 6.2 240 10:59 10.01.2020
1052 Clouds 8 1012 87 10000 6.2 240 10:38 10.01.2020
1053 Clouds 8 1011 87 10000 6.2 230 10:20 10.01.2020
1054 Clouds 8 1011 87 10000 6.2 230 09:55 10.01.2020
1055 Clouds 8 1011 93 10000 5.1 240 09:36 10.01.2020
1056 Clouds 8 1011 93 10000 5.1 240 09:18 10.01.2020
1057 Clouds 8 1010 87 10000 6.2 230 08:40 10.01.2020
1058 Clouds 8 1011 87 10000 4.6 230 08:21 10.01.2020
1059 Rain 8 1010 87 10000 5.1 230 07:44 10.01.2020
1060 Rain 8 1009 87 10000 4.1 220 07:23 10.01.2020
1061 Rain 9 1009 81 10000 5.7 240 06:45 10.01.2020
1062 Rain 9 1009 87 10000 8.2 260 06:25 10.01.2020
1063 Drizzle 10 1008 93 10000 6.7 220 05:46 10.01.2020
1064 Rain 11 1007 100 8000 4.6 210 03:37 10.01.2020
1065 Rain 11 1007 100 8000 4.6 210 03:18 10.01.2020
1066 Rain 11 1007 100 8000 5.1 210 02:39 10.01.2020
1067 Rain 12 1007 100 5000 5.1 210 01:38 10.01.2020
1068 Drizzle 12 1007 93 10000 6.2 220 01:19 10.01.2020
1069 Drizzle 12 1007 93 5000 4.6 210 00:39 10.01.2020
1070 Drizzle 12 1007 93 9000 4.6 200 23:58 09.01.2020
1071 Drizzle 12 1007 93 9000 4.6 200 23:38 09.01.2020
1072 Clouds 12 1007 87 10000 5.1 200 23:20 09.01.2020
1073 Clouds 12 1007 87 10000 5.1 210 22:57 09.01.2020
1074 Clouds 12 1007 87 10000 5.1 210 22:39 09.01.2020
1075 Clouds 12 1007 87 10000 4.6 210 22:19 09.01.2020
1076 Clouds 12 1008 87 10000 4.6 210 21:57 09.01.2020
1077 Clouds 12 1008 87 10000 4.6 210 21:38 09.01.2020
1078 Drizzle 12 1008 93 10000 4.6 210 21:19 09.01.2020
1079 Drizzle 12 1008 87 10000 5.7 210 20:57 09.01.2020
1080 Drizzle 12 1008 87 10000 5.7 210 20:39 09.01.2020
1081 Clouds 12 1008 87 10000 4.6 210 20:20 09.01.2020
1082 Clouds 12 1008 87 10000 4.6 210 19:57 09.01.2020
1083 Clouds 12 1008 87 10000 4.6 210 19:38 09.01.2020
1084 Drizzle 12 1008 93 10000 4.1 210 19:19 09.01.2020
1085 Drizzle 12 1008 93 10000 4.1 210 18:55 09.01.2020
1086 Drizzle 12 1008 93 10000 4.1 210 18:55 09.01.2020
1087 Drizzle 12 1008 93 10000 4.6 210 18:37 09.01.2020
1088 Drizzle 12 1008 93 10000 4.6 210 18:19 09.01.2020
1089 Drizzle 12 1008 87 7000 5.1 210 17:41 09.01.2020
1090 Drizzle 12 1008 87 7000 5.1 210 17:41 09.01.2020
1091 Drizzle 12 1008 87 10000 5.1 210 17:18 09.01.2020
1092 Drizzle 12 1008 87 10000 5.1 210 16:56 09.01.2020
1093 Clouds 12 1008 87 10000 5.1 210 16:36 09.01.2020
1094 Clouds 12 1008 87 10000 5.1 210 16:18 09.01.2020
1095 Clouds 12 1008 87 10000 5.7 210 15:41 09.01.2020
1096 Clouds 12 1008 93 10000 6.7 210 15:21 09.01.2020
1097 Clouds 12 1008 93 10000 6.7 210 14:55 09.01.2020
1098 Clouds 12 1008 93 10000 6.2 210 14:37 09.01.2020
1099 Drizzle 12 1009 87 4500 6.7 220 14:18 09.01.2020
1100 Drizzle 11 1009 87 4500 6.7 220 13:55 09.01.2020
1101 Rain 11 1009 87 10000 7.7 220 13:37 09.01.2020
1102 Rain 11 1009 87 10000 7.2 200 13:18 09.01.2020
1103 Drizzle 11 1010 93 6000 6.2 210 12:42 09.01.2020
1104 Drizzle 11 1010 93 6000 6.2 210 12:24 09.01.2020
1105 Drizzle 11 1010 93 10000 5.7 200 11:59 09.01.2020
1106 Rain 11 1011 87 10000 5.1 190 11:41 09.01.2020
1107 Clouds 10 1011 93 10000 4.6 170 11:23 09.01.2020
1108 Clouds 10 1011 93 10000 4.6 170 10:57 09.01.2020
1109 Clouds 10 1012 93 10000 5.1 170 10:39 09.01.2020
1110 Clouds 10 1012 100 7000 5.7 170 10:20 09.01.2020
1111 Clouds 10 1012 100 10000 5.7 170 09:41 09.01.2020
1112 Clouds 10 1012 100 10000 5.7 170 09:41 09.01.2020
1113 Clouds 10 1012 100 10000 5.7 170 09:41 09.01.2020
1114 Clouds 10 1012 100 10000 5.7 170 09:41 09.01.2020
1115 Clouds 9 1013 100 9000 5.7 160 09:23 09.01.2020
1116 Clouds 9 1013 100 9000 5.7 160 08:57 09.01.2020
1117 Clouds 9 1013 100 6000 5.7 160 08:38 09.01.2020
1118 Drizzle 9 1014 100 3000 5.7 150 08:20 09.01.2020
1119 Drizzle 9 1014 93 6000 4.6 160 07:46 09.01.2020
1120 Drizzle 9 1014 93 6000 4.6 160 07:28 09.01.2020
1121 Mist 9 1016 100 5000 4.1 170 06:40 09.01.2020
1122 Drizzle 9 1016 100 5000 3.1 140 06:21 09.01.2020
1123 Mist 9 1017 100 5000 3.1 150 05:51 09.01.2020
1124 Clouds 9 1018 100 8000 2.1 160 04:54 09.01.2020
1125 Clouds 9 1018 100 9000 2.6 170 04:36 09.01.2020
1126 Clouds 9 1019 100 7000 3.1 180 03:26 09.01.2020
1127 Clouds 9 1020 100 6000 2.1 190 02:46 09.01.2020
1128 Clouds 9 1020 100 6000 1.5 190 01:41 09.01.2020
1129 Clouds 9 1020 100 6000 2.1 200 00:57 09.01.2020
1130 Clouds 9 1021 100 6000 2.1 220 00:37 09.01.2020
1131 Clouds 9 1021 100 6000 2.6 200 00:19 09.01.2020
1132 Drizzle 9 1021 100 7000 2.1 200 23:39 08.01.2020
1133 Drizzle 9 1021 100 7000 1.5 210 23:20 08.01.2020
1134 Clouds 9 1021 100 8000 2.1 180 22:40 08.01.2020
1135 Clouds 9 1021 100 9000 2.6 230 22:22 08.01.2020
1136 Clouds 9 1021 100 9000 2.6 230 21:59 08.01.2020
1137 Clouds 9 1021 100 10000 2.1 240 21:40 08.01.2020
1138 Clouds 9 1021 100 10000 2.1 240 21:40 08.01.2020
1139 Clouds 9 1022 93 10000 1.5 250 21:21 08.01.2020
1140 Clouds 9 1022 93 10000 1.5 250 20:59 08.01.2020
1141 Clouds 9 1022 93 10000 1.5 250 20:59 08.01.2020
1142 Clouds 9 1021 93 10000 2.6 230 20:41 08.01.2020
1143 Clouds 9 1021 100 10000 2.1 210 20:21 08.01.2020
1144 Clouds 9 1021 100 10000 2.1 210 19:58 08.01.2020
1145 Clouds 9 1021 100 10000 2.1 250 19:38 08.01.2020
1146 Clouds 10 1021 93 10000 2.1 260 19:19 08.01.2020
1147 Clouds 10 1021 93 10000 2.1 260 18:58 08.01.2020
1148 Rain 10 1021 93 10000 3.1 240 18:39 08.01.2020
1149 Rain 10 1021 93 10000 3.6 240 18:19 08.01.2020
1150 Rain 10 1021 93 10000 3.1 250 17:57 08.01.2020
1151 Rain 10 1021 93 10000 3.1 250 17:38 08.01.2020
1152 Clouds 10 1020 96 0 5.29 244 17:19 08.01.2020
1153 Clouds 10 1020 96 0 5.29 244 17:19 08.01.2020
1154 Clouds 10 1021 93 10000 3.6 270 16:56 08.01.2020
1155 Clouds 11 1021 93 10000 3.6 260 16:38 08.01.2020
1156 Clouds 11 1020 93 10000 4.6 270 16:19 08.01.2020
1157 Drizzle 11 1020 93 9000 5.1 260 15:45 08.01.2020
1158 Drizzle 11 1020 93 9000 5.1 260 15:22 08.01.2020
1159 Drizzle 11 1020 93 9000 5.1 260 15:22 08.01.2020
1160 Drizzle 11 1020 93 8000 4.1 260 14:59 08.01.2020
1161 Drizzle 11 1019 93 4500 5.1 250 14:40 08.01.2020
1162 Clouds 11 1019 93 10000 5.1 240 14:21 08.01.2020
1163 Clouds 10 1019 93 10000 6.2 240 13:42 08.01.2020
1164 Clouds 10 1019 93 10000 6.2 240 13:22 08.01.2020
1165 Clouds 10 1019 100 10000 6.7 240 12:55 08.01.2020
1166 Clouds 10 1019 100 10000 6.7 240 12:37 08.01.2020
1167 Clouds 10 1019 93 10000 6.7 240 12:18 08.01.2020
1168 Clouds 10 1019 93 10000 6.7 240 12:18 08.01.2020
1169 Clouds 10 1019 93 10000 6.2 230 11:48 08.01.2020
1170 Drizzle 10 1019 93 10000 6.2 230 11:19 08.01.2020
1171 Drizzle 10 1019 93 10000 6.2 230 10:59 08.01.2020
1172 Drizzle 9 1019 100 3500 6.2 230 10:40 08.01.2020
1173 Drizzle 9 1019 100 5000 6.7 230 10:21 08.01.2020
1174 Mist 9 1019 93 5000 7.2 230 09:43 08.01.2020
1175 Drizzle 9 1019 93 5000 6.7 230 09:20 08.01.2020
1176 Drizzle 9 1019 93 5000 6.7 230 08:59 08.01.2020
1177 Rain 9 1019 93 8000 6.7 220 08:41 08.01.2020
1178 Rain 9 1019 93 8000 6.7 220 08:22 08.01.2020
1179 Clouds 8 1018 93 10000 5.7 220 07:58 08.01.2020
1180 Clouds 8 1018 93 8000 5.7 210 07:40 08.01.2020
1181 Clouds 8 1018 87 10000 6.2 220 07:18 08.01.2020
1182 Clouds 8 1018 87 10000 6.2 220 06:41 08.01.2020
1183 Clouds 8 1019 81 10000 6.7 220 05:56 08.01.2020
1184 Clouds 8 1019 81 10000 6.7 220 05:26 08.01.2020
1185 Clouds 8 1019 75 10000 6.7 220 04:37 08.01.2020
1186 Rain 7 1019 70 10000 6.2 210 02:46 08.01.2020
1187 Rain 7 1019 70 10000 6.2 210 02:28 08.01.2020
1188 Clouds 7 1019 75 10000 7.2 200 01:58 08.01.2020
1189 Clouds 7 1020 75 10000 7.7 210 01:32 08.01.2020
1190 Clouds 7 1020 81 10000 7.7 190 00:51 08.01.2020
1191 Clouds 7 1020 81 10000 7.7 190 00:23 08.01.2020
1192 Clouds 7 1022 81 10000 6.2 210 23:46 07.01.2020
1193 Clouds 7 1022 81 10000 5.7 210 23:21 07.01.2020
1194 Clouds 7 1022 81 10000 5.7 210 22:57 07.01.2020
1195 Clouds 7 1022 87 10000 5.1 210 22:38 07.01.2020
1196 Clouds 7 1023 87 10000 5.7 210 22:19 07.01.2020
1197 Clouds 7 1022 87 10000 5.1 200 21:42 07.01.2020
1198 Clouds 7 1023 87 10000 4.6 210 21:22 07.01.2020
1199 Clouds 7 1023 87 10000 4.6 210 20:58 07.01.2020
1200 Clouds 7 1023 81 10000 5.1 200 20:40 07.01.2020
1201 Clouds 6 1023 81 10000 5.7 200 20:22 07.01.2020
1202 Clouds 7 1023 81 10000 5.7 200 19:58 07.01.2020
1203 Clouds 6 1023 87 10000 6.2 190 19:38 07.01.2020
1204 Clouds 6 1023 87 10000 5.7 190 19:19 07.01.2020
1205 Clouds 6 1023 87 10000 5.7 190 18:56 07.01.2020
1206 Clouds 6 1024 87 10000 4.6 190 18:38 07.01.2020
1207 Clouds 6 1024 87 10000 4.1 200 18:18 07.01.2020
1208 Clouds 6 1024 87 10000 4.1 200 17:57 07.01.2020
1209 Clouds 6 1025 87 10000 4.1 210 17:37 07.01.2020
1210 Clouds 6 1025 81 10000 4.1 210 17:19 07.01.2020
1211 Clouds 6 1025 81 10000 4.1 210 16:55 07.01.2020
1212 Clouds 7 1025 87 10000 5.1 220 16:37 07.01.2020
1213 Clouds 7 1025 81 10000 5.1 220 16:18 07.01.2020
1214 Clouds 8 1025 75 10000 6.2 220 15:43 07.01.2020
1215 Clouds 8 1025 75 10000 6.2 220 15:24 07.01.2020
1216 Clouds 8 1024 81 10000 5.7 230 14:59 07.01.2020
1217 Clouds 8 1024 81 10000 5.7 230 14:40 07.01.2020
1218 Clouds 8 1024 81 10000 6.2 230 14:22 07.01.2020
1219 Clouds 8 1024 81 10000 6.2 230 13:55 07.01.2020
1220 Clouds 8 1024 81 10000 6.7 240 13:37 07.01.2020
1221 Clouds 7 1024 81 10000 6.7 230 13:18 07.01.2020
1222 Clouds 7 1024 87 9000 6.2 240 12:40 07.01.2020
1223 Clouds 7 1024 87 8000 4.6 240 12:19 07.01.2020
1224 Clouds 7 1024 93 8000 4.6 240 11:43 07.01.2020
1225 Clouds 7 1024 93 8000 4.6 240 11:23 07.01.2020
1226 Clouds 7 1024 93 8000 3.6 230 10:58 07.01.2020
1227 Clouds 7 1024 87 7000 3.6 230 10:40 07.01.2020
1228 Clouds 7 1024 87 7000 3.6 230 10:22 07.01.2020
1229 Clouds 6 1024 93 7000 3.6 250 09:56 07.01.2020
1230 Clouds 6 1023 93 6000 3.6 240 09:37 07.01.2020
1231 Clouds 6 1023 93 6000 3.6 240 09:37 07.01.2020
1232 Mist 6 1023 93 5000 4.6 240 09:19 07.01.2020
1233 Mist 6 1023 93 5000 4.6 240 09:19 07.01.2020
1234 Clouds 6 1022 93 6000 4.6 250 08:41 07.01.2020
1235 Clouds 6 1022 93 6000 4.6 250 08:41 07.01.2020
1236 Clouds 6 1022 93 6000 4.6 240 08:21 07.01.2020
1237 Clouds 6 1021 93 7000 4.1 240 07:51 07.01.2020
1238 Clouds 5 1021 93 7000 4.1 240 07:26 07.01.2020
1239 Clouds 5 1021 93 7000 4.6 240 06:52 07.01.2020
1240 Clouds 5 1021 100 7000 4.6 250 06:32 07.01.2020
1241 Clouds 5 1020 93 8000 4.1 230 05:46 07.01.2020
1242 Clouds 4 1019 93 10000 5.1 230 04:31 07.01.2020
1243 Rain 4 1019 86 10000 3.1 220 03:25 07.01.2020
1244 Clouds 3 1019 86 10000 2.6 210 02:21 07.01.2020
1245 Clouds 3 1019 88 10000 2.6 200 01:51 07.01.2020
1246 Clouds 3 1019 88 10000 2.6 200 01:26 07.01.2020
1247 Clouds 1 1018 88 10000 3.1 170 00:23 07.01.2020
1248 Clouds 1 1018 88 10000 2.6 160 23:59 06.01.2020
1249 Clouds 1 1018 88 10000 2.1 150 23:39 06.01.2020
1250 Clouds 1 1018 86 10000 2.1 120 23:21 06.01.2020
1251 Clouds 1 1018 86 10000 2.1 120 22:58 06.01.2020
1252 Clouds 1 1018 88 10000 2.6 140 22:38 06.01.2020
1253 Clouds 2 1019 88 10000 3.1 130 22:20 06.01.2020
1254 Clouds 2 1019 88 10000 3.1 130 21:56 06.01.2020
1255 Clouds 2 1019 88 10000 2.6 140 21:37 06.01.2020
1256 Clouds 2 1019 88 10000 2.6 140 21:19 06.01.2020
1257 Clouds 3 1019 88 10000 2.6 140 20:56 06.01.2020
1258 Clouds 3 1020 88 10000 3.1 150 20:37 06.01.2020
1259 Clouds 3 1020 90 10000 2.6 160 20:19 06.01.2020
1260 Clouds 3 1020 90 10000 2.6 160 19:55 06.01.2020
1261 Clouds 3 1021 90 10000 3.6 160 19:37 06.01.2020
1262 Clouds 4 1021 86 10000 3.1 180 19:18 06.01.2020
1263 Clouds 4 1021 75 10000 4.1 190 18:45 06.01.2020
1264 Clouds 5 1021 80 10000 4.6 200 18:21 06.01.2020
1265 Clouds 5 1021 80 10000 4.6 200 17:56 06.01.2020
1266 Clouds 5 1022 75 10000 4.1 190 17:37 06.01.2020
1267 Clouds 5 1022 81 10000 4.1 180 17:18 06.01.2020
1268 Clouds 6 1022 81 10000 3.1 180 16:42 06.01.2020
1269 Clouds 6 1022 81 10000 3.1 180 16:42 06.01.2020
1270 Clouds 6 1022 81 10000 3.1 180 16:23 06.01.2020
1271 Clouds 6 1023 81 10000 3.6 190 15:59 06.01.2020
1272 Clouds 6 1023 81 10000 3.6 200 15:38 06.01.2020
1273 Clouds 6 1023 87 10000 3.6 200 15:18 06.01.2020
1274 Clouds 6 1023 87 10000 3.6 200 15:18 06.01.2020
1275 Clouds 6 1023 87 10000 3.6 200 14:56 06.01.2020
1276 Clouds 6 1024 87 10000 3.1 200 14:37 06.01.2020
1277 Clouds 6 1024 87 10000 4.1 210 14:18 06.01.2020
1278 Clouds 6 1024 87 10000 4.1 210 13:40 06.01.2020
1279 Clouds 6 1025 87 10000 4.6 220 13:22 06.01.2020
1280 Clouds 6 1025 87 10000 4.6 220 12:59 06.01.2020
1281 Clouds 6 1025 87 10000 4.6 220 12:41 06.01.2020
1282 Clouds 6 1026 87 10000 3.6 210 12:20 06.01.2020
1283 Clouds 6 1026 87 10000 3.6 210 11:55 06.01.2020
1284 Clouds 6 1026 87 10000 3.6 210 11:37 06.01.2020
1285 Clouds 6 1026 87 10000 2.6 200 11:19 06.01.2020
1286 Clouds 6 1027 87 10000 1.5 190 10:42 06.01.2020
1287 Clouds 6 1027 81 10000 2.6 200 10:21 06.01.2020
1288 Clouds 5 1027 86 10000 3.1 210 09:42 06.01.2020
1289 Clouds 5 1027 86 10000 3.1 210 09:24 06.01.2020
1290 Clouds 5 1027 86 10000 3.1 210 09:24 06.01.2020
1291 Clouds 5 1027 86 10000 2.6 200 08:58 06.01.2020
1292 Clouds 5 1027 86 10000 2.6 200 08:58 06.01.2020
1293 Clouds 5 1027 86 10000 2.6 200 08:58 06.01.2020
1294 Clouds 5 1027 86 10000 2.1 210 08:39 06.01.2020
1295 Clouds 5 1027 86 10000 2.1 200 08:21 06.01.2020
1296 Clouds 5 1027 93 10000 2.6 220 07:46 06.01.2020
1297 Clouds 5 1027 93 10000 2.6 220 07:21 06.01.2020
1298 Clouds 5 1027 93 10000 2.6 220 07:21 06.01.2020
1299 Drizzle 5 1028 93 10000 3.6 220 06:41 06.01.2020
1300 Drizzle 5 1028 93 10000 3.6 230 05:51 06.01.2020
1301 Drizzle 5 1028 93 10000 3.6 230 05:33 06.01.2020
1302 Clouds 5 1028 93 10000 3.6 220 04:26 06.01.2020
1303 Clouds 5 1028 93 10000 3.6 230 03:53 06.01.2020
1304 Drizzle 5 1028 93 10000 4.6 220 02:40 06.01.2020
1305 Clouds 5 1029 93 10000 4.1 220 02:20 06.01.2020
1306 Clouds 5 1029 93 10000 5.1 220 01:41 06.01.2020
1307 Clouds 5 1029 93 10000 5.1 230 01:20 06.01.2020
1308 Clouds 6 1029 81 10000 5.1 230 00:40 06.01.2020
1309 Drizzle 6 1030 81 10000 4.6 230 00:19 06.01.2020
1310 Clouds 6 1030 81 10000 4.1 230 23:41 05.01.2020
1311 Drizzle 6 1030 81 10000 4.1 230 23:21 05.01.2020
1312 Drizzle 6 1030 81 10000 4.1 230 22:55 05.01.2020
1313 Drizzle 6 1030 81 10000 4.1 230 22:37 05.01.2020
1314 Clouds 6 1030 81 10000 4.6 210 22:18 05.01.2020
1315 Clouds 6 1030 81 10000 4.1 210 21:41 05.01.2020
1316 Clouds 6 1030 81 10000 4.1 220 21:21 05.01.2020
1317 Clouds 6 1030 81 10000 4.1 220 20:59 05.01.2020
1318 Clouds 6 1031 81 10000 4.6 210 20:39 05.01.2020
1319 Clouds 6 1031 87 10000 4.1 220 20:20 05.01.2020
1320 Clouds 6 1031 87 10000 4.1 220 20:20 05.01.2020
1321 Clouds 6 1031 87 10000 4.1 220 19:59 05.01.2020
1322 Clouds 6 1031 87 10000 4.6 220 19:41 05.01.2020
1323 Clouds 6 1031 87 10000 5.1 220 19:21 05.01.2020
1324 Clouds 6 1031 87 10000 5.1 220 18:56 05.01.2020
1325 Clouds 6 1031 93 10000 4.6 220 18:38 05.01.2020
1326 Clouds 6 1031 93 10000 4.1 220 18:19 05.01.2020
1327 Clouds 6 1031 93 10000 4.1 220 17:59 05.01.2020
1328 Clouds 6 1031 93 10000 4.1 220 17:59 05.01.2020
1329 Clouds 6 1031 93 8000 4.1 220 17:39 05.01.2020
1330 Clouds 6 1031 93 6000 4.1 220 17:20 05.01.2020
1331 Clouds 6 1031 93 6000 4.1 220 16:57 05.01.2020
1332 Clouds 6 1031 93 6000 3.6 220 16:39 05.01.2020
1333 Clouds 6 1031 93 6000 3.6 220 16:39 05.01.2020
1334 Mist 6 1031 93 5000 3.6 220 16:20 05.01.2020
1335 Mist 6 1031 93 5000 3.6 220 15:40 05.01.2020
1336 -273 0 0 0 0 0 15:22 05.01.2020
1337 -273 0 0 0 0 0 15:22 05.01.2020
1338 Mist 6 1031 93 5000 3.6 220 15:22 05.01.2020
1339 Mist 6 1031 93 4500 3.6 220 14:57 05.01.2020
1340 Mist 6 1032 93 4500 4.1 220 14:39 05.01.2020
1341 Mist 6 1032 100 4500 4.1 220 14:21 05.01.2020
1342 Mist 5 1032 100 4500 4.1 220 13:58 05.01.2020
1343 Mist 5 1032 100 5000 4.1 220 13:38 05.01.2020
1344 Mist 5 1032 93 5000 3.6 220 13:20 05.01.2020
1345 Mist 5 1032 93 5000 3.6 220 12:57 05.01.2020
1346 Mist 5 1032 93 5000 2.6 210 12:38 05.01.2020
1347 Mist 4 1033 100 5000 1.5 190 12:20 05.01.2020
1348 Mist 4 1033 100 5000 1.5 190 12:20 05.01.2020
1349 Mist 4 1033 100 5000 1.5 190 11:55 05.01.2020
1350 Mist 4 1033 93 5000 2.1 220 11:36 05.01.2020
1351 Clouds 4 1033 93 8000 1.5 210 11:18 05.01.2020
1352 Clouds 3 1033 93 9000 2.1 210 10:41 05.01.2020
1353 Mist 3 1033 93 5000 2.1 220 10:20 05.01.2020
1354 Mist 3 1033 93 5000 2.1 220 10:20 05.01.2020
1355 Mist 2 1033 93 5000 2.1 220 09:57 05.01.2020
1356 Clouds 2 1033 100 10000 2.1 230 09:38 05.01.2020
1357 Clouds 1 1033 100 10000 1.5 220 09:20 05.01.2020
1358 Clouds 1 1033 100 10000 2.1 220 08:45 05.01.2020
1359 Clouds 1 1033 90 10000 1.5 210 08:21 05.01.2020
1360 Clouds 1 1033 90 10000 1.5 190 07:47 05.01.2020
1361 Clouds 1 1033 90 10000 1.5 190 07:29 05.01.2020
1362 Clouds 1 1033 90 10000 1.5 200 06:56 05.01.2020
1363 Clouds 1 1032 90 10000 1 220 05:52 05.01.2020
1364 Clouds 2 1032 91 10000 2.6 190 04:57 05.01.2020
1365 Clouds 2 1032 91 10000 1.5 260 04:19 05.01.2020
1366 Clouds 3 1033 86 10000 2.1 300 03:45 05.01.2020
1367 Clouds 3 1032 86 10000 2.6 250 02:41 05.01.2020
1368 Clouds 4 1032 80 10000 3.6 260 02:19 05.01.2020
1369 Rain 3 1032 86 10000 2.1 280 01:36 05.01.2020
1370 Clouds 3 1031 86 10000 2.6 250 01:18 05.01.2020
1371 Clouds 3 1031 86 10000 2.1 270 00:40 05.01.2020
1372 Clouds 3 1031 86 10000 3.1 250 00:21 05.01.2020
1373 Clouds 3 1031 86 10000 3.1 250 00:21 05.01.2020
1374 Clouds 3 1031 86 10000 3.1 250 23:59 04.01.2020
1375 Clouds 3 1031 86 10000 3.1 250 23:39 04.01.2020
1376 Clouds 3 1030 86 10000 2.6 270 23:18 04.01.2020
1377 Clouds 3 1030 86 10000 1.5 280 22:39 04.01.2020
1378 Clouds 3 1030 86 10000 1.5 280 22:39 04.01.2020
1379 Clouds 3 1029 93 10000 1.5 270 22:21 04.01.2020
1380 Clouds 3 1029 93 10000 1.5 270 21:57 04.01.2020
1381 Clouds 3 1029 93 10000 1.5 270 21:57 04.01.2020
1382 Clouds 3 1029 93 10000 3.1 260 21:38 04.01.2020
1383 Clouds 3 1028 93 10000 3.1 280 21:19 04.01.2020
1384 Clouds 3 1028 93 10000 3.1 280 20:57 04.01.2020
1385 Clouds 3 1028 86 10000 3.6 260 20:38 04.01.2020
1386 Clouds 4 1027 93 10000 4.6 280 20:19 04.01.2020
1387 Clouds 4 1027 86 10000 4.1 280 19:42 04.01.2020
1388 Clouds 4 1027 86 10000 4.1 280 19:42 04.01.2020
1389 Clouds 4 1027 86 10000 3.1 290 19:24 04.01.2020
1390 Clouds 4 1027 86 10000 3.1 290 18:58 04.01.2020
1391 Clouds 4 1026 86 10000 3.1 290 18:39 04.01.2020
1392 Clouds 4 1026 86 10000 4.1 310 18:21 04.01.2020
1393 Clouds 5 1026 86 10000 4.1 310 17:59 04.01.2020
1394 Clouds 5 1025 93 10000 5.7 310 17:40 04.01.2020
1395 Clouds 5 1025 87 10000 5.1 300 17:22 04.01.2020
1396 Clouds 5 1025 87 10000 5.1 300 16:55 04.01.2020
1397 Clouds 5 1024 93 10000 4.6 300 16:36 04.01.2020
1398 Clouds 6 1023 87 10000 5.7 300 16:18 04.01.2020
1399 Clouds 6 1022 87 10000 6.2 310 15:42 04.01.2020
1400 Rain 6 1022 87 10000 7.2 310 15:20 04.01.2020
1401 Rain 6 1022 87 10000 7.2 310 14:59 04.01.2020
1402 Rain 6 1022 87 10000 7.2 310 14:59 04.01.2020
1403 Rain 6 1021 87 10000 8.2 330 14:40 04.01.2020
1404 Rain 6 1020 87 8000 11.8 280 14:20 04.01.2020
1405 Rain 7 1020 87 8000 11.8 280 13:58 04.01.2020
1406 Rain 7 1020 93 8000 10.8 280 13:37 04.01.2020
1407 Rain 7 1021 87 8000 10.3 270 13:19 04.01.2020
1408 Rain 7 1021 87 8000 10.3 270 12:57 04.01.2020
1409 Clouds 7 1021 87 10000 10.3 270 12:38 04.01.2020
1410 Clouds 7 1021 87 10000 10.3 270 12:18 04.01.2020
1411 Clouds 7 1021 87 10000 10.3 270 11:55 04.01.2020
1412 Rain 7 1020 87 10000 10.8 270 11:36 04.01.2020
1413 Rain 7 1021 87 10000 10.8 260 11:18 04.01.2020
1414 Rain 6 1021 81 10000 10.8 260 10:40 04.01.2020
1415 Clouds 6 1021 81 10000 9.3 260 10:21 04.01.2020
1416 Clouds 6 1021 87 10000 9.8 260 09:47 04.01.2020
1417 Clouds 6 1021 87 10000 9.8 260 09:26 04.01.2020
1418 Clouds 6 1021 87 10000 9.3 260 08:49 04.01.2020
1419 Clouds 5 1021 87 10000 9.3 260 08:29 04.01.2020
1420 Clouds 5 1021 86 10000 8.7 260 07:57 04.01.2020
1421 Clouds 5 1021 86 10000 7.7 250 07:38 04.01.2020
1422 Clouds 5 1022 86 10000 7.2 260 06:44 04.01.2020
1423 Clouds 4 1022 86 10000 7.7 250 05:59 04.01.2020
1424 Clouds 4 1022 93 10000 6.7 250 04:52 04.01.2020
1425 Clouds 4 1022 93 10000 6.7 250 04:31 04.01.2020
1426 Clouds 4 1022 86 10000 6.7 250 03:30 04.01.2020
1427 Clouds 4 1023 86 10000 6.2 250 02:52 04.01.2020
1428 Clouds 4 1023 93 10000 5.1 250 02:18 04.01.2020
1429 Clouds 4 1023 86 10000 5.7 260 01:45 04.01.2020
1430 Clouds 4 1023 86 10000 5.7 260 01:27 04.01.2020
1431 Clouds 4 1022 96 0 1.79 288 00:29 04.01.2020
1432 Clouds 4 1022 96 0 1.79 288 00:29 04.01.2020
1433 Clouds 5 1022 86 10000 6.2 270 23:59 03.01.2020
1434 Clouds 5 1022 86 10000 6.2 270 23:59 03.01.2020
1435 Clouds 5 1022 86 10000 5.1 270 23:37 03.01.2020
1436 Clouds 5 1022 86 10000 5.7 270 23:19 03.01.2020
1437 Clouds 5 1021 86 10000 5.1 280 22:41 03.01.2020
1438 Clouds 5 1020 93 10000 4.6 270 22:19 03.01.2020
1439 Clouds 5 1020 93 10000 4.6 270 21:58 03.01.2020
1440 Clouds 5 1020 93 10000 4.6 270 21:38 03.01.2020
1441 Clouds 5 1020 93 10000 4.6 270 21:38 03.01.2020
1442 Clouds 5 1020 93 10000 4.6 270 21:38 03.01.2020
1443 Clouds 5 1019 87 10000 5.7 290 21:19 03.01.2020
1444 Clouds 5 1019 87 10000 5.7 290 21:19 03.01.2020
1445 Clouds 5 1016 99 0 5.05 285 20:57 03.01.2020
1446 Clouds 5 1019 93 10000 4.6 290 20:39 03.01.2020
1447 Clouds 6 1018 93 10000 4.6 300 20:18 03.01.2020
1448 Clouds 6 1018 93 10000 4.6 300 19:55 03.01.2020
1449 Clouds 6 1017 93 10000 5.7 330 19:37 03.01.2020
1450 Rain 6 1016 93 10000 6.7 320 19:18 03.01.2020
1451 Rain 6 1015 93 10000 8.2 340 18:41 03.01.2020
1452 Rain 7 1014 93 10000 6.7 320 18:23 03.01.2020
1453 Rain 7 1014 93 10000 6.7 320 17:55 03.01.2020
1454 Rain 7 1012 93 10000 4.1 290 17:36 03.01.2020
1455 Drizzle 8 1012 100 2800 4.1 280 17:18 03.01.2020
1456 Drizzle 8 1012 93 4500 4.6 240 16:42 03.01.2020
1457 Drizzle 8 1012 100 3000 4.6 230 16:22 03.01.2020
1458 Drizzle 8 1011 100 3200 5.1 220 15:44 03.01.2020
1459 Drizzle 8 1012 100 3800 5.1 220 15:19 03.01.2020
1460 Drizzle 8 1012 100 3800 5.1 220 14:59 03.01.2020
1461 Rain 9 1012 93 10000 6.7 220 14:38 03.01.2020
1462 Rain 8 1012 100 10000 6.7 230 14:19 03.01.2020
1463 Drizzle 8 1012 100 5000 6.7 220 13:44 03.01.2020
1464 Drizzle 8 1012 100 8000 6.7 220 13:24 03.01.2020
1465 Drizzle 8 1012 100 8000 6.7 220 12:59 03.01.2020
1466 Drizzle 8 1013 93 8000 6.7 220 12:39 03.01.2020
1467 Drizzle 8 1013 93 7000 6.2 220 12:21 03.01.2020
1468 Drizzle 8 1013 93 3500 6.2 220 11:45 03.01.2020
1469 Drizzle 8 1013 93 3000 6.2 220 11:21 03.01.2020
1470 Clouds 8 1014 100 6000 6.2 220 10:46 03.01.2020
1471 Clouds 7 1014 100 6000 6.2 220 10:27 03.01.2020
1472 Drizzle 7 1014 93 4500 5.7 210 09:58 03.01.2020
1473 Drizzle 7 1014 93 4200 4.6 210 09:40 03.01.2020
1474 Drizzle 7 1014 93 4500 4.6 210 09:22 03.01.2020
1475 Drizzle 7 1014 93 4500 4.6 210 08:57 03.01.2020
1476 Drizzle 7 1014 87 10000 5.7 210 08:38 03.01.2020
1477 Clouds 7 1014 87 10000 5.1 210 08:19 03.01.2020
1478 Clouds 7 1014 87 10000 5.1 210 07:40 03.01.2020
1479 Clouds 7 1014 87 10000 6.2 210 07:19 03.01.2020
1480 Clouds 7 1014 87 10000 5.7 220 06:51 03.01.2020
1481 Clouds 7 1014 87 10000 5.7 220 06:33 03.01.2020
1482 Clouds 6 1015 87 10000 5.1 210 05:46 03.01.2020
1483 Clouds 5 1015 93 10000 5.1 200 04:27 03.01.2020
1484 Clouds 5 1017 86 10000 5.7 200 02:59 03.01.2020
1485 Clouds 5 1017 86 10000 6.2 200 02:41 03.01.2020
1486 Clouds 5 1018 86 10000 6.7 200 01:45 03.01.2020
1487 Clouds 4 1019 93 10000 4.6 200 00:53 03.01.2020
1488 Clouds 4 1019 93 10000 4.6 200 00:31 03.01.2020
1489 Clouds 4 1019 93 10000 4.6 190 23:57 02.01.2020
1490 Clouds 4 1020 93 10000 4.6 200 23:38 02.01.2020
1491 Clouds 4 1020 93 10000 4.1 200 23:19 02.01.2020
1492 Clouds 3 1020 93 10000 4.1 200 22:57 02.01.2020
1493 Clouds 3 1020 93 8000 4.1 200 22:39 02.01.2020
1494 Clouds 3 1020 93 8000 3.6 200 22:18 02.01.2020
1495 Clouds 3 1020 100 7000 3.6 190 21:42 02.01.2020
1496 Clouds 2 1020 100 7000 3.6 190 21:23 02.01.2020
1497 Clouds 2 1021 100 6000 3.6 190 21:00 02.01.2020
1498 Clouds 2 1021 100 6000 3.6 190 21:00 02.01.2020
1499 Drizzle 2 1021 100 5000 2.6 180 20:40 02.01.2020
1500 Drizzle 2 1022 100 4500 2.6 190 20:21 02.01.2020
1501 Drizzle 1 1022 100 4500 2.6 190 19:56 02.01.2020
1502 Mist 1 1022 100 4500 3.1 190 19:38 02.01.2020
1503 Drizzle 1 1022 88 4000 3.6 180 19:19 02.01.2020
1504 Drizzle 1 1022 88 4000 3.6 180 18:59 02.01.2020
1505 Drizzle 1 1022 88 2900 3.6 180 18:40 02.01.2020
1506 Mist 1 1023 88 2500 4.1 180 18:22 02.01.2020
1507 Mist 1 1023 88 2500 4.1 180 18:22 02.01.2020
1508 Mist 0 1023 88 2500 4.1 180 17:57 02.01.2020
1509 Mist 0 1023 88 2500 4.1 180 17:38 02.01.2020
1510 Mist 0 1023 80 2300 4.1 190 17:19 02.01.2020
1511 Mist 0 1023 80 2300 4.1 190 16:57 02.01.2020
1512 Mist 0 1023 80 1100 4.1 200 16:39 02.01.2020
1513 Mist 0 1024 80 1100 4.1 200 16:20 02.01.2020
1514 Mist 0 1024 80 1100 4.1 200 15:57 02.01.2020
1515 Mist 0 1024 80 1500 5.1 220 15:37 02.01.2020
1516 Mist 0 1024 80 2000 5.1 220 15:19 02.01.2020
1517 Mist 0 1024 80 1300 4.1 210 14:55 02.01.2020
1518 Mist 0 1024 80 1300 4.1 210 14:55 02.01.2020
1519 Mist 0 1024 80 1300 4.1 210 14:55 02.01.2020
1520 Mist 0 1024 80 1300 4.1 210 14:36 02.01.2020
1521 Mist 0 1024 76 2800 4.1 230 14:18 02.01.2020
1522 Mist 0 1025 76 4000 5.7 240 13:47 02.01.2020
1523 Mist -1 1025 76 4000 5.7 240 13:29 02.01.2020
1524 Mist -1 1025 72 3600 5.7 230 12:45 02.01.2020
1525 Mist -1 1026 100 2100 4.6 250 12:25 02.01.2020
1526 Mist -1 1026 100 2100 4.6 250 11:58 02.01.2020
1527 Mist -1 1026 100 2100 4.6 250 11:40 02.01.2020
1528 Mist -1 1026 88 1600 4.1 230 11:19 02.01.2020
1529 Mist -1 1026 100 1400 4.6 220 10:44 02.01.2020
1530 Mist -1 1026 100 1400 4.6 220 10:25 02.01.2020
1531 Mist -1 1026 100 2000 4.1 210 09:48 02.01.2020
1532 Mist -2 1026 100 2000 4.1 210 09:29 02.01.2020
1533 Mist -2 1026 100 5000 1.5 180 08:47 02.01.2020
1534 Mist -3 1026 100 5000 1.5 180 08:27 02.01.2020
1535 Clear -3 1026 100 8000 1.5 180 07:53 02.01.2020
1536 Clear -3 1026 92 8000 2.1 170 07:30 02.01.2020
1537 Clear -3 1027 92 8000 1 0 06:46 02.01.2020
1538 Clear -3 1027 92 8000 1 0 06:27 02.01.2020
1539 Fog -3 1027 100 400 1.5 170 05:29 02.01.2020
1540 Fog -3 1028 100 200 1.5 150 04:32 02.01.2020
1541 Fog -2 1028 100 200 2.6 200 02:54 02.01.2020
1542 Fog -2 1029 100 200 1 190 01:59 02.01.2020
1543 Fog -2 1029 100 300 1.5 190 01:39 02.01.2020
1544 Fog -2 1029 100 300 1.5 210 00:58 02.01.2020
1545 Fog -2 1029 92 300 2.1 230 00:33 02.01.2020
1546 Fog -2 1030 100 300 1.5 250 23:56 01.01.2020
1547 Mist -2 1029 100 1000 1.5 240 23:37 01.01.2020
1548 Fog -1 1030 100 700 1.5 260 23:18 01.01.2020
1549 Fog -1 1030 100 400 2.1 230 22:38 01.01.2020
1550 Fog -1 1030 100 300 2.1 210 22:19 01.01.2020
1551 Fog -1 1030 100 300 2.1 210 21:56 01.01.2020
1552 Fog -1 1030 100 300 2.6 190 21:38 01.01.2020
1553 Fog -2 1030 100 300 1.5 210 21:19 01.01.2020
1554 Fog -1 1030 100 300 1.5 210 20:55 01.01.2020
1555 Fog -1 1030 100 300 2.1 200 20:37 01.01.2020
1556 Fog -2 1030 100 400 2.1 220 20:19 01.01.2020
1557 Fog -1 1030 100 400 2.1 220 19:55 01.01.2020
1558 Fog -1 1031 100 400 2.1 190 19:37 01.01.2020
1559 Fog -1 1031 100 400 2.1 200 19:19 01.01.2020
1560 Fog -1 1031 100 400 2.1 200 18:55 01.01.2020
1561 Fog -1 1031 100 400 2.6 210 18:36 01.01.2020
1562 Fog -1 1031 100 800 2.1 200 18:18 01.01.2020
1563 Fog -1 1031 100 800 2.1 200 17:56 01.01.2020
1564 Mist -1 1031 100 1400 2.6 210 17:38 01.01.2020
1565 Mist -1 1031 100 1400 2.6 190 17:18 01.01.2020
1566 Mist -1 1031 100 2500 3.1 220 16:41 01.01.2020
1567 Mist -1 1031 100 2500 3.1 220 16:22 01.01.2020
1568 Mist -1 1031 100 3400 2.1 190 15:58 01.01.2020
1569 Mist -1 1031 100 1500 3.1 190 15:40 01.01.2020
1570 Fog -1 1031 100 600 2.6 170 15:21 01.01.2020
1571 Fog -1 1031 100 600 2.6 170 14:59 01.01.2020
1572 Fog -1 1031 100 500 2.6 160 14:40 01.01.2020
1573 Fog -1 1032 100 500 2.6 150 14:21 01.01.2020
1574 Fog -1 1032 100 500 2.6 150 13:56 01.01.2020
1575 Fog -1 1033 100 300 2.1 170 13:37 01.01.2020
1576 Fog -1 1033 92 300 2.1 170 13:18 01.01.2020
1577 Fog -1 1033 92 300 2.1 170 12:57 01.01.2020
1578 Fog -1 1033 100 300 0.5 0 12:39 01.01.2020
1579 Fog -1 1033 100 300 1 0 12:19 01.01.2020
1580 Clear -1 1033 94 0 2.4 194 11:43 01.01.2020
1581 Fog -2 1034 100 300 1 0 11:23 01.01.2020
1582 Fog -2 1034 100 300 2.1 170 10:59 01.01.2020
1583 Fog -2 1034 100 300 2.6 160 10:41 01.01.2020
1584 Fog -2 1034 92 300 1.5 210 10:21 01.01.2020
1585 Fog -2 1034 92 300 1.5 210 09:59 01.01.2020
1586 Fog -2 1034 100 200 1.5 190 09:38 01.01.2020
1587 Fog -2 1034 100 200 1.5 190 09:38 01.01.2020
1588 Fog -2 1034 100 200 1.5 190 09:18 01.01.2020
1589 Fog -2 1034 100 200 1.5 190 08:55 01.01.2020
1590 Fog -2 1034 92 200 1.5 230 08:36 01.01.2020
1591 Fog -2 1034 92 200 1.5 210 08:18 01.01.2020
1592 Fog -2 1034 92 200 1.5 210 07:54 01.01.2020
1593 Fog -2 1034 100 200 1.5 200 07:36 01.01.2020
1594 Fog -1 1034 100 250 1.5 230 06:45 01.01.2020
1595 Fog -1 1034 100 200 0.5 0 06:21 01.01.2020
1596 Fog -1 1034 100 100 0.5 120 05:22 01.01.2020
1597 Fog -1 1034 100 100 2.54 230 03:45 01.01.2020
1598 Fog -1 1034 100 100 2.54 230 03:23 01.01.2020
1599 Fog 0 1034 100 100 0.5 0 02:57 01.01.2020
1600 Fog 0 1034 92 200 1 230 02:36 01.01.2020
1601 Fog 0 1035 100 1300 1 160 01:57 01.01.2020
1602 Mist 0 1035 100 2000 1.5 200 01:38 01.01.2020
1603 Mist 0 1035 100 2000 1 190 01:20 01.01.2020
1604 Mist 0 1035 93 6000 0.5 0 00:44 01.01.2020
1605 Mist 0 1035 93 6000 0.5 0 00:44 01.01.2020
1606 Mist 1 1035 93 6000 0.5 0 00:25 01.01.2020
1607 Clear 1 1035 93 9000 0.5 240 23:41 31.12.2019
1608 Clear 2 1035 100 9000 1 220 23:22 31.12.2019
1609 Clear 2 1035 100 9000 1 220 22:58 31.12.2019
1610 Clear 2 1035 100 10000 1 200 22:39 31.12.2019
1611 Clouds 2 1035 93 10000 0.5 0 22:20 31.12.2019
1612 Clouds 3 1035 93 10000 0.5 0 21:58 31.12.2019
1613 Clear 3 1035 93 10000 0.5 0 21:40 31.12.2019
1614 Clouds 4 1035 80 10000 1 0 21:21 31.12.2019
1615 Clouds 4 1035 80 10000 1 0 20:56 31.12.2019
1616 Clouds 4 1035 86 10000 1.5 260 20:37 31.12.2019
1617 Clouds 5 1035 80 10000 1.5 280 20:19 31.12.2019
1618 Clouds 5 1035 80 10000 1.5 280 19:55 31.12.2019
1619 Clouds 5 1035 80 10000 2.6 290 19:36 31.12.2019
1620 Clouds 5 1035 81 10000 2.1 300 19:18 31.12.2019
1621 Clouds 5 1035 81 10000 2.1 300 18:54 31.12.2019
1622 Clouds 5 1034 81 10000 2.6 310 18:36 31.12.2019
1623 Clouds 5 1034 80 10000 2.6 310 18:18 31.12.2019
1624 Clouds 5 1034 80 10000 2.6 310 17:54 31.12.2019
1625 Clouds 6 1034 80 10000 3.1 290 17:36 31.12.2019
1626 Clouds 6 1034 70 10000 3.6 310 17:18 31.12.2019
1627 Clouds 6 1034 70 10000 3.6 310 16:55 31.12.2019
1628 Clouds 7 1033 75 10000 4.6 300 16:36 31.12.2019
1629 Clouds 7 1033 70 10000 4.6 310 16:18 31.12.2019
1630 Clouds 7 1033 70 10000 4.6 310 15:55 31.12.2019
1631 Clouds 7 1033 70 10000 4.6 310 15:55 31.12.2019
1632 Clouds 7 1033 70 10000 4.6 310 15:55 31.12.2019
1633 Clouds 7 1033 75 10000 4.1 310 15:37 31.12.2019
1634 Clouds 8 1032 75 10000 5.1 300 15:19 31.12.2019
1635 Clouds 8 1032 75 10000 5.1 300 14:55 31.12.2019
1636 Clouds 8 1032 75 10000 5.1 300 14:37 31.12.2019
1637 Clouds 8 1032 75 10000 5.1 300 14:37 31.12.2019
1638 Clouds 8 1032 75 10000 6.2 300 14:18 31.12.2019
1639 Clouds 8 1032 75 10000 6.2 300 13:55 31.12.2019
1640 Clouds 8 1032 75 10000 5.7 300 13:37 31.12.2019
1641 Clouds 8 1032 75 10000 5.7 300 13:19 31.12.2019
1642 Clouds 8 1032 75 10000 5.7 300 12:55 31.12.2019
1643 Clouds 8 1032 75 10000 4.6 290 12:37 31.12.2019
1644 Clouds 8 1032 75 10000 5.7 290 12:18 31.12.2019
1645 Clouds 7 1031 81 10000 5.7 280 11:54 31.12.2019
1646 Clouds 7 1031 81 10000 5.7 280 11:36 31.12.2019
1647 Clouds 7 1031 81 10000 5.7 280 11:36 31.12.2019
1648 Clouds 7 1031 81 10000 4.1 280 11:18 31.12.2019
1649 Clouds 6 1031 87 10000 4.6 280 10:55 31.12.2019
1650 Clouds 6 1031 87 10000 4.6 280 10:37 31.12.2019
1651 Clouds 5 1031 93 10000 4.1 270 10:19 31.12.2019
1652 Clouds 5 1031 93 10000 4.1 270 09:56 31.12.2019
1653 Clouds 5 1031 93 10000 3.6 260 09:38 31.12.2019
1654 Clouds 5 1030 93 10000 2.6 260 09:18 31.12.2019
1655 Clouds 5 1030 93 10000 2.6 260 09:18 31.12.2019
1656 Clouds 5 1030 100 10000 3.1 250 08:42 31.12.2019
1657 Clouds 5 1030 100 10000 3.1 250 08:42 31.12.2019
1658 Clouds 5 1029 93 0 3.8 286 08:22 31.12.2019
1659 Clouds 5 1028 93 0 0.45 238 07:57 31.12.2019
1660 Clouds 5 1029 100 10000 3.6 280 07:38 31.12.2019
1661 Clouds 5 1028 93 0 3.8 286 07:18 31.12.2019
1662 Clouds 5 1028 100 10000 4.1 290 06:40 31.12.2019
1663 Clouds 6 1027 100 7000 4.1 280 05:28 31.12.2019
1664 Mist 6 1026 100 4500 4.6 280 04:25 31.12.2019
1665 Clouds 5 1025 100 10000 3.6 250 02:59 31.12.2019
1666 Clouds 5 1025 93 10000 4.6 250 02:36 31.12.2019
1667 Clouds 5 1025 80 10000 4.6 260 01:51 31.12.2019
1668 Clouds 5 1025 80 10000 4.6 260 01:32 31.12.2019
1669 Clouds 5 1024 80 10000 3.6 250 00:56 31.12.2019
1670 Clouds 5 1024 80 10000 4.1 250 00:37 31.12.2019
1671 Clouds 5 1024 69 10000 4.1 260 00:18 31.12.2019
1672 Clouds 5 1024 69 10000 4.1 260 23:55 30.12.2019
1673 Clouds 4 1024 74 10000 4.6 260 23:36 30.12.2019
1674 Clear 4 1024 64 10000 5.1 250 23:18 30.12.2019
1675 Clear 4 1024 64 10000 5.1 250 22:55 30.12.2019
1676 Clear 4 1024 64 10000 4.6 250 22:37 30.12.2019
1677 Clear 5 1024 60 10000 4.1 250 22:18 30.12.2019
1678 Clear 5 1024 60 10000 4.1 250 21:55 30.12.2019
1679 Clear 5 1024 59 10000 4.1 240 21:37 30.12.2019
1680 Clear 5 1024 59 10000 4.1 230 21:18 30.12.2019
1681 Clear 5 1024 59 10000 4.1 230 20:55 30.12.2019
1682 Clear 5 1024 55 10000 4.1 240 20:37 30.12.2019
1683 Clouds 5 1024 55 10000 4.1 240 20:18 30.12.2019
1684 Clouds 5 1024 55 10000 4.1 240 19:55 30.12.2019
1685 Clouds 5 1024 51 10000 5.1 240 19:36 30.12.2019
1686 Clouds 5 1024 55 10000 3.6 240 19:18 30.12.2019
1687 Clouds 5 1024 51 10000 4.1 230 18:42 30.12.2019
1688 Clouds 4 1024 44 10000 3.1 230 18:21 30.12.2019
1689 Clouds 3 1024 44 10000 3.1 230 17:59 30.12.2019
1690 Clouds 3 1024 44 10000 3.1 230 17:59 30.12.2019
1691 Clouds 3 1024 41 10000 3.6 210 17:41 30.12.2019
1692 Clouds 6 1024 45 10000 3.6 220 17:20 30.12.2019
1693 Clouds 5 1024 45 10000 3.6 220 17:00 30.12.2019
1694 Clouds 7 1024 42 10000 4.1 210 16:41 30.12.2019
1695 Clouds 5 1025 42 10000 3.6 210 16:20 30.12.2019
1696 Clouds 5 1025 42 10000 3.6 210 15:57 30.12.2019
1697 Clouds 5 1025 39 10000 5.1 220 15:39 30.12.2019
1698 Clouds 5 1025 42 10000 4.6 220 15:19 30.12.2019
1699 Clouds 5 1025 42 10000 4.6 220 14:56 30.12.2019
1700 Clouds 5 1025 39 10000 4.6 220 14:38 30.12.2019
1701 Clouds 8 1026 42 10000 6.7 230 14:18 30.12.2019
1702 Clouds 7 1026 39 10000 6.2 220 13:43 30.12.2019
1703 Clouds 7 1026 39 10000 6.2 220 13:24 30.12.2019
1704 Clouds 7 1027 42 10000 5.7 220 12:59 30.12.2019
1705 Clouds 7 1027 39 10000 5.7 220 12:41 30.12.2019
1706 Clouds 7 1027 42 10000 4.6 230 12:19 30.12.2019
1707 Clouds 7 1027 42 10000 4.6 230 11:58 30.12.2019
1708 Clouds 7 1027 45 10000 5.1 230 11:39 30.12.2019
1709 Clouds 4 1028 45 10000 4.6 230 11:19 30.12.2019
1710 Clouds 6 1028 39 10000 5.1 220 10:43 30.12.2019
1711 Clouds 3 1028 48 10000 5.1 220 10:21 30.12.2019
1712 Clouds 3 1028 48 10000 5.1 220 09:57 30.12.2019
1713 Clouds 5 1028 44 10000 5.1 220 09:37 30.12.2019
1714 Clouds 5 1028 41 10000 5.1 210 09:19 30.12.2019
1715 Clouds 5 1028 44 10000 4.1 220 08:49 30.12.2019
1716 Clouds 4 1028 44 10000 4.1 220 08:23 30.12.2019
1717 Clouds 4 1028 44 10000 4.1 230 07:55 30.12.2019
1718 Clouds 4 1028 38 10000 4.1 220 07:34 30.12.2019
1719 Clouds 5 1029 44 10000 3.6 210 06:52 30.12.2019
1720 Clouds 4 1030 48 10000 4.1 230 04:57 30.12.2019
1721 Clouds 4 1030 44 10000 3.1 200 03:55 30.12.2019
1722 Clouds 4 1031 51 10000 2.1 200 02:58 30.12.2019
1723 Clouds 4 1031 51 10000 3.6 200 02:40 30.12.2019
1724 Clouds 4 1031 59 10000 3.6 220 01:50 30.12.2019
1725 Clouds 4 1031 51 10000 3.6 210 01:21 30.12.2019
1726 Clouds 4 1032 55 10000 2.1 220 00:45 30.12.2019
1727 Clouds 4 1032 55 10000 3.1 210 00:19 30.12.2019
1728 Clouds 4 1032 55 10000 2.6 210 23:39 29.12.2019
1729 Clouds 3 1032 59 10000 3.1 200 23:21 29.12.2019
1730 Clouds 3 1032 59 10000 3.1 200 22:55 29.12.2019
1731 Clouds 3 1033 64 10000 3.1 190 22:37 29.12.2019
1732 Clouds 3 1033 59 10000 1.5 200 22:18 29.12.2019
1733 Clouds 3 1033 69 10000 3.1 190 21:43 29.12.2019
1734 Clouds 3 1033 69 10000 3.1 190 21:21 29.12.2019
1735 Clouds 3 1033 69 10000 3.1 190 20:58 29.12.2019
1736 Clouds 3 1034 74 10000 2.1 180 20:39 29.12.2019
1737 Clouds 2 1034 74 10000 2.6 170 20:21 29.12.2019
1738 Clouds 2 1034 74 10000 2.6 170 19:59 29.12.2019
1739 Clouds 2 1034 80 10000 1.5 210 19:40 29.12.2019
1740 Clouds 2 1034 80 10000 1.5 200 19:21 29.12.2019
1741 Clouds 1 1034 80 10000 1.5 200 18:58 29.12.2019
1742 Clouds 2 1034 80 10000 3.1 160 18:39 29.12.2019
1743 Clouds 1 1035 80 10000 2.1 150 18:20 29.12.2019
1744 Clouds 1 1035 80 10000 2.1 150 17:58 29.12.2019
1745 Clouds 1 1035 80 10000 3.6 160 17:39 29.12.2019
1746 Clouds 1 1035 80 10000 2.1 200 17:20 29.12.2019
1747 Clouds 1 1035 80 10000 2.1 200 16:57 29.12.2019
1748 Clouds 1 1035 80 10000 3.1 150 16:39 29.12.2019
1749 Clouds 2 1035 74 10000 1.5 190 16:21 29.12.2019
1750 Clouds 2 1035 74 10000 1.5 190 15:58 29.12.2019
1751 Clouds 2 1035 74 10000 2.1 190 15:39 29.12.2019
1752 Clouds 2 1035 74 10000 2.6 180 15:20 29.12.2019
1753 Clouds 2 1035 74 10000 2.6 180 15:20 29.12.2019
1754 Clouds 2 1035 74 10000 2.6 180 14:58 29.12.2019
1755 Clouds 2 1036 74 10000 2.6 180 14:39 29.12.2019
1756 Clouds 2 1036 74 10000 2.1 190 14:18 29.12.2019
1757 Clouds 2 1036 74 10000 2.1 190 13:58 29.12.2019
1758 Clouds 1 1036 80 10000 3.1 170 13:39 29.12.2019
1759 Clouds 1 1036 86 10000 2.1 180 13:21 29.12.2019
1760 Clouds 1 1036 86 10000 2.1 180 12:56 29.12.2019
1761 Clouds 1 1037 80 10000 2.6 170 12:38 29.12.2019
1762 Clouds 1 1037 80 10000 2.1 190 12:20 29.12.2019
1763 Clouds 1 1037 63 10000 2.6 160 11:41 29.12.2019
1764 Clouds 0 1038 73 10000 2.1 150 11:21 29.12.2019
1765 Clouds 0 1038 92 10000 2.1 150 10:57 29.12.2019
1766 Clouds 0 1038 92 10000 2.1 150 10:38 29.12.2019
1767 Clouds 0 1038 92 10000 1 0 10:18 29.12.2019
1768 Clouds -1 1038 86 10000 1 170 09:45 29.12.2019
1769 Clouds -2 1038 86 10000 1 170 09:27 29.12.2019
1770 Clouds -2 1038 92 10000 1.5 170 08:56 29.12.2019
1771 Clouds -2 1038 92 10000 1.5 160 08:38 29.12.2019
1772 Clouds -2 1038 92 10000 1.5 150 08:20 29.12.2019
1773 Clouds -2 1038 92 10000 1.5 180 07:43 29.12.2019
1774 Clouds -3 1038 92 10000 1.5 180 07:25 29.12.2019
1775 Clouds -3 1038 92 10000 3.1 140 06:38 29.12.2019
1776 Clouds -3 1039 92 10000 2.1 130 06:18 29.12.2019
1777 Clouds -3 1038 92 10000 1.5 140 05:44 29.12.2019
1778 Clouds -3 1039 92 10000 1.5 120 04:32 29.12.2019
1779 Clouds -2 1039 92 10000 1.5 140 03:35 29.12.2019
1780 Clouds -2 1040 92 10000 0.5 0 02:30 29.12.2019
1781 Clouds -2 1039 92 10000 2.1 150 01:52 29.12.2019
1782 Clouds -2 1039 92 10000 2.1 150 01:29 29.12.2019
1783 Clouds -1 1039 92 10000 3.1 140 00:45 29.12.2019
1784 Clouds -1 1039 92 10000 3.1 140 00:25 29.12.2019
1785 Clouds -1 1039 92 10000 3.1 140 00:25 29.12.2019
1786 Clouds -1 1040 92 10000 2.6 140 23:55 28.12.2019
1787 Clouds 0 1040 85 10000 3.1 150 23:37 28.12.2019
1788 Clouds 0 1041 83 10000 3.1 140 23:18 28.12.2019
1789 Clouds 0 1040 83 10000 4.1 150 22:37 28.12.2019
1790 Clouds 0 1041 83 10000 3.1 150 22:18 28.12.2019
1791 Clouds 0 1041 83 10000 3.1 150 21:57 28.12.2019
1792 Clouds 0 1041 83 10000 1.5 130 21:38 28.12.2019
1793 Clouds 0 1041 83 10000 1.5 130 21:19 28.12.2019
1794 Clouds 0 1041 83 10000 1.5 130 20:54 28.12.2019
1795 Clouds 0 1041 83 10000 0.5 0 20:36 28.12.2019
1796 Clouds 0 1041 83 10000 2.6 130 20:18 28.12.2019
1797 Clouds 0 1041 85 10000 2.6 130 19:54 28.12.2019
1798 Clouds 0 1041 85 10000 2.1 140 19:36 28.12.2019
1799 Clouds 0 1041 85 10000 3.6 140 19:18 28.12.2019
1800 Clouds 0 1041 85 10000 2.1 140 18:42 28.12.2019
1801 Clouds 0 1041 85 10000 3.1 140 18:20 28.12.2019
1802 Clouds 0 1041 85 10000 3.1 140 17:59 28.12.2019
1803 Clouds 0 1041 85 10000 3.1 130 17:40 28.12.2019
1804 Clouds 0 1041 82 10000 4.1 130 17:21 28.12.2019
1805 Clouds 0 1041 82 10000 4.1 130 16:54 28.12.2019
1806 Clouds 1 1041 80 10000 3.1 130 16:36 28.12.2019
1807 Clouds 1 1041 80 10000 4.1 130 16:18 28.12.2019
1808 Clouds 1 1041 80 10000 3.1 130 15:41 28.12.2019
1809 Clouds 1 1041 80 10000 3.6 120 15:21 28.12.2019
1810 Clouds 1 1041 80 10000 3.6 130 14:48 28.12.2019
1811 Clouds 1 1041 80 10000 3.6 130 14:26 28.12.2019
1812 Clouds 1 1041 86 10000 3.1 130 13:58 28.12.2019
1813 Clouds 1 1041 86 10000 4.6 130 13:40 28.12.2019
1814 Clouds 1 1041 80 10000 4.6 130 13:21 28.12.2019
1815 Clouds 1 1041 80 10000 4.6 130 12:58 28.12.2019
1816 Clouds 0 1042 80 10000 3.6 130 12:40 28.12.2019
1817 Clouds 0 1042 80 10000 2.1 120 12:21 28.12.2019
1818 Clouds 0 1042 80 10000 1.5 140 11:40 28.12.2019
1819 Clouds 0 1042 80 10000 1.5 140 11:40 28.12.2019
1820 Clouds 0 1042 91 10000 2.1 140 11:21 28.12.2019
1821 Clouds 0 1042 91 10000 2.1 140 10:56 28.12.2019
1822 Clouds -1 1042 91 10000 2.6 120 10:38 28.12.2019
1823 Clouds -1 1042 92 10000 2.1 100 10:19 28.12.2019
1824 Clouds -2 1042 92 10000 1 0 09:54 28.12.2019
1825 Clouds -2 1042 92 10000 1 0 09:36 28.12.2019
1826 Clouds -2 1041 100 10000 2.6 110 09:18 28.12.2019
1827 Clouds -2 1041 92 10000 1 0 08:42 28.12.2019
1828 Clouds -2 1041 92 10000 1 0 08:23 28.12.2019
1829 Clouds -2 1041 100 10000 1.5 70 07:47 28.12.2019
1830 Clouds -2 1041 100 10000 1.5 70 07:23 28.12.2019
1831 Clouds -1 1040 92 10000 1.5 80 05:51 28.12.2019
1832 Clouds 0 1040 92 10000 1.5 90 03:48 28.12.2019
1833 Clouds 0 1040 92 10000 1.5 100 02:51 28.12.2019
1834 Clouds 0 1040 92 10000 1.5 100 02:31 28.12.2019
1835 Clouds 0 1040 85 10000 1 50 01:56 28.12.2019
1836 Clouds 0 1040 85 10000 1 50 01:56 28.12.2019
1837 Clouds 0 1040 84 10000 1 60 01:24 28.12.2019
1838 Clouds 0 1039 100 10000 0.5 320 00:51 28.12.2019
1839 Clouds 0 1039 100 10000 0.5 320 00:32 28.12.2019
1840 Clouds 0 1039 100 10000 0.5 220 23:59 27.12.2019
1841 Clouds 0 1039 84 10000 1.5 80 23:41 27.12.2019
1842 Clouds 0 1038 83 10000 1 0 23:19 27.12.2019
1843 Clouds 0 1038 83 10000 1.5 100 22:57 27.12.2019
1844 Clouds 0 1038 83 10000 1.5 100 22:38 27.12.2019
1845 Clouds 1 1038 83 10000 2.1 100 22:20 27.12.2019
1846 Clouds 1 1038 83 10000 2.1 60 21:44 27.12.2019
1847 Clouds 1 1038 83 10000 2.1 60 21:25 27.12.2019
1848 Clouds 2 1037 83 10000 1.5 70 20:58 27.12.2019
1849 Clouds 2 1037 83 10000 2.1 80 20:40 27.12.2019
1850 Clouds 2 1037 76 10000 2.1 60 20:21 27.12.2019
1851 Clouds 2 1037 76 10000 2.6 50 19:42 27.12.2019
1852 Clouds 2 1036 76 10000 3.1 40 19:20 27.12.2019
1853 Clouds 2 1036 76 10000 3.1 40 18:59 27.12.2019
1854 Clouds 2 1036 76 10000 2.6 50 18:38 27.12.2019
1855 Clouds 3 1035 74 10000 1 0 18:20 27.12.2019
1856 Clouds 3 1035 74 10000 1 0 17:57 27.12.2019
1857 Clouds 3 1035 74 10000 0.5 0 17:39 27.12.2019
1858 Clouds 3 1035 79 10000 1.5 60 17:19 27.12.2019
1859 Clouds 3 1035 79 10000 1.5 60 16:58 27.12.2019
1860 Clouds 3 1034 79 10000 3.1 60 16:38 27.12.2019
1861 Clouds 3 1033 79 10000 3.6 90 16:19 27.12.2019
1862 Clouds 3 1033 79 10000 3.6 90 16:19 27.12.2019
1863 Clouds 3 1033 74 10000 3.6 80 15:43 27.12.2019
1864 Clouds 3 1033 79 10000 3.1 40 15:22 27.12.2019
1865 Clouds 3 1033 79 10000 3.1 40 14:57 27.12.2019
1866 Clouds 3 1032 79 10000 4.1 50 14:39 27.12.2019
1867 Clouds 3 1032 82 10000 4.6 50 14:20 27.12.2019
1868 Clouds 3 1032 82 10000 4.6 50 13:55 27.12.2019
1869 Clouds 3 1032 82 10000 5.1 50 13:37 27.12.2019
1870 Clouds 3 1032 80 10000 5.1 30 13:18 27.12.2019
1871 Clouds 4 1031 80 10000 5.1 40 12:40 27.12.2019
1872 Clouds 4 1031 86 10000 5.1 50 12:22 27.12.2019
1873 Clouds 3 1031 80 10000 4.1 50 11:46 27.12.2019
1874 Clouds 3 1030 86 10000 3.6 50 11:26 27.12.2019
1875 Clouds 3 1031 80 10000 4.1 50 11:26 27.12.2019
1876 Clouds 3 1030 86 10000 3.6 50 10:59 27.12.2019
1877 Clouds 3 1030 86 10000 4.1 40 10:40 27.12.2019
1878 Clouds 3 1029 86 10000 3.1 50 10:22 27.12.2019
1879 Clouds 3 1028 93 10000 3.6 50 09:44 27.12.2019
1880 Clouds 2 1028 93 7000 3.6 60 09:22 27.12.2019
1881 Clouds 2 1028 93 7000 3.6 60 09:22 27.12.2019
1882 Clouds 2 1028 93 7000 3.6 60 08:59 27.12.2019
1883 Clouds 2 1028 93 7000 3.6 60 08:59 27.12.2019
1884 Clouds 3 1027 93 8000 4.1 60 08:37 27.12.2019
1885 Clouds 2 1026 86 10000 3.6 50 07:53 27.12.2019
1886 Clouds 2 1026 93 10000 2.6 50 07:34 27.12.2019
1887 Clouds 2 1025 93 10000 2.1 60 06:39 27.12.2019
1888 Clouds 2 1025 93 10000 2.1 60 06:18 27.12.2019
1889 Clouds 2 1024 80 10000 3.1 60 04:20 27.12.2019
1890 Clouds 3 1023 93 10000 2.1 80 02:26 27.12.2019
1891 Clouds 3 1023 93 10000 2.6 70 01:42 27.12.2019
1892 Clouds 3 1023 93 10000 2.1 90 01:20 27.12.2019
1893 Clouds 3 1023 93 10000 2.1 90 00:46 27.12.2019
1894 Clouds 3 1023 93 10000 2.1 90 00:25 27.12.2019
1895 Clouds 3 1023 86 10000 2.6 110 23:54 26.12.2019
1896 Clouds 3 1023 86 10000 2.6 110 23:36 26.12.2019
1897 Clouds 3 1023 100 10000 1.5 130 23:18 26.12.2019
1898 Clouds 3 1023 93 10000 1.5 110 22:38 26.12.2019
1899 Clouds 3 1023 100 10000 1.5 100 22:18 26.12.2019
1900 Clouds 4 1023 93 10000 1.5 90 21:40 26.12.2019
1901 Clouds 4 1023 93 10000 2.1 70 21:21 26.12.2019
1902 Clouds 4 1023 93 10000 2.1 70 20:58 26.12.2019
1903 Clouds 5 1023 86 10000 2.1 140 20:38 26.12.2019
1904 Clouds 5 1023 86 10000 1.5 120 20:20 26.12.2019
1905 Clouds 5 1023 86 10000 1.5 120 19:55 26.12.2019
1906 Clouds 5 1023 86 10000 1 0 19:37 26.12.2019
1907 Clouds 5 1023 86 10000 0.5 0 19:19 26.12.2019
1908 Clouds 5 1023 86 10000 0.5 0 18:57 26.12.2019
1909 Clouds 5 1023 86 10000 1.5 180 18:36 26.12.2019
1910 Clouds 5 1023 93 10000 1.5 170 18:18 26.12.2019
1911 Clouds 5 1023 86 10000 1 0 17:41 26.12.2019
1912 Clouds 5 1023 86 10000 0.5 0 17:22 26.12.2019
1913 Clouds 5 1023 87 10000 0.5 170 16:50 26.12.2019
1914 Clouds 6 1023 87 10000 0.5 170 16:28 26.12.2019
1915 Clouds 6 1023 87 10000 1 230 15:58 26.12.2019
1916 Clouds 6 1023 87 10000 2.1 220 15:40 26.12.2019
1917 Clouds 6 1023 87 10000 1.5 210 15:19 26.12.2019
1918 Clouds 6 1023 87 10000 2.1 220 14:42 26.12.2019
1919 Clouds 6 1023 87 10000 2.1 220 14:23 26.12.2019
1920 Clouds 6 1023 87 10000 2.1 220 13:58 26.12.2019
1921 Clouds 6 1023 87 10000 2.1 240 13:40 26.12.2019
1922 Clouds 6 1023 87 10000 2.6 260 13:19 26.12.2019
1923 Clouds 6 1023 87 10000 2.6 260 12:56 26.12.2019
1924 Clouds 6 1024 87 10000 1.5 230 12:37 26.12.2019
1925 Clouds 6 1024 81 10000 1.5 290 12:18 26.12.2019
1926 Clouds 6 1024 81 10000 1.5 290 11:56 26.12.2019
1927 Clouds 6 1024 87 10000 2.1 250 11:37 26.12.2019
1928 Clouds 5 1024 93 10000 2.1 260 11:19 26.12.2019
1929 Clouds 5 1024 93 10000 2.1 240 10:41 26.12.2019
1930 Clouds 5 1024 93 10000 2.1 230 10:18 26.12.2019
1931 Clouds 4 1024 100 10000 1 0 09:43 26.12.2019
1932 Clouds 4 1024 100 10000 1 0 09:25 26.12.2019
1933 Clouds 4 1024 100 10000 2.6 220 08:42 26.12.2019
1934 Clouds 4 1024 100 10000 2.6 220 08:24 26.12.2019
1935 Clouds 5 1024 93 10000 2.1 210 07:53 26.12.2019
1936 Clouds 5 1024 93 10000 2.1 210 07:26 26.12.2019
1937 Rain 5 1024 93 10000 3.1 250 06:53 26.12.2019
1938 Clouds 5 1024 100 10000 3.1 240 06:32 26.12.2019
1939 Clouds 5 1023 100 10000 1.5 270 05:45 26.12.2019
1940 Clouds 5 1023 93 10000 3.1 280 04:55 26.12.2019
1941 Clouds 5 1023 93 10000 3.1 280 04:29 26.12.2019
1942 Clouds 5 1024 100 10000 3.6 260 02:56 26.12.2019
1943 Clouds 5 1024 93 10000 3.6 250 02:34 26.12.2019
1944 Clouds 5 1024 93 10000 3.6 250 02:34 26.12.2019
1945 Clear 5 1022 96 0 3.9 266 01:50 26.12.2019
1946 Clear 5 1022 96 0 3.9 266 01:32 26.12.2019
1947 Clouds 5 1024 93 10000 2.6 280 00:50 26.12.2019
1948 Clouds 5 1024 93 10000 2.6 280 00:27 26.12.2019
1949 Clouds 5 1023 93 10000 3.1 280 23:59 25.12.2019
1950 Clouds 6 1023 87 10000 3.6 270 23:40 25.12.2019
1951 Clouds 6 1023 87 10000 3.6 270 23:21 25.12.2019
1952 Clouds 6 1023 87 10000 3.6 270 22:59 25.12.2019
1953 Clouds 5 1023 93 10000 2.6 270 22:39 25.12.2019
1954 Clouds 6 1023 100 10000 2.6 250 22:21 25.12.2019
1955 Clouds 6 1023 100 10000 2.6 250 21:59 25.12.2019
1956 Clouds 6 1022 100 10000 2.6 260 21:39 25.12.2019
1957 Clouds 6 1022 93 10000 2.6 270 21:20 25.12.2019
1958 Clouds 6 1022 93 10000 2.6 270 20:57 25.12.2019
1959 Clouds 6 1022 100 10000 2.1 270 20:39 25.12.2019
1960 Clouds 6 1022 93 10000 1.5 290 20:18 25.12.2019
1961 Clouds 6 1022 93 10000 2.6 290 19:43 25.12.2019
1962 Clouds 6 1022 93 10000 2.6 290 19:25 25.12.2019
1963 Clouds 6 1021 93 10000 2.6 290 18:59 25.12.2019
1964 Clouds 6 1021 93 10000 2.1 300 18:38 25.12.2019
1965 Clouds 6 1021 93 10000 2.1 300 18:38 25.12.2019
1966 Clouds 6 1021 81 10000 2.1 340 18:19 25.12.2019
1967 Clouds 6 1021 87 10000 3.1 290 17:42 25.12.2019
1968 Clouds 6 1020 93 10000 3.1 300 17:20 25.12.2019
1969 Clouds 6 1020 93 10000 3.1 300 16:59 25.12.2019
1970 Clouds 7 1020 87 10000 3.6 300 16:39 25.12.2019
1971 Clouds 7 1019 87 10000 4.6 300 16:19 25.12.2019
1972 Clouds 7 1019 87 10000 4.6 300 15:57 25.12.2019
1973 Clouds 7 1019 93 10000 5.1 300 15:39 25.12.2019
1974 Clouds 7 1018 87 10000 3.6 290 15:20 25.12.2019
1975 Clouds 7 1018 87 10000 3.6 290 14:58 25.12.2019
1976 Clouds 7 1018 81 10000 3.6 300 14:39 25.12.2019
1977 Clouds 7 1018 81 10000 3.6 300 14:39 25.12.2019
1978 Clouds 7 1018 93 10000 4.1 300 14:21 25.12.2019
1979 Clouds 7 1018 93 10000 4.1 300 13:55 25.12.2019
1980 Clouds 7 1017 93 10000 3.6 300 13:36 25.12.2019
1981 Clouds 7 1017 93 10000 4.6 290 13:18 25.12.2019
1982 Clouds 7 1016 93 10000 4.1 290 12:39 25.12.2019
1983 Rain 7 1016 93 8000 4.1 290 12:20 25.12.2019
1984 Rain 7 1016 93 8000 4.1 290 11:55 25.12.2019
1985 Rain 7 1016 93 8000 4.1 290 11:55 25.12.2019
1986 Clouds 6 1016 93 9000 4.1 280 11:37 25.12.2019
1987 Drizzle 6 1015 93 6000 3.1 280 11:18 25.12.2019
1988 Clouds 6 1015 93 6000 3.1 280 10:38 25.12.2019
1989 Mist 5 1014 100 4200 4.1 290 10:20 25.12.2019
1990 Mist 5 1014 100 4500 3.6 290 09:51 25.12.2019
1991 Mist 5 1014 100 4500 3.6 290 09:32 25.12.2019
1992 Clouds 5 1013 93 6000 3.1 300 08:51 25.12.2019
1993 Clouds 5 1013 93 6000 3.1 300 08:31 25.12.2019
1994 Clouds 5 1012 100 10000 2.6 300 07:52 25.12.2019
1995 Clouds 5 1012 100 10000 2.6 300 07:34 25.12.2019
1996 Clouds 5 1011 100 6000 2.6 290 06:52 25.12.2019
1997 Clouds 5 1011 100 6000 2.6 290 06:23 25.12.2019
1998 Clouds 6 1010 93 6000 2.6 290 05:18 25.12.2019
1999 Clouds 6 1010 93 6000 2.6 290 04:39 25.12.2019
2000 Clouds 6 1009 93 6000 2.1 290 04:20 25.12.2019
2001 Clouds 6 1009 100 6000 2.1 310 03:42 25.12.2019
2002 Drizzle 6 1009 93 6000 3.6 300 02:56 25.12.2019
2003 Drizzle 6 1009 100 6000 3.1 310 02:27 25.12.2019
2004 Drizzle 6 1008 100 4500 2.6 300 01:26 25.12.2019
2005 Drizzle 6 1008 100 2500 2.1 300 00:56 25.12.2019
2006 Drizzle 6 1007 100 2800 2.1 300 00:33 25.12.2019
2007 Drizzle 6 1007 100 5000 2.6 290 23:59 24.12.2019
2008 Drizzle 6 1007 100 1800 1.5 300 23:39 24.12.2019
2009 Drizzle 6 1006 100 4200 2.1 280 23:20 24.12.2019
2010 Drizzle 6 1006 100 4200 2.1 280 23:20 24.12.2019
2011 Drizzle 6 1006 100 4000 2.1 280 22:42 24.12.2019
2012 Drizzle 6 1006 100 4000 2.1 280 22:23 24.12.2019
2013 Drizzle 6 1006 100 2200 2.1 270 21:57 24.12.2019
2014 Drizzle 6 1005 100 5000 2.1 260 21:37 24.12.2019
2015 Drizzle 6 1005 100 6000 1.5 270 21:19 24.12.2019
2016 Drizzle 6 1005 100 7000 1.5 310 20:41 24.12.2019
2017 Drizzle 6 1005 100 8000 1.5 290 20:20 24.12.2019
2018 Clouds 6 1004 100 9000 1.5 280 19:47 24.12.2019
2019 Clouds 6 1004 100 10000 2.1 280 19:22 24.12.2019
2020 Clouds 6 1004 100 10000 2.1 280 18:59 24.12.2019
2021 Clouds 6 1004 100 10000 1 0 18:40 24.12.2019
2022 Clouds 6 1003 100 9000 0.5 0 18:18 24.12.2019
2023 Clouds 6 1003 100 9000 0.5 0 18:18 24.12.2019
2024 Drizzle 6 1003 93 4500 1.5 120 17:44 24.12.2019
2025 Rain 6 1003 93 10000 1.5 160 17:22 24.12.2019
2026 Rain 6 1003 93 10000 1.5 160 17:22 24.12.2019
2027 Rain 6 1003 93 10000 1.5 160 16:58 24.12.2019
2028 Rain 6 1003 93 8000 3.6 110 16:40 24.12.2019
2029 Drizzle 6 1003 93 5000 2.6 90 16:21 24.12.2019
2030 Drizzle 6 1003 93 5000 2.6 90 15:58 24.12.2019
2031 Rain 6 1003 93 10000 3.6 130 15:37 24.12.2019
2032 Rain 6 1003 93 10000 3.1 130 15:19 24.12.2019
2033 Rain 6 1003 93 10000 3.1 130 14:58 24.12.2019
2034 Rain 6 1003 93 10000 3.1 130 14:40 24.12.2019
2035 Rain 6 1003 93 10000 3.1 130 14:40 24.12.2019
2036 Rain 6 1004 93 10000 3.6 140 14:22 24.12.2019
2037 Rain 6 1004 93 10000 3.6 140 13:56 24.12.2019
2038 Rain 6 1005 93 9000 4.1 170 13:38 24.12.2019
2039 Rain 6 1005 87 6000 3.6 170 13:20 24.12.2019
2040 Rain 7 1005 87 6000 3.6 170 12:57 24.12.2019
2041 Rain 7 1006 87 10000 3.6 150 12:38 24.12.2019
2042 Rain 7 1006 87 10000 3.6 150 12:38 24.12.2019
2043 Rain 7 1006 87 10000 4.1 150 12:19 24.12.2019
2044 Rain 7 1006 87 10000 4.1 150 11:57 24.12.2019
2045 Clouds 7 1007 93 10000 4.1 170 11:38 24.12.2019
2046 Clouds 7 1007 93 10000 3.6 160 11:19 24.12.2019
2047 Clouds 7 1007 93 10000 3.6 160 10:57 24.12.2019
2048 Clouds 7 1008 87 10000 4.1 170 10:38 24.12.2019
2049 Clouds 7 1008 87 10000 3.6 180 10:20 24.12.2019
2050 Clouds 7 1008 87 10000 3.6 180 09:57 24.12.2019
2051 Clouds 7 1009 87 10000 3.1 190 09:39 24.12.2019
2052 Clouds 6 1009 93 10000 4.1 200 09:21 24.12.2019
2053 Clouds 6 1009 93 10000 3.6 200 08:47 24.12.2019
2054 Clouds 6 1009 93 10000 3.6 200 08:47 24.12.2019
2055 Clouds 6 1009 93 10000 3.6 200 08:24 24.12.2019
2056 Clouds 6 1010 93 10000 3.6 200 07:59 24.12.2019
2057 Clouds 6 1010 93 10000 4.1 210 07:39 24.12.2019
2058 Clouds 6 1010 93 10000 3.6 210 07:21 24.12.2019
2059 Clouds 6 1010 93 10000 3.6 210 06:40 24.12.2019
2060 Clouds 6 1010 93 10000 4.1 210 06:22 24.12.2019
2061 Clouds 6 1010 93 10000 4.1 210 05:55 24.12.2019
2062 Clouds 6 1011 87 10000 4.6 220 05:20 24.12.2019
2063 Clouds 6 1011 93 10000 4.6 220 04:22 24.12.2019
2064 Clouds 6 1011 93 10000 4.6 220 03:50 24.12.2019
2065 Clouds 6 1011 87 10000 5.7 230 02:37 24.12.2019
2066 Clouds 6 1011 87 10000 5.1 230 02:18 24.12.2019
2067 Clouds 6 1011 87 10000 5.1 230 01:42 24.12.2019
2068 Clouds 6 1009 93 0 1.34 236 01:19 24.12.2019
2069 Clouds 6 1010 87 10000 4.6 240 00:41 24.12.2019
2070 Rain 6 1010 87 10000 5.1 240 00:22 24.12.2019
2071 Rain 6 1010 87 10000 5.1 240 23:55 23.12.2019
2072 Clouds 6 1010 93 10000 4.6 240 23:37 23.12.2019
2073 Clouds 7 1010 93 10000 4.6 230 23:19 23.12.2019
2074 Clouds 7 1010 93 10000 4.6 230 22:54 23.12.2019
2075 Clouds 7 1009 93 10000 4.6 240 22:36 23.12.2019
2076 Clouds 7 1009 87 10000 6.7 250 22:18 23.12.2019
2077 Clouds 7 1009 87 10000 6.7 250 21:54 23.12.2019
2078 Clouds 7 1009 93 10000 4.6 240 21:36 23.12.2019
2079 Clouds 7 1009 87 10000 6.2 260 21:18 23.12.2019
2080 Clouds 7 1009 87 10000 6.2 260 20:55 23.12.2019
2081 Rain 7 1008 87 10000 6.2 250 20:37 23.12.2019
2082 Clouds 7 1008 87 10000 5.7 240 20:18 23.12.2019
2083 Clouds 8 1008 87 10000 5.7 240 19:54 23.12.2019
2084 Clouds 7 1007 93 10000 5.1 250 19:36 23.12.2019
2085 Clouds 7 1007 93 10000 4.6 240 19:18 23.12.2019
2086 Clouds 7 1007 93 10000 4.1 250 18:54 23.12.2019
2087 Clouds 7 1007 93 10000 4.1 250 18:36 23.12.2019
2088 Clouds 7 1006 93 10000 4.6 250 18:18 23.12.2019
2089 Clouds 7 1006 93 10000 6.2 250 17:55 23.12.2019
2090 Clouds 7 1006 93 10000 6.2 250 17:37 23.12.2019
2091 Clouds 8 1006 87 10000 6.2 240 17:18 23.12.2019
2092 Clouds 8 1005 87 10000 4.1 240 16:42 23.12.2019
2093 Rain 8 1005 87 10000 6.7 250 16:19 23.12.2019
2094 Rain 8 1005 87 10000 6.7 250 15:58 23.12.2019
2095 Clouds 8 1004 87 10000 5.1 250 15:37 23.12.2019
2096 Rain 8 1004 87 10000 5.1 250 15:19 23.12.2019
2097 Rain 8 1004 87 10000 5.1 250 14:58 23.12.2019
2098 Clouds 8 1003 81 10000 5.1 250 14:39 23.12.2019
2099 Rain 8 1003 81 10000 7.2 260 14:20 23.12.2019
2100 Rain 8 1003 81 10000 7.2 260 13:58 23.12.2019
2101 Clouds 8 1003 81 10000 6.7 250 13:40 23.12.2019
2102 Rain 8 1002 87 10000 6.2 250 13:21 23.12.2019
2103 Rain 8 1002 87 10000 6.2 250 12:55 23.12.2019
2104 Clouds 8 1002 87 10000 6.2 240 12:37 23.12.2019
2105 Clouds 8 1002 87 10000 5.7 250 12:19 23.12.2019
2106 Rain 8 1002 87 10000 6.2 240 11:44 23.12.2019
2107 Rain 7 1002 87 10000 6.2 240 11:25 23.12.2019
2108 Clouds 7 1001 93 10000 5.1 230 10:57 23.12.2019
2109 Clouds 7 1001 93 10000 5.1 230 10:57 23.12.2019
2110 Clouds 7 1001 93 10000 4.6 240 10:39 23.12.2019
2111 Rain 7 1000 93 10000 5.1 240 10:20 23.12.2019
2112 Rain 7 1000 93 10000 5.1 240 09:59 23.12.2019
2113 Clouds 7 999 87 10000 4.6 230 09:39 23.12.2019
2114 Clouds 7 999 87 10000 5.1 240 09:20 23.12.2019
2115 Clouds 7 999 87 10000 5.1 240 08:56 23.12.2019
2116 Clouds 7 998 87 10000 5.7 240 08:38 23.12.2019
2117 Clouds 7 998 87 10000 5.1 240 08:19 23.12.2019
2118 Clouds 7 997 87 10000 6.2 240 07:43 23.12.2019
2119 Clouds 7 997 87 10000 5.7 240 07:20 23.12.2019
2120 Clouds 7 997 87 10000 5.7 240 06:53 23.12.2019
2121 Clouds 7 996 95 0 5.72 252 06:25 23.12.2019
2122 Clouds 7 995 87 10000 6.7 250 05:50 23.12.2019
2123 Clouds 7 994 95 0 1.34 269 05:28 23.12.2019
2124 Clouds 7 994 87 10000 6.2 250 04:31 23.12.2019
2125 Rain 7 993 96 0 0.45 315 03:24 23.12.2019
2126 Rain 7 992 93 10000 6.7 260 02:41 23.12.2019
2127 Rain 7 991 93 10000 6.2 260 02:19 23.12.2019
2128 Rain 7 991 100 10000 7.7 270 01:42 23.12.2019
2129 Rain 8 990 93 10000 7.7 280 01:23 23.12.2019
2130 Rain 8 989 100 3500 3.1 220 00:43 23.12.2019
2131 Rain 8 989 100 3500 3.1 220 00:23 23.12.2019
2132 Rain 8 988 100 3200 2.1 200 23:40 22.12.2019
2133 Rain 8 988 100 5000 2.6 200 23:21 22.12.2019
2134 Rain 8 988 100 5000 2.6 200 22:58 22.12.2019
2135 Rain 8 988 100 5000 2.6 200 22:58 22.12.2019
2136 Rain 8 988 100 5000 2.6 200 22:58 22.12.2019
2137 Rain 8 987 100 10000 2.1 190 22:40 22.12.2019
2138 Rain 8 987 93 10000 2.6 170 22:21 22.12.2019
2139 Rain 8 987 93 10000 2.6 170 21:58 22.12.2019
2140 Rain 8 987 93 10000 2.6 170 21:58 22.12.2019
2141 Clouds 8 986 100 10000 2.1 150 21:40 22.12.2019
2142 Clouds 8 986 100 10000 2.6 140 21:21 22.12.2019
2143 Clouds 7 986 100 10000 2.6 140 20:58 22.12.2019
2144 Rain 7 986 100 2700 3.1 150 20:39 22.12.2019
2145 Clouds 7 985 87 10000 3.6 140 20:19 22.12.2019
2146 Clouds 7 985 87 10000 3.6 140 19:57 22.12.2019
2147 Clouds 7 985 93 10000 3.6 140 19:38 22.12.2019
2148 Clouds 7 985 93 10000 3.6 130 19:19 22.12.2019
2149 Clouds 7 985 87 10000 3.6 130 18:42 22.12.2019
2150 Clouds 7 985 93 10000 4.1 120 18:24 22.12.2019
2151 Clouds 7 985 93 10000 4.1 120 17:57 22.12.2019
2152 Clouds 8 984 87 10000 4.1 120 17:39 22.12.2019
2153 Clouds 8 984 87 10000 4.1 120 17:19 22.12.2019
2154 Clouds 8 984 87 10000 4.1 120 16:58 22.12.2019
2155 Clouds 8 984 87 10000 4.6 120 16:40 22.12.2019
2156 Clouds 8 984 87 10000 2.6 100 16:22 22.12.2019
2157 Clouds 8 984 87 10000 2.6 100 15:57 22.12.2019
2158 Clouds 8 984 87 10000 2.6 120 15:38 22.12.2019
2159 Clouds 8 984 87 10000 3.1 120 15:20 22.12.2019
2160 Clouds 8 984 87 10000 3.1 120 14:56 22.12.2019
2161 Clouds 8 984 81 10000 3.6 130 14:38 22.12.2019
2162 Clouds 8 984 81 10000 3.6 140 14:18 22.12.2019
2163 Clouds 8 984 81 10000 3.6 140 13:55 22.12.2019
2164 Clouds 7 984 87 10000 3.6 130 13:37 22.12.2019
2165 Clouds 8 984 87 10000 4.1 130 13:19 22.12.2019
2166 Clouds 7 984 87 10000 4.1 130 12:56 22.12.2019
2167 Clouds 7 984 87 10000 4.1 130 12:38 22.12.2019
2168 Rain 7 984 93 10000 4.1 130 12:19 22.12.2019
2169 Rain 7 984 93 10000 4.1 130 11:56 22.12.2019
2170 Drizzle 6 984 93 6000 4.1 130 11:38 22.12.2019
2171 Clouds 6 984 87 10000 3.6 130 11:19 22.12.2019
2172 Clouds 6 984 87 10000 3.6 130 10:56 22.12.2019
2173 Clouds 6 984 87 10000 4.1 130 10:38 22.12.2019
2174 Clouds 6 984 93 10000 3.6 120 10:19 22.12.2019
2175 Clouds 6 984 93 10000 3.6 120 10:19 22.12.2019
2176 Clouds 6 984 93 10000 3.6 120 09:57 22.12.2019
2177 Clouds 6 984 93 10000 4.1 140 09:39 22.12.2019
2178 Clouds 5 984 93 10000 4.6 130 09:20 22.12.2019
2179 Clouds 5 983 93 10000 5.1 130 08:45 22.12.2019
2180 Clouds 5 983 93 10000 5.1 130 08:22 22.12.2019
2181 Rain 5 983 86 10000 4.6 130 07:44 22.12.2019
2182 Rain 5 983 86 10000 5.1 130 07:21 22.12.2019
2183 Rain 5 983 86 10000 5.1 130 06:55 22.12.2019
2184 Rain 5 983 86 10000 5.1 120 06:26 22.12.2019
2185 Clouds 5 983 86 10000 5.1 120 05:41 22.12.2019
2186 Clouds 5 984 86 10000 5.1 130 05:20 22.12.2019
2187 Clouds 4 984 93 10000 4.6 120 04:26 22.12.2019
2188 Clouds 5 984 86 10000 4.1 100 02:56 22.12.2019
2189 Clouds 5 985 86 10000 4.6 120 02:34 22.12.2019
2190 Clouds 4 985 93 10000 4.6 120 01:32 22.12.2019
2191 Clouds 4 985 93 10000 4.6 120 00:58 22.12.2019
2192 Clouds 4 985 86 10000 4.6 120 00:39 22.12.2019
2193 Clouds 4 986 86 10000 4.1 120 00:20 22.12.2019
2194 Clouds 5 986 86 10000 3.6 130 23:42 21.12.2019
2195 Clouds 5 986 86 10000 3.6 130 23:24 21.12.2019
2196 Clouds 5 986 86 10000 3.6 130 22:57 21.12.2019
2197 Clouds 5 987 86 10000 3.1 130 22:39 21.12.2019
2198 Clouds 5 987 86 10000 3.6 140 22:19 21.12.2019
2199 Clouds 6 987 86 10000 3.6 140 21:56 21.12.2019
2200 Clouds 6 987 81 10000 3.1 140 21:37 21.12.2019
2201 Clouds 6 987 81 10000 3.6 150 21:19 21.12.2019
2202 Clouds 6 987 81 10000 3.6 150 20:57 21.12.2019
2203 Clouds 7 988 81 10000 4.6 160 20:39 21.12.2019
2204 Clouds 7 988 75 10000 5.7 170 20:21 21.12.2019
2205 Clouds 7 988 75 10000 5.7 170 19:57 21.12.2019
2206 Clouds 7 988 75 10000 5.7 170 19:39 21.12.2019
2207 Clouds 8 988 75 10000 5.1 160 19:19 21.12.2019
2208 Clouds 8 988 75 10000 5.1 150 18:44 21.12.2019
2209 Clouds 8 988 75 10000 5.1 150 18:24 21.12.2019
2210 Clouds 8 988 75 10000 6.2 140 17:57 21.12.2019
2211 Clouds 8 988 75 10000 6.2 140 17:39 21.12.2019
2212 Clouds 8 989 81 10000 5.7 140 17:21 21.12.2019
2213 Clouds 8 989 81 10000 5.7 140 16:58 21.12.2019
2214 Clouds 8 989 81 10000 5.7 150 16:40 21.12.2019
2215 Clouds 8 989 81 10000 5.1 160 16:18 21.12.2019
2216 Clouds 8 989 81 10000 5.1 160 16:18 21.12.2019
2217 Clouds 9 989 81 10000 5.1 160 15:57 21.12.2019
2218 Clouds 9 989 81 10000 5.1 160 15:57 21.12.2019
2219 Clouds 9 989 76 10000 4.1 160 15:38 21.12.2019
2220 Clouds 9 989 76 10000 4.6 170 15:19 21.12.2019
2221 Clouds 9 989 76 10000 4.6 170 14:55 21.12.2019
2222 Clouds 9 990 76 10000 6.2 180 14:37 21.12.2019
2223 Clouds 9 990 71 10000 5.1 180 14:18 21.12.2019
2224 Clouds 9 990 71 10000 5.1 180 13:55 21.12.2019
2225 Clouds 9 990 76 10000 6.2 180 13:37 21.12.2019
2226 Clear 10 990 71 10000 7.2 190 13:18 21.12.2019
2227 Clear 10 990 71 10000 7.2 190 12:54 21.12.2019
2228 Clear 10 991 71 10000 5.1 180 12:36 21.12.2019
2229 Clear 9 991 76 10000 4.6 190 12:18 21.12.2019
2230 Clear 9 991 76 10000 3.6 180 11:41 21.12.2019
2231 Clear 8 991 76 10000 3.6 180 11:23 21.12.2019
2232 Clear 8 991 81 10000 3.6 160 10:56 21.12.2019
2233 Clouds 7 991 81 10000 3.6 150 10:37 21.12.2019
2234 Clouds 7 991 81 10000 3.1 160 10:19 21.12.2019
2235 Clouds 7 991 81 10000 3.1 160 10:19 21.12.2019
2236 Clouds 6 991 81 10000 3.1 160 09:42 21.12.2019
2237 Clouds 6 991 81 10000 3.6 180 09:21 21.12.2019
2238 Clouds 6 991 81 10000 3.6 180 08:57 21.12.2019
2239 Clouds 6 991 87 10000 3.1 180 08:37 21.12.2019
2240 Clouds 6 991 87 10000 3.1 170 08:19 21.12.2019
2241 Clouds 7 991 81 10000 3.6 200 07:44 21.12.2019
2242 Clouds 7 991 87 10000 3.1 200 07:22 21.12.2019
2243 Clouds 7 991 81 10000 4.1 200 06:44 21.12.2019
2244 Clouds 7 991 81 10000 4.1 190 06:25 21.12.2019
2245 Clouds 8 991 81 10000 4.1 200 05:49 21.12.2019
2246 Clouds 8 991 81 10000 4.1 200 04:58 21.12.2019
2247 Clouds 8 990 81 10000 4.6 200 03:57 21.12.2019
2248 Clouds 8 990 81 10000 4.1 210 02:52 21.12.2019
2249 Clouds 8 989 81 10000 4.1 210 01:59 21.12.2019
2250 Clouds 8 989 81 10000 5.1 220 01:28 21.12.2019
2251 Clouds 9 989 76 10000 4.1 210 00:55 21.12.2019
2252 Clouds 9 989 76 10000 4.6 210 00:37 21.12.2019
2253 Clouds 9 988 81 10000 5.1 220 00:18 21.12.2019
2254 Clouds 9 988 76 10000 3.1 220 23:38 20.12.2019
2255 Rain 10 988 76 10000 5.7 250 23:19 20.12.2019
2256 Clouds 10 988 81 10000 5.7 210 22:43 20.12.2019
2257 Clouds 10 987 93 10000 3.1 190 22:21 20.12.2019
2258 Clouds 10 987 93 10000 3.1 190 21:59 20.12.2019
2259 Rain 10 986 93 10000 3.1 180 21:40 20.12.2019
2260 Rain 10 986 93 10000 4.1 170 21:20 20.12.2019
2261 Rain 10 986 93 10000 4.1 170 21:20 20.12.2019
2262 Rain 10 986 93 10000 4.1 170 20:56 20.12.2019
2263 Rain 10 986 93 10000 3.1 170 20:36 20.12.2019
2264 Rain 10 986 87 10000 4.1 180 20:18 20.12.2019
2265 Rain 10 986 87 10000 5.1 180 19:42 20.12.2019
2266 Clouds 11 985 76 10000 5.7 180 19:20 20.12.2019
2267 Clouds 11 985 76 10000 5.7 180 18:58 20.12.2019
2268 Clouds 11 985 76 10000 5.7 170 18:39 20.12.2019
2269 Clouds 11 985 76 10000 5.1 160 18:21 20.12.2019
2270 Clouds 11 985 76 10000 5.1 160 17:55 20.12.2019
2271 Clouds 11 985 71 10000 4.6 150 17:37 20.12.2019
2272 Clouds 11 985 71 10000 4.6 150 17:18 20.12.2019
2273 Rain 11 986 71 10000 5.1 120 16:40 20.12.2019
2274 Rain 11 986 71 10000 4.6 130 16:20 20.12.2019
2275 Clouds 11 986 71 10000 5.1 130 15:57 20.12.2019
2276 Clouds 11 986 71 10000 5.1 130 15:39 20.12.2019
2277 Rain 11 987 66 10000 5.1 130 15:20 20.12.2019
2278 Rain 11 987 71 10000 6.2 130 14:59 20.12.2019
2279 Rain 11 987 71 10000 6.2 130 14:41 20.12.2019
2280 Rain 11 987 71 10000 6.2 130 14:41 20.12.2019
2281 Rain 10 987 70 10000 5.1 120 14:23 20.12.2019
2282 Clouds 10 988 70 10000 4.6 120 13:56 20.12.2019
2283 Clouds 10 989 70 10000 4.1 140 13:37 20.12.2019
2284 Clouds 10 989 70 10000 4.1 140 13:18 20.12.2019
2285 Clouds 10 989 70 10000 3.6 130 12:55 20.12.2019
2286 Clouds 9 989 75 10000 4.6 140 12:36 20.12.2019
2287 Clouds 9 989 75 10000 4.6 140 12:18 20.12.2019
2288 Clouds 9 989 70 10000 5.7 130 11:57 20.12.2019
2289 Clouds 9 990 70 10000 6.7 130 11:38 20.12.2019
2290 Clouds 8 990 70 10000 6.7 130 11:18 20.12.2019
2291 Clouds 8 991 75 10000 6.7 130 10:55 20.12.2019
2292 Clouds 7 991 75 10000 6.2 130 10:37 20.12.2019
2293 Clouds 7 991 75 10000 6.2 130 10:18 20.12.2019
2294 Clouds 6 992 81 10000 6.7 120 09:42 20.12.2019
2295 Clouds 6 992 81 10000 7.2 120 09:21 20.12.2019
2296 Clouds 6 993 81 10000 5.7 120 08:54 20.12.2019
2297 Clouds 6 994 81 10000 6.7 120 08:36 20.12.2019
2298 Clouds 6 994 81 10000 6.7 120 08:18 20.12.2019
2299 Clouds 6 994 86 10000 6.2 120 07:41 20.12.2019
2300 Clouds 6 995 86 10000 7.2 130 07:23 20.12.2019
2301 Clouds 6 995 86 10000 5.7 130 06:55 20.12.2019
2302 Clouds 6 996 86 10000 4.6 130 06:36 20.12.2019
2303 Clouds 6 996 86 10000 4.6 130 06:18 20.12.2019
2304 Clouds 6 996 87 10000 6.7 120 05:45 20.12.2019
2305 Clouds 6 997 93 10000 4.1 120 04:57 20.12.2019
2306 Clouds 6 999 87 10000 3.6 120 03:48 20.12.2019
2307 Clouds 7 1000 87 10000 4.6 120 02:46 20.12.2019
2308 Clouds 7 1001 87 10000 4.6 130 01:59 20.12.2019
2309 Clouds 7 1001 87 10000 5.1 130 01:35 20.12.2019
2310 Clouds 7 1002 87 10000 4.6 130 00:55 20.12.2019
2311 Clouds 7 1002 81 10000 4.6 130 00:35 20.12.2019
2312 Clouds 7 1003 81 10000 4.6 130 23:58 19.12.2019
2313 Clouds 7 1003 81 10000 4.6 130 23:40 19.12.2019
2314 Clouds 8 1003 81 10000 4.1 120 23:19 19.12.2019
2315 Clouds 8 1003 81 10000 3.6 130 22:40 19.12.2019
2316 Clouds 9 1004 81 10000 2.6 120 22:22 19.12.2019
2317 Clouds 9 1004 81 10000 3.6 130 21:57 19.12.2019
2318 Clouds 9 1004 81 10000 3.6 130 21:39 19.12.2019
2319 Clouds 9 1005 76 10000 5.1 130 21:19 19.12.2019
2320 Clouds 9 1005 76 10000 6.2 130 20:57 19.12.2019
2321 Clouds 9 1005 76 10000 5.1 120 20:38 19.12.2019
2322 Clear 9 1005 76 10000 5.1 120 20:20 19.12.2019
2323 Clear 9 1005 76 10000 5.1 120 20:20 19.12.2019
2324 Clear 9 1006 81 10000 5.1 130 19:58 19.12.2019
2325 Clear 9 1006 81 10000 5.1 130 19:40 19.12.2019
2326 Clear 9 1006 76 10000 5.1 130 19:19 19.12.2019
2327 Clear 9 1006 76 10000 5.1 130 19:19 19.12.2019
2328 Clear 9 1006 76 10000 5.1 130 19:19 19.12.2019
2329 Clear 9 1006 76 10000 5.1 130 19:19 19.12.2019
2330 Clear 9 1006 76 10000 5.1 130 19:19 19.12.2019
2331 Clear 9 1006 76 10000 4.6 120 18:58 19.12.2019
2332 Clear 10 1006 76 10000 4.6 120 18:40 19.12.2019
2333 Clear 10 1007 76 10000 5.1 120 18:20 19.12.2019
2334 Clear 10 1007 76 10000 5.1 120 17:56 19.12.2019
2335 Clear 10 1008 81 10000 3.6 130 17:38 19.12.2019
2336 Clear 10 1008 81 10000 3.6 130 17:18 19.12.2019
2337 Clear 10 1008 81 10000 2.6 140 16:56 19.12.2019
2338 Clear 11 1008 76 10000 4.6 120 16:38 19.12.2019
2339 Clear 11 1008 76 10000 4.6 120 16:19 19.12.2019
2340 Clear 11 1008 76 10000 3.1 110 15:57 19.12.2019
2341 Clear 11 1009 81 10000 2.6 120 15:38 19.12.2019
2342 Clear 12 1009 81 10000 2.6 120 15:19 19.12.2019
2343 Clear 12 1009 76 10000 2.6 120 14:57 19.12.2019
2344 Clear 12 1009 76 10000 4.1 130 14:38 19.12.2019
2345 Clouds 13 1009 71 10000 2.1 190 14:18 19.12.2019
2346 Clear 12 1010 76 10000 3.1 130 13:39 19.12.2019
2347 Clouds 12 1010 81 10000 4.1 130 13:20 19.12.2019
2348 Clouds 12 1010 81 10000 4.1 130 13:20 19.12.2019
2349 Clouds 12 1011 81 10000 4.6 130 12:58 19.12.2019
2350 Clouds 11 1011 87 10000 3.6 140 12:40 19.12.2019
2351 Clouds 10 1011 87 10000 3.6 140 12:19 19.12.2019
2352 Clouds 10 1011 87 10000 3.6 140 12:19 19.12.2019
2353 Clouds 10 1012 81 10000 3.6 130 11:59 19.12.2019
2354 Clouds 10 1012 81 10000 3.6 130 11:41 19.12.2019
2355 Clouds 9 1012 87 10000 3.1 130 11:20 19.12.2019
2356 Clouds 9 1012 87 10000 3.1 130 11:20 19.12.2019
2357 Clouds 9 1012 87 10000 3.1 130 11:20 19.12.2019
2358 Clouds 8 1012 87 10000 5.1 130 10:59 19.12.2019
2359 Clouds 8 1012 93 10000 5.1 130 10:38 19.12.2019
2360 Clouds 7 1012 93 10000 5.1 130 10:20 19.12.2019
2361 Clouds 7 1012 93 10000 4.6 130 09:57 19.12.2019
2362 Clouds 6 1013 93 10000 3.6 140 09:38 19.12.2019
2363 Clouds 6 1013 93 10000 3.6 140 09:19 19.12.2019
2364 Clouds 6 1013 93 10000 3.6 140 09:19 19.12.2019
2365 Clouds 6 1013 100 10000 4.1 130 08:55 19.12.2019
2366 Clouds 5 1013 100 10000 4.1 130 08:37 19.12.2019
2367 Clouds 5 1013 100 10000 4.1 130 08:18 19.12.2019
2368 Clouds 5 1013 100 10000 3.6 130 07:54 19.12.2019
2369 Clouds 5 1013 93 10000 4.1 130 07:36 19.12.2019
2370 Clouds 5 1013 93 10000 4.1 130 07:18 19.12.2019
2371 Clouds 5 1013 93 10000 4.6 130 06:42 19.12.2019
2372 Clouds 5 1013 93 10000 4.1 130 06:24 19.12.2019
2373 Clouds 5 1013 93 10000 4.1 130 05:47 19.12.2019
2374 Clouds 5 1014 93 10000 3.1 130 05:27 19.12.2019
2375 Clouds 4 1014 93 10000 4.6 130 03:58 19.12.2019
2376 Clouds 4 1015 93 10000 5.1 130 02:30 19.12.2019
2377 Clouds 3 1016 93 10000 4.1 120 01:43 19.12.2019
2378 Clouds 3 1016 93 6000 4.6 120 01:21 19.12.2019
2379 Mist 3 1017 93 4200 3.6 130 00:39 19.12.2019
2380 Mist 3 1017 93 4200 3.6 130 00:39 19.12.2019
2381 Mist 3 1017 93 4200 3.6 130 00:19 19.12.2019
2382 Mist 3 1017 93 4500 3.6 130 23:45 18.12.2019
2383 Mist 4 1017 93 5000 4.6 130 23:19 18.12.2019
2384 Mist 4 1017 93 5000 4.6 130 23:19 18.12.2019
2385 Mist 4 1018 93 4000 4.1 130 22:58 18.12.2019
2386 Mist 4 1018 93 4000 4.1 130 22:40 18.12.2019
2387 Mist 4 1018 100 4000 4.1 130 22:22 18.12.2019
2388 Mist 4 1018 93 4500 3.1 120 21:59 18.12.2019
2389 Mist 3 1018 93 4500 3.1 120 21:41 18.12.2019
2390 Mist 4 1018 93 5000 3.1 130 21:21 18.12.2019
2391 Mist 4 1018 93 5000 3.1 130 21:21 18.12.2019
2392 Clouds 4 1018 93 6000 3.1 130 20:58 18.12.2019
2393 Clouds 4 1018 93 7000 3.1 130 20:39 18.12.2019
2394 Clouds 4 1018 93 7000 3.1 130 20:20 18.12.2019
2395 Clouds 4 1018 93 10000 2.6 120 19:57 18.12.2019
2396 Clouds 5 1018 93 10000 2.6 120 19:39 18.12.2019
2397 Clouds 5 1018 93 10000 2.6 140 19:19 18.12.2019
2398 Clouds 5 1018 93 10000 2.6 140 18:59 18.12.2019
2399 Clouds 5 1017 87 10000 3.1 140 18:41 18.12.2019
2400 Clouds 5 1017 87 10000 3.1 140 18:22 18.12.2019
2401 Clouds 5 1018 93 10000 1.5 180 17:56 18.12.2019
2402 Clouds 6 1018 87 10000 1.5 180 17:38 18.12.2019
2403 Clouds 6 1018 87 10000 1.5 180 17:38 18.12.2019
2404 Clouds 6 1018 87 10000 1.5 180 17:19 18.12.2019
2405 Clouds 7 1017 87 10000 1.5 190 16:43 18.12.2019
2406 Clouds 7 1017 87 10000 1.5 190 16:43 18.12.2019
2407 Clouds 7 1017 87 10000 1.5 190 16:24 18.12.2019
2408 Clouds 7 1017 87 10000 2.6 240 15:59 18.12.2019
2409 Clouds 7 1017 75 10000 4.1 240 15:40 18.12.2019
2410 Clouds 7 1017 81 10000 3.6 230 15:21 18.12.2019
2411 Clouds 8 1017 81 10000 3.6 230 14:59 18.12.2019
2412 Clouds 8 1017 81 10000 3.6 230 14:40 18.12.2019
2413 Clouds 7 1017 87 10000 4.1 240 14:20 18.12.2019
2414 Clouds 7 1017 87 10000 4.1 240 13:56 18.12.2019
2415 Clouds 7 1016 87 10000 4.6 230 13:37 18.12.2019
2416 Clouds 7 1016 87 10000 5.1 230 13:19 18.12.2019
2417 Clouds 7 1016 87 10000 4.6 230 12:57 18.12.2019
2418 Clouds 7 1016 87 10000 4.6 230 12:37 18.12.2019
2419 Clouds 7 1015 93 10000 4.6 230 12:19 18.12.2019
2420 Clouds 7 1015 93 10000 4.6 230 11:55 18.12.2019
2421 Clouds 7 1015 93 10000 3.6 230 11:37 18.12.2019
2422 Clouds 7 1015 93 10000 3.1 240 11:18 18.12.2019
2423 Rain 7 1015 93 10000 4.1 230 10:55 18.12.2019
2424 Rain 6 1015 93 10000 4.1 230 10:37 18.12.2019
2425 Rain 6 1015 93 10000 4.1 230 10:37 18.12.2019
2426 Clouds 6 1014 93 10000 3.6 210 10:18 18.12.2019
2427 Rain 6 1014 93 10000 3.6 200 09:43 18.12.2019
2428 Clouds 6 1013 93 10000 3.1 240 09:18 18.12.2019
2429 Clouds 6 1013 93 10000 3.1 230 08:40 18.12.2019
2430 Clouds 6 1012 93 10000 3.1 230 08:21 18.12.2019
2431 Clouds 6 1012 93 10000 3.1 230 07:43 18.12.2019
2432 Clouds 6 1012 93 10000 3.1 220 07:23 18.12.2019
2433 Clouds 6 1012 93 10000 3.1 220 06:55 18.12.2019
2434 Clouds 6 1011 93 10000 3.6 220 06:27 18.12.2019
2435 Clouds 6 1010 93 10000 3.1 240 05:47 18.12.2019
2436 Clouds 6 1009 87 10000 3.6 250 04:52 18.12.2019
2437 Clouds 8 1007 87 10000 6.2 290 02:55 18.12.2019
2438 Clouds 8 1006 87 10000 8.2 290 02:36 18.12.2019
2439 Rain 9 1005 87 10000 9.3 270 02:18 18.12.2019
2440 Clouds 10 1004 93 10000 5.7 250 01:40 18.12.2019
2441 Rain 10 1003 87 10000 8.2 240 01:21 18.12.2019
2442 Rain 10 1002 87 10000 7.7 240 00:41 18.12.2019
2443 Rain 10 1001 91 0 2.24 266 00:23 18.12.2019
2444 Rain 11 1002 87 10000 7.2 220 23:57 17.12.2019
2445 Rain 11 1001 81 10000 5.7 210 23:38 17.12.2019
2446 Rain 11 1001 81 10000 4.6 200 23:19 17.12.2019
2447 Rain 12 1001 81 10000 4.6 200 22:56 17.12.2019
2448 Rain 13 1001 71 10000 4.1 180 22:38 17.12.2019
2449 Clouds 13 1001 71 10000 4.1 180 22:19 17.12.2019
2450 Clouds 13 1001 71 10000 4.1 180 21:55 17.12.2019
2451 Clouds 13 1001 71 10000 4.6 170 21:37 17.12.2019
2452 Clouds 12 1001 71 10000 4.1 170 21:19 17.12.2019
2453 Clouds 12 1001 71 10000 4.1 170 20:57 17.12.2019
2454 Clouds 12 1001 66 10000 5.1 180 20:38 17.12.2019
2455 Clouds 12 1001 66 10000 5.1 180 20:18 17.12.2019
2456 Clouds 12 1001 66 10000 5.1 180 20:18 17.12.2019
2457 Clouds 12 1001 66 10000 5.1 180 19:56 17.12.2019
2458 Clouds 12 1001 71 10000 4.1 170 19:38 17.12.2019
2459 Clouds 12 1001 71 10000 4.6 180 19:18 17.12.2019
2460 Clouds 12 1001 71 10000 4.1 180 18:54 17.12.2019
2461 Clouds 12 1001 71 10000 4.1 180 18:36 17.12.2019
2462 Clouds 12 1001 71 10000 3.6 180 18:18 17.12.2019
2463 Clouds 12 1001 71 10000 3.6 180 18:18 17.12.2019
2464 Clouds 12 1001 71 10000 3.6 190 17:42 17.12.2019
2465 Clouds 12 1001 71 10000 4.1 180 17:21 17.12.2019
2466 Clouds 12 1001 71 10000 4.1 180 16:57 17.12.2019
2467 Clouds 12 1001 71 10000 3.6 180 16:38 17.12.2019
2468 Clouds 12 1001 71 10000 4.6 170 16:19 17.12.2019
2469 Clouds 12 1001 71 10000 4.6 170 15:59 17.12.2019
2470 Clouds 13 1001 71 10000 4.1 170 15:37 17.12.2019
2471 Clouds 13 1001 71 10000 4.1 180 15:19 17.12.2019
2472 Clouds 13 1000 71 10000 4.6 190 14:56 17.12.2019
2473 Clouds 13 1000 71 10000 4.6 190 14:38 17.12.2019
2474 Clouds 13 1000 71 10000 5.1 180 14:18 17.12.2019
2475 Clouds 13 1000 71 10000 5.1 180 13:56 17.12.2019
2476 Clouds 13 1000 71 10000 4.6 190 13:38 17.12.2019
2477 Clouds 13 1000 71 10000 4.6 180 13:19 17.12.2019
2478 Clouds 13 1000 76 10000 4.6 180 12:56 17.12.2019
2479 Clouds 12 1000 76 10000 4.6 180 12:37 17.12.2019
2480 Clouds 12 1001 71 10000 4.1 180 12:18 17.12.2019
2481 Clouds 12 1001 71 10000 4.1 180 11:56 17.12.2019
2482 Clouds 11 1001 71 10000 5.1 180 11:36 17.12.2019
2483 Clouds 11 1001 71 10000 5.1 180 11:18 17.12.2019
2484 Clouds 10 1001 76 10000 4.6 180 10:56 17.12.2019
2485 Clouds 10 1001 76 10000 4.6 180 10:37 17.12.2019
2486 Clouds 9 1001 81 10000 2.6 150 10:19 17.12.2019
2487 Clouds 7 1001 93 10000 2.6 160 09:42 17.12.2019
2488 Clouds 7 1000 87 10000 3.1 150 09:22 17.12.2019
2489 Clouds 7 1000 87 10000 3.1 150 08:59 17.12.2019
2490 Clouds 7 1000 87 10000 2.1 130 08:40 17.12.2019
2491 Clouds 7 1000 93 10000 2.6 130 08:22 17.12.2019
2492 Clouds 7 1000 93 10000 2.6 130 08:22 17.12.2019
2493 Clouds 6 1000 93 10000 2.6 130 07:58 17.12.2019
2494 Clouds 7 1000 93 10000 3.1 140 07:39 17.12.2019
2495 Clouds 6 1000 93 10000 2.6 130 07:21 17.12.2019
2496 Rain 6 1000 100 10000 2.1 120 06:42 17.12.2019
2497 Rain 6 1000 93 10000 2.6 130 06:24 17.12.2019
2498 Rain 6 1000 93 10000 2.6 130 06:24 17.12.2019
2499 Rain 6 1000 100 10000 3.1 140 05:41 17.12.2019
2500 Clouds 6 1001 100 10000 2.1 130 04:53 17.12.2019
2501 Clouds 6 1001 93 10000 2.1 110 03:55 17.12.2019
2502 Clouds 7 1002 93 10000 2.6 110 02:26 17.12.2019
2503 Rain 7 1002 100 10000 2.6 100 01:22 17.12.2019
2504 Clouds 7 1003 93 10000 2.6 90 00:47 17.12.2019
2505 Rain 7 1003 93 10000 2.1 80 00:22 17.12.2019
2506 Rain 7 1003 93 10000 2.1 80 23:58 16.12.2019
2507 Rain 7 1004 93 10000 2.1 100 23:40 16.12.2019
2508 Clouds 7 1004 93 10000 2.6 80 23:18 16.12.2019
2509 Clouds 7 1004 93 10000 2.1 70 22:54 16.12.2019
2510 Clouds 7 1004 93 10000 2.1 70 22:36 16.12.2019
2511 Rain 7 1004 93 10000 2.1 80 22:18 16.12.2019
2512 Rain 7 1004 93 10000 2.1 80 21:54 16.12.2019
2513 Clouds 7 1004 87 10000 1 0 21:36 16.12.2019
2514 Clouds 7 1004 87 10000 2.1 150 21:18 16.12.2019
2515 Clouds 7 1004 87 10000 2.1 150 20:56 16.12.2019
2516 Rain 7 1004 87 10000 2.6 150 20:37 16.12.2019
2517 Rain 7 1004 87 10000 2.6 150 20:37 16.12.2019
2518 Rain 7 1005 93 10000 2.6 170 20:18 16.12.2019
2519 Rain 7 1005 93 10000 2.6 160 19:55 16.12.2019
2520 Rain 7 1005 93 10000 2.6 160 19:36 16.12.2019
2521 Rain 7 1005 93 10000 3.6 170 19:18 16.12.2019
2522 Rain 7 1005 93 10000 3.6 170 18:55 16.12.2019
2523 Rain 7 1004 93 10000 3.6 160 18:36 16.12.2019
2524 Rain 7 1005 87 10000 3.1 180 18:18 16.12.2019
2525 Rain 7 1005 93 10000 3.6 180 17:56 16.12.2019
2526 Rain 7 1005 93 10000 3.6 180 17:37 16.12.2019
2527 Clouds 8 1005 93 10000 3.6 170 17:19 16.12.2019
2528 Rain 8 1005 87 10000 3.6 180 16:54 16.12.2019
2529 Rain 8 1005 87 10000 3.6 180 16:36 16.12.2019
2530 Rain 8 1005 87 10000 3.1 190 16:18 16.12.2019
2531 Rain 8 1005 87 10000 3.1 190 15:55 16.12.2019
2532 Rain 8 1005 87 10000 3.6 190 15:37 16.12.2019
2533 Rain 8 1005 87 10000 3.6 180 15:18 16.12.2019
2534 Rain 8 1005 87 10000 3.6 180 14:54 16.12.2019
2535 Clouds 8 1005 87 10000 4.1 180 14:36 16.12.2019
2536 Clouds 8 1005 81 10000 3.1 180 14:18 16.12.2019
2537 Clouds 8 1005 87 10000 2.6 180 13:38 16.12.2019
2538 Clouds 8 1005 87 10000 2.6 170 13:20 16.12.2019
2539 Clouds 8 1005 87 10000 2.6 170 12:59 16.12.2019
2540 Clouds 8 1005 81 10000 3.6 190 12:41 16.12.2019
2541 Clouds 7 1006 87 10000 3.1 190 12:20 16.12.2019
2542 Clouds 7 1006 81 10000 3.6 190 11:59 16.12.2019
2543 Clouds 7 1006 81 10000 3.6 190 11:41 16.12.2019
2544 Clouds 7 1006 81 10000 4.6 180 11:22 16.12.2019
2545 Clouds 6 1006 81 10000 4.6 180 11:00 16.12.2019
2546 Clouds 6 1005 81 10000 3.6 170 10:40 16.12.2019
2547 Clouds 5 1006 86 10000 3.6 170 10:21 16.12.2019
2548 Clouds 5 1005 80 10000 4.1 170 09:55 16.12.2019
2549 Clouds 5 1005 80 10000 4.1 170 09:37 16.12.2019
2550 Clouds 5 1005 86 10000 4.6 170 09:19 16.12.2019
2551 Clouds 5 1005 86 10000 4.6 170 08:39 16.12.2019
2552 Clouds 5 1005 86 10000 4.1 160 08:19 16.12.2019
2553 Clouds 4 1005 86 10000 3.6 160 07:51 16.12.2019
2554 Clouds 4 1005 86 10000 3.6 160 07:31 16.12.2019
2555 Clouds 4 1005 86 10000 4.1 180 06:49 16.12.2019
2556 Clouds 4 1006 80 10000 3.6 170 06:27 16.12.2019
2557 Clouds 4 1006 80 10000 3.6 170 05:59 16.12.2019
2558 Clouds 4 1006 75 10000 4.6 180 05:40 16.12.2019
2559 Clouds 4 1006 80 10000 4.6 180 05:22 16.12.2019
2560 Clouds 4 1005 84 0 0.89 196 02:59 16.12.2019
2561 Clouds 5 1006 80 10000 3.6 210 01:46 16.12.2019
2562 Clouds 5 1006 80 10000 4.1 210 00:57 16.12.2019
2563 Clouds 6 1005 75 10000 5.1 210 00:38 16.12.2019
2564 Clouds 6 1005 75 10000 5.1 220 00:19 16.12.2019
2565 Clouds 6 1005 75 10000 6.7 220 23:43 15.12.2019
2566 Clouds 6 1005 81 10000 7.7 220 23:25 15.12.2019
2567 Clouds 6 1005 81 10000 7.7 220 22:57 15.12.2019
2568 Clouds 6 1004 81 10000 7.2 230 22:38 15.12.2019
2569 Clouds 6 1004 81 10000 7.2 230 22:38 15.12.2019
2570 Clouds 6 1004 81 10000 7.2 230 22:19 15.12.2019
2571 Clouds 7 1004 81 10000 7.2 230 21:58 15.12.2019
2572 Clouds 7 1003 75 10000 7.2 230 21:39 15.12.2019
2573 Clouds 7 1003 75 10000 7.2 220 21:20 15.12.2019
2574 Clouds 7 1003 75 10000 7.2 220 20:58 15.12.2019
2575 Clouds 7 1003 75 10000 7.2 220 20:58 15.12.2019
2576 Clouds 7 1002 81 10000 7.7 220 20:40 15.12.2019
2577 Clouds 7 1002 87 10000 5.7 210 20:21 15.12.2019
2578 Clouds 7 1002 87 10000 5.7 210 19:58 15.12.2019
2579 Rain 7 1001 87 10000 7.7 230 19:40 15.12.2019
2580 Clouds 7 1001 81 10000 8.2 230 19:20 15.12.2019
2581 Clouds 7 1001 81 10000 8.2 230 18:58 15.12.2019
2582 Clouds 7 1001 81 10000 5.7 220 18:39 15.12.2019
2583 Clouds 7 1000 81 10000 6.7 220 18:19 15.12.2019
2584 Clouds 7 1000 81 10000 6.7 220 17:57 15.12.2019
2585 Clouds 7 999 83 0 3.58 242 17:38 15.12.2019
2586 Rain 7 999 81 10000 10.8 240 17:19 15.12.2019
2587 Rain 7 999 81 10000 10.8 240 16:59 15.12.2019
2588 Rain 7 999 81 10000 6.2 240 16:41 15.12.2019
2589 Clouds 8 998 65 10000 8.7 230 16:21 15.12.2019
2590 Clouds 8 998 65 10000 8.7 230 15:57 15.12.2019
2591 Clouds 8 998 65 10000 9.8 240 15:38 15.12.2019
2592 Clouds 8 997 61 10000 10.3 240 15:19 15.12.2019
2593 Clouds 8 997 61 10000 10.3 240 15:19 15.12.2019
2594 Clouds 8 997 61 10000 10.3 240 14:56 15.12.2019
2595 Clouds 9 997 61 10000 11.3 240 14:37 15.12.2019
2596 Clouds 9 996 61 10000 10.8 240 14:19 15.12.2019
2597 Clouds 9 996 61 10000 10.8 240 13:58 15.12.2019
2598 Clouds 9 996 65 10000 12.3 240 13:38 15.12.2019
2599 Clouds 9 995 65 10000 11.8 250 13:19 15.12.2019
2600 Clouds 9 995 65 10000 11.8 250 12:57 15.12.2019
2601 Clouds 9 995 65 10000 11.3 240 12:39 15.12.2019
2602 Clouds 8 994 65 10000 12.3 240 12:20 15.12.2019
2603 Clouds 8 994 65 10000 12.3 240 12:20 15.12.2019
2604 Clouds 8 994 65 10000 12.3 240 11:58 15.12.2019
2605 Clouds 9 994 65 10000 12.9 250 11:37 15.12.2019
2606 Clouds 8 993 66 10000 12.9 240 11:19 15.12.2019
2607 Clouds 8 992 70 10000 10.3 240 10:55 15.12.2019
2608 Clouds 8 992 70 10000 10.3 240 10:37 15.12.2019
2609 Clouds 8 991 76 10000 10.3 240 10:19 15.12.2019
2610 Clouds 8 991 81 10000 9.3 240 09:41 15.12.2019
2611 Clouds 8 990 87 10000 8.2 220 09:20 15.12.2019
2612 Clouds 8 990 87 10000 8.2 220 08:59 15.12.2019
2613 Clouds 7 989 93 10000 5.7 210 08:41 15.12.2019
2614 Clouds 7 989 93 10000 6.2 180 08:22 15.12.2019
2615 Clouds 7 989 93 10000 6.2 180 07:56 15.12.2019
2616 Clouds 6 989 87 10000 6.7 170 07:36 15.12.2019
2617 Clouds 5 990 80 10000 6.7 140 06:56 15.12.2019
2618 Clouds 5 991 86 10000 6.7 140 06:21 15.12.2019
2619 Clouds 4 991 80 10000 5.1 140 05:39 15.12.2019
2620 Clouds 4 992 80 10000 4.6 150 05:19 15.12.2019
2621 Clouds 3 995 86 10000 5.7 170 03:56 15.12.2019
2622 Clouds 3 995 87 10000 4.1 210 02:35 15.12.2019
2623 Clouds 3 995 80 10000 4.1 210 01:57 15.12.2019
2624 Clouds 3 996 80 10000 4.6 210 01:39 15.12.2019
2625 Clouds 4 996 77 0 4.6 210 01:18 15.12.2019
2626 Clouds 4 996 80 10000 6.2 220 00:44 15.12.2019
2627 Clouds 4 996 80 10000 6.2 220 00:25 15.12.2019
2628 Clouds 4 996 86 10000 6.7 230 23:41 14.12.2019
2629 Clouds 4 995 86 10000 7.2 230 23:22 14.12.2019
2630 Clouds 4 995 86 10000 7.2 230 22:59 14.12.2019
2631 Clouds 4 994 86 10000 7.2 230 22:41 14.12.2019
2632 Clouds 3 994 86 10000 6.2 230 22:22 14.12.2019
2633 Clouds 3 994 93 10000 7.2 230 21:56 14.12.2019
2634 Clouds 3 994 93 10000 7.2 230 21:38 14.12.2019
2635 Clouds 4 993 86 10000 8.2 240 21:19 14.12.2019
2636 Clouds 4 993 86 10000 8.2 240 20:58 14.12.2019
2637 Rain 4 992 86 10000 10.3 250 20:39 14.12.2019
2638 Clouds 4 992 86 10000 8.2 250 20:20 14.12.2019
2639 Clouds 5 992 86 10000 8.2 250 19:57 14.12.2019
2640 Clouds 5 990 80 10000 8.2 230 19:37 14.12.2019
2641 Rain 6 989 75 10000 8.2 230 19:19 14.12.2019
2642 Clouds 6 989 75 10000 7.7 220 18:56 14.12.2019
2643 Clouds 6 989 75 10000 7.7 220 18:38 14.12.2019
2644 Clouds 6 989 75 10000 8.2 220 18:19 14.12.2019
2645 Clouds 6 989 75 10000 8.2 230 17:44 14.12.2019
2646 Clouds 6 989 75 10000 7.2 230 17:24 14.12.2019
2647 Clouds 6 989 75 10000 7.2 230 16:58 14.12.2019
2648 Clouds 6 988 75 10000 7.7 240 16:39 14.12.2019
2649 Clouds 6 988 75 10000 8.2 240 16:19 14.12.2019
2650 Clouds 6 988 75 10000 8.2 240 16:19 14.12.2019
2651 Rain 6 987 75 10000 10.3 250 15:43 14.12.2019
2652 Rain 6 987 75 10000 10.3 250 15:24 14.12.2019
2653 Rain 6 987 70 10000 11.3 250 14:59 14.12.2019
2654 Clouds 6 986 75 10000 9.8 250 14:39 14.12.2019
2655 Clouds 6 986 75 10000 9.8 250 14:20 14.12.2019
2656 Clouds 6 986 81 10000 9.3 250 13:57 14.12.2019
2657 Clouds 6 986 81 10000 9.3 250 13:39 14.12.2019
2658 Clouds 6 985 81 10000 10.8 250 13:19 14.12.2019
2659 Clouds 6 985 81 10000 10.8 250 12:56 14.12.2019
2660 Clouds 6 985 87 10000 8.7 250 12:37 14.12.2019
2661 Clouds 6 984 87 10000 7.2 240 12:19 14.12.2019
2662 Clouds 5 984 86 10000 6.2 230 11:56 14.12.2019
2663 Clouds 5 984 86 10000 6.2 230 11:37 14.12.2019
2664 Rain 5 984 93 10000 7.2 230 11:18 14.12.2019
2665 Clouds 4 983 93 10000 5.7 220 10:55 14.12.2019
2666 Clouds 4 983 93 10000 5.7 220 10:55 14.12.2019
2667 Clouds 4 983 93 10000 5.7 220 10:37 14.12.2019
2668 Rain 4 983 93 10000 7.2 230 10:19 14.12.2019
2669 Rain 4 982 93 10000 7.7 230 09:42 14.12.2019
2670 Rain 4 982 93 10000 5.1 220 09:21 14.12.2019
2671 Rain 4 982 93 10000 5.1 220 08:56 14.12.2019
2672 Rain 4 981 86 10000 6.2 230 08:38 14.12.2019
2673 Clouds 4 981 86 10000 7.2 230 08:19 14.12.2019
2674 Clouds 5 981 86 10000 5.1 210 07:40 14.12.2019
2675 Clouds 5 980 86 10000 5.1 210 07:21 14.12.2019
2676 Clouds 5 980 86 10000 5.1 210 07:21 14.12.2019
2677 Clouds 5 980 86 10000 4.6 200 06:48 14.12.2019
2678 Clouds 4 980 86 10000 4.6 200 06:30 14.12.2019
2679 Clouds 4 980 93 10000 4.1 190 05:50 14.12.2019
2680 Clouds 4 982 93 10000 5.1 210 03:44 14.12.2019
2681 Clouds 4 981 93 10000 3.1 210 02:24 14.12.2019
2682 Clouds 4 982 93 6000 3.1 200 01:44 14.12.2019
2683 Mist 3 982 100 5000 3.1 210 01:20 14.12.2019
2684 Clouds 3 982 93 7000 3.6 190 00:43 14.12.2019
2685 Clouds 3 982 93 8000 3.1 190 00:22 14.12.2019
2686 Rain 2 982 100 8000 2.6 190 23:41 13.12.2019
2687 Rain 2 982 100 7000 2.6 190 23:20 13.12.2019
2688 Rain 2 982 100 7000 2.6 190 22:59 13.12.2019
2689 Rain 2 982 100 6000 2.1 180 22:40 13.12.2019
2690 Rain 2 982 100 6000 1.5 180 22:19 13.12.2019
2691 Rain 2 982 100 6000 1.5 180 21:55 13.12.2019
2692 Rain 2 982 93 6000 1.5 170 21:36 13.12.2019
2693 Rain 2 982 93 6000 1 180 21:18 13.12.2019
2694 Rain 2 982 93 6000 1.5 160 20:40 13.12.2019
2695 Clouds 2 981 93 10000 3.1 130 20:21 13.12.2019
2696 Clouds 2 981 93 10000 3.1 130 19:58 13.12.2019
2697 Clouds 2 981 93 10000 3.1 130 19:40 13.12.2019
2698 Clouds 2 981 93 10000 2.6 110 19:20 13.12.2019
2699 Clouds 2 980 93 10000 2.1 120 18:58 13.12.2019
2700 Clouds 2 980 93 10000 2.1 120 18:40 13.12.2019
2701 Clouds 2 980 93 10000 3.1 120 18:19 13.12.2019
2702 Clouds 2 980 93 10000 3.1 120 18:19 13.12.2019
2703 Clouds 2 980 93 10000 3.6 110 17:42 13.12.2019
2704 Clouds 2 980 96 10000 3.6 120 17:20 13.12.2019
2705 Clouds 2 979 96 10000 4.6 110 16:59 13.12.2019
2706 Rain 2 979 96 10000 4.1 120 16:39 13.12.2019
2707 Rain 3 979 96 10000 4.1 120 16:20 13.12.2019
2708 Clouds 3 979 96 10000 4.6 120 15:58 13.12.2019
2709 Clouds 3 978 96 10000 4.6 120 15:37 13.12.2019
2710 Clouds 3 978 96 10000 4.6 120 15:18 13.12.2019
2711 Clouds 3 978 96 10000 4.6 120 14:41 13.12.2019
2712 Clouds 3 978 76 10000 4.6 120 14:21 13.12.2019
2713 Clouds 3 978 76 10000 5.1 120 13:57 13.12.2019
2714 Clouds 3 978 76 10000 6.7 120 13:38 13.12.2019
2715 Clouds 3 978 80 10000 6.7 120 13:19 13.12.2019
2716 Clouds 3 978 74 10000 6.2 120 12:42 13.12.2019
2717 Clouds 3 978 74 10000 6.2 120 12:20 13.12.2019
2718 Clouds 3 978 74 10000 6.7 120 11:57 13.12.2019
2719 Clouds 3 978 74 10000 6.7 120 11:57 13.12.2019
2720 Clouds 2 978 74 10000 6.7 120 11:39 13.12.2019
2721 Clouds 2 978 80 10000 6.7 120 11:21 13.12.2019
2722 Clouds 2 978 80 10000 7.2 120 10:55 13.12.2019
2723 Clouds 2 978 80 10000 7.2 120 10:37 13.12.2019
2724 Clouds 2 978 80 10000 7.2 120 10:19 13.12.2019
2725 Clouds 2 978 74 10000 6.7 120 09:39 13.12.2019
2726 Clouds 2 978 74 10000 6.7 120 09:19 13.12.2019
2727 Clouds 2 978 74 10000 6.7 110 08:42 13.12.2019
2728 Clouds 2 979 80 10000 7.2 120 08:24 13.12.2019
2729 Clouds 2 979 86 10000 7.7 120 07:47 13.12.2019
2730 Clouds 2 979 86 10000 7.2 120 07:24 13.12.2019
2731 Clouds 2 980 80 10000 6.2 120 06:55 13.12.2019
2732 Clouds 2 980 80 10000 7.2 120 06:29 13.12.2019
2733 Clouds 2 981 80 10000 7.2 130 05:51 13.12.2019
2734 Clouds 2 981 80 10000 7.2 130 05:30 13.12.2019
2735 Clear 2 982 80 10000 7.2 120 04:46 13.12.2019
2736 Clear 2 983 80 10000 7.2 120 03:49 13.12.2019
2737 Clear 2 985 86 10000 6.2 120 02:35 13.12.2019
2738 Clear 2 986 86 10000 5.7 120 01:49 13.12.2019
2739 Clear 2 987 86 10000 5.7 130 01:21 13.12.2019
2740 Clear 1 988 86 10000 5.1 130 00:46 13.12.2019
2741 Clear 1 989 86 10000 4.6 130 00:24 13.12.2019
2742 Clear 2 990 80 10000 5.1 130 23:41 12.12.2019
2743 Clear 2 990 88 10000 5.1 140 23:22 12.12.2019
2744 Clear 2 991 88 10000 4.6 140 22:56 12.12.2019
2745 Clear 2 992 88 10000 4.1 130 22:38 12.12.2019
2746 Clear 2 992 88 10000 4.1 130 22:19 12.12.2019
2747 Clear 2 992 93 10000 4.6 140 21:55 12.12.2019
2748 Clear 2 993 93 10000 4.6 140 21:37 12.12.2019
2749 Clear 2 993 93 10000 4.6 140 21:19 12.12.2019
2750 Clear 2 994 88 10000 5.1 140 20:58 12.12.2019
2751 Clear 2 994 89 10000 4.6 140 20:39 12.12.2019
2752 Clouds 2 994 85 10000 4.6 140 20:21 12.12.2019
2753 Clouds 2 995 85 10000 3.6 130 19:55 12.12.2019
2754 Clouds 2 995 93 10000 3.6 150 19:37 12.12.2019
2755 Clouds 2 995 93 10000 3.6 150 19:18 12.12.2019
2756 Clouds 2 996 93 10000 3.1 160 18:55 12.12.2019
2757 Clouds 3 996 93 10000 3.1 150 18:37 12.12.2019
2758 Clouds 3 996 93 10000 3.1 150 18:19 12.12.2019
2759 Clouds 3 996 86 10000 3.6 160 17:56 12.12.2019
2760 Clouds 3 997 86 10000 3.6 160 17:38 12.12.2019
2761 Clouds 3 997 86 10000 3.6 160 17:19 12.12.2019
2762 Clouds 4 997 86 10000 3.1 160 16:54 12.12.2019
2763 Clouds 5 997 86 10000 3.1 190 16:36 12.12.2019
2764 Clouds 4 997 86 10000 3.1 190 16:18 12.12.2019
2765 Clouds 5 998 80 10000 4.6 200 15:42 12.12.2019
2766 Clouds 5 998 86 10000 4.6 200 15:20 12.12.2019
2767 Clouds 5 998 81 10000 5.1 210 14:57 12.12.2019
2768 Clouds 5 998 81 10000 5.1 210 14:38 12.12.2019
2769 Clouds 6 998 81 10000 5.1 210 14:19 12.12.2019
2770 Clouds 6 999 81 10000 5.1 220 13:56 12.12.2019
2771 Clouds 6 999 87 10000 5.1 210 13:38 12.12.2019
2772 Clouds 6 999 87 10000 5.1 210 13:20 12.12.2019
2773 Clouds 6 999 87 10000 4.1 210 12:56 12.12.2019
2774 Clouds 5 1000 93 10000 4.6 220 12:38 12.12.2019
2775 Clouds 5 1000 93 10000 4.6 220 12:18 12.12.2019
2776 Clouds 5 1000 93 10000 4.6 210 11:54 12.12.2019
2777 Clouds 5 1000 93 10000 5.1 210 11:36 12.12.2019
2778 Clouds 5 1000 93 10000 5.1 210 11:18 12.12.2019
2779 Clouds 5 1000 93 10000 4.1 210 10:41 12.12.2019
2780 Clouds 5 1000 93 10000 4.6 200 10:23 12.12.2019
2781 Clouds 5 1000 93 10000 4.6 200 10:23 12.12.2019
2782 Clouds 5 1000 93 10000 4.1 210 09:59 12.12.2019
2783 Clouds 5 1000 93 10000 4.1 210 09:41 12.12.2019
2784 Clouds 5 1000 93 8000 4.1 210 09:23 12.12.2019
2785 Clouds 5 1000 93 8000 4.1 220 08:55 12.12.2019
2786 Clouds 5 1000 93 8000 2.6 210 08:37 12.12.2019
2787 Clouds 5 1000 93 8000 2.6 210 08:18 12.12.2019
2788 Clouds 5 1000 93 7000 3.6 200 07:41 12.12.2019
2789 Clouds 5 1000 93 7000 3.6 190 07:23 12.12.2019
2790 Clouds 4 1000 93 7000 3.6 190 06:44 12.12.2019
2791 Clouds 4 1000 93 6000 3.6 190 06:24 12.12.2019
2792 Mist 4 1001 100 5000 3.1 180 05:36 12.12.2019
2793 Mist 4 1001 100 4500 2.6 180 04:51 12.12.2019
2794 Mist 4 1002 100 5000 2.1 200 03:20 12.12.2019
2795 Mist 4 1002 100 5000 3.1 210 02:37 12.12.2019
2796 Mist 4 1002 100 5000 3.1 210 02:19 12.12.2019
2797 Mist 4 1002 100 4500 2.6 200 01:37 12.12.2019
2798 Mist 4 1002 100 4500 2.6 200 01:19 12.12.2019
2799 Mist 4 1002 93 5000 2.1 200 00:46 12.12.2019
2800 Mist 4 1003 93 5000 2.1 210 00:19 12.12.2019
2801 Mist 5 1003 93 4500 2.1 210 23:44 11.12.2019
2802 Mist 5 1003 100 4200 3.1 210 23:21 11.12.2019
2803 Mist 5 1003 100 3500 2.6 220 22:57 11.12.2019
2804 Mist 5 1003 100 4500 2.6 220 22:38 11.12.2019
2805 Mist 4 1003 100 4500 2.6 220 22:20 11.12.2019
2806 Mist 5 1003 100 5000 2.6 210 21:57 11.12.2019
2807 Mist 5 1003 93 5000 2.6 200 21:38 11.12.2019
2808 Mist 5 1003 93 5000 2.6 200 21:19 11.12.2019
2809 Mist 5 1004 100 4300 2.1 200 20:56 11.12.2019
2810 Drizzle 5 1004 100 2800 1.5 210 20:37 11.12.2019
2811 Drizzle 5 1004 100 2800 1.5 210 20:37 11.12.2019
2812 Drizzle 5 1004 100 2800 1.5 210 20:37 11.12.2019
2813 Drizzle 5 1004 100 2800 1.5 210 20:19 11.12.2019
2814 Drizzle 5 1004 100 2800 1.5 210 20:19 11.12.2019
2815 Drizzle 5 1004 100 3200 2.1 210 19:57 11.12.2019
2816 Rain 5 1004 100 4500 2.6 200 19:39 11.12.2019
2817 Rain 5 1004 100 4500 2.6 200 19:19 11.12.2019
2818 Rain 5 1004 100 6000 3.1 180 18:41 11.12.2019
2819 Rain 5 1004 100 6000 3.6 180 18:21 11.12.2019
2820 Rain 5 1004 100 6000 3.1 180 17:57 11.12.2019
2821 Rain 5 1004 100 6000 3.1 180 17:57 11.12.2019
2822 Rain 5 1004 100 6000 3.6 180 17:39 11.12.2019
2823 Rain 5 1004 100 6000 3.6 180 17:18 11.12.2019
2824 Rain 5 1005 100 6000 3.6 180 16:57 11.12.2019
2825 Rain 5 1005 100 6000 3.1 170 16:39 11.12.2019
2826 Rain 5 1005 100 6000 3.1 170 16:21 11.12.2019
2827 Rain 5 1005 100 6000 2.6 180 15:59 11.12.2019
2828 Rain 5 1005 100 6000 2.6 180 15:40 11.12.2019
2829 Rain 5 1005 100 6000 2.6 180 15:22 11.12.2019
2830 Rain 6 1006 100 6000 3.1 190 14:56 11.12.2019
2831 Rain 6 1006 100 6000 3.1 200 14:38 11.12.2019
2832 Rain 5 1006 100 6000 3.1 200 14:19 11.12.2019
2833 Rain 6 1006 100 6000 2.6 200 13:55 11.12.2019
2834 Rain 6 1006 100 6000 3.6 200 13:36 11.12.2019
2835 Rain 5 1006 100 6000 3.6 200 13:18 11.12.2019
2836 Rain 5 1007 100 7000 3.1 200 12:55 11.12.2019
2837 Rain 5 1007 100 8000 3.6 200 12:37 11.12.2019
2838 Rain 5 1007 100 8000 3.6 200 12:18 11.12.2019
2839 Rain 5 1007 100 8000 3.6 210 11:57 11.12.2019
2840 Rain 5 1008 93 8000 4.1 210 11:38 11.12.2019
2841 Rain 5 1008 93 8000 4.1 210 11:18 11.12.2019
2842 Rain 5 1008 93 8000 4.1 210 11:18 11.12.2019
2843 Rain 5 1008 93 8000 4.6 210 10:44 11.12.2019
2844 Rain 5 1008 93 8000 4.6 210 10:44 11.12.2019
2845 Rain 5 1008 93 8000 4.6 210 10:26 11.12.2019
2846 Rain 5 1008 93 8000 5.1 200 09:59 11.12.2019
2847 Rain 5 1008 93 8000 5.1 200 09:39 11.12.2019
2848 Rain 5 1008 93 8000 5.1 200 09:39 11.12.2019
2849 Rain 5 1008 93 8000 5.1 200 09:39 11.12.2019
2850 Rain 5 1008 93 8000 5.1 200 09:20 11.12.2019
2851 Rain 5 1008 93 10000 5.1 200 08:57 11.12.2019
2852 Rain 5 1008 93 10000 5.7 200 08:38 11.12.2019
2853 Rain 5 1008 93 10000 5.7 200 08:19 11.12.2019
2854 Rain 5 1008 93 10000 5.1 210 07:47 11.12.2019
2855 Rain 5 1008 86 9000 5.1 210 07:28 11.12.2019
2856 Clouds 5 1008 75 10000 6.2 210 06:59 11.12.2019
2857 Clouds 6 1008 75 10000 6.2 210 06:40 11.12.2019
2858 Clouds 6 1008 75 10000 6.7 210 06:21 11.12.2019
2859 Clouds 6 1008 75 10000 7.2 210 05:41 11.12.2019
2860 Rain 6 1007 81 0 2.24 204 05:19 11.12.2019
2861 Clouds 6 1009 70 10000 7.2 200 04:26 11.12.2019
2862 Clouds 6 1009 60 10000 6.7 190 02:49 11.12.2019
2863 Clouds 6 1011 60 10000 7.7 180 01:25 11.12.2019
2864 Clouds 6 1011 60 10000 8.2 180 00:47 11.12.2019
2865 Clouds 5 1011 60 10000 7.7 180 00:21 11.12.2019
2866 Rain 5 1012 60 10000 8.2 180 23:50 10.12.2019
2867 Rain 5 1012 65 10000 8.2 180 23:30 10.12.2019
2868 Clouds 5 1013 75 10000 7.7 180 22:59 10.12.2019
2869 Clouds 5 1013 75 10000 7.7 180 22:40 10.12.2019
2870 Clouds 5 1013 75 10000 7.7 180 22:40 10.12.2019
2871 Clouds 5 1013 75 10000 7.2 170 22:22 10.12.2019
2872 Clouds 5 1014 75 10000 7.7 180 21:57 10.12.2019
2873 Clouds 5 1014 75 10000 7.7 180 21:39 10.12.2019
2874 Clouds 4 1015 75 10000 9.3 180 21:21 10.12.2019
2875 Clouds 4 1015 75 10000 8.2 180 20:57 10.12.2019
2876 Clouds 4 1016 80 10000 7.7 170 20:38 10.12.2019
2877 Clouds 4 1016 80 10000 7.7 170 20:19 10.12.2019
2878 Clouds 4 1016 80 10000 7.7 170 20:19 10.12.2019
2879 Clouds 4 1016 80 10000 7.2 170 19:55 10.12.2019
2880 Clouds 3 1017 86 10000 7.2 170 19:37 10.12.2019
2881 Clouds 3 1017 86 10000 7.2 170 19:19 10.12.2019
2882 Clouds 3 1017 86 10000 6.2 170 18:41 10.12.2019
2883 Clouds 3 1018 86 10000 5.7 170 18:21 10.12.2019
2884 Clouds 3 1019 80 10000 6.2 180 17:58 10.12.2019
2885 Clouds 3 1019 86 10000 5.7 170 17:40 10.12.2019
2886 Clouds 3 1019 86 10000 5.7 170 17:22 10.12.2019
2887 Clouds 4 1019 86 10000 6.2 170 16:55 10.12.2019
2888 Clouds 4 1020 80 10000 5.7 180 16:36 10.12.2019
2889 Clouds 4 1020 80 10000 5.7 180 16:18 10.12.2019
2890 Clouds 5 1020 80 10000 5.1 190 15:38 10.12.2019
2891 Clouds 5 1020 80 10000 5.1 190 15:38 10.12.2019
2892 Clouds 5 1021 75 10000 4.6 190 15:18 10.12.2019
2893 Clouds 5 1021 75 10000 4.1 190 14:56 10.12.2019
2894 Clouds 6 1021 70 10000 4.1 200 14:38 10.12.2019
2895 Clouds 6 1021 70 10000 4.1 200 14:20 10.12.2019
2896 Clouds 6 1021 70 10000 4.1 200 14:20 10.12.2019
2897 Clouds 6 1022 70 10000 4.6 210 13:58 10.12.2019
2898 Clouds 6 1022 70 10000 4.6 210 13:40 10.12.2019
2899 Clouds 6 1022 70 10000 4.1 210 13:20 10.12.2019
2900 Clouds 5 1022 75 10000 4.1 210 12:48 10.12.2019
2901 Clouds 5 1023 75 10000 4.1 230 12:28 10.12.2019
2902 Clouds 5 1023 80 10000 4.1 220 11:56 10.12.2019
2903 Clouds 4 1023 86 10000 4.1 220 11:38 10.12.2019
2904 Clear 4 1023 86 10000 4.1 220 11:19 10.12.2019
2905 Clouds 3 1023 86 10000 3.1 220 10:43 10.12.2019
2906 Clear 3 1023 86 10000 1.5 230 10:24 10.12.2019
2907 Clear 2 1022 86 10000 1 0 09:57 10.12.2019
2908 Clear 2 1022 86 10000 1 0 09:57 10.12.2019
2909 Clear 2 1022 86 10000 1 0 09:57 10.12.2019
2910 Clear 2 1022 86 10000 1 0 09:39 10.12.2019
2911 Clouds 2 1022 86 10000 1.5 230 09:20 10.12.2019
2912 Clouds 1 1022 86 10000 1 260 08:58 10.12.2019
2913 Clouds 1 1022 86 10000 1 260 08:39 10.12.2019
2914 Clouds 1 1022 86 10000 2.1 270 08:21 10.12.2019
2915 Clouds 2 1021 86 10000 2.6 260 07:45 10.12.2019
2916 Rain 2 1021 83 10000 3.1 260 07:27 10.12.2019
2917 Rain 2 1020 83 10000 3.6 260 06:56 10.12.2019
2918 Rain 2 1020 86 10000 3.6 260 06:38 10.12.2019
2919 Rain 3 1019 91 0 3.81 265 06:19 10.12.2019
2920 Rain 3 1019 91 0 0.45 265 05:51 10.12.2019
2921 Clouds 3 1019 86 10000 3.1 270 04:23 10.12.2019
2922 Rain 4 1018 86 10000 4.6 320 03:27 10.12.2019
2923 Clouds 4 1016 80 10000 6.2 290 02:36 10.12.2019
2924 Clouds 4 1016 75 10000 7.2 290 01:40 10.12.2019
2925 Clouds 4 1015 80 10000 7.2 290 01:19 10.12.2019
2926 Clouds 4 1014 75 10000 6.2 290 00:38 10.12.2019
2927 Clouds 4 1014 75 10000 6.2 290 00:18 10.12.2019
2928 Clouds 4 1013 79 10000 4.6 270 23:40 09.12.2019
2929 Rain 4 1012 75 10000 7.7 300 23:22 09.12.2019
2930 Clouds 4 1012 75 10000 7.2 290 22:57 09.12.2019
2931 Clouds 4 1012 75 10000 7.2 290 22:39 09.12.2019
2932 Clouds 5 1011 75 10000 6.2 280 22:18 09.12.2019
2933 Clouds 5 1010 80 10000 5.7 290 21:56 09.12.2019
2934 Clouds 5 1009 75 10000 6.2 300 21:38 09.12.2019
2935 Clouds 5 1009 75 10000 6.2 300 21:18 09.12.2019
2936 Clouds 5 1008 80 10000 6.2 300 20:56 09.12.2019
2937 Rain 5 1007 75 10000 6.7 300 20:38 09.12.2019
2938 Rain 5 1007 75 10000 6.7 300 20:19 09.12.2019
2939 Clouds 5 1006 75 10000 8.2 310 19:55 09.12.2019
2940 Clouds 5 1006 75 10000 8.2 310 19:55 09.12.2019
2941 Clouds 5 1005 81 10000 6.7 300 19:37 09.12.2019
2942 Clouds 5 1005 81 10000 6.7 300 19:19 09.12.2019
2943 Clouds 6 1004 87 10000 4.1 290 18:56 09.12.2019
2944 Clouds 6 1003 81 10000 6.2 320 18:37 09.12.2019
2945 Clouds 6 1003 81 10000 6.2 320 18:19 09.12.2019
2946 Clouds 6 1002 87 10000 4.1 300 17:57 09.12.2019
2947 Rain 6 1001 87 10000 8.7 340 17:38 09.12.2019
2948 Rain 6 1001 87 10000 8.7 340 17:20 09.12.2019
2949 Rain 6 1000 87 10000 6.2 280 16:56 09.12.2019
2950 Clouds 7 999 87 10000 5.7 270 16:37 09.12.2019
2951 Clouds 7 999 87 10000 5.7 270 16:18 09.12.2019
2952 Clouds 7 998 87 10000 4.6 260 15:55 09.12.2019
2953 Clouds 7 998 87 10000 4.6 260 15:55 09.12.2019
2954 Rain 7 998 87 10000 6.2 260 15:37 09.12.2019
2955 Rain 7 998 87 10000 6.2 260 15:37 09.12.2019
2956 Rain 7 998 87 10000 6.2 260 15:19 09.12.2019
2957 Clouds 7 997 87 10000 4.1 250 14:42 09.12.2019
2958 Clouds 7 997 87 10000 4.1 250 14:19 09.12.2019
2959 Clouds 7 996 87 10000 3.6 250 13:58 09.12.2019
2960 Clouds 7 996 87 10000 3.6 250 13:38 09.12.2019
2961 Clouds 7 995 87 10000 4.1 240 13:19 09.12.2019
2962 Clouds 7 995 93 10000 3.1 220 12:57 09.12.2019
2963 Clouds 7 995 93 10000 2.6 200 12:38 09.12.2019
2964 Clouds 7 995 93 10000 2.6 200 12:20 09.12.2019
2965 Rain 7 995 100 10000 2.1 200 11:58 09.12.2019
2966 Rain 6 995 100 10000 2.1 200 11:39 09.12.2019
2967 Rain 6 995 93 10000 2.6 180 11:21 09.12.2019
2968 Rain 7 995 93 10000 3.6 190 10:56 09.12.2019
2969 Clouds 7 994 81 10000 4.1 210 10:38 09.12.2019
2970 Clouds 7 994 81 10000 4.1 210 10:18 09.12.2019
2971 Rain 7 994 81 10000 5.1 210 09:41 09.12.2019
2972 Clouds 7 994 81 10000 4.1 200 09:23 09.12.2019
2973 Clouds 7 994 81 10000 4.6 210 08:55 09.12.2019
2974 Clouds 7 993 81 10000 4.1 200 08:37 09.12.2019
2975 Clouds 7 993 81 10000 4.1 200 08:19 09.12.2019
2976 Clouds 7 993 81 10000 4.6 210 07:44 09.12.2019
2977 Clouds 7 993 75 10000 5.1 210 07:25 09.12.2019
2978 Clouds 7 993 75 10000 7.2 220 06:55 09.12.2019
2979 Clouds 7 993 75 10000 6.7 220 06:28 09.12.2019
2980 Clouds 6 993 81 10000 7.2 220 05:30 09.12.2019
2981 Clouds 7 993 75 10000 8.7 220 04:54 09.12.2019
2982 Clouds 7 993 75 10000 8.7 220 04:23 09.12.2019
2983 Clouds 6 994 93 10000 6.2 230 02:28 09.12.2019
2984 Clouds 6 994 93 10000 5.1 220 01:46 09.12.2019
2985 Rain 6 994 86 10000 6.2 260 00:57 09.12.2019
2986 Rain 6 993 81 10000 7.7 230 00:32 09.12.2019
2987 Clouds 7 993 81 10000 7.2 220 23:55 08.12.2019
2988 Clouds 7 993 81 10000 7.2 230 23:37 08.12.2019
2989 Clouds 7 993 81 10000 7.2 230 23:18 08.12.2019
2990 Clouds 7 994 81 10000 7.7 230 22:56 08.12.2019
2991 Clouds 7 994 81 10000 6.7 220 22:38 08.12.2019
2992 Clouds 7 994 81 10000 6.7 220 22:18 08.12.2019
2993 Rain 7 994 93 9000 7.2 230 21:55 08.12.2019
2994 Rain 7 995 81 9000 9.8 230 21:37 08.12.2019
2995 Rain 7 995 81 9000 9.8 230 21:19 08.12.2019
2996 Clouds 7 995 87 10000 5.1 240 20:55 08.12.2019
2997 Rain 8 995 81 10000 7.2 220 20:37 08.12.2019
2998 Rain 8 995 81 10000 7.2 220 20:18 08.12.2019
2999 Clouds 8 995 87 10000 7.2 230 19:55 08.12.2019
3000 Clouds 8 995 81 10000 7.7 230 19:36 08.12.2019
3001 Clouds 8 995 81 10000 7.7 230 19:18 08.12.2019
3002 Clouds 8 995 81 10000 7.7 230 19:18 08.12.2019
3003 Clouds 8 995 81 10000 6.7 220 18:54 08.12.2019
3004 Clouds 8 995 87 10000 6.2 230 18:36 08.12.2019
3005 Clouds 8 995 87 10000 6.2 230 18:18 08.12.2019
3006 Clouds 8 995 81 10000 8.7 250 17:54 08.12.2019
3007 Clouds 8 995 87 10000 8.7 250 17:36 08.12.2019
3008 Clouds 8 995 87 10000 8.7 250 17:18 08.12.2019
3009 Rain 9 995 81 10000 9.8 240 16:55 08.12.2019
3010 Clouds 9 995 81 10000 8.2 240 16:37 08.12.2019
3011 Clouds 9 995 81 10000 8.2 240 16:18 08.12.2019
3012 Clouds 10 995 81 10000 9.3 250 15:37 08.12.2019
3013 Clouds 10 995 81 10000 9.3 250 15:18 08.12.2019
3014 Clouds 10 995 87 10000 9.8 240 14:57 08.12.2019
3015 Rain 10 995 93 10000 9.3 230 14:38 08.12.2019
3016 Rain 10 995 93 10000 9.3 230 14:20 08.12.2019
3017 Drizzle 10 995 93 6000 8.7 230 13:42 08.12.2019
3018 Drizzle 10 995 93 4500 9.3 230 13:23 08.12.2019
3019 Drizzle 10 995 87 8000 11.8 230 12:59 08.12.2019
3020 Drizzle 10 995 87 8000 11.8 230 12:41 08.12.2019
3021 Drizzle 9 996 87 7000 10.3 220 12:23 08.12.2019
3022 Drizzle 9 996 93 6000 9.3 220 11:59 08.12.2019
3023 Drizzle 9 997 93 3800 9.3 220 11:38 08.12.2019
3024 Drizzle 9 997 93 3800 9.3 220 11:19 08.12.2019
3025 Rain 9 997 87 10000 9.8 220 10:58 08.12.2019
3026 Rain 9 997 87 10000 8.7 210 10:38 08.12.2019
3027 Rain 9 997 87 10000 8.7 210 10:19 08.12.2019
3028 Rain 9 997 87 10000 8.7 210 09:56 08.12.2019
3029 Rain 9 998 81 10000 10.3 220 09:37 08.12.2019
3030 Rain 9 998 81 10000 10.3 220 09:19 08.12.2019
3031 Rain 9 998 81 10000 10.3 220 09:19 08.12.2019
3032 Rain 9 997 87 0 4.02 238 08:57 08.12.2019
3033 Rain 9 997 87 0 4.02 238 08:57 08.12.2019
3034 Rain 9 997 85 0 2.24 193 08:37 08.12.2019
3035 Clouds 9 999 71 10000 10.8 220 08:18 08.12.2019
3036 Clouds 9 999 76 10000 10.8 220 07:42 08.12.2019
3037 Clouds 9 1000 76 10000 10.8 220 07:19 08.12.2019
3038 Clouds 9 1000 76 10000 11.8 220 06:50 08.12.2019
3039 Clouds 9 1001 76 10000 11.3 220 06:22 08.12.2019
3040 Clouds 9 1002 76 10000 10.3 220 05:43 08.12.2019
3041 Clouds 9 1003 76 10000 10.8 230 05:18 08.12.2019
3042 Clouds 8 1005 76 10000 7.7 210 03:50 08.12.2019
3043 Clouds 8 1005 81 10000 7.2 210 03:22 08.12.2019
3044 Clouds 8 1006 81 0 6.2 210 02:39 08.12.2019
3045 Clouds 8 1007 75 10000 6.7 220 01:55 08.12.2019
3046 Clouds 8 1008 81 10000 6.7 220 01:23 08.12.2019
3047 Clouds 8 1008 81 10000 6.7 220 00:40 08.12.2019
3048 Clouds 8 1009 87 10000 6.2 230 00:20 08.12.2019
3049 Clouds 8 1009 87 10000 6.2 230 00:20 08.12.2019
3050 Clouds 8 1009 87 10000 6.2 230 23:41 07.12.2019
3051 Clouds 8 1009 87 10000 6.7 230 23:21 07.12.2019
3052 Clouds 8 1009 87 10000 6.7 230 23:21 07.12.2019
3053 Clouds 8 1010 87 10000 6.2 230 22:57 07.12.2019
3054 Clouds 8 1010 87 10000 6.2 230 22:39 07.12.2019
3055 Clouds 8 1010 87 10000 6.2 240 22:21 07.12.2019
3056 Clouds 8 1010 93 10000 5.7 240 21:56 07.12.2019
3057 Clouds 8 1010 93 10000 5.7 240 21:38 07.12.2019
3058 Clouds 8 1010 93 10000 5.7 240 21:19 07.12.2019
3059 Clouds 8 1010 87 10000 6.7 240 20:59 07.12.2019
3060 Clouds 8 1010 93 10000 5.7 240 20:37 07.12.2019
3061 Clouds 8 1010 93 10000 5.7 240 20:18 07.12.2019
3062 Clouds 8 1010 93 10000 6.2 240 19:56 07.12.2019
3063 Clouds 9 1010 87 10000 6.2 250 19:38 07.12.2019
3064 Clouds 9 1010 87 10000 6.2 250 19:20 07.12.2019
3065 Clouds 9 1010 87 10000 4.1 250 18:44 07.12.2019
3066 Rain 9 1010 100 9000 5.1 260 18:21 07.12.2019
3067 Clouds 9 1010 87 10000 7.2 240 17:59 07.12.2019
3068 Clouds 9 1010 87 10000 7.2 240 17:41 07.12.2019
3069 Clouds 9 1009 87 10000 6.2 240 17:23 07.12.2019
3070 Clouds 9 1009 87 10000 6.2 250 16:58 07.12.2019
3071 Clouds 9 1009 87 10000 6.2 250 16:39 07.12.2019
3072 Clouds 9 1009 81 10000 7.7 260 16:20 07.12.2019
3073 Clouds 9 1009 87 10000 6.7 250 15:57 07.12.2019
3074 Clouds 9 1009 87 10000 6.7 250 15:57 07.12.2019
3075 Clouds 9 1009 87 10000 6.7 250 15:38 07.12.2019
3076 Clouds 9 1008 87 10000 5.1 260 15:20 07.12.2019
3077 Clouds 9 1008 87 10000 5.1 260 15:20 07.12.2019
3078 Clouds 9 1008 87 10000 7.2 260 14:42 07.12.2019
3079 Clouds 9 1008 93 10000 6.7 260 14:19 07.12.2019
3080 Rain 9 1008 87 10000 8.7 260 13:58 07.12.2019
3081 Rain 9 1008 87 10000 8.7 260 13:58 07.12.2019
3082 Rain 9 1008 87 10000 8.7 260 13:39 07.12.2019
3083 Clouds 9 1008 81 10000 8.2 260 13:19 07.12.2019
3084 Clouds 9 1007 87 10000 8.2 260 12:54 07.12.2019
3085 Clouds 9 1007 81 10000 9.3 250 12:36 07.12.2019
3086 Clouds 9 1007 81 10000 9.3 250 12:36 07.12.2019
3087 Clouds 9 1007 81 10000 9.3 250 12:18 07.12.2019
3088 Clouds 9 1007 87 10000 8.7 260 11:41 07.12.2019
3089 Clouds 9 1007 87 10000 7.7 260 11:23 07.12.2019
3090 Clouds 9 1007 87 10000 7.2 260 10:55 07.12.2019
3091 Clouds 9 1007 87 10000 9.3 260 10:36 07.12.2019
3092 Clouds 9 1007 87 10000 9.3 260 10:18 07.12.2019
3093 Clouds 9 1006 87 10000 7.2 260 09:39 07.12.2019
3094 Clouds 9 1006 87 10000 7.2 260 09:21 07.12.2019
3095 Clouds 9 1005 87 10000 7.7 260 08:45 07.12.2019
3096 Clouds 9 1005 87 10000 8.2 260 08:24 07.12.2019
3097 Clouds 9 1004 87 10000 7.7 250 07:52 07.12.2019
3098 Rain 8 1004 87 10000 7.7 260 07:29 07.12.2019
3099 Rain 9 1003 87 10000 7.7 260 06:53 07.12.2019
3100 Clouds 8 1003 87 10000 8.2 270 06:27 07.12.2019
3101 Clouds 9 1002 87 10000 9.3 270 05:49 07.12.2019
3102 Clouds 8 1001 93 10000 8.2 260 04:48 07.12.2019
3103 Rain 8 1000 100 8000 6.7 260 03:51 07.12.2019
3104 Rain 8 999 93 10000 6.7 230 02:23 07.12.2019
3105 Rain 8 999 93 10000 7.2 230 01:51 07.12.2019
3106 Rain 8 999 87 10000 8.2 220 01:25 07.12.2019
3107 Rain 8 999 87 10000 8.2 220 01:25 07.12.2019
3108 Clouds 8 999 87 10000 8.2 220 00:42 07.12.2019
3109 Clouds 8 999 87 10000 9.3 220 00:18 07.12.2019
3110 Clouds 8 1000 87 10000 8.7 220 23:44 06.12.2019
3111 Clouds 8 1000 87 10000 8.2 220 23:23 06.12.2019
3112 Clouds 7 1000 87 10000 7.2 220 22:57 06.12.2019
3113 Clouds 7 1000 87 10000 7.7 220 22:36 06.12.2019
3114 Clouds 8 1000 87 10000 7.7 220 22:18 06.12.2019
3115 Clouds 7 1001 87 10000 8.2 220 21:41 06.12.2019
3116 Clouds 7 1001 87 10000 8.7 220 21:41 06.12.2019
3117 Clouds 7 1001 87 10000 8.2 220 21:21 06.12.2019
3118 Clouds 7 1001 93 10000 8.7 220 20:59 06.12.2019
3119 Clouds 7 1001 93 10000 8.7 220 20:41 06.12.2019
3120 Clouds 7 1001 93 10000 8.7 220 20:41 06.12.2019
3121 Drizzle 7 1001 93 5000 8.2 220 20:21 06.12.2019
3122 Drizzle 7 1001 93 6000 7.7 220 19:54 06.12.2019
3123 Drizzle 7 1002 93 5000 8.2 220 19:36 06.12.2019
3124 Drizzle 7 1002 93 5000 8.2 220 19:18 06.12.2019
3125 Drizzle 7 1002 93 5000 7.7 220 18:44 06.12.2019
3126 Drizzle 7 1002 93 5000 6.7 210 18:23 06.12.2019
3127 Rain 7 1002 100 10000 6.7 210 17:58 06.12.2019
3128 Rain 6 1002 100 10000 6.7 210 17:40 06.12.2019
3129 Drizzle 6 1002 93 5000 6.7 210 17:22 06.12.2019
3130 Clouds 6 1003 93 10000 6.7 210 16:59 06.12.2019
3131 Clouds 6 1003 93 10000 6.7 210 16:40 06.12.2019
3132 Rain 6 1003 93 10000 7.2 210 16:21 06.12.2019
3133 Drizzle 6 1003 93 6000 7.2 210 15:42 06.12.2019
3134 Drizzle 5 1004 93 2500 7.7 210 15:24 06.12.2019
3135 Drizzle 5 1004 100 3500 7.2 210 14:59 06.12.2019
3136 Drizzle 5 1004 100 3500 7.2 210 14:41 06.12.2019
3137 Drizzle 5 1005 100 5000 6.7 210 14:20 06.12.2019
3138 Drizzle 5 1005 93 4500 9.3 220 13:58 06.12.2019
3139 Drizzle 5 1005 93 4500 9.3 220 13:40 06.12.2019
3140 Drizzle 5 1005 93 4500 9.3 220 13:40 06.12.2019
3141 Drizzle 5 1005 100 4200 7.7 220 13:21 06.12.2019
3142 Drizzle 5 1005 100 4200 7.7 220 13:21 06.12.2019
3143 Drizzle 5 1005 100 4200 7.7 220 13:21 06.12.2019
3144 Drizzle 5 1006 93 5000 9.8 220 12:40 06.12.2019
3145 Drizzle 5 1006 93 9000 9.8 220 12:21 06.12.2019
3146 Drizzle 5 1007 93 7000 8.7 220 11:43 06.12.2019
3147 Drizzle 5 1007 93 7000 8.7 220 11:24 06.12.2019
3148 Drizzle 5 1007 93 7000 8.7 220 11:24 06.12.2019
3149 Drizzle 5 1008 93 7000 7.7 220 10:59 06.12.2019
3150 Drizzle 5 1008 93 7000 7.7 220 10:40 06.12.2019
3151 Drizzle 5 1008 93 7000 7.7 220 10:21 06.12.2019
3152 Drizzle 5 1008 93 7000 7.7 220 09:56 06.12.2019
3153 Rain 5 1008 93 7000 7.2 220 09:37 06.12.2019
3154 Rain 5 1008 93 7000 7.2 220 09:19 06.12.2019
3155 Rain 5 1008 93 7000 7.7 220 08:45 06.12.2019
3156 Rain 5 1008 93 7000 8.7 220 08:26 06.12.2019
3157 Rain 5 1008 93 8000 8.7 230 07:44 06.12.2019
3158 Rain 5 1008 93 9000 9.3 230 07:23 06.12.2019
3159 Rain 5 1008 93 10000 8.2 230 06:58 06.12.2019
3160 Rain 5 1008 93 10000 9.3 230 06:26 06.12.2019
3161 Clouds 5 1008 93 10000 8.7 230 05:52 06.12.2019
3162 Clouds 5 1008 93 10000 9.3 220 04:52 06.12.2019
3163 Clouds 5 1008 93 10000 9.3 220 04:52 06.12.2019
3164 Rain 3 1010 86 9000 8.2 220 01:49 06.12.2019
3165 Clouds 3 1011 86 10000 8.7 220 01:22 06.12.2019
3166 Clouds 3 1011 86 10000 7.7 220 00:39 06.12.2019
3167 Clouds 3 1012 93 10000 6.7 220 00:20 06.12.2019
3168 Clouds 3 1012 88 10000 6.7 210 23:41 05.12.2019
3169 Clouds 3 1013 81 10000 5.1 210 23:18 05.12.2019
3170 Clouds 2 1013 93 10000 5.7 200 22:56 05.12.2019
3171 Clouds 3 1014 86 8000 6.7 210 22:37 05.12.2019
3172 Clouds 3 1014 86 8000 6.7 210 22:18 05.12.2019
3173 Clouds 3 1014 86 6000 7.2 220 21:43 05.12.2019
3174 Clouds 3 1014 93 6000 7.7 210 21:25 05.12.2019
3175 Clouds 2 1015 93 6000 7.2 220 20:59 05.12.2019
3176 Clouds 2 1015 93 6000 7.2 220 20:40 05.12.2019
3177 Clouds 2 1015 93 7000 5.7 220 20:20 05.12.2019
3178 Clouds 2 1015 93 7000 5.7 220 20:20 05.12.2019
3179 Clouds 2 1015 93 7000 5.7 220 20:20 05.12.2019
3180 Clouds 2 1015 93 7000 5.7 220 20:20 05.12.2019
3181 Clouds 2 1015 93 7000 5.7 220 19:57 05.12.2019
3182 Clouds 2 1016 93 7000 5.1 210 19:39 05.12.2019
3183 Clouds 2 1016 93 6000 5.7 210 19:20 05.12.2019
3184 Clouds 2 1016 93 6000 5.7 210 18:57 05.12.2019
3185 Clouds 2 1017 93 6000 5.7 220 18:37 05.12.2019
3186 Clouds 2 1016 93 6000 6.2 210 18:19 05.12.2019
3187 Clouds 2 1017 93 6000 6.2 220 17:39 05.12.2019
3188 Mist 3 1017 93 4500 4.6 220 17:20 05.12.2019
3189 Mist 2 1017 93 4500 4.6 220 16:57 05.12.2019
3190 Mist 2 1017 93 4500 4.1 220 16:39 05.12.2019
3191 Clouds 2 1017 93 6000 4.6 220 16:21 05.12.2019
3192 Clouds 2 1017 93 6000 4.6 220 15:56 05.12.2019
3193 Clouds 2 1017 93 6000 5.7 230 15:38 05.12.2019
3194 Clouds 3 1018 86 8000 5.1 230 15:19 05.12.2019
3195 Clouds 3 1018 86 8000 5.1 230 14:55 05.12.2019
3196 Clear 3 1018 80 10000 4.6 230 14:37 05.12.2019
3197 Clear 4 1018 80 10000 4.1 220 14:18 05.12.2019
3198 Clear 4 1018 80 10000 4.1 220 13:56 05.12.2019
3199 Clear 4 1018 80 10000 3.6 210 13:38 05.12.2019
3200 Clear 3 1018 86 10000 4.1 220 13:19 05.12.2019
3201 Clear 3 1018 86 10000 4.1 220 13:19 05.12.2019
3202 Clear 4 1018 86 10000 4.1 220 12:55 05.12.2019
3203 Clear 4 1018 81 10000 3.6 230 12:37 05.12.2019
3204 Clear 3 1019 86 10000 3.6 220 12:19 05.12.2019
3205 Clear 3 1019 81 10000 4.1 230 11:39 05.12.2019
3206 Clear 2 1018 85 10000 3.6 210 11:21 05.12.2019
3207 Clear 2 1018 85 10000 3.6 210 11:21 05.12.2019
3208 Clear 2 1018 85 10000 3.6 210 10:58 05.12.2019
3209 Clear 1 1018 85 10000 3.6 220 10:40 05.12.2019
3210 Clear 0 1018 85 10000 4.1 180 10:19 05.12.2019
3211 Clear 0 1018 85 10000 4.1 180 09:55 05.12.2019
3212 Clear -2 1019 100 10000 2.1 200 09:37 05.12.2019
3213 Clear -3 1019 92 7000 2.1 190 09:18 05.12.2019
3214 Clear -2 1020 92 0 1.5 170 08:39 05.12.2019
3215 Mist -2 1019 100 2200 1 180 08:20 05.12.2019
3216 Mist -2 1019 100 2200 1 180 07:58 05.12.2019
3217 Mist -2 1019 100 1200 1 0 07:39 05.12.2019
3218 Fog -1 1019 100 800 1 220 07:20 05.12.2019
3219 Fog -1 1019 100 900 0.5 0 06:46 05.12.2019
3220 Mist -1 1019 92 3500 1 0 06:23 05.12.2019
3221 Mist -1 1019 92 3500 1 0 05:49 05.12.2019
3222 Mist -1 1019 92 3500 1 0 05:24 05.12.2019
3223 Mist -1 1019 92 2500 0.5 0 04:33 05.12.2019
3224 Mist -1 1019 100 3500 2.1 140 03:31 05.12.2019
3225 Fog -1 1019 92 2500 1.5 150 02:41 05.12.2019
3226 Fog 0 1019 100 3500 1 0 02:21 05.12.2019
3227 Fog -1 1020 100 1500 0.5 0 01:49 05.12.2019
3228 Mist -1 1020 89 3500 1 100 01:22 05.12.2019
3229 Mist 0 1020 89 3800 0.5 0 00:38 05.12.2019
3230 Mist 0 1020 100 5000 2.6 150 00:20 05.12.2019
3231 Mist 0 1020 100 5000 2.6 150 00:20 05.12.2019
3232 Fog 0 1020 100 6000 2.6 160 23:45 04.12.2019
3233 Fog 1 1021 89 7000 1 190 23:22 04.12.2019
3234 Fog 1 1021 89 7000 1 190 22:59 04.12.2019
3235 Clear 1 1021 100 7000 0.5 0 22:38 04.12.2019
3236 Clouds 1 1021 89 10000 2.6 190 22:19 04.12.2019
3237 Clouds 1 1021 89 10000 2.6 190 21:57 04.12.2019
3238 Clouds 1 1021 100 10000 1 0 21:38 04.12.2019
3239 Clouds 1 1021 100 10000 1 170 21:19 04.12.2019
3240 Clouds 1 1021 100 10000 1 170 20:57 04.12.2019
3241 Clouds 2 1021 100 10000 1.5 160 20:39 04.12.2019
3242 Clouds 2 1021 100 10000 1 170 20:20 04.12.2019
3243 Clouds 1 1021 100 10000 1 170 19:54 04.12.2019
3244 Clouds 1 1021 100 10000 2.1 160 19:36 04.12.2019
3245 Clear 2 1021 93 10000 2.1 160 19:18 04.12.2019
3246 Clouds 2 1021 93 10000 1 170 18:41 04.12.2019
3247 Clouds 2 1021 93 10000 1.5 190 18:22 04.12.2019
3248 Clouds 3 1021 93 10000 1.5 190 17:58 04.12.2019
3249 Clouds 3 1021 93 10000 2.1 180 17:39 04.12.2019
3250 Clouds 4 1021 86 10000 2.1 180 17:20 04.12.2019
3251 Clouds 5 1021 86 10000 2.1 180 16:56 04.12.2019
3252 Clear 5 1021 86 10000 2.1 190 16:38 04.12.2019
3253 Clear 5 1021 86 10000 2.1 210 16:19 04.12.2019
3254 Clear 5 1021 86 10000 2.1 210 16:19 04.12.2019
3255 Clear 6 1021 86 10000 2.1 210 15:55 04.12.2019
3256 Clear 6 1021 81 10000 3.1 220 15:36 04.12.2019
3257 Clear 6 1021 75 10000 3.6 230 15:18 04.12.2019
3258 Clouds 6 1022 75 10000 4.1 230 14:43 04.12.2019
3259 Clouds 7 1022 75 10000 4.1 230 14:23 04.12.2019
3260 Clouds 7 1022 75 10000 4.1 230 14:23 04.12.2019
3261 Clouds 7 1022 75 10000 4.6 230 13:58 04.12.2019
3262 Clouds 7 1022 75 10000 4.1 230 13:38 04.12.2019
3263 Clouds 7 1022 75 10000 4.6 230 13:19 04.12.2019
3264 Clouds 6 1022 81 10000 4.1 230 12:44 04.12.2019
3265 Clouds 6 1022 81 10000 4.1 230 12:24 04.12.2019
3266 Clouds 5 1022 80 8000 3.1 220 11:56 04.12.2019
3267 Clouds 5 1022 80 8000 3.1 220 11:38 04.12.2019
3268 Clouds 5 1023 86 7000 3.6 220 11:20 04.12.2019
3269 Clouds 4 1022 86 7000 3.1 200 10:44 04.12.2019
3270 Clouds 4 1022 86 7000 3.1 200 10:23 04.12.2019
3271 Clouds 4 1022 86 6000 3.6 200 09:57 04.12.2019
3272 Mist 4 1023 86 5000 4.1 220 09:37 04.12.2019
3273 Mist 4 1022 93 5000 4.1 220 09:19 04.12.2019
3274 Mist 4 1022 93 5000 3.6 230 08:40 04.12.2019
3275 Mist 4 1022 93 5000 2.6 210 08:22 04.12.2019
3276 Clouds 4 1022 93 6000 3.1 230 07:48 04.12.2019
3277 Clouds 4 1022 93 6000 3.1 230 07:30 04.12.2019
3278 Clouds 4 1022 93 7000 2.6 210 06:43 04.12.2019
3279 Clouds 4 1022 93 7000 2.6 210 06:24 04.12.2019
3280 Clouds 4 1022 93 6000 3.6 220 05:42 04.12.2019
3281 Mist 4 1022 93 5000 4.6 230 04:31 04.12.2019
3282 Mist 4 1023 86 4500 5.1 230 02:59 04.12.2019
3283 Mist 5 1024 86 5000 4.1 220 01:21 04.12.2019
3284 Clouds 5 1024 86 7000 4.6 220 00:40 04.12.2019
3285 Clouds 5 1024 93 8000 4.1 220 00:18 04.12.2019
3286 Clouds 5 1024 87 10000 5.1 230 23:41 03.12.2019
3287 Clouds 6 1024 87 10000 4.6 230 23:19 03.12.2019
3288 Clouds 6 1024 87 10000 4.6 230 22:54 03.12.2019
3289 Clouds 6 1024 87 10000 5.1 230 22:36 03.12.2019
3290 Clouds 6 1024 87 10000 5.1 230 22:18 03.12.2019
3291 Clouds 6 1024 87 10000 5.1 230 21:54 03.12.2019
3292 Clouds 6 1024 87 10000 4.6 230 21:36 03.12.2019
3293 Clouds 6 1024 87 10000 5.7 220 21:18 03.12.2019
3294 Clouds 6 1024 81 10000 5.7 220 20:41 03.12.2019
3295 Clouds 6 1024 87 10000 5.1 220 20:19 03.12.2019
3296 Clouds 7 1025 81 10000 4.1 240 19:56 03.12.2019
3297 Clouds 7 1025 81 10000 4.1 240 19:38 03.12.2019
3298 Clouds 7 1025 81 10000 4.6 240 19:20 03.12.2019
3299 Clouds 7 1025 81 10000 4.6 240 18:58 03.12.2019
3300 Clouds 7 1025 81 10000 4.6 230 18:40 03.12.2019
3301 Clouds 7 1025 81 10000 5.1 240 18:21 03.12.2019
3302 Clouds 7 1025 81 10000 5.1 240 17:58 03.12.2019
3303 Clouds 7 1025 81 10000 4.6 230 17:38 03.12.2019
3304 Clouds 7 1025 81 10000 4.1 250 17:18 03.12.2019
3305 Clouds 7 1025 81 10000 4.1 250 17:18 03.12.2019
3306 Clouds 7 1025 81 10000 4.1 250 16:58 03.12.2019
3307 Clouds 7 1025 81 10000 4.1 250 16:58 03.12.2019
3308 -273 0 0 0 0 0 16:39 03.12.2019
3309 Clouds 7 1025 81 10000 4.1 250 16:20 03.12.2019
3310 Clouds 7 1025 81 10000 4.1 250 16:20 03.12.2019
3311 Clouds 7 1025 81 10000 4.1 250 15:58 03.12.2019
3312 Clouds 7 1025 81 10000 4.6 250 15:38 03.12.2019
3313 Clouds 7 1025 81 10000 5.1 240 15:19 03.12.2019
3314 Clouds 7 1025 75 10000 5.1 240 14:44 03.12.2019
3315 Clouds 7 1026 75 10000 4.6 260 14:21 03.12.2019
3316 Clouds 7 1026 75 10000 4.6 260 13:59 03.12.2019
3317 Clouds 7 1026 75 10000 6.7 260 13:38 03.12.2019
3318 Clouds 7 1026 75 10000 5.7 260 13:19 03.12.2019
3319 Clouds 7 1026 75 10000 5.7 260 12:57 03.12.2019
3320 Clouds 7 1026 81 10000 4.6 240 12:37 03.12.2019
3321 Clouds 7 1026 87 10000 4.1 240 12:18 03.12.2019
3322 Clouds 7 1026 87 10000 4.1 240 11:56 03.12.2019
3323 Clouds 7 1026 93 10000 3.6 240 11:37 03.12.2019
3324 Clouds 7 1026 93 7000 3.6 250 11:18 03.12.2019
3325 Clouds 6 1026 93 7000 3.6 250 10:54 03.12.2019
3326 Mist 6 1026 100 5000 3.6 240 10:36 03.12.2019
3327 Mist 6 1027 100 4200 3.6 240 10:18 03.12.2019
3328 Mist 6 1027 100 2300 3.6 260 09:42 03.12.2019
3329 Mist 6 1027 100 2300 3.6 260 09:23 03.12.2019
3330 -273 0 0 0 0 0 08:56 03.12.2019
3331 Mist 6 1026 100 1400 3.6 250 08:38 03.12.2019
3332 Mist 6 1026 100 4200 3.1 260 08:19 03.12.2019
3333 Mist 5 1026 93 4400 3.6 260 07:51 03.12.2019
3334 Mist 5 1026 93 4400 3.6 260 07:25 03.12.2019
3335 Mist 5 1026 93 4400 3.6 260 07:25 03.12.2019
3336 Mist 5 1026 100 3800 2.6 240 06:38 03.12.2019
3337 Mist 5 1026 100 3300 2.1 260 06:19 03.12.2019
3338 Mist 5 1026 100 2000 2.6 260 04:56 03.12.2019
3339 Mist 5 1026 100 3000 2.6 250 03:42 03.12.2019
3340 Mist 5 1026 100 2500 2.6 260 03:21 03.12.2019
3341 Mist 5 1026 100 4400 2.1 250 02:52 03.12.2019
3342 Mist 4 1026 100 4400 2.1 250 02:32 03.12.2019
3343 Mist 5 1026 100 4800 2.6 250 01:57 03.12.2019
3344 Mist 4 1026 100 3600 2.6 260 01:38 03.12.2019
3345 Mist 4 1026 100 4000 3.1 260 01:18 03.12.2019
3346 Clouds 4 1026 100 8000 2.1 250 00:41 03.12.2019
3347 Clouds 4 1026 100 8000 2.1 250 00:23 03.12.2019
3348 Clouds 4 1025 100 10000 2.1 230 23:44 02.12.2019
3349 Clouds 4 1025 100 10000 1 190 23:22 02.12.2019
3350 Clouds 4 1025 100 10000 1 190 22:56 02.12.2019
3351 Clouds 4 1025 93 10000 1.5 220 22:37 02.12.2019
3352 Clouds 4 1025 100 10000 2.1 250 22:19 02.12.2019
3353 Clouds 3 1025 93 10000 2.1 270 21:39 02.12.2019
3354 Rain 3 1025 93 10000 2.6 280 21:20 02.12.2019
3355 Rain 3 1025 93 10000 2.6 280 21:20 02.12.2019
3356 Rain 3 1025 93 10000 2.6 280 20:58 02.12.2019
3357 Clouds 4 1025 93 10000 2.6 250 20:39 02.12.2019
3358 Clouds 4 1024 93 10000 3.6 260 20:20 02.12.2019
3359 Clouds 4 1024 93 10000 3.6 260 19:59 02.12.2019
3360 Clouds 4 1023 96 0 3.24 284 19:41 02.12.2019
3361 Clouds 4 1024 93 10000 1.5 280 19:21 02.12.2019
3362 Clouds 4 1024 93 10000 1.5 280 18:55 02.12.2019
3363 Clouds 4 1024 86 10000 2.6 260 18:36 02.12.2019
3364 Clouds 4 1024 93 10000 3.1 260 18:18 02.12.2019
3365 Clouds 5 1022 96 0 3.24 284 17:41 02.12.2019
3366 Clouds 5 1023 86 10000 4.6 290 17:21 02.12.2019
3367 Clouds 5 1023 86 10000 4.6 290 16:59 02.12.2019
3368 Rain 5 1023 81 10000 4.1 300 16:39 02.12.2019
3369 Rain 5 1023 81 10000 4.1 300 16:39 02.12.2019
3370 Rain 6 1023 81 10000 4.1 290 16:18 02.12.2019
3371 Rain 6 1023 81 10000 4.1 290 15:57 02.12.2019
3372 Clouds 6 1022 87 10000 3.6 280 15:38 02.12.2019
3373 Rain 6 1022 81 10000 6.2 300 15:20 02.12.2019
3374 Rain 6 1022 81 10000 6.2 300 14:55 02.12.2019
3375 Rain 6 1022 75 10000 6.2 290 14:37 02.12.2019
3376 Rain 6 1022 81 10000 5.7 290 14:19 02.12.2019
3377 Rain 6 1022 81 10000 5.7 290 13:55 02.12.2019
3378 Clouds 6 1022 81 10000 5.1 290 13:36 02.12.2019
3379 Clouds 6 1022 81 10000 5.1 290 13:18 02.12.2019
3380 Rain 6 1022 81 10000 5.1 290 12:42 02.12.2019
3381 Clouds 6 1022 87 10000 5.1 290 12:21 02.12.2019
3382 Clouds 5 1022 87 10000 5.1 290 11:57 02.12.2019
3383 Clouds 4 1022 93 10000 5.7 280 11:37 02.12.2019
3384 Clouds 4 1022 93 10000 5.7 280 11:37 02.12.2019
3385 Clouds 4 1022 93 10000 4.6 260 11:19 02.12.2019
3386 Clouds 4 1022 93 10000 4.6 260 10:57 02.12.2019
3387 Clouds 3 1022 93 10000 3.1 280 10:38 02.12.2019
3388 Rain 3 1021 93 10000 4.1 260 10:20 02.12.2019
3389 Rain 3 1021 93 10000 4.1 260 09:55 02.12.2019
3390 Clouds 2 1021 93 10000 3.1 280 09:37 02.12.2019
3391 Clouds 2 1021 89 10000 3.1 270 09:18 02.12.2019
3392 Clouds 1 1021 89 10000 2.6 260 08:41 02.12.2019
3393 Clouds 1 1021 94 10000 2.6 260 08:23 02.12.2019
3394 Clouds 1 1021 100 10000 1.5 230 07:59 02.12.2019
3395 Clouds 1 1021 94 10000 3.1 250 07:37 02.12.2019
3396 Clouds 2 1021 100 10000 1.5 320 07:18 02.12.2019
3397 Clouds 1 1020 94 10000 3.1 270 06:39 02.12.2019
3398 Clouds 1 1020 94 0 3.1 270 05:45 02.12.2019
3399 Clouds 1 1020 92 10000 2.6 260 04:59 02.12.2019
3400 Fog 1 1020 92 6000 2.1 240 03:19 02.12.2019
3401 Fog 1 1021 100 6000 1 240 02:47 02.12.2019
3402 Mist 1 1021 89 4000 1 250 01:46 02.12.2019
3403 Mist 1 1021 93 5000 2.6 260 01:19 02.12.2019
3404 Clouds 2 1021 93 6000 2.6 250 00:37 02.12.2019
3405 Clouds 2 1021 100 6000 1 0 00:19 02.12.2019
3406 Clouds 2 1021 100 6000 1 240 23:42 01.12.2019
3407 Clouds 2 1021 100 6000 1.5 230 23:21 01.12.2019
3408 Clouds 2 1021 100 6000 1.5 230 22:56 01.12.2019
3409 Clouds 2 1021 93 6000 1.5 260 22:38 01.12.2019
3410 Clouds 2 1021 93 7000 1.5 230 22:19 01.12.2019
3411 Clouds 2 1021 93 7000 1.5 230 21:56 01.12.2019
3412 Clouds 2 1021 100 7000 1 200 21:38 01.12.2019
3413 Clouds 2 1021 100 7000 1 200 21:38 01.12.2019
3414 Clouds 2 1021 100 6000 1 0 21:20 01.12.2019
3415 Clouds 2 1021 100 6000 1 0 20:58 01.12.2019
3416 Clouds 2 1021 93 6000 2.1 210 20:39 01.12.2019
3417 Clouds 2 1021 100 6000 1.5 200 20:21 01.12.2019
3418 Clouds 2 1021 100 6000 1.5 200 19:57 01.12.2019
3419 Clouds 2 1021 100 6000 1 0 19:39 01.12.2019
3420 Clouds 2 1021 100 10000 1 0 19:20 01.12.2019
3421 Clouds 2 1021 100 10000 1 0 18:56 01.12.2019
3422 Clouds 2 1021 93 10000 1.5 200 18:38 01.12.2019
3423 Clouds 2 1021 93 10000 1.5 220 18:19 01.12.2019
3424 Clouds 2 1021 93 10000 1.5 220 17:56 01.12.2019
3425 Clouds 2 1021 100 10000 0.5 280 17:38 01.12.2019
3426 Clouds 3 1021 100 8000 1 0 17:20 01.12.2019
3427 Clouds 2 1021 100 10000 1.5 220 16:54 01.12.2019
3428 Clouds 3 1021 100 10000 1.5 220 16:36 01.12.2019
3429 Clouds 3 1021 93 10000 1 0 16:18 01.12.2019
3430 Clouds 3 1021 93 10000 1.5 210 15:42 01.12.2019
3431 Clouds 3 1021 93 10000 1.5 210 15:23 01.12.2019
3432 Clouds 3 1021 93 10000 1.5 210 15:23 01.12.2019
3433 Clouds 3 1021 93 10000 1.5 210 15:23 01.12.2019
3434 Clouds 3 1021 93 10000 1.5 210 14:38 01.12.2019
3435 Clouds 3 1022 86 10000 1.5 210 14:19 01.12.2019
3436 Clouds 3 1022 86 10000 2.1 200 13:43 01.12.2019
3437 Clouds 2 1022 86 10000 2.1 200 13:25 01.12.2019
3438 Clouds 2 1022 86 10000 2.1 200 13:24 01.12.2019
3439 Clouds 2 1022 86 10000 2.1 200 13:24 01.12.2019
3440 Clouds 2 1022 86 10000 2.1 200 13:24 01.12.2019
3441 Clouds 2 1022 93 9000 1 0 12:59 01.12.2019
3442 Clouds 2 1022 93 7000 2.1 190 12:40 01.12.2019
3443 Clouds 2 1022 93 7000 2.1 190 11:55 01.12.2019
3444 Clouds 1 1022 80 7000 1 0 11:37 01.12.2019
3445 Clouds 1 1022 84 7000 1 0 11:18 01.12.2019
3446 Clouds 1 1022 84 7000 1 0 11:18 01.12.2019
3447 Clouds 0 1022 84 6000 0.5 0 10:43 01.12.2019
3448 Mist 0 1022 84 4300 1 0 10:20 01.12.2019
3449 Mist 0 1022 84 3000 0.5 0 09:42 01.12.2019
3450 Mist 0 1022 84 3000 0.5 0 09:23 01.12.2019
3451 Mist 0 1022 100 2500 0.5 0 08:57 01.12.2019
3452 Mist 0 1022 100 1500 1.5 170 08:38 01.12.2019
3453 Mist 0 1022 100 1500 1 140 08:19 01.12.2019
3454 Mist 0 1022 100 2200 0.5 140 07:49 01.12.2019
3455 Mist 0 1022 100 2200 0.5 140 07:29 01.12.2019
3456 Fog 0 1022 100 700 0.5 0 06:53 01.12.2019
3457 Fog 0 1022 100 700 0.5 0 06:21 01.12.2019
3458 Fog 0 1022 100 700 1.5 170 05:45 01.12.2019
3459 Mist 1 1022 91 3000 1 0 04:30 01.12.2019
3460 Mist 1 1023 100 4000 1 220 02:47 01.12.2019
3461 Mist 1 1023 100 4000 1 220 02:28 01.12.2019
3462 Mist 1 1023 91 3200 1.5 200 01:56 01.12.2019
3463 Mist 1 1023 91 2500 1.5 200 01:38 01.12.2019
3464 Mist 1 1023 100 3800 1.5 170 00:59 01.12.2019
3465 Fog 1 1023 90 700 1 220 00:39 01.12.2019
3466 Fog 1 1023 90 600 1 230 00:20 01.12.2019
3467 Mist 1 1023 100 1500 0.5 0 23:41 30.11.2019
3468 Fog 1 1023 100 800 1 220 23:22 30.11.2019
3469 Fog 1 1023 100 800 1.5 230 22:49 30.11.2019
3470 Fog 1 1023 100 800 1.5 230 22:29 30.11.2019
3471 Fog 1 1023 90 800 1.5 210 21:57 30.11.2019
3472 Mist 1 1023 100 2000 0.5 0 21:39 30.11.2019
3473 Mist 1 1023 100 2000 1 230 21:20 30.11.2019
3474 Mist 1 1023 100 2000 1 230 20:55 30.11.2019
3475 Clear 2 1023 100 10000 1 240 20:37 30.11.2019
3476 Clouds 2 1023 100 10000 1.5 220 20:18 30.11.2019
3477 Clouds 2 1023 100 10000 1.5 220 19:55 30.11.2019
3478 Clouds 2 1023 100 10000 1.5 210 19:36 30.11.2019
3479 Clouds 2 1023 100 10000 1.5 210 19:18 30.11.2019
3480 Clouds 2 1023 100 10000 1.5 210 18:54 30.11.2019
3481 Clouds 3 1023 93 10000 2.6 230 18:36 30.11.2019
3482 Clouds 3 1023 93 10000 2.6 240 18:18 30.11.2019
3483 Clouds 3 1023 93 10000 2.6 240 18:18 30.11.2019
3484 Clouds 3 1023 93 10000 2.6 240 17:56 30.11.2019
3485 Clouds 4 1023 93 10000 1.5 260 17:37 30.11.2019
3486 Clouds 4 1023 93 10000 2.6 270 17:19 30.11.2019
3487 Clouds 5 1023 86 10000 4.1 260 16:42 30.11.2019
3488 Clouds 5 1023 86 10000 2.6 250 16:22 30.11.2019
3489 Rain 6 1022 86 0 2.96 263 15:55 30.11.2019
3490 Rain 6 1022 86 0 2.96 263 15:55 30.11.2019
3491 Clouds 6 1023 86 10000 3.1 250 15:37 30.11.2019
3492 Clouds 6 1022 81 10000 3.1 270 15:18 30.11.2019
3493 Clouds 7 1022 81 10000 3.1 270 14:56 30.11.2019
3494 Clouds 6 1022 75 10000 2.6 270 14:37 30.11.2019
3495 Clouds 6 1022 81 10000 3.1 260 14:18 30.11.2019
3496 Clouds 6 1022 81 10000 3.1 260 13:56 30.11.2019
3497 Clouds 7 1022 75 10000 3.6 250 13:36 30.11.2019
3498 Clouds 6 1022 81 10000 4.6 250 13:18 30.11.2019
3499 Clouds 6 1022 81 10000 4.6 250 13:18 30.11.2019
3500 Clouds 6 1022 81 10000 3.1 240 12:42 30.11.2019
3501 Clouds 6 1022 81 10000 3.1 240 12:24 30.11.2019
3502 Clouds 5 1022 86 10000 3.1 260 11:43 30.11.2019
3503 Clouds 4 1022 86 10000 2.6 260 11:20 30.11.2019
3504 Clouds 4 1022 86 10000 2.6 260 10:57 30.11.2019
3505 Clouds 3 1022 93 10000 2.6 250 10:39 30.11.2019
3506 Clouds 3 1021 93 10000 2.6 230 10:20 30.11.2019
3507 Clouds 2 1020 95 0 3.89 262 09:46 30.11.2019
3508 Clouds 2 1020 95 0 3.89 262 09:46 30.11.2019
3509 Clouds 2 1021 85 10000 2.6 240 09:28 30.11.2019
3510 Clouds 2 1021 85 10000 2.6 250 08:45 30.11.2019
3511 Clouds 2 1021 84 10000 2.6 250 08:24 30.11.2019
3512 Clouds 2 1021 91 10000 1.5 230 07:59 30.11.2019
3513 Clouds 2 1020 91 10000 2.1 280 07:41 30.11.2019
3514 Clouds 2 1020 91 10000 2.1 250 07:22 30.11.2019
3515 Clouds 2 1020 91 10000 2.1 220 06:30 30.11.2019
3516 Clouds 2 1020 100 10000 1.5 260 05:58 30.11.2019
3517 Clouds 2 1019 92 10000 2.1 240 03:56 30.11.2019
3518 Clouds 2 1019 100 10000 3.6 240 03:37 30.11.2019
3519 Clouds 2 1018 86 10000 2.6 300 02:25 30.11.2019
3520 Clouds 2 1017 92 10000 2.6 280 01:50 30.11.2019
3521 Clouds 2 1017 93 0 0.89 298 01:24 30.11.2019
3522 Clouds 2 1017 88 10000 2.6 270 00:38 30.11.2019
3523 Clouds 2 1017 93 10000 3.1 290 00:20 30.11.2019
3524 Clouds 3 1016 86 10000 3.1 290 23:44 29.11.2019
3525 Clouds 3 1016 86 10000 3.1 290 23:25 29.11.2019
3526 Clouds 3 1016 86 10000 3.1 290 23:25 29.11.2019
3527 Clouds 3 1015 93 0 0.45 339 22:48 29.11.2019
3528 Clouds 3 1015 90 10000 3.1 270 22:27 29.11.2019
3529 Clouds 3 1015 90 10000 3.1 280 21:58 29.11.2019
3530 Clouds 3 1015 86 10000 4.1 280 21:40 29.11.2019
3531 Clouds 4 1014 86 10000 3.6 270 21:22 29.11.2019
3532 Clouds 4 1014 86 10000 3.6 270 20:56 29.11.2019
3533 Clouds 4 1014 86 10000 3.1 280 20:37 29.11.2019
3534 Clouds 4 1013 93 10000 3.1 260 20:18 29.11.2019
3535 Clouds 4 1013 93 10000 3.1 260 19:55 29.11.2019
3536 Clouds 4 1013 93 10000 3.6 260 19:36 29.11.2019
3537 Clouds 4 1013 93 10000 2.6 260 19:18 29.11.2019
3538 Clouds 4 1013 93 10000 2.6 260 19:18 29.11.2019
3539 Clouds 4 1012 93 10000 2.6 230 18:42 29.11.2019
3540 Clouds 4 1012 93 10000 2.6 230 18:24 29.11.2019
3541 Clouds 4 1012 86 10000 1.5 250 17:57 29.11.2019
3542 Clouds 3 1011 93 10000 1 250 17:39 29.11.2019
3543 Clouds 3 1011 86 10000 1.5 270 17:20 29.11.2019
3544 Clouds 4 1010 86 10000 3.1 280 16:43 29.11.2019
3545 Clouds 5 1010 80 10000 3.6 310 16:21 29.11.2019
3546 Clouds 5 1010 80 10000 3.6 310 15:57 29.11.2019
3547 Clouds 5 1009 87 10000 3.6 290 15:39 29.11.2019
3548 Clouds 6 1009 87 10000 3.6 290 15:20 29.11.2019
3549 Clouds 6 1008 81 10000 5.7 300 14:40 29.11.2019
3550 Clouds 6 1008 81 10000 4.1 300 14:22 29.11.2019
3551 Clouds 6 1008 81 10000 4.1 300 13:58 29.11.2019
3552 Clouds 6 1007 81 10000 4.6 320 13:38 29.11.2019
3553 Clouds 6 1007 81 10000 4.1 320 13:20 29.11.2019
3554 Clouds 6 1006 75 10000 4.6 320 12:43 29.11.2019
3555 Clouds 6 1006 75 10000 4.6 320 12:25 29.11.2019
3556 Clouds 6 1006 86 6000 4.6 300 11:57 29.11.2019
3557 Clouds 6 1005 75 10000 5.7 280 11:38 29.11.2019
3558 Clouds 6 1004 81 10000 6.2 280 11:19 29.11.2019
3559 Clouds 6 1003 81 10000 5.7 270 10:58 29.11.2019
3560 Clouds 6 1003 81 10000 5.7 270 10:39 29.11.2019
3561 Clouds 5 1003 80 10000 5.7 270 10:21 29.11.2019
3562 Clouds 5 1003 80 10000 5.7 270 09:59 29.11.2019
3563 Clouds 5 1002 86 10000 5.7 270 09:39 29.11.2019
3564 Clouds 5 1002 80 10000 6.2 270 09:21 29.11.2019
3565 Clouds 5 1002 80 10000 6.2 270 08:55 29.11.2019
3566 Rain 4 1001 80 10000 7.2 280 08:37 29.11.2019
3567 Rain 4 1001 86 10000 6.7 270 08:19 29.11.2019
3568 Rain 4 1000 86 10000 6.7 260 07:42 29.11.2019
3569 Rain 4 1000 86 10000 6.7 260 07:42 29.11.2019
3570 Rain 4 1000 86 10000 6.7 260 07:23 29.11.2019
3571 Rain 5 1000 80 10000 6.2 270 06:54 29.11.2019
3572 Rain 5 999 80 10000 7.2 270 06:35 29.11.2019
3573 Clouds 5 998 80 10000 6.7 260 05:46 29.11.2019
3574 Clouds 5 998 75 10000 6.7 250 05:23 29.11.2019
3575 Clouds 5 998 75 10000 6.7 250 05:23 29.11.2019
3576 Clouds 5 997 75 10000 7.2 260 03:43 29.11.2019
3577 Clouds 5 997 80 10000 5.7 260 03:19 29.11.2019
3578 Clouds 6 996 80 10000 6.2 270 02:25 29.11.2019
3579 Clouds 6 996 75 10000 5.7 270 01:50 29.11.2019
3580 Clouds 6 996 75 10000 5.7 270 01:24 29.11.2019
3581 Clouds 7 995 75 10000 6.2 280 00:42 29.11.2019
3582 Clouds 7 994 75 10000 7.2 280 00:20 29.11.2019
3583 Clouds 7 994 81 10000 6.7 280 23:44 28.11.2019
3584 Clouds 7 994 81 10000 6.7 280 23:44 28.11.2019
3585 Rain 7 993 87 10000 7.7 290 23:21 28.11.2019
3586 Rain 8 993 87 10000 7.7 290 22:58 28.11.2019
3587 Rain 8 993 93 10000 7.2 270 22:38 28.11.2019
3588 Rain 8 993 93 10000 7.2 270 22:38 28.11.2019
3589 Rain 8 992 93 10000 6.7 270 22:20 28.11.2019
3590 Rain 8 992 93 10000 6.7 270 21:56 28.11.2019
3591 Clouds 8 992 87 10000 5.1 280 21:38 28.11.2019
3592 Clouds 8 991 87 10000 5.7 290 21:19 28.11.2019
3593 Clouds 9 991 87 10000 5.7 290 20:54 28.11.2019
3594 Rain 9 991 87 10000 7.7 290 20:36 28.11.2019
3595 Clouds 9 990 93 10000 7.2 280 20:18 28.11.2019
3596 Clouds 9 990 87 10000 6.2 280 19:41 28.11.2019
3597 Clouds 9 989 93 10000 5.7 260 19:22 28.11.2019
3598 Clouds 9 989 93 10000 5.7 260 18:59 28.11.2019
3599 Clouds 9 989 93 10000 5.7 260 18:40 28.11.2019
3600 Rain 9 988 93 10000 5.7 260 18:19 28.11.2019
3601 Rain 9 988 93 10000 5.7 260 17:59 28.11.2019
3602 Clouds 9 988 93 10000 6.2 260 17:41 28.11.2019
3603 Clouds 9 988 93 10000 6.2 260 17:40 28.11.2019
3604 Clouds 10 988 93 10000 6.7 260 17:21 28.11.2019
3605 Clouds 10 988 93 10000 6.7 260 16:55 28.11.2019
3606 Drizzle 9 987 93 10000 7.2 250 16:37 28.11.2019
3607 Drizzle 10 986 93 9000 7.7 260 16:18 28.11.2019
3608 Drizzle 9 986 93 6000 9.3 250 15:41 28.11.2019
3609 Drizzle 9 985 93 5000 8.2 230 15:20 28.11.2019
3610 Drizzle 9 985 93 5000 8.2 230 14:58 28.11.2019
3611 Drizzle 9 985 93 5000 8.2 230 14:58 28.11.2019
3612 Drizzle 9 985 93 6000 9.3 220 14:40 28.11.2019
3613 Drizzle 9 985 93 6000 8.7 220 14:21 28.11.2019
3614 Drizzle 9 985 93 6000 8.7 220 13:56 28.11.2019
3615 Rain 9 985 93 9000 9.3 220 13:38 28.11.2019
3616 Drizzle 9 985 93 7000 9.8 220 13:19 28.11.2019
3617 Rain 9 985 93 10000 8.7 230 12:42 28.11.2019
3618 Rain 9 985 93 10000 6.7 230 12:23 28.11.2019
3619 Rain 9 985 93 10000 6.7 230 11:57 28.11.2019
3620 Rain 9 985 87 10000 9.8 220 11:57 28.11.2019
3621 Rain 9 985 87 10000 9.8 220 11:39 28.11.2019
3622 -273 0 0 0 0 0 11:20 28.11.2019
3623 Rain 9 985 93 10000 7.7 210 10:43 28.11.2019
3624 Rain 9 985 93 10000 7.7 210 10:23 28.11.2019
3625 Rain 9 985 93 10000 6.7 210 09:59 28.11.2019
3626 Rain 9 985 93 9000 7.2 200 09:40 28.11.2019
3627 Rain 9 985 87 9000 6.2 210 09:20 28.11.2019
3628 Rain 9 985 87 9000 6.2 210 08:55 28.11.2019
3629 Rain 9 985 87 10000 6.7 210 08:36 28.11.2019
3630 Rain 9 985 93 10000 6.2 220 08:18 28.11.2019
3631 Rain 10 985 87 10000 6.2 210 07:41 28.11.2019
3632 Rain 10 985 87 10000 6.2 210 07:23 28.11.2019
3633 Clouds 10 985 87 10000 6.7 200 06:43 28.11.2019
3634 Clouds 10 985 87 10000 6.2 210 06:22 28.11.2019
3635 Rain 10 985 93 10000 6.2 210 05:44 28.11.2019
3636 Rain 10 985 93 8000 7.2 220 04:57 28.11.2019
3637 Rain 10 984 87 10000 7.2 190 02:36 28.11.2019
3638 Rain 10 985 87 10000 7.2 170 01:35 28.11.2019
3639 Clouds 10 986 87 10000 5.7 160 00:43 28.11.2019
3640 Clouds 9 986 100 10000 5.7 160 00:20 28.11.2019
3641 Rain 9 986 87 10000 5.7 160 23:41 27.11.2019
3642 Rain 9 987 93 10000 5.7 160 23:22 27.11.2019
3643 Rain 9 987 93 10000 5.7 160 22:59 27.11.2019
3644 Clouds 9 987 87 10000 5.1 170 22:38 27.11.2019
3645 Rain 9 987 87 10000 6.2 180 22:20 27.11.2019
3646 Rain 9 987 87 10000 6.2 180 21:56 27.11.2019
3647 Clouds 9 987 87 10000 5.1 170 21:37 27.11.2019
3648 Clouds 9 987 87 10000 5.1 170 21:37 27.11.2019
3649 Clouds 9 987 87 10000 4.1 150 21:19 27.11.2019
3650 Clouds 9 987 87 10000 4.1 150 20:58 27.11.2019
3651 Clouds 9 987 87 10000 4.1 150 20:58 27.11.2019
3652 Clouds 9 988 87 10000 4.1 160 20:39 27.11.2019
3653 Clouds 9 988 87 10000 4.1 160 20:39 27.11.2019
3654 Clouds 9 988 87 10000 5.1 160 20:20 27.11.2019
3655 Clouds 9 988 87 10000 5.1 160 19:57 27.11.2019
3656 Clouds 8 988 87 10000 4.1 150 19:39 27.11.2019
3657 Clouds 8 988 87 10000 4.1 140 19:19 27.11.2019
3658 Clouds 8 988 87 10000 4.1 140 18:58 27.11.2019
3659 Clouds 8 988 87 10000 4.1 140 18:58 27.11.2019
3660 Clouds 8 989 87 10000 4.6 140 18:37 27.11.2019
3661 Clouds 9 989 87 10000 4.6 140 18:19 27.11.2019
3662 Clouds 9 989 87 10000 4.6 140 17:56 27.11.2019
3663 Clouds 9 989 87 10000 4.6 140 17:38 27.11.2019
3664 Clouds 9 989 87 10000 4.1 140 17:20 27.11.2019
3665 Clouds 9 989 87 10000 4.1 140 17:20 27.11.2019
3666 Clouds 10 989 87 10000 4.1 140 16:56 27.11.2019
3667 Clouds 10 989 87 10000 4.1 140 16:37 27.11.2019
3668 Clouds 10 990 87 10000 4.1 130 16:18 27.11.2019
3669 Clouds 10 990 87 10000 4.1 130 15:57 27.11.2019
3670 Clouds 10 990 87 10000 4.1 130 15:38 27.11.2019
3671 Clouds 10 990 87 10000 4.1 130 15:38 27.11.2019
3672 Clouds 10 990 87 10000 4.6 140 15:20 27.11.2019
3673 Clouds 10 990 87 10000 4.1 140 14:56 27.11.2019
3674 Clouds 10 990 87 10000 4.1 140 14:38 27.11.2019
3675 Clouds 10 990 87 10000 3.6 150 14:20 27.11.2019
3676 Clouds 10 990 87 10000 3.6 150 13:56 27.11.2019
3677 Clouds 10 991 87 10000 4.1 150 13:38 27.11.2019
3678 Clouds 10 991 87 10000 4.1 150 13:38 27.11.2019
3679 Clouds 10 991 93 10000 4.6 150 13:19 27.11.2019
3680 Rain 9 991 93 8000 4.1 140 12:42 27.11.2019
3681 Rain 9 991 87 8000 4.6 140 12:22 27.11.2019
3682 Rain 9 991 87 10000 5.1 140 11:59 27.11.2019
3683 Rain 9 991 87 10000 5.1 140 11:37 27.11.2019
3684 Clouds 9 992 87 10000 5.1 130 11:19 27.11.2019
3685 Clouds 9 992 87 10000 5.7 130 10:55 27.11.2019
3686 Clouds 9 992 87 10000 5.7 130 10:37 27.11.2019
3687 Clouds 9 992 87 10000 5.7 130 10:19 27.11.2019
3688 Clouds 9 992 87 10000 5.1 130 09:43 27.11.2019
3689 Clouds 9 992 87 10000 5.7 120 09:24 27.11.2019
3690 Clouds 9 992 87 10000 5.7 130 08:43 27.11.2019
3691 Clouds 9 993 93 10000 5.1 130 08:25 27.11.2019
3692 Clouds 9 993 93 10000 5.1 130 07:59 27.11.2019
3693 Clouds 9 993 87 10000 4.6 110 07:41 27.11.2019
3694 Clouds 9 993 93 10000 4.6 120 07:21 27.11.2019
3695 Clouds 9 994 93 10000 4.6 130 06:46 27.11.2019
3696 Clouds 9 994 93 10000 4.1 110 06:26 27.11.2019
3697 Clouds 9 995 87 10000 3.6 130 05:27 27.11.2019
3698 Clouds 9 995 87 10000 3.6 130 04:59 27.11.2019
3699 Clouds 9 995 87 10000 3.6 130 04:39 27.11.2019
3700 Clouds 9 996 87 10000 3.1 140 03:51 27.11.2019
3701 Clouds 9 997 87 10000 2.6 130 03:22 27.11.2019
3702 Clouds 9 997 87 10000 2.6 130 02:54 27.11.2019
3703 Clouds 9 998 87 10000 3.6 140 01:35 27.11.2019
3704 Clouds 9 998 87 10000 3.6 140 00:44 27.11.2019
3705 Clouds 9 999 87 10000 3.6 150 00:25 27.11.2019
3706 Clouds 9 999 87 10000 4.1 150 23:48 26.11.2019
3707 Clouds 9 999 87 10000 3.6 150 23:26 26.11.2019
3708 Clouds 9 999 87 10000 3.6 150 22:58 26.11.2019
3709 Clouds 9 1000 87 10000 3.6 140 22:38 26.11.2019
3710 Clouds 9 1000 87 10000 3.6 150 22:19 26.11.2019
3711 Clouds 9 1000 87 10000 3.6 150 21:58 26.11.2019
3712 Clouds 9 1000 93 10000 3.6 150 21:37 26.11.2019
3713 Clouds 9 1001 93 10000 4.1 150 21:19 26.11.2019
3714 Clouds 9 1001 93 10000 4.1 150 20:55 26.11.2019
3715 Clouds 9 1001 93 10000 3.1 160 20:36 26.11.2019
3716 Clouds 9 1001 93 10000 3.6 150 20:18 26.11.2019
3717 Clouds 9 1001 93 10000 3.6 150 19:55 26.11.2019
3718 Clouds 9 1001 93 10000 3.6 150 19:37 26.11.2019
3719 Clouds 9 1001 93 10000 2.6 140 19:18 26.11.2019
3720 Clouds 9 1001 93 10000 3.1 140 18:56 26.11.2019
3721 Clouds 9 1001 93 10000 3.1 140 18:38 26.11.2019
3722 Clouds 9 1002 93 10000 3.1 140 18:20 26.11.2019
3723 Clouds 9 1002 93 10000 3.6 140 17:55 26.11.2019
3724 Clouds 9 1002 93 10000 3.6 140 17:36 26.11.2019
3725 Clouds 9 1002 93 10000 4.1 150 17:18 26.11.2019
3726 Clouds 9 1002 93 10000 3.6 150 16:55 26.11.2019
3727 Clouds 9 1002 93 10000 3.6 150 16:37 26.11.2019
3728 Drizzle 9 1002 87 10000 2.6 150 16:18 26.11.2019
3729 Drizzle 9 1002 87 10000 2.6 150 15:56 26.11.2019
3730 Drizzle 9 1002 87 10000 2.6 150 15:56 26.11.2019
3731 Clouds 9 1003 87 10000 3.1 150 15:37 26.11.2019
3732 Clouds 9 1003 87 10000 3.6 140 15:18 26.11.2019
3733 Clouds 9 1003 93 10000 3.6 150 14:45 26.11.2019
3734 Clouds 8 1003 93 10000 3.1 140 14:24 26.11.2019
3735 Drizzle 8 1004 87 6000 3.6 160 13:44 26.11.2019
3736 Clouds 8 1004 87 10000 3.6 160 13:24 26.11.2019
3737 Clouds 8 1004 93 10000 3.6 150 12:58 26.11.2019
3738 Clouds 7 1004 93 10000 3.6 150 12:37 26.11.2019
3739 Drizzle 7 1004 93 6000 3.6 150 12:19 26.11.2019
3740 Clouds 7 1005 93 10000 4.1 160 11:56 26.11.2019
3741 Clouds 7 1005 93 10000 4.1 160 11:37 26.11.2019
3742 Clouds 7 1005 93 10000 2.6 140 11:19 26.11.2019
3743 Clouds 6 1005 93 8000 3.1 140 10:56 26.11.2019
3744 Clouds 6 1005 93 8000 3.1 140 10:38 26.11.2019
3745 Mist 6 1005 93 5000 2.6 130 10:19 26.11.2019
3746 Mist 5 1005 100 4800 3.6 140 09:43 26.11.2019
3747 Mist 5 1005 100 4800 3.6 140 09:24 26.11.2019
3748 Mist 5 1005 93 4200 3.1 130 08:58 26.11.2019
3749 Mist 5 1006 100 3200 2.1 170 08:38 26.11.2019
3750 Mist 5 1006 100 4500 2.1 140 08:18 26.11.2019
3751 Mist 5 1006 100 4500 3.1 140 07:43 26.11.2019
3752 Mist 5 1006 100 5000 2.6 140 07:24 26.11.2019
3753 Mist 5 1006 100 5000 2.6 120 06:53 26.11.2019
3754 Mist 5 1006 100 4800 2.6 140 06:21 26.11.2019
3755 Mist 5 1006 100 3800 2.6 130 05:36 26.11.2019
3756 Drizzle 5 1007 93 5000 2.6 130 03:22 26.11.2019
3757 Drizzle 5 1008 100 3500 2.6 110 01:53 26.11.2019
3758 Drizzle 5 1008 100 3500 2.6 110 01:28 26.11.2019
3759 Drizzle 5 1009 100 3500 2.6 130 00:48 26.11.2019
3760 Drizzle 5 1009 100 3800 2.6 130 00:23 26.11.2019
3761 Drizzle 5 1009 100 4800 3.1 120 23:39 25.11.2019
3762 Drizzle 5 1009 100 4800 3.1 120 23:39 25.11.2019
3763 Drizzle 5 1009 100 4800 3.1 120 23:39 25.11.2019
3764 Drizzle 5 1009 100 5000 2.6 140 23:20 25.11.2019
3765 Drizzle 5 1009 100 5000 2.6 140 22:58 25.11.2019
3766 Mist 5 1009 100 5000 3.1 130 22:37 25.11.2019
3767 Mist 5 1009 100 5000 3.1 140 22:18 25.11.2019
3768 Mist 5 1009 100 5000 3.1 140 21:58 25.11.2019
3769 Mist 5 1009 93 5000 2.6 150 21:39 25.11.2019
3770 Mist 5 1009 93 5000 2.6 120 21:19 25.11.2019
3771 Mist 5 1009 93 5000 2.6 120 20:56 25.11.2019
3772 Mist 5 1009 93 5000 2.6 110 20:37 25.11.2019
3773 Mist 5 1010 93 5000 2.1 130 20:19 25.11.2019
3774 Mist 5 1010 93 5000 2.1 130 19:56 25.11.2019
3775 Mist 5 1010 93 5000 2.6 140 19:37 25.11.2019
3776 Mist 5 1010 93 5000 3.6 130 19:18 25.11.2019
3777 Mist 5 1010 93 4500 2.6 150 18:56 25.11.2019
3778 Mist 5 1010 93 4500 2.6 150 18:38 25.11.2019
3779 Mist 5 1010 93 4500 2.6 140 18:19 25.11.2019
3780 Mist 5 1010 93 3700 3.6 130 17:57 25.11.2019
3781 Mist 5 1010 93 3700 3.6 130 17:37 25.11.2019
3782 Mist 5 1010 100 3400 2.6 110 17:19 25.11.2019
3783 Mist 5 1010 100 2800 2.6 120 16:56 25.11.2019
3784 Mist 5 1010 100 2800 2.6 120 16:37 25.11.2019
3785 Mist 5 1010 100 2800 2.6 140 16:19 25.11.2019
3786 Mist 5 1010 100 4000 2.6 160 15:42 25.11.2019
3787 Mist 5 1010 93 4500 3.6 150 15:21 25.11.2019
3788 Mist 5 1010 93 4500 3.6 150 14:59 25.11.2019
3789 Mist 5 1010 93 3500 3.1 140 14:40 25.11.2019
3790 Mist 5 1010 93 2800 3.1 140 14:22 25.11.2019
3791 Mist 5 1010 93 2700 2.6 130 13:55 25.11.2019
3792 Mist 5 1010 93 2700 2.6 130 13:36 25.11.2019
3793 Mist 5 1010 93 3000 2.6 140 13:18 25.11.2019
3794 Mist 5 1011 93 3800 3.1 130 12:41 25.11.2019
3795 Mist 5 1011 93 4200 2.6 130 12:22 25.11.2019
3796 Mist 5 1011 93 4200 2.6 130 11:59 25.11.2019
3797 Mist 5 1011 93 4500 3.1 140 11:40 25.11.2019
3798 Mist 5 1011 93 4500 3.6 140 11:20 25.11.2019
3799 Mist 5 1011 93 4500 4.1 150 10:54 25.11.2019
3800 Mist 5 1011 93 4500 4.1 150 10:36 25.11.2019
3801 Mist 5 1011 100 4000 3.1 180 10:18 25.11.2019
3802 Mist 5 1011 100 3300 3.6 150 09:41 25.11.2019
3803 Mist 5 1010 100 2800 3.1 150 09:23 25.11.2019
3804 Mist 5 1010 100 2800 3.6 140 08:42 25.11.2019
3805 Mist 5 1010 100 2800 2.6 140 08:23 25.11.2019
3806 Mist 5 1010 100 4500 3.6 150 07:47 25.11.2019
3807 Mist 5 1010 100 4500 3.6 150 07:29 25.11.2019
3808 Mist 5 1010 100 4500 3.1 120 06:59 25.11.2019
3809 Mist 5 1010 100 4500 3.1 150 06:24 25.11.2019
3810 Mist 5 1010 93 5000 2.1 120 05:57 25.11.2019
3811 Mist 5 1010 93 5000 2.1 120 05:32 25.11.2019
3812 Clouds 5 1010 93 6000 2.6 140 04:48 25.11.2019
3813 Clouds 5 1010 93 6000 2.6 130 02:36 25.11.2019
3814 Clouds 5 1010 93 6000 3.1 110 01:44 25.11.2019
3815 Clouds 5 1010 93 6000 2.6 120 01:24 25.11.2019
3816 Clouds 5 1010 93 6000 2.6 120 00:59 25.11.2019
3817 Clouds 5 1010 93 6000 2.6 120 00:21 25.11.2019
3818 Clouds 5 1010 87 6000 3.6 130 23:45 24.11.2019
3819 Clouds 5 1010 100 6000 3.1 130 23:21 24.11.2019
3820 Clouds 5 1010 100 6000 3.1 130 22:58 24.11.2019
3821 Clouds 5 1010 100 6000 3.6 140 22:39 24.11.2019
3822 Clouds 5 1010 93 6000 4.6 140 22:20 24.11.2019
3823 Clouds 5 1010 93 6000 4.6 140 21:58 24.11.2019
3824 Clouds 5 1010 93 7000 4.1 130 21:40 24.11.2019
3825 Clouds 6 1010 87 8000 2.6 140 21:20 24.11.2019
3826 Clouds 6 1010 87 8000 2.6 140 20:58 24.11.2019
3827 Clouds 6 1010 87 8000 4.1 130 20:38 24.11.2019
3828 Clouds 6 1010 87 8000 3.6 130 20:19 24.11.2019
3829 Clouds 6 1010 87 8000 3.6 130 19:56 24.11.2019
3830 Clouds 6 1010 87 8000 4.1 130 19:38 24.11.2019
3831 Clouds 6 1010 87 8000 4.6 120 19:20 24.11.2019
3832 Clouds 6 1010 87 8000 4.6 120 18:58 24.11.2019
3833 Clouds 6 1009 87 7000 4.1 110 18:37 24.11.2019
3834 Clouds 6 1009 87 6000 4.1 120 18:19 24.11.2019
3835 Mist 6 1009 87 4500 4.1 130 17:56 24.11.2019
3836 Mist 6 1009 87 4500 4.1 130 17:56 24.11.2019
3837 Mist 6 1009 87 4500 4.1 130 17:38 24.11.2019
3838 Mist 6 1009 87 4500 4.1 120 17:19 24.11.2019
3839 Mist 6 1009 87 5000 4.6 120 16:57 24.11.2019
3840 Mist 6 1009 87 5000 4.6 120 16:39 24.11.2019
3841 Mist 6 1009 87 5000 5.1 120 16:20 24.11.2019
3842 Clouds 6 1009 87 6000 4.1 120 15:45 24.11.2019
3843 Clouds 6 1009 87 6000 4.1 120 15:26 24.11.2019
3844 Clouds 6 1009 87 6000 4.1 130 14:58 24.11.2019
3845 Clouds 6 1009 87 6000 4.6 120 14:39 24.11.2019
3846 Clouds 6 1008 87 6000 4.1 110 14:19 24.11.2019
3847 Clouds 6 1008 87 6000 4.1 110 13:55 24.11.2019
3848 Clouds 6 1009 87 6000 4.6 110 13:36 24.11.2019
3849 Mist 6 1009 93 5000 4.1 120 13:18 24.11.2019
3850 Mist 6 1009 93 5000 5.1 110 12:42 24.11.2019
3851 Mist 5 1009 93 5000 5.7 120 12:20 24.11.2019
3852 Mist 5 1009 93 5000 5.1 110 11:58 24.11.2019
3853 Mist 5 1009 93 5000 5.1 110 11:37 24.11.2019
3854 Mist 5 1009 93 5000 4.6 120 11:19 24.11.2019
3855 Mist 5 1009 93 5000 6.2 120 10:47 24.11.2019
3856 Mist 5 1009 93 5000 6.2 120 10:29 24.11.2019
3857 Mist 5 1009 93 5000 6.2 120 10:29 24.11.2019
3858 Mist 5 1008 93 5000 4.6 110 09:59 24.11.2019
3859 Mist 5 1008 93 5000 5.7 110 09:38 24.11.2019
3860 Mist 5 1008 93 5000 4.6 100 09:19 24.11.2019
3861 Mist 5 1007 93 5000 4.6 110 08:56 24.11.2019
3862 Mist 5 1007 93 5000 4.6 110 08:37 24.11.2019
3863 Mist 5 1007 93 5000 3.6 100 08:18 24.11.2019
3864 Clouds 6 1007 87 10000 5.1 110 07:47 24.11.2019
3865 Clouds 6 1007 87 10000 6.2 110 07:20 24.11.2019
3866 Clouds 6 1006 87 10000 5.7 100 06:26 24.11.2019
3867 Clouds 6 1006 81 10000 5.7 90 04:54 24.11.2019
3868 Clouds 6 1006 81 10000 5.7 90 04:35 24.11.2019
3869 Clouds 7 1006 81 10000 5.1 90 02:35 24.11.2019
3870 Clouds 7 1005 81 10000 5.1 80 01:55 24.11.2019
3871 Clouds 7 1005 81 10000 5.1 80 01:32 24.11.2019
3872 Clouds 7 1006 87 10000 5.7 90 00:50 24.11.2019
3873 Clouds 7 1005 87 10000 5.7 90 00:25 24.11.2019
3874 Clouds 7 1005 87 10000 5.7 90 23:57 23.11.2019
3875 Clouds 7 1005 87 10000 5.7 90 23:38 23.11.2019
3876 Clouds 7 1006 81 10000 5.7 90 23:20 23.11.2019
3877 Clouds 7 1006 81 10000 5.1 100 22:55 23.11.2019
3878 Clouds 7 1006 81 10000 5.1 100 22:37 23.11.2019
3879 Clouds 7 1005 81 10000 5.1 90 22:19 23.11.2019
3880 Clouds 7 1005 81 10000 5.1 90 21:55 23.11.2019
3881 Clouds 7 1005 81 10000 5.7 90 21:36 23.11.2019
3882 Clouds 8 1005 81 10000 5.1 100 21:18 23.11.2019
3883 Clouds 8 1005 81 10000 5.7 100 20:38 23.11.2019
3884 Clouds 8 1005 81 10000 5.7 90 20:20 23.11.2019
3885 Clouds 8 1005 81 10000 5.7 90 20:20 23.11.2019
3886 Clouds 8 1005 81 10000 5.7 90 19:57 23.11.2019
3887 Clouds 8 1005 81 10000 6.7 90 19:38 23.11.2019
3888 Clouds 8 1005 81 9000 7.2 100 19:19 23.11.2019
3889 Clouds 8 1005 81 9000 7.2 100 19:19 23.11.2019
3890 Clouds 8 1005 81 9000 7.2 100 19:19 23.11.2019
3891 Clouds 8 1005 81 9000 5.7 100 18:56 23.11.2019
3892 Clouds 8 1005 81 9000 5.7 100 18:37 23.11.2019
3893 Clouds 8 1004 81 9000 6.2 110 18:19 23.11.2019
3894 Clouds 8 1004 81 9000 6.2 110 18:19 23.11.2019
3895 Clouds 8 1004 81 9000 6.2 100 17:43 23.11.2019
3896 Clouds 8 1004 81 9000 7.7 100 17:21 23.11.2019
3897 Clouds 8 1004 81 10000 6.2 100 16:57 23.11.2019
3898 Clouds 8 1004 81 10000 6.2 100 16:38 23.11.2019
3899 Clouds 8 1004 81 10000 7.2 90 16:20 23.11.2019
3900 Clouds 8 1004 81 10000 7.2 90 15:58 23.11.2019
3901 Clouds 8 1004 81 10000 5.1 90 15:39 23.11.2019
3902 Clouds 8 1004 87 10000 4.6 100 15:19 23.11.2019
3903 Clouds 8 1004 87 10000 4.6 100 14:57 23.11.2019
3904 Clouds 9 1004 81 10000 6.7 110 14:38 23.11.2019
3905 Clouds 9 1004 81 10000 7.2 110 14:20 23.11.2019
3906 Clouds 9 1004 81 10000 6.2 100 13:44 23.11.2019
3907 Clouds 9 1004 81 10000 6.2 100 13:22 23.11.2019
3908 Clouds 9 1004 81 10000 6.2 100 12:59 23.11.2019
3909 Clouds 9 1003 81 10000 6.7 90 12:40 23.11.2019
3910 Clouds 9 1004 81 10000 5.7 100 12:22 23.11.2019
3911 Clouds 8 1004 81 10000 6.2 100 11:43 23.11.2019
3912 Clouds 8 1004 81 10000 6.2 100 11:21 23.11.2019
3913 Clouds 8 1004 87 10000 6.7 100 10:45 23.11.2019
3914 Clouds 8 1004 87 10000 6.2 100 10:22 23.11.2019
3915 Clouds 8 1005 87 10000 5.7 100 09:43 23.11.2019
3916 Clouds 7 1005 87 10000 5.1 100 09:21 23.11.2019
3917 Clouds 7 1005 87 10000 5.1 100 08:59 23.11.2019
3918 Clouds 7 1005 87 8000 5.1 100 08:40 23.11.2019
3919 Clouds 7 1005 93 8000 4.6 100 08:18 23.11.2019
3920 Clouds 7 1004 87 10000 5.1 100 07:41 23.11.2019
3921 Clouds 7 1004 87 10000 4.6 100 06:52 23.11.2019
3922 Clouds 7 1005 87 10000 4.1 100 06:24 23.11.2019
3923 Clouds 7 1005 87 10000 3.6 100 05:56 23.11.2019
3924 Clouds 6 1005 87 10000 5.7 100 05:31 23.11.2019
3925 Clouds 6 1005 87 10000 4.6 110 04:54 23.11.2019
3926 Clouds 6 1005 87 10000 4.6 110 04:31 23.11.2019
3927 Clouds 6 1005 87 10000 6.7 110 03:25 23.11.2019
3928 Clouds 5 1005 93 9000 5.7 110 02:37 23.11.2019
3929 Clouds 6 1006 87 10000 4.6 110 01:39 23.11.2019
3930 Clouds 5 1006 93 10000 4.1 120 00:47 23.11.2019
3931 Clouds 5 1006 93 10000 4.1 120 00:47 23.11.2019
3932 Clouds 6 1006 93 10000 4.6 110 00:19 23.11.2019
3933 Clouds 6 1006 93 9000 4.6 100 23:55 22.11.2019
3934 Clouds 6 1006 93 9000 4.6 100 23:36 22.11.2019
3935 Clouds 6 1007 87 9000 5.1 110 23:18 22.11.2019
3936 Clouds 6 1007 93 7000 4.1 110 22:55 22.11.2019
3937 Clouds 5 1007 93 7000 4.1 110 22:36 22.11.2019
3938 Clouds 6 1007 93 7000 5.7 110 22:18 22.11.2019
3939 Clouds 6 1007 93 8000 5.1 110 21:40 22.11.2019
3940 Clouds 6 1007 93 9000 5.1 110 21:21 22.11.2019
3941 Clouds 6 1007 93 9000 5.1 110 20:55 22.11.2019
3942 Clouds 6 1007 93 9000 4.6 110 20:37 22.11.2019
3943 Clouds 5 1008 93 8000 5.1 120 20:19 22.11.2019
3944 Clouds 5 1008 93 9000 5.1 120 19:39 22.11.2019
3945 Clouds 5 1007 87 10000 6.2 120 19:20 22.11.2019
3946 Clouds 5 1007 87 10000 6.2 120 18:59 22.11.2019
3947 Clouds 5 1007 93 10000 5.1 110 18:38 22.11.2019
3948 Clouds 5 1007 87 10000 4.1 110 18:20 22.11.2019
3949 Clouds 5 1007 87 10000 4.1 110 18:20 22.11.2019
3950 Clouds 5 1007 93 9000 2.6 120 17:42 22.11.2019
3951 Clouds 6 1007 93 10000 1.5 130 17:23 22.11.2019
3952 Clouds 6 1007 93 10000 1.5 130 16:56 22.11.2019
3953 Clouds 6 1007 93 10000 2.6 130 16:37 22.11.2019
3954 Clouds 6 1007 87 10000 4.6 110 16:19 22.11.2019
3955 Clouds 7 1007 87 10000 5.1 100 15:39 22.11.2019
3956 Clouds 7 1007 87 10000 5.1 110 15:20 22.11.2019
3957 Clouds 7 1007 87 10000 4.1 100 14:55 22.11.2019
3958 Clouds 7 1007 87 10000 5.1 110 14:55 22.11.2019
3959 Clouds 7 1007 87 10000 4.1 100 14:37 22.11.2019
3960 Clouds 7 1007 87 10000 2.6 100 14:18 22.11.2019
3961 Clouds 7 1007 87 10000 4.1 110 13:39 22.11.2019
3962 Clouds 7 1008 87 10000 3.1 110 13:20 22.11.2019
3963 Clouds 7 1008 87 10000 3.1 110 13:20 22.11.2019
3964 Clouds 7 1008 87 10000 3.1 110 13:20 22.11.2019
3965 Clouds 7 1008 87 10000 3.1 110 12:59 22.11.2019
3966 Clouds 7 1008 87 10000 3.1 140 12:40 22.11.2019
3967 Clouds 7 1008 87 10000 3.1 140 12:40 22.11.2019
3968 Clouds 7 1008 87 10000 3.1 140 12:40 22.11.2019
3969 Clouds 6 1008 93 10000 3.6 140 12:20 22.11.2019
3970 Clouds 6 1008 93 10000 3.6 140 11:59 22.11.2019
3971 Clouds 6 1008 87 10000 2.6 130 11:38 22.11.2019
3972 Clouds 6 1008 87 10000 3.6 140 11:19 22.11.2019
3973 Clouds 6 1008 87 10000 3.6 140 10:58 22.11.2019
3974 Clouds 5 1008 93 10000 3.6 140 10:39 22.11.2019
3975 Clouds 5 1008 93 10000 3.6 140 10:21 22.11.2019
3976 Clouds 4 1008 93 10000 3.6 130 09:55 22.11.2019
3977 Clouds 4 1008 93 10000 3.6 130 09:37 22.11.2019
3978 Clouds 4 1008 93 10000 2.6 130 09:18 22.11.2019
3979 Clouds 4 1008 93 10000 3.6 140 08:44 22.11.2019
3980 Clouds 4 1008 93 10000 3.6 140 08:24 22.11.2019
3981 Clouds 3 1007 93 8000 3.1 120 07:45 22.11.2019
3982 Clouds 3 1007 93 10000 2.6 120 07:22 22.11.2019
3983 Clouds 3 1007 93 10000 2.6 130 06:49 22.11.2019
3984 Clouds 3 1007 93 10000 2.6 130 06:30 22.11.2019
3985 Clouds 3 1007 93 10000 2.1 130 05:45 22.11.2019
3986 Clouds 4 1007 100 10000 2.1 130 04:49 22.11.2019
3987 Clouds 4 1007 100 6000 2.1 150 02:53 22.11.2019
3988 Clouds 4 1007 100 6000 2.1 150 02:31 22.11.2019
3989 Clouds 4 1007 93 6000 2.1 130 01:45 22.11.2019
3990 Clouds 4 1007 100 6000 2.1 160 01:20 22.11.2019
3991 Clouds 4 1007 100 7000 1.5 140 00:51 22.11.2019
3992 Clouds 5 1007 100 7000 1.5 140 00:24 22.11.2019
3993 Clouds 5 1007 100 10000 2.6 110 23:49 21.11.2019
3994 Clouds 5 1007 100 10000 2.6 110 23:31 21.11.2019
3995 Clouds 5 1007 100 10000 2.1 120 22:59 21.11.2019
3996 Clouds 5 1007 100 10000 2.1 100 22:40 21.11.2019
3997 Clouds 5 1008 93 8000 2.6 110 22:22 21.11.2019
3998 Clouds 5 1008 93 8000 2.6 110 21:57 21.11.2019
3999 Clouds 5 1008 93 6000 2.1 130 21:38 21.11.2019
4000 Clouds 5 1008 93 6000 2.1 130 21:19 21.11.2019
4001 Clouds 5 1008 93 6000 2.1 130 20:58 21.11.2019
4002 Mist 5 1008 100 4500 2.1 130 20:39 21.11.2019
4003 Mist 5 1008 100 4200 2.1 120 20:19 21.11.2019
4004 Mist 5 1008 100 4200 2.1 120 20:19 21.11.2019
4005 Mist 5 1008 100 4200 2.1 120 19:59 21.11.2019
4006 Mist 6 1008 100 3500 2.1 130 19:41 21.11.2019
4007 Mist 6 1008 100 2500 2.1 100 19:22 21.11.2019
4008 Mist 5 1008 100 2500 2.1 100 18:58 21.11.2019
4009 Mist 5 1008 100 2500 2.1 110 18:40 21.11.2019
4010 Mist 5 1009 93 3500 2.1 110 18:19 21.11.2019
4011 Mist 5 1009 93 3500 2.1 110 17:57 21.11.2019
4012 Mist 5 1009 100 5000 2.1 110 17:39 21.11.2019
4013 Mist 5 1009 100 5000 2.1 110 17:39 21.11.2019
4014 Clouds 5 1009 100 6000 2.6 100 17:19 21.11.2019
4015 Clouds 5 1009 100 6000 2.6 100 16:55 21.11.2019
4016 Clouds 5 1009 100 7000 2.6 110 16:37 21.11.2019
4017 Clouds 5 1009 100 7000 3.1 110 16:18 21.11.2019
4018 Clouds 5 1009 100 8000 2.6 100 15:42 21.11.2019
4019 Clouds 5 1009 100 8000 2.6 90 15:20 21.11.2019
4020 Clouds 5 1009 100 8000 2.6 90 14:57 21.11.2019
4021 Clouds 5 1009 93 8000 3.1 80 14:37 21.11.2019
4022 Clouds 5 1010 100 8000 3.1 80 14:19 21.11.2019
4023 Clouds 5 1010 100 8000 3.1 80 13:56 21.11.2019
4024 Clouds 4 1010 93 6000 3.1 80 13:36 21.11.2019
4025 Drizzle 4 1010 93 4500 3.6 80 13:18 21.11.2019
4026 Drizzle 4 1011 100 3000 3.6 70 12:40 21.11.2019
4027 Drizzle 4 1011 100 2300 3.1 60 12:22 21.11.2019
4028 Drizzle 4 1011 100 2300 3.1 60 11:55 21.11.2019
4029 Drizzle 4 1012 100 2500 3.6 60 11:36 21.11.2019
4030 Drizzle 4 1012 93 2500 3.6 50 11:18 21.11.2019
4031 Drizzle 3 1012 93 2500 3.1 50 10:42 21.11.2019
4032 Drizzle 3 1013 93 4200 3.6 60 10:24 21.11.2019
4033 Drizzle 3 1013 93 4200 3.6 60 09:57 21.11.2019
4034 Drizzle 3 1013 93 4500 3.6 60 09:39 21.11.2019
4035 Drizzle 3 1013 100 4500 3.6 60 09:21 21.11.2019
4036 Clouds 3 1013 100 6000 3.6 60 08:44 21.11.2019
4037 Clouds 3 1013 100 6000 3.6 60 08:24 21.11.2019
4038 Clouds 2 1013 100 8000 3.1 60 07:59 21.11.2019
4039 Clouds 2 1013 93 9000 3.6 60 07:37 21.11.2019
4040 Clouds 2 1013 93 10000 3.1 60 07:18 21.11.2019
4041 Clouds 2 1014 93 10000 3.1 60 06:42 21.11.2019
4042 Clouds 2 1014 93 10000 3.1 60 06:24 21.11.2019
4043 Clouds 2 1014 100 6000 1.5 80 04:34 21.11.2019
4044 Mist 2 1015 100 1600 3.1 120 02:53 21.11.2019
4045 Fog 2 1015 100 750 2.1 130 02:33 21.11.2019
4046 Fog 2 1016 100 500 1 0 01:52 21.11.2019
4047 Fog 2 1016 100 650 1 200 01:21 21.11.2019
4048 Fog 2 1016 100 500 1.5 190 00:41 21.11.2019
4049 Fog 2 1016 100 350 0.5 0 00:20 21.11.2019
4050 Fog 2 1016 100 400 0.5 0 23:51 20.11.2019
4051 Fog 2 1016 100 500 0.5 0 23:23 20.11.2019
4052 Fog 2 1016 100 500 0.5 0 22:58 20.11.2019
4053 Fog 2 1016 100 650 0.5 0 22:40 20.11.2019
4054 Fog 2 1017 100 700 1.5 180 22:20 20.11.2019
4055 Fog 2 1017 100 700 1.5 180 21:59 20.11.2019
4056 Fog 2 1017 100 600 1.5 140 21:40 20.11.2019
4057 Fog 2 1017 100 500 2.6 160 21:21 20.11.2019
4058 Fog 2 1017 100 500 2.6 160 20:58 20.11.2019
4059 Fog 2 1017 100 550 1 0 20:40 20.11.2019
4060 Fog 2 1017 100 550 1.5 150 20:21 20.11.2019
4061 Fog 2 1017 100 550 1.5 150 19:57 20.11.2019
4062 Fog 2 1017 100 800 2.1 120 19:37 20.11.2019
4063 Fog 2 1017 100 800 2.6 150 19:19 20.11.2019
4064 Fog 2 1017 100 800 2.6 150 18:59 20.11.2019
4065 Fog 2 1017 100 800 1.5 150 18:40 20.11.2019
4066 Fog 2 1017 100 800 1 210 18:21 20.11.2019
4067 Fog 2 1017 100 800 1 210 17:57 20.11.2019
4068 Mist 2 1017 100 1300 0.5 220 17:39 20.11.2019
4069 Mist 2 1017 100 1300 0.5 0 17:20 20.11.2019
4070 Fog 2 1018 100 900 0.5 300 16:57 20.11.2019
4071 Fog 2 1018 100 900 0.5 300 16:39 20.11.2019
4072 Fog 2 1018 100 400 1 0 16:19 20.11.2019
4073 Fog 2 1018 100 400 1 0 15:56 20.11.2019
4074 Fog 2 1018 100 500 1.5 190 15:38 20.11.2019
4075 Fog 2 1018 100 500 1.5 190 15:38 20.11.2019
4076 Fog 2 1018 100 400 1 0 15:19 20.11.2019
4077 Fog 2 1018 100 300 1.5 140 14:40 20.11.2019
4078 Fog 3 1018 100 400 1.5 0 14:22 20.11.2019
4079 Fog 3 1018 100 400 1.5 0 14:22 20.11.2019
4080 Fog 2 1018 100 400 1.5 0 13:59 20.11.2019
4081 Fog 2 1019 100 400 2.1 70 13:39 20.11.2019
4082 Fog 2 1019 100 250 1 0 13:20 20.11.2019
4083 Fog 2 1019 100 250 1 0 12:58 20.11.2019
4084 Fog 2 1019 93 200 1.5 200 12:37 20.11.2019
4085 Fog 2 1019 100 150 1 0 12:19 20.11.2019
4086 Fog 2 1019 100 150 1 0 12:19 20.11.2019
4087 Fog 2 1019 100 200 0.5 0 11:45 20.11.2019
4088 Fog 2 1020 100 250 0.5 0 11:23 20.11.2019
4089 Fog 1 1020 100 250 0.5 0 10:57 20.11.2019
4090 Fog 1 1020 100 250 0.5 0 10:57 20.11.2019
4091 Fog 1 1020 100 150 1.5 150 10:39 20.11.2019
4092 Fog 1 1020 100 150 2.6 120 10:20 20.11.2019
4093 Fog 1 1020 100 150 2.6 120 09:56 20.11.2019
4094 Fog 1 1020 100 150 1 0 09:37 20.11.2019
4095 Fog 1 1020 100 150 0.5 0 09:19 20.11.2019
4096 Fog 1 1020 100 150 1.5 220 08:42 20.11.2019
4097 Fog 1 1020 100 150 1.5 220 08:24 20.11.2019
4098 Fog 1 1019 100 200 2.1 190 07:50 20.11.2019
4099 Fog 1 1019 100 200 2.1 190 07:30 20.11.2019
4100 Fog 1 1019 100 300 2.1 160 06:58 20.11.2019
4101 Fog 1 1019 100 200 2.1 140 06:38 20.11.2019
4102 Fog 1 1019 100 100 2.1 130 06:18 20.11.2019
4103 Fog 1 1019 92 100 1.5 240 04:41 20.11.2019
4104 Fog 1 1020 100 100 2.6 160 02:28 20.11.2019
4105 Fog 1 1019 100 100 2.6 140 01:37 20.11.2019
4106 Fog 1 1019 100 200 0.5 0 00:50 20.11.2019
4107 Fog 2 1019 100 200 0.5 0 00:21 20.11.2019
4108 Fog 2 1019 92 200 2.6 160 23:41 19.11.2019
4109 Fog 2 1019 100 200 1 0 23:22 19.11.2019
4110 Fog 2 1019 100 200 1 0 22:56 19.11.2019
4111 Fog 3 1018 100 200 1.5 200 22:37 19.11.2019
4112 Fog 3 1018 100 200 1 0 22:18 19.11.2019
4113 Fog 3 1018 100 200 1 0 21:55 19.11.2019
4114 Fog 3 1018 100 600 1.5 170 21:36 19.11.2019
4115 Fog 3 1018 100 800 1.5 170 21:18 19.11.2019
4116 Fog 3 1018 100 800 1.5 170 20:54 19.11.2019
4117 Mist 3 1018 100 1800 1.5 190 20:36 19.11.2019
4118 Clouds 4 1017 89 0 2.96 229 20:18 19.11.2019
4119 Mist 4 1017 100 5000 2.6 190 19:41 19.11.2019
4120 Clouds 4 1017 100 10000 2.6 210 19:20 19.11.2019
4121 Clouds 4 1017 100 10000 2.6 210 18:58 19.11.2019
4122 Clouds 4 1017 93 10000 3.1 220 18:40 19.11.2019
4123 Clouds 5 1017 93 10000 3.1 200 18:20 19.11.2019
4124 Clouds 5 1017 93 10000 3.1 200 17:58 19.11.2019
4125 Clouds 6 1016 93 10000 3.1 200 17:40 19.11.2019
4126 Clouds 6 1016 93 10000 3.6 210 17:20 19.11.2019
4127 Clouds 6 1016 93 10000 3.6 210 16:59 19.11.2019
4128 Clouds 7 1016 93 10000 3.1 220 16:40 19.11.2019
4129 Clouds 7 1016 93 10000 3.1 220 16:40 19.11.2019
4130 Clouds 7 1015 87 10000 4.1 230 16:20 19.11.2019
4131 Clouds 8 1015 81 10000 4.6 230 15:47 19.11.2019
4132 Clouds 8 1015 81 10000 4.6 230 15:27 19.11.2019
4133 Clouds 8 1015 81 10000 4.6 220 14:58 19.11.2019
4134 Clouds 9 1014 76 10000 4.6 230 14:39 19.11.2019
4135 Clouds 8 1014 87 10000 4.6 220 14:21 19.11.2019
4136 Clouds 9 1014 87 10000 4.6 220 13:57 19.11.2019
4137 Clouds 8 1014 81 10000 5.7 230 13:38 19.11.2019
4138 Clouds 8 1014 81 10000 6.2 230 13:18 19.11.2019
4139 Clouds 8 1013 76 10000 6.2 230 12:39 19.11.2019
4140 Clouds 8 1013 87 10000 6.2 230 12:21 19.11.2019
4141 Clouds 8 1013 87 10000 5.7 240 11:56 19.11.2019
4142 Clouds 8 1013 87 10000 5.7 240 11:37 19.11.2019
4143 Clouds 8 1013 87 10000 5.7 240 11:37 19.11.2019
4144 Clouds 7 1013 87 10000 6.2 240 11:19 19.11.2019
4145 Clouds 7 1012 87 10000 6.2 230 10:44 19.11.2019
4146 Clouds 7 1012 93 10000 5.7 230 10:21 19.11.2019
4147 Clouds 7 1011 93 10000 4.6 230 09:45 19.11.2019
4148 Clouds 6 1011 93 10000 5.7 230 09:22 19.11.2019
4149 Clouds 6 1011 93 10000 5.7 230 08:59 19.11.2019
4150 Clouds 6 1010 93 10000 5.1 240 08:40 19.11.2019
4151 Clouds 6 1009 87 10000 6.2 240 08:22 19.11.2019
4152 Clouds 7 1009 87 10000 6.2 240 07:56 19.11.2019
4153 Clouds 7 1009 93 10000 6.7 240 07:37 19.11.2019
4154 Drizzle 7 1008 93 10000 6.7 250 07:19 19.11.2019
4155 Drizzle 7 1008 93 10000 8.2 240 06:44 19.11.2019
4156 Drizzle 7 1007 93 9000 7.7 250 06:24 19.11.2019
4157 Drizzle 7 1006 100 7000 7.2 260 05:19 19.11.2019
4158 Rain 7 1004 93 10000 8.7 260 03:41 19.11.2019
4159 Rain 7 1004 93 10000 6.7 260 03:20 19.11.2019
4160 Rain 7 1003 93 10000 8.2 260 02:51 19.11.2019
4161 Rain 6 1002 93 8000 7.2 270 01:58 19.11.2019
4162 Drizzle 6 1002 100 7000 5.1 180 00:51 19.11.2019
4163 Drizzle 6 1002 93 7000 6.2 180 00:21 19.11.2019
4164 Drizzle 5 1002 93 7000 6.2 180 23:56 18.11.2019
4165 Drizzle 5 1002 93 6000 6.7 180 23:37 18.11.2019
4166 Drizzle 5 1002 100 7000 6.2 180 23:18 18.11.2019
4167 Drizzle 5 1003 100 8000 7.2 180 22:41 18.11.2019
4168 Clouds 5 1003 93 10000 6.2 170 22:23 18.11.2019
4169 Clouds 5 1003 93 10000 6.2 170 21:54 18.11.2019
4170 Clouds 5 1003 93 10000 6.2 170 21:54 18.11.2019
4171 Clouds 5 1003 86 10000 6.7 180 21:36 18.11.2019
4172 Rain 5 1003 93 10000 6.7 170 21:18 18.11.2019
4173 Rain 5 1003 93 10000 5.7 180 20:42 18.11.2019
4174 Rain 5 1004 93 10000 6.2 180 20:20 18.11.2019
4175 Rain 5 1004 93 10000 6.2 180 19:58 18.11.2019
4176 Rain 5 1004 93 9000 5.7 180 19:39 18.11.2019
4177 Rain 6 1004 93 6000 5.7 190 19:21 18.11.2019
4178 Rain 6 1004 93 6000 5.7 190 18:57 18.11.2019
4179 Rain 6 1004 93 6000 4.6 180 18:38 18.11.2019
4180 Rain 6 1004 93 6000 4.6 180 18:38 18.11.2019
4181 Rain 6 1004 93 6000 4.6 180 18:20 18.11.2019
4182 Rain 6 1004 93 6000 4.6 180 18:20 18.11.2019
4183 Rain 6 1004 93 6000 4.6 180 17:59 18.11.2019
4184 Rain 6 1004 93 4200 4.6 180 17:38 18.11.2019
4185 Rain 6 1004 100 3600 4.1 180 17:19 18.11.2019
4186 Rain 6 1004 100 3600 4.1 180 16:54 18.11.2019
4187 Drizzle 6 1004 100 2200 3.6 190 16:36 18.11.2019
4188 Drizzle 6 1004 100 2000 3.6 200 16:18 18.11.2019
4189 Drizzle 6 1004 100 2000 3.6 200 15:54 18.11.2019
4190 Drizzle 6 1004 100 1800 3.1 200 15:36 18.11.2019
4191 Drizzle 6 1004 100 1900 3.1 200 15:18 18.11.2019
4192 Mist 6 1004 100 2500 3.1 200 14:41 18.11.2019
4193 Drizzle 6 1004 100 2700 3.6 220 14:22 18.11.2019
4194 Rain 6 1004 100 3400 3.1 210 13:46 18.11.2019
4195 Rain 6 1004 100 3400 3.1 210 13:28 18.11.2019
4196 Rain 6 1004 100 3800 3.1 200 12:58 18.11.2019
4197 Mist 6 1004 100 3200 2.6 200 12:38 18.11.2019
4198 Mist 6 1004 100 1900 2.6 210 12:19 18.11.2019
4199 Mist 6 1004 100 1200 2.6 250 11:44 18.11.2019
4200 Mist 6 1004 100 1200 2.6 250 11:25 18.11.2019
4201 Fog 6 1004 100 350 1.5 240 10:56 18.11.2019
4202 Fog 6 1004 100 150 2.1 220 10:38 18.11.2019
4203 Fog 6 1004 100 200 1 220 10:18 18.11.2019
4204 Fog 6 1004 100 200 1 220 09:54 18.11.2019
4205 Fog 6 1004 100 250 1 240 09:36 18.11.2019
4206 Fog 6 1004 100 300 1.5 270 09:18 18.11.2019
4207 Drizzle 6 1004 100 500 2.1 310 08:43 18.11.2019
4208 Drizzle 6 1004 100 500 2.6 270 08:20 18.11.2019
4209 Fog 6 1004 100 500 2.1 290 07:48 18.11.2019
4210 Fog 6 1004 100 500 2.1 290 07:48 18.11.2019
4211 Fog 6 1004 100 500 2.1 290 07:48 18.11.2019
4212 Fog 6 1004 100 500 2.1 290 07:29 18.11.2019
4213 Fog 6 1003 100 700 1.5 310 06:56 18.11.2019
4214 Fog 6 1003 100 900 1 0 06:33 18.11.2019
4215 Mist 6 1003 100 1200 2.1 360 05:51 18.11.2019
4216 Mist 6 1003 100 1800 2.6 20 04:57 18.11.2019
4217 Mist 5 1004 93 4000 4.6 20 02:59 18.11.2019
4218 Clouds 5 1005 100 7000 5.7 20 01:31 18.11.2019
4219 Clouds 5 1006 100 8000 5.7 20 00:35 18.11.2019
4220 Clouds 5 1007 93 8000 6.7 20 23:45 17.11.2019
4221 Clouds 5 1007 93 8000 6.7 20 23:25 17.11.2019
4222 Drizzle 5 1007 93 6000 5.7 10 22:59 17.11.2019
4223 Drizzle 5 1008 93 7000 6.2 10 22:41 17.11.2019
4224 Rain 5 1008 93 9000 5.7 10 22:23 17.11.2019
4225 Rain 5 1008 93 9000 5.7 10 21:59 17.11.2019
4226 Rain 5 1009 93 9000 5.7 10 21:41 17.11.2019
4227 Rain 5 1009 93 10000 6.2 20 21:19 17.11.2019
4228 Rain 5 1009 93 10000 6.2 20 20:57 17.11.2019
4229 Rain 5 1009 86 9000 4.6 30 20:38 17.11.2019
4230 Rain 5 1010 86 10000 5.7 30 20:20 17.11.2019
4231 Rain 5 1010 86 10000 5.7 30 19:56 17.11.2019
4232 Rain 4 1010 86 10000 5.7 20 19:38 17.11.2019
4233 Rain 4 1010 86 10000 5.7 20 19:38 17.11.2019
4234 Rain 4 1010 86 10000 5.7 20 19:38 17.11.2019
4235 Rain 4 1011 86 10000 4.6 30 19:20 17.11.2019
4236 Rain 4 1011 86 10000 4.6 30 18:56 17.11.2019
4237 Rain 4 1011 86 10000 4.6 30 18:56 17.11.2019
4238 Clouds 4 1011 86 10000 4.1 30 18:38 17.11.2019
4239 Rain 5 1011 86 10000 3.6 20 18:19 17.11.2019
4240 Rain 4 1011 86 10000 4.1 20 17:58 17.11.2019
4241 Rain 4 1011 86 10000 4.1 20 17:39 17.11.2019
4242 Clouds 4 1011 86 10000 4.1 20 17:20 17.11.2019
4243 Clouds 4 1011 86 10000 4.1 20 16:59 17.11.2019
4244 Clouds 4 1011 86 10000 4.6 30 16:40 17.11.2019
4245 Clouds 4 1012 86 10000 3.6 30 16:21 17.11.2019
4246 Clouds 4 1012 86 10000 3.6 30 15:56 17.11.2019
4247 Clouds 4 1012 86 10000 4.1 30 15:38 17.11.2019
4248 Clouds 4 1012 86 10000 2.6 30 15:18 17.11.2019
4249 Clouds 4 1012 86 10000 2.6 30 14:57 17.11.2019
4250 Clouds 4 1012 86 10000 3.1 40 14:38 17.11.2019
4251 Clouds 4 1013 86 10000 3.1 60 14:20 17.11.2019
4252 Clouds 4 1013 86 10000 3.1 60 13:57 17.11.2019
4253 Clouds 4 1013 86 10000 2.1 60 13:39 17.11.2019
4254 Clouds 4 1013 86 10000 1.5 70 13:19 17.11.2019
4255 Clouds 4 1013 86 10000 1 0 12:44 17.11.2019
4256 Clouds 3 1014 86 10000 1.5 100 12:23 17.11.2019
4257 Clouds 3 1014 86 10000 1.5 100 11:57 17.11.2019
4258 Clouds 3 1014 93 8000 2.1 80 11:39 17.11.2019
4259 Clouds 2 1014 93 7000 1.5 60 11:20 17.11.2019
4260 Clouds 2 1014 93 6000 1 0 10:44 17.11.2019
4261 Clouds 1 1014 93 6000 1 0 10:24 17.11.2019
4262 Mist 1 1014 85 4500 0.5 0 09:58 17.11.2019
4263 Mist 1 1014 85 4200 2.1 120 09:40 17.11.2019
4264 Mist 0 1014 100 5000 1.5 70 09:22 17.11.2019
4265 Mist 0 1014 85 5000 2.1 120 08:41 17.11.2019
4266 Clouds 0 1014 91 7000 2.6 120 08:23 17.11.2019
4267 Clouds 0 1014 90 7000 2.6 120 07:56 17.11.2019
4268 Clouds -1 1014 92 8000 2.1 110 07:38 17.11.2019
4269 Clouds 0 1013 90 9000 0.5 0 07:19 17.11.2019
4270 Clouds 0 1013 90 10000 1.5 130 06:47 17.11.2019
4271 Clouds 0 1013 90 10000 1.5 130 06:27 17.11.2019
4272 Clear 0 1013 91 10000 1 0 04:48 17.11.2019
4273 Clear 0 1013 91 10000 2.6 140 03:58 17.11.2019
4274 Clear 1 1013 91 10000 2.1 140 03:33 17.11.2019
4275 Clear 1 1012 91 10000 1.5 130 02:40 17.11.2019
4276 Clouds 1 1012 91 10000 2.1 160 01:49 17.11.2019
4277 Clouds 1 1012 92 10000 2.6 150 00:57 17.11.2019
4278 Clouds 2 1011 93 10000 2.1 130 00:23 17.11.2019
4279 Clouds 2 1011 93 10000 2.1 130 23:59 16.11.2019
4280 Clouds 2 1011 93 10000 1.5 150 23:40 16.11.2019
4281 Clouds 2 1011 93 10000 1.5 150 23:40 16.11.2019
4282 Clouds 2 1011 93 10000 1 160 23:18 16.11.2019
4283 Clouds 3 1011 93 10000 2.1 170 22:42 16.11.2019
4284 Clouds 3 1011 86 10000 1.5 180 22:20 16.11.2019
4285 Clouds 3 1011 86 10000 1.5 180 21:58 16.11.2019
4286 Clouds 3 1011 93 10000 3.1 180 21:40 16.11.2019
4287 Clouds 3 1011 93 10000 3.1 180 21:21 16.11.2019
4288 Clouds 3 1011 93 10000 3.1 180 20:57 16.11.2019
4289 Clouds 4 1010 93 10000 2.6 180 20:39 16.11.2019
4290 Clouds 4 1010 86 10000 3.6 210 20:19 16.11.2019
4291 Clouds 4 1009 80 10000 4.1 210 19:41 16.11.2019
4292 Clouds 4 1009 80 10000 5.1 220 19:22 16.11.2019
4293 Clouds 4 1009 80 10000 5.1 220 18:59 16.11.2019
4294 Clouds 4 1009 86 10000 4.6 210 18:39 16.11.2019
4295 Clouds 5 1008 86 10000 4.1 210 18:20 16.11.2019
4296 Clouds 5 1008 86 10000 4.1 210 17:55 16.11.2019
4297 Clouds 5 1008 86 10000 3.1 210 17:37 16.11.2019
4298 Rain 5 1008 86 10000 3.6 200 17:18 16.11.2019
4299 Rain 5 1007 93 10000 3.1 220 16:45 16.11.2019
4300 Rain 5 1007 93 10000 3.1 220 16:26 16.11.2019
4301 Rain 5 1007 93 10000 4.1 240 15:56 16.11.2019
4302 Rain 5 1007 93 10000 4.1 230 15:37 16.11.2019
4303 Rain 5 1007 93 10000 4.6 230 15:19 16.11.2019
4304 Rain 5 1006 93 10000 4.6 230 14:41 16.11.2019
4305 Rain 5 1006 93 8000 5.1 240 14:21 16.11.2019
4306 Rain 5 1006 93 8000 5.1 240 13:57 16.11.2019
4307 Rain 5 1006 93 6000 4.6 250 13:39 16.11.2019
4308 Rain 5 1006 93 6000 4.6 250 13:39 16.11.2019
4309 Rain 5 1005 93 5000 5.7 250 13:19 16.11.2019
4310 Rain 5 1005 93 5000 5.7 250 12:59 16.11.2019
4311 Rain 5 1005 93 4500 4.1 240 12:40 16.11.2019
4312 Rain 4 1005 100 4000 3.6 240 12:20 16.11.2019
4313 Rain 4 1005 100 4000 4.6 250 11:46 16.11.2019
4314 Rain 5 1005 100 4000 4.6 250 11:28 16.11.2019
4315 Rain 5 1005 93 4000 4.6 260 10:58 16.11.2019
4316 Rain 4 1005 93 3800 4.6 260 10:40 16.11.2019
4317 Rain 4 1004 93 3200 4.6 250 10:21 16.11.2019
4318 Rain 4 1004 93 3200 4.6 250 09:56 16.11.2019
4319 Rain 4 1004 93 3200 3.6 260 09:36 16.11.2019
4320 Rain 5 1004 93 3200 4.1 270 09:18 16.11.2019
4321 Rain 5 1004 93 3000 4.1 260 08:40 16.11.2019
4322 Rain 5 1004 93 3000 3.6 260 08:20 16.11.2019
4323 Rain 5 1004 93 3200 3.6 260 07:43 16.11.2019
4324 Rain 5 1004 93 3200 3.6 260 07:43 16.11.2019
4325 Rain 5 1004 100 3500 2.6 260 07:22 16.11.2019
4326 Rain 5 1004 100 3500 2.6 260 06:57 16.11.2019
4327 Rain 5 1003 100 4500 1.5 260 06:39 16.11.2019
4328 Mist 5 1003 93 4500 2.1 300 06:19 16.11.2019
4329 Mist 5 1004 100 3500 2.1 260 04:21 16.11.2019
4330 Mist 5 1004 93 3500 1.5 230 03:26 16.11.2019
4331 Mist 5 1004 93 3000 2.1 260 02:36 16.11.2019
4332 Mist 5 1005 100 3500 2.6 220 01:32 16.11.2019
4333 Fog 4 1004 100 1400 1 240 00:48 16.11.2019
4334 Mist 5 1004 100 5000 0.5 0 00:28 16.11.2019
4335 Clouds 5 1004 93 7000 2.1 60 23:44 15.11.2019
4336 Clouds 5 1004 93 7000 2.1 60 23:25 15.11.2019
4337 Clouds 5 1004 93 7000 2.1 60 23:25 15.11.2019
4338 Clouds 5 1005 93 7000 2.1 90 22:59 15.11.2019
4339 Clouds 5 1005 100 10000 1.5 100 22:39 15.11.2019
4340 Clouds 6 1004 93 10000 2.1 70 22:19 15.11.2019
4341 Clouds 6 1004 93 10000 2.1 70 21:56 15.11.2019
4342 Clouds 6 1004 93 10000 1 0 21:38 15.11.2019
4343 Clouds 6 1004 93 10000 2.6 60 21:19 15.11.2019
4344 Clouds 6 1004 93 10000 2.6 60 20:56 15.11.2019
4345 Clouds 6 1004 93 10000 2.6 60 20:56 15.11.2019
4346 Clouds 6 1004 93 10000 1.5 70 20:38 15.11.2019
4347 Clouds 6 1004 93 10000 1.5 90 20:19 15.11.2019
4348 Clouds 6 1004 93 10000 1.5 90 19:57 15.11.2019
4349 Clouds 6 1004 93 10000 3.1 80 19:38 15.11.2019
4350 Clouds 6 1004 93 10000 3.1 80 19:19 15.11.2019
4351 Clouds 6 1003 87 10000 4.1 80 18:43 15.11.2019
4352 Clouds 6 1003 87 10000 4.1 80 18:24 15.11.2019
4353 Clouds 6 1003 87 10000 5.7 60 17:59 15.11.2019
4354 Clouds 6 1003 87 10000 5.1 70 17:40 15.11.2019
4355 Clouds 6 1003 87 10000 5.1 60 17:22 15.11.2019
4356 Clouds 6 1003 87 10000 5.1 60 16:55 15.11.2019
4357 Clouds 6 1004 87 10000 5.1 70 16:37 15.11.2019
4358 Clouds 6 1003 87 10000 5.7 70 16:18 15.11.2019
4359 Clouds 6 1004 87 10000 3.6 70 15:38 15.11.2019
4360 Clouds 6 1004 87 10000 3.6 70 15:38 15.11.2019
4361 Clouds 6 1003 87 10000 4.6 70 15:19 15.11.2019
4362 Clouds 6 1003 87 10000 4.6 70 14:56 15.11.2019
4363 Clouds 6 1003 87 10000 4.6 70 14:38 15.11.2019
4364 Clouds 5 1004 87 10000 5.1 70 14:19 15.11.2019
4365 Clouds 5 1004 87 10000 5.1 70 14:19 15.11.2019
4366 Clouds 5 1004 87 10000 5.1 70 13:57 15.11.2019
4367 Clouds 5 1003 93 10000 5.1 60 13:39 15.11.2019
4368 Clouds 5 1003 86 10000 6.2 70 13:20 15.11.2019
4369 Clouds 5 1003 86 10000 6.2 70 12:57 15.11.2019
4370 Clouds 5 1003 86 10000 6.2 70 12:39 15.11.2019
4371 Clouds 5 1004 86 8000 6.2 80 12:19 15.11.2019
4372 Clouds 4 1004 86 8000 6.2 80 11:56 15.11.2019
4373 Clouds 4 1004 86 8000 5.7 80 11:37 15.11.2019
4374 Clouds 4 1004 86 8000 5.7 80 11:37 15.11.2019
4375 Clouds 4 1004 93 7000 6.7 80 11:19 15.11.2019
4376 Clouds 4 1003 93 7000 7.2 70 10:41 15.11.2019
4377 Clouds 4 1004 86 7000 6.2 80 10:22 15.11.2019
4378 Clouds 4 1004 86 7000 6.2 80 09:58 15.11.2019
4379 Clouds 4 1004 86 10000 7.2 80 09:40 15.11.2019
4380 Clouds 4 1004 86 10000 8.2 70 09:19 15.11.2019
4381 Clouds 4 1004 86 10000 7.7 80 08:44 15.11.2019
4382 Clouds 4 1004 86 10000 7.2 80 08:22 15.11.2019
4383 Clouds 4 1004 86 10000 6.7 70 07:48 15.11.2019
4384 Clouds 4 1005 86 10000 6.7 60 07:28 15.11.2019
4385 Clouds 4 1005 80 10000 7.7 70 06:44 15.11.2019
4386 Clouds 4 1005 80 10000 6.7 70 06:25 15.11.2019
4387 Clouds 4 1004 86 10000 7.2 70 05:40 15.11.2019
4388 Clouds 4 1005 86 10000 7.2 70 05:22 15.11.2019
4389 Clouds 4 1006 86 10000 6.2 80 03:50 15.11.2019
4390 Clouds 3 1007 93 10000 6.2 80 03:22 15.11.2019
4391 Clouds 3 1006 93 10000 5.1 60 02:19 15.11.2019
4392 Clouds 3 1007 93 10000 5.1 70 01:33 15.11.2019
4393 Clouds 3 1007 86 10000 5.7 70 00:51 15.11.2019
4394 Clouds 3 1007 86 10000 5.7 70 00:32 15.11.2019
4395 Clouds 4 1007 86 10000 5.1 70 23:52 14.11.2019
4396 Clouds 4 1007 86 10000 5.1 80 23:28 14.11.2019
4397 Clouds 4 1007 86 10000 5.1 80 22:59 14.11.2019
4398 Clouds 4 1007 86 10000 4.1 80 22:39 14.11.2019
4399 Clouds 4 1008 86 10000 4.6 90 22:21 14.11.2019
4400 Clouds 4 1008 86 10000 4.6 90 21:55 14.11.2019
4401 Clouds 4 1007 86 10000 4.6 80 21:37 14.11.2019
4402 Clouds 4 1007 80 10000 4.6 90 21:19 14.11.2019
4403 Clouds 4 1007 80 10000 5.1 100 20:42 14.11.2019
4404 Clouds 5 1007 80 10000 5.7 90 20:23 14.11.2019
4405 Clouds 5 1007 80 10000 5.7 90 19:59 14.11.2019
4406 Clouds 5 1007 80 10000 5.7 90 19:41 14.11.2019
4407 Clouds 5 1007 80 10000 5.1 90 19:18 14.11.2019
4408 Clouds 5 1007 80 10000 4.6 70 18:56 14.11.2019
4409 Clouds 5 1007 80 10000 4.6 70 18:38 14.11.2019
4410 Clouds 5 1007 86 10000 3.6 80 18:20 14.11.2019
4411 Clouds 5 1007 86 10000 3.6 80 17:55 14.11.2019
4412 Clouds 5 1007 86 10000 3.6 80 17:37 14.11.2019
4413 Clouds 5 1006 80 10000 4.1 80 17:18 14.11.2019
4414 Clouds 6 1006 75 10000 3.6 80 16:57 14.11.2019
4415 Clouds 6 1006 75 10000 3.6 80 16:36 14.11.2019
4416 Clouds 6 1006 75 10000 3.6 100 16:18 14.11.2019
4417 Clouds 6 1006 75 10000 3.6 100 15:54 14.11.2019
4418 Clouds 7 1006 75 10000 3.6 100 15:36 14.11.2019
4419 Clouds 7 1006 75 10000 3.6 110 15:18 14.11.2019
4420 Clouds 7 1005 75 10000 4.6 100 14:43 14.11.2019
4421 Clouds 7 1006 75 10000 5.1 110 14:22 14.11.2019
4422 Clouds 7 1006 75 10000 4.1 110 13:57 14.11.2019
4423 Clouds 7 1006 75 10000 4.1 110 13:38 14.11.2019
4424 Clear 7 1006 75 10000 3.6 100 13:19 14.11.2019
4425 Clear 6 1006 81 10000 4.1 100 12:47 14.11.2019
4426 Clear 6 1006 81 10000 4.1 100 12:26 14.11.2019
4427 Clear 6 1006 86 10000 3.6 110 11:59 14.11.2019
4428 Clear 5 1006 86 10000 4.1 120 11:39 14.11.2019
4429 Clear 5 1006 86 10000 4.1 120 11:20 14.11.2019
4430 Clear 5 1006 86 10000 4.1 120 11:20 14.11.2019
4431 Clear 5 1006 86 10000 4.1 120 11:20 14.11.2019
4432 Clear 5 1006 86 10000 4.1 120 10:58 14.11.2019
4433 Clear 4 1006 86 10000 4.1 130 10:40 14.11.2019
4434 Clear 4 1006 86 10000 4.1 140 10:20 14.11.2019
4435 Clear 3 1006 86 10000 4.1 140 09:56 14.11.2019
4436 Clear 3 1005 86 10000 4.6 110 09:38 14.11.2019
4437 Clear 1 1004 93 10000 4.6 130 09:19 14.11.2019
4438 Clear 1 1004 93 10000 4.6 130 08:47 14.11.2019
4439 Clouds 1 1004 93 10000 4.6 130 08:25 14.11.2019
4440 Clouds 1 1004 93 9000 3.6 130 07:56 14.11.2019
4441 Clouds 1 1004 93 8000 3.1 120 07:37 14.11.2019
4442 Clouds 2 1003 93 8000 2.6 120 07:19 14.11.2019
4443 Clouds 2 1003 93 8000 2.6 130 06:41 14.11.2019
4444 Clouds 2 1003 93 9000 2.1 130 06:18 14.11.2019
4445 Clouds 2 1002 100 10000 2.1 140 04:41 14.11.2019
4446 Clouds 3 1002 93 8000 2.6 110 04:22 14.11.2019
4447 Clouds 3 1002 100 8000 2.1 150 02:47 14.11.2019
4448 Clouds 3 1002 100 8000 2.1 140 01:51 14.11.2019
4449 Clouds 3 1002 100 8000 2.1 140 01:32 14.11.2019
4450 Clouds 3 1002 100 8000 2.1 160 00:49 14.11.2019
4451 Clouds 3 1002 100 8000 2.1 160 00:29 14.11.2019
4452 Clouds 3 1001 100 8000 2.6 130 23:41 13.11.2019
4453 Clouds 3 1001 100 9000 2.1 150 23:22 13.11.2019
4454 Clouds 3 1001 100 9000 2.1 150 22:57 13.11.2019
4455 Clouds 3 1001 93 10000 2.1 200 22:39 13.11.2019
4456 Clouds 5 1000 92 0 3.84 201 22:21 13.11.2019
4457 Clouds 5 1000 92 0 3.84 201 21:56 13.11.2019
4458 Clouds 5 1001 93 10000 3.1 210 21:38 13.11.2019
4459 Clouds 5 1001 93 10000 2.6 210 21:19 13.11.2019
4460 Clouds 5 1001 93 10000 2.6 210 20:57 13.11.2019
4461 Clouds 5 1001 93 10000 3.6 210 20:37 13.11.2019
4462 Clouds 5 1001 93 10000 3.6 210 20:37 13.11.2019
4463 Clouds 5 1001 93 10000 3.1 190 20:19 13.11.2019
4464 Clouds 5 1001 93 10000 3.1 190 19:56 13.11.2019
4465 Clouds 5 1000 93 10000 2.6 190 19:37 13.11.2019
4466 Clouds 5 1000 93 10000 3.6 190 19:18 13.11.2019
4467 Clouds 5 1000 87 10000 3.6 190 18:54 13.11.2019
4468 Clouds 5 1000 93 10000 3.6 190 18:54 13.11.2019
4469 Clouds 5 1000 87 10000 3.6 190 18:36 13.11.2019
4470 Clouds 5 1000 87 10000 3.1 210 18:18 13.11.2019
4471 Clouds 5 1000 87 10000 3.1 210 18:18 13.11.2019
4472 Clouds 6 1000 87 10000 3.1 200 17:40 13.11.2019
4473 Clouds 6 999 87 10000 3.6 180 17:22 13.11.2019
4474 Clouds 6 999 87 10000 3.6 180 17:00 13.11.2019
4475 Clouds 7 999 87 10000 4.1 190 16:40 13.11.2019
4476 Clouds 7 999 81 10000 4.1 190 16:22 13.11.2019
4477 Clouds 7 999 81 10000 4.1 190 15:59 13.11.2019
4478 Clouds 7 999 87 10000 5.7 200 15:41 13.11.2019
4479 Clouds 7 999 81 10000 6.2 200 15:23 13.11.2019
4480 Clouds 7 999 81 10000 6.2 200 14:59 13.11.2019
4481 Clouds 7 999 81 10000 6.2 200 14:59 13.11.2019
4482 Clouds 7 999 81 10000 5.7 190 14:37 13.11.2019
4483 Clouds 6 998 81 10000 6.7 200 14:19 13.11.2019
4484 Clouds 6 998 81 10000 6.7 190 13:38 13.11.2019
4485 Clouds 6 999 81 10000 7.7 190 13:19 13.11.2019
4486 Clouds 6 999 81 10000 7.7 190 12:58 13.11.2019
4487 Clouds 6 998 81 10000 6.7 190 12:40 13.11.2019
4488 Clouds 6 998 81 10000 7.2 200 12:21 13.11.2019
4489 Clouds 5 998 81 10000 7.2 200 11:55 13.11.2019
4490 Clouds 5 998 81 10000 6.2 200 11:36 13.11.2019
4491 Clouds 5 998 75 10000 6.2 200 11:18 13.11.2019
4492 Clouds 5 999 80 10000 6.2 200 10:54 13.11.2019
4493 Clouds 5 999 80 10000 6.2 200 10:36 13.11.2019
4494 Clouds 4 999 80 10000 5.7 190 10:18 13.11.2019
4495 Clouds 4 998 80 10000 6.7 190 09:41 13.11.2019
4496 Clouds 4 998 80 10000 6.7 190 09:20 13.11.2019
4497 Clouds 4 998 80 10000 5.7 180 08:41 13.11.2019
4498 Clouds 4 998 80 10000 5.7 170 08:23 13.11.2019
4499 Clouds 3 998 80 10000 5.7 170 07:59 13.11.2019
4500 Clouds 3 998 86 10000 5.1 170 07:39 13.11.2019
4501 Clouds 3 998 89 10000 5.7 160 07:18 13.11.2019
4502 Clouds 2 998 89 10000 3.6 160 06:42 13.11.2019
4503 Clouds 2 998 89 10000 4.1 160 06:19 13.11.2019
4504 Clouds 2 998 89 10000 3.6 160 05:47 13.11.2019
4505 Clouds 2 998 90 10000 3.1 150 05:19 13.11.2019
4506 Clouds 2 999 90 10000 5.1 150 03:56 13.11.2019
4507 Clouds 2 1000 86 10000 5.1 170 01:52 13.11.2019
4508 Clouds 2 1000 86 10000 5.1 170 01:27 13.11.2019
4509 Clouds 2 1000 86 10000 5.1 170 01:27 13.11.2019
4510 Clouds 2 1000 93 10000 4.1 140 00:43 13.11.2019
4511 Clouds 2 1000 93 10000 4.1 150 23:57 12.11.2019
4512 Clouds 2 1000 93 10000 5.1 150 23:39 12.11.2019
4513 Clear 2 1000 93 10000 4.6 150 23:19 12.11.2019
4514 Clear 2 1000 93 10000 5.1 140 22:43 12.11.2019
4515 Clear 2 1000 100 10000 4.1 140 22:19 12.11.2019
4516 Clear 3 1000 100 10000 4.1 140 21:58 12.11.2019
4517 Clear 3 1000 93 10000 3.6 150 21:39 12.11.2019
4518 Clear 3 1000 93 10000 3.6 150 21:21 12.11.2019
4519 Clear 3 1000 93 10000 3.6 150 20:56 12.11.2019
4520 Clouds 3 1000 86 10000 3.6 160 20:37 12.11.2019
4521 Clouds 3 1000 93 10000 3.1 180 20:18 12.11.2019
4522 Clouds 3 1000 93 10000 3.1 180 20:18 12.11.2019
4523 Clouds 3 1000 93 10000 3.1 180 19:56 12.11.2019
4524 Clouds 4 1000 93 10000 4.1 170 19:38 12.11.2019
4525 Clouds 4 1000 86 10000 3.1 180 19:19 12.11.2019
4526 Clouds 4 1000 86 10000 3.1 180 18:57 12.11.2019
4527 Rain 4 1000 99 0 1.34 152 18:39 12.11.2019
4528 Rain 4 1000 90 0 0.45 170 18:21 12.11.2019
4529 Rain 5 1001 95 0 5.8 182 17:56 12.11.2019
4530 Clouds 5 1000 87 10000 4.6 170 17:37 12.11.2019
4531 Rain 5 1000 87 10000 5.1 160 17:19 12.11.2019
4532 Rain 6 1000 87 10000 4.6 140 16:44 12.11.2019
4533 Rain 6 1000 87 10000 4.6 140 16:25 12.11.2019
4534 Clouds 6 1000 87 10000 5.1 170 15:57 12.11.2019
4535 Clouds 6 1000 81 10000 4.6 170 15:39 12.11.2019
4536 Rain 7 1000 75 10000 6.2 180 15:20 12.11.2019
4537 Rain 7 1000 75 10000 6.2 180 14:55 12.11.2019
4538 Clouds 7 1000 70 10000 4.6 190 14:36 12.11.2019
4539 Clouds 7 1000 70 10000 4.6 190 14:36 12.11.2019
4540 Clouds 7 1000 70 10000 5.7 200 14:18 12.11.2019
4541 Clouds 8 1000 70 10000 5.7 200 13:54 12.11.2019
4542 Clouds 7 1000 75 10000 5.7 200 13:36 12.11.2019
4543 Clouds 7 1000 75 10000 5.7 190 13:18 12.11.2019
4544 Clouds 7 1000 75 10000 6.7 190 12:40 12.11.2019
4545 Clouds 7 1001 75 10000 7.2 190 12:19 12.11.2019
4546 Clouds 7 1001 75 10000 7.2 190 11:57 12.11.2019
4547 Clouds 7 1001 75 10000 5.7 190 11:39 12.11.2019
4548 Clouds 7 1001 75 10000 6.7 190 11:21 12.11.2019
4549 Clouds 6 1001 81 10000 6.2 190 10:55 12.11.2019
4550 Clouds 6 1001 81 10000 6.2 190 10:37 12.11.2019
4551 Clouds 6 1001 81 10000 6.7 180 10:19 12.11.2019
4552 Clouds 6 1001 81 10000 6.2 190 09:40 12.11.2019
4553 Clouds 6 1001 81 10000 7.2 190 09:20 12.11.2019
4554 Clouds 6 1001 81 10000 7.2 190 08:51 12.11.2019
4555 Clouds 6 1001 81 10000 7.2 190 08:30 12.11.2019
4556 Clouds 5 1000 81 10000 6.2 190 07:44 12.11.2019
4557 Clouds 6 1000 81 10000 6.2 190 07:25 12.11.2019
4558 Clouds 5 1000 81 10000 6.2 180 06:58 12.11.2019
4559 Clouds 5 1000 81 10000 6.2 180 06:39 12.11.2019
4560 Clouds 5 1000 81 10000 5.7 190 06:21 12.11.2019
4561 Clouds 5 1000 81 10000 5.7 180 05:43 12.11.2019
4562 Clouds 5 1000 86 10000 4.6 180 04:41 12.11.2019
4563 Clouds 5 1000 86 10000 5.1 180 03:30 12.11.2019
4564 Clouds 5 1000 80 10000 6.2 180 01:42 12.11.2019
4565 Clouds 5 1001 80 10000 7.2 170 01:20 12.11.2019
4566 Clouds 5 1001 80 10000 7.2 180 00:46 12.11.2019
4567 Clouds 5 1001 80 10000 7.2 180 00:22 12.11.2019
4568 Clouds 5 1001 80 10000 6.7 180 23:43 11.11.2019
4569 Clouds 5 1001 80 10000 7.2 180 23:22 11.11.2019
4570 Rain 5 1001 80 10000 6.7 170 22:56 11.11.2019
4571 Rain 5 1001 80 10000 6.7 170 22:36 11.11.2019
4572 Rain 5 1001 75 10000 6.7 160 22:18 11.11.2019
4573 Clouds 5 1001 75 10000 7.2 160 21:56 11.11.2019
4574 Clouds 5 1001 75 10000 7.2 160 21:37 11.11.2019
4575 Clouds 5 1001 75 10000 6.7 150 21:19 11.11.2019
4576 Clouds 5 1001 75 10000 6.7 150 20:42 11.11.2019
4577 Clouds 4 1001 75 10000 6.2 150 20:20 11.11.2019
4578 Clouds 4 1001 75 10000 6.2 150 19:56 11.11.2019
4579 Clouds 4 1001 80 10000 6.2 150 19:38 11.11.2019
4580 Clouds 4 1002 80 10000 6.7 140 19:18 11.11.2019
4581 Clouds 4 1002 80 10000 6.7 140 18:54 11.11.2019
4582 Clouds 4 1002 80 10000 6.7 150 18:36 11.11.2019
4583 Clouds 4 1002 80 10000 6.7 140 18:18 11.11.2019
4584 Clouds 4 1002 80 10000 6.2 140 17:41 11.11.2019
4585 Clouds 4 1002 80 10000 6.7 140 17:23 11.11.2019
4586 Clouds 5 1003 80 10000 6.7 140 16:41 11.11.2019
4587 Clouds 5 1003 80 10000 6.7 140 16:22 11.11.2019
4588 Clouds 5 1003 80 10000 7.2 140 15:58 11.11.2019
4589 Clouds 5 1004 80 10000 6.7 150 15:40 11.11.2019
4590 Clouds 6 1004 80 10000 7.7 150 15:19 11.11.2019
4591 Clouds 6 1004 80 10000 7.7 150 15:19 11.11.2019
4592 Clouds 6 1005 75 10000 6.2 150 14:44 11.11.2019
4593 Clouds 6 1005 75 10000 6.2 150 14:25 11.11.2019
4594 Clouds 6 1005 75 10000 6.7 160 13:58 11.11.2019
4595 Clouds 6 1005 81 10000 6.7 150 13:38 11.11.2019
4596 Clouds 6 1006 81 10000 6.7 150 13:19 11.11.2019
4597 Clouds 5 1006 81 10000 6.7 150 12:57 11.11.2019
4598 Clouds 5 1006 86 10000 5.1 140 12:39 11.11.2019
4599 Clouds 5 1006 86 10000 5.1 140 12:39 11.11.2019
4600 Clouds 5 1006 86 10000 5.1 140 12:39 11.11.2019
4601 Clouds 5 1007 86 10000 5.1 130 12:21 11.11.2019
4602 Clouds 4 1007 93 10000 4.6 130 11:42 11.11.2019
4603 Clouds 3 1008 86 10000 3.6 140 11:22 11.11.2019
4604 Clouds 3 1008 86 10000 3.6 140 10:58 11.11.2019
4605 Clouds 3 1008 93 10000 3.1 140 10:39 11.11.2019
4606 Clouds 2 1008 75 0 3.6 140 10:18 11.11.2019
4607 Clouds 2 1008 75 0 3.6 140 09:55 11.11.2019
4608 Clouds 1 1008 75 10000 3.6 140 09:36 11.11.2019
4609 Clouds 1 1009 75 8000 3.1 140 09:18 11.11.2019
4610 Mist 1 1009 75 5000 4.1 140 08:39 11.11.2019
4611 Mist 1 1010 92 5000 3.6 150 08:20 11.11.2019
4612 Mist 0 1010 92 5000 3.6 150 07:55 11.11.2019
4613 Mist 0 1009 92 5000 3.6 140 07:36 11.11.2019
4614 Mist 0 1010 92 5000 3.6 150 07:18 11.11.2019
4615 Mist 0 1010 92 5000 2.6 140 06:44 11.11.2019
4616 Mist 0 1011 92 4500 3.1 150 06:21 11.11.2019
4617 Mist 0 1011 92 3500 3.1 140 05:50 11.11.2019
4618 Mist 0 1012 92 3000 2.1 120 04:29 11.11.2019
4619 Fog 0 1012 100 900 1.5 140 03:23 11.11.2019
4620 Fog 1 1012 91 600 1.5 160 02:22 11.11.2019
4621 Fog 1 1012 91 600 1.5 130 01:55 11.11.2019
4622 Clouds 1 1013 91 8000 0.5 0 01:34 11.11.2019
4623 Clouds 2 1013 89 8000 2.1 150 00:47 11.11.2019
4624 Fog 2 1014 89 2000 1 0 00:19 11.11.2019
4625 Fog 2 1014 89 2000 1 0 00:19 11.11.2019
4626 Clouds 2 1014 89 10000 0.5 230 23:39 10.11.2019
4627 Clear 2 1014 90 10000 2.1 160 23:20 10.11.2019
4628 Clear 2 1014 90 10000 2.1 160 22:57 10.11.2019
4629 Clear 3 1014 93 10000 1.5 150 22:38 10.11.2019
4630 Clear 3 1014 93 10000 2.1 140 22:20 10.11.2019
4631 Clear 3 1014 93 10000 2.1 140 22:20 10.11.2019
4632 Clear 3 1014 93 10000 2.1 140 21:58 10.11.2019
4633 Clear 3 1014 93 10000 2.1 140 21:58 10.11.2019
4634 Clouds 3 1014 93 10000 2.6 150 21:39 10.11.2019
4635 Clouds 3 1014 93 10000 2.1 170 21:21 10.11.2019
4636 Clouds 4 1014 93 10000 2.1 170 20:56 10.11.2019
4637 Clear 4 1014 90 10000 2.1 170 20:38 10.11.2019
4638 Clear 4 1014 93 10000 1 160 20:20 10.11.2019
4639 Clear 4 1014 93 10000 1 160 19:54 10.11.2019
4640 Clear 4 1014 93 10000 1.5 160 19:36 10.11.2019
4641 Clear 4 1014 93 10000 3.1 160 19:18 10.11.2019
4642 Clear 4 1014 93 10000 3.1 160 18:54 10.11.2019
4643 Clear 4 1014 93 10000 3.1 160 18:54 10.11.2019
4644 Clear 4 1014 93 10000 3.1 160 18:54 10.11.2019
4645 Clear 4 1014 93 10000 3.6 150 18:36 10.11.2019
4646 Clear 5 1014 93 10000 2.6 160 18:18 10.11.2019
4647 Clear 4 1014 93 10000 2.6 160 17:55 10.11.2019
4648 Clear 4 1014 93 10000 2.6 160 17:55 10.11.2019
4649 Clear 5 1014 86 10000 1.5 170 17:37 10.11.2019
4650 Clear 6 1014 80 10000 2.6 170 17:18 10.11.2019
4651 Clear 6 1013 81 10000 2.6 200 16:43 10.11.2019
4652 Clear 7 1013 81 10000 2.6 200 16:25 10.11.2019
4653 Clear 7 1013 75 10000 3.1 190 15:57 10.11.2019
4654 Clear 7 1013 70 10000 2.6 200 15:38 10.11.2019
4655 Clear 8 1013 70 10000 3.1 210 15:19 10.11.2019
4656 Clear 8 1013 70 10000 3.1 210 14:58 10.11.2019
4657 Clear 8 1013 70 10000 3.1 200 14:38 10.11.2019
4658 Clear 8 1013 70 10000 2.6 190 14:20 10.11.2019
4659 Clear 8 1013 70 10000 2.6 190 13:55 10.11.2019
4660 Clear 8 1013 70 10000 3.1 200 13:37 10.11.2019
4661 Clear 8 1013 75 10000 3.1 200 13:19 10.11.2019
4662 Clear 7 1013 75 10000 2.6 170 12:41 10.11.2019
4663 Clear 7 1013 81 10000 3.1 210 12:20 10.11.2019
4664 Clear 7 1013 81 10000 3.1 210 12:20 10.11.2019
4665 Clear 6 1013 81 10000 3.1 210 11:56 10.11.2019
4666 Clear 6 1013 81 10000 2.6 210 11:38 10.11.2019
4667 Clear 6 1013 80 10000 2.6 230 11:19 10.11.2019
4668 Clear 4 1013 86 10000 2.1 190 10:42 10.11.2019
4669 Clear 4 1013 86 10000 2.1 190 10:22 10.11.2019
4670 Clear 3 1012 86 10000 2.6 160 09:59 10.11.2019
4671 Clear 3 1012 93 10000 2.1 160 09:40 10.11.2019
4672 Clear 1 1012 93 10000 2.1 160 09:21 10.11.2019
4673 Clear 1 1012 82 9000 1 0 08:40 10.11.2019
4674 Clear 0 1011 100 9000 1.5 140 08:21 10.11.2019
4675 Clear 0 1011 100 9000 1.5 140 07:53 10.11.2019
4676 Clear 0 1011 100 8000 1 110 07:34 10.11.2019
4677 Clear 0 1010 100 9000 2.6 160 06:59 10.11.2019
4678 Fog 0 1010 100 9000 2.6 160 06:22 10.11.2019
4679 Fog 1 1009 93 9000 1.5 150 04:45 10.11.2019
4680 Clear 2 1008 93 10000 2.6 160 02:51 10.11.2019
4681 Clouds 2 1008 93 10000 3.1 150 01:43 10.11.2019
4682 Clouds 3 1008 100 10000 1.5 160 01:19 10.11.2019
4683 Clouds 3 1008 93 10000 2.1 170 00:37 10.11.2019
4684 Clouds 4 1007 86 10000 3.6 180 23:43 09.11.2019
4685 Clouds 4 1007 93 10000 3.1 180 23:20 09.11.2019
4686 Clouds 5 1007 93 10000 3.1 180 22:59 09.11.2019
4687 Clouds 5 1007 86 10000 3.1 190 22:40 09.11.2019
4688 Rain 5 1007 81 10000 3.6 200 22:19 09.11.2019
4689 Rain 5 1007 81 10000 3.6 200 21:55 09.11.2019
4690 Clouds 5 1007 87 10000 3.6 200 21:37 09.11.2019
4691 Clouds 5 1007 87 10000 4.1 190 21:19 09.11.2019
4692 Clouds 5 1007 87 10000 4.1 190 20:41 09.11.2019
4693 Clouds 5 1007 87 10000 4.1 190 20:22 09.11.2019
4694 Clouds 5 1007 87 10000 4.1 180 19:57 09.11.2019
4695 Clouds 5 1007 93 10000 2.6 180 19:38 09.11.2019
4696 Clouds 5 1007 93 10000 3.1 160 19:19 09.11.2019
4697 Clouds 6 1007 93 10000 3.1 140 18:40 09.11.2019
4698 Clouds 6 1007 93 10000 3.6 160 18:19 09.11.2019
4699 Clouds 6 1007 93 10000 3.6 160 18:19 09.11.2019
4700 Clouds 6 1007 93 10000 3.6 160 17:59 09.11.2019
4701 Clouds 6 1007 87 8000 4.1 160 17:40 09.11.2019
4702 Clouds 6 1007 93 7000 4.1 180 17:22 09.11.2019
4703 Clouds 6 1007 87 6000 3.1 180 16:43 09.11.2019
4704 Clouds 6 1007 87 6000 3.1 180 16:22 09.11.2019
4705 Clouds 7 1007 93 7000 3.1 200 15:59 09.11.2019
4706 Clouds 7 1007 87 7000 4.1 200 15:41 09.11.2019
4707 Clouds 7 1007 87 7000 4.1 200 15:23 09.11.2019
4708 Clouds 6 1006 93 7000 2.6 180 14:44 09.11.2019
4709 Clouds 6 1006 93 7000 2.6 180 14:22 09.11.2019
4710 Mist 6 1007 93 5000 2.6 200 13:58 09.11.2019
4711 Mist 6 1007 93 4700 3.1 210 13:39 09.11.2019
4712 Mist 7 1007 87 4500 5.1 210 13:21 09.11.2019
4713 Mist 7 1007 87 4500 5.1 210 12:56 09.11.2019
4714 Mist 7 1007 87 4500 5.1 210 12:56 09.11.2019
4715 Clouds 7 1007 87 10000 4.1 200 12:38 09.11.2019
4716 Clouds 7 1007 87 10000 4.1 210 12:20 09.11.2019
4717 Clouds 7 1007 81 10000 3.1 200 11:48 09.11.2019
4718 Clouds 7 1007 87 10000 3.1 200 11:21 09.11.2019
4719 Clouds 6 1007 87 10000 3.1 200 10:57 09.11.2019
4720 Clouds 5 1007 87 10000 1.5 170 10:39 09.11.2019
4721 Clouds 5 1007 93 10000 1.5 230 10:18 09.11.2019
4722 Mist 4 1007 100 8000 1 0 09:44 09.11.2019
4723 Fog 3 1007 100 400 0.5 160 09:21 09.11.2019
4724 Fog 3 1007 100 400 0.5 160 08:57 09.11.2019
4725 Fog 3 1007 100 500 0.5 200 08:38 09.11.2019
4726 Fog 2 1007 100 3500 1 130 08:19 09.11.2019
4727 Fog 3 1007 100 2500 1 0 07:43 09.11.2019
4728 Fog 2 1007 100 1500 1 0 07:22 09.11.2019
4729 Mist 3 1007 100 2500 0.5 0 06:48 09.11.2019
4730 Mist 3 1007 100 2500 0.5 0 06:30 09.11.2019
4731 Mist 3 1007 93 3000 1 90 05:42 09.11.2019
4732 Mist 2 1007 100 1200 1 280 04:51 09.11.2019
4733 Fog 3 1007 100 800 0.5 0 03:35 09.11.2019
4734 Fog 3 1007 100 600 0.5 0 02:41 09.11.2019
4735 Fog 3 1007 100 500 1 270 01:55 09.11.2019
4736 Fog 3 1008 100 5000 1.5 130 00:49 09.11.2019
4737 Fog 3 1008 100 5000 1.5 130 00:31 09.11.2019
4738 Fog 3 1007 100 5000 0.5 310 23:57 08.11.2019
4739 Fog 3 1008 100 10000 1.11 141 23:38 08.11.2019
4740 Clouds 3 1008 100 10000 1 80 23:19 08.11.2019
4741 Fog 3 1008 100 10000 0.5 0 22:47 08.11.2019
4742 Fog 3 1008 100 5000 0.55 41 22:22 08.11.2019
4743 Fog 3 1008 100 5000 0.55 41 21:56 08.11.2019
4744 Fog 3 1008 100 10000 0.5 0 21:38 08.11.2019
4745 Clouds 4 1008 100 10000 0.55 41 21:18 08.11.2019
4746 Clouds 4 1008 100 10000 0.5 30 20:41 08.11.2019
4747 Clouds 4 1008 100 10000 0.5 60 20:22 08.11.2019
4748 Clouds 4 1008 100 10000 0.5 60 19:58 08.11.2019
4749 Clouds 4 1008 100 10000 1 50 19:38 08.11.2019
4750 Clouds 5 1007 93 10000 1.5 70 19:18 08.11.2019
4751 Clouds 5 1007 93 10000 1.5 70 19:18 08.11.2019
4752 Clouds 5 1007 93 10000 1.5 70 18:56 08.11.2019
4753 Clouds 5 1007 93 10000 1.5 70 18:56 08.11.2019
4754 Clouds 5 1007 93 10000 1 60 18:38 08.11.2019
4755 Clouds 5 1007 93 10000 1 60 18:38 08.11.2019
4756 Clouds 6 1007 93 10000 0.5 0 18:19 08.11.2019
4757 Clouds 6 1007 93 10000 0.5 0 17:55 08.11.2019
4758 Clouds 6 1007 93 10000 0.5 0 17:37 08.11.2019
4759 Clouds 7 1007 87 10000 1 110 17:19 08.11.2019
4760 Clouds 8 1007 81 10000 1.5 130 16:58 08.11.2019
4761 Clouds 8 1007 81 10000 1.5 130 16:39 08.11.2019
4762 Clouds 8 1007 76 10000 2.6 130 16:19 08.11.2019
4763 Clouds 8 1007 76 10000 2.6 130 16:19 08.11.2019
4764 Clouds 9 1007 76 10000 2.6 130 15:58 08.11.2019
4765 Clouds 9 1007 76 10000 2.6 130 15:40 08.11.2019
4766 Clouds 9 1006 71 10000 1.5 130 15:21 08.11.2019
4767 Clouds 10 1006 71 10000 1.5 130 14:56 08.11.2019
4768 Clouds 9 1006 83 0 1.9 109 14:36 08.11.2019
4769 Clouds 10 1006 71 10000 1.5 130 14:18 08.11.2019
4770 Clouds 10 1006 71 10000 1.5 130 14:18 08.11.2019
4771 Clouds 10 1006 71 10000 1.5 130 13:57 08.11.2019
4772 Clouds 10 1006 71 10000 1.5 130 13:57 08.11.2019
4773 Clouds 10 1007 71 10000 2.1 120 13:38 08.11.2019
4774 Clouds 10 1007 76 10000 3.1 110 13:19 08.11.2019
4775 Clouds 9 1007 76 10000 2.1 160 12:43 08.11.2019
4776 Clouds 9 1007 76 10000 2.1 160 12:24 08.11.2019
4777 Clouds 8 1007 81 10000 1.5 160 11:57 08.11.2019
4778 Clouds 8 1007 87 10000 2.1 150 11:38 08.11.2019
4779 Clouds 7 1007 81 10000 2.1 160 11:20 08.11.2019
4780 Clouds 7 1007 81 10000 2.1 160 11:20 08.11.2019
4781 Clouds 6 1007 81 10000 2.1 160 10:56 08.11.2019
4782 Clouds 6 1007 87 10000 1 0 10:38 08.11.2019
4783 Clouds 5 1007 93 10000 0.5 150 10:20 08.11.2019
4784 Clouds 3 1007 93 10000 1 170 09:42 08.11.2019
4785 Clouds 2 1007 93 10000 1 170 09:24 08.11.2019
4786 Clouds 2 1006 100 10000 1.5 150 08:59 08.11.2019
4787 Clouds 2 1006 93 10000 1 120 08:38 08.11.2019
4788 Clouds 1 1006 100 10000 1.5 150 08:19 08.11.2019
4789 Clear 1 1006 93 10000 1 140 07:41 08.11.2019
4790 Clear 2 1005 93 10000 1.5 160 07:22 08.11.2019
4791 Clear 2 1005 93 10000 1.5 160 07:22 08.11.2019
4792 Clear 2 1005 93 10000 2.1 200 06:43 08.11.2019
4793 Clear 4 1005 93 10000 3.1 200 06:24 08.11.2019
4794 Clear 4 1005 93 10000 3.1 200 05:56 08.11.2019
4795 Clear 4 1005 93 10000 3.6 190 05:25 08.11.2019
4796 Clear 4 1004 93 10000 3.6 170 04:18 08.11.2019
4797 Clear 4 1004 93 10000 3.6 170 03:41 08.11.2019
4798 Clear 3 1004 93 10000 3.1 160 02:54 08.11.2019
4799 Clouds 5 1003 93 10000 2.6 200 01:49 08.11.2019
4800 Clouds 5 1003 93 10000 2.6 200 01:31 08.11.2019
4801 Clouds 6 1001 96 0 3.97 195 00:38 08.11.2019
4802 Clouds 6 1002 93 10000 4.1 220 00:20 08.11.2019
4803 Clouds 7 1002 87 10000 3.6 210 23:44 07.11.2019
4804 Clouds 7 1002 87 10000 3.6 210 23:25 07.11.2019
4805 Clouds 7 1001 93 10000 3.1 190 22:55 07.11.2019
4806 Clouds 7 1001 93 10000 2.6 180 22:37 07.11.2019
4807 Clouds 8 1001 93 10000 2.6 190 22:19 07.11.2019
4808 Clouds 8 1000 93 10000 3.1 210 21:38 07.11.2019
4809 Clouds 8 1000 93 10000 4.1 200 21:20 07.11.2019
4810 Clouds 8 1000 93 10000 4.1 200 20:58 07.11.2019
4811 Clouds 8 999 93 10000 4.6 170 20:40 07.11.2019
4812 Rain 8 999 93 8000 4.1 150 20:21 07.11.2019
4813 Rain 8 999 93 8000 4.1 150 20:21 07.11.2019
4814 Rain 8 999 93 8000 4.1 150 19:57 07.11.2019
4815 Rain 8 999 93 6000 3.6 140 19:39 07.11.2019
4816 Rain 8 998 100 6000 5.1 110 19:20 07.11.2019
4817 Rain 8 998 100 6000 5.1 110 19:20 07.11.2019
4818 Rain 8 998 100 6000 5.1 110 18:57 07.11.2019
4819 Rain 8 998 93 6000 5.7 100 18:38 07.11.2019
4820 Rain 8 998 93 6000 5.1 110 18:19 07.11.2019
4821 Rain 8 998 93 6000 5.1 110 17:55 07.11.2019
4822 Rain 8 998 93 9000 4.6 100 17:37 07.11.2019
4823 Rain 8 998 93 9000 4.6 100 17:19 07.11.2019
4824 Clouds 8 998 93 10000 5.1 100 16:55 07.11.2019
4825 Clouds 8 998 87 10000 5.7 100 16:37 07.11.2019
4826 Clouds 8 998 87 10000 5.7 100 16:18 07.11.2019
4827 Clouds 8 999 87 10000 4.6 100 15:40 07.11.2019
4828 Clouds 8 999 87 10000 4.6 100 15:40 07.11.2019
4829 Clouds 8 999 87 10000 4.6 100 15:20 07.11.2019
4830 Clouds 8 999 87 10000 4.6 100 14:58 07.11.2019
4831 Clouds 8 999 87 10000 5.7 110 14:38 07.11.2019
4832 Clouds 8 999 87 10000 5.7 110 14:20 07.11.2019
4833 Clouds 8 999 87 10000 5.7 110 13:55 07.11.2019
4834 Clouds 8 999 87 10000 5.1 110 13:37 07.11.2019
4835 Clouds 8 999 87 10000 5.1 110 13:18 07.11.2019
4836 Clouds 7 999 87 10000 6.2 110 12:56 07.11.2019
4837 Clouds 7 1000 87 10000 5.7 100 12:38 07.11.2019
4838 Clouds 7 1000 87 10000 5.7 100 12:18 07.11.2019
4839 Clouds 7 1000 87 10000 4.1 110 11:41 07.11.2019
4840 Clouds 6 1000 87 10000 4.1 110 11:22 07.11.2019
4841 Mist 5 1000 100 5000 3.6 100 10:42 07.11.2019
4842 Mist 5 1001 93 5000 3.6 110 10:19 07.11.2019
4843 Mist 5 1001 93 5000 3.6 110 10:19 07.11.2019
4844 Mist 4 1000 100 5000 3.6 100 09:56 07.11.2019
4845 Mist 4 1001 93 2500 3.6 100 09:38 07.11.2019
4846 Mist 4 1001 93 2500 3.6 100 09:20 07.11.2019
4847 Mist 4 1001 93 2500 3.6 100 09:20 07.11.2019
4848 -273 0 0 0 0 0 08:45 07.11.2019
4849 Mist 3 1001 100 2500 3.1 110 08:44 07.11.2019
4850 -273 0 0 0 0 0 08:44 07.11.2019
4851 Mist 3 1001 100 2500 1.5 100 08:22 07.11.2019
4852 Mist 3 1001 100 2500 2.6 80 07:57 07.11.2019
4853 Mist 2 1001 100 2500 1 0 07:39 07.11.2019
4854 Mist 2 1001 100 2500 1 0 07:20 07.11.2019
4855 Mist 2 1001 100 2000 1.5 100 06:46 07.11.2019
4856 Fog 2 1001 100 700 1 0 06:25 07.11.2019
4857 Fog 1 1001 100 600 1 0 05:51 07.11.2019
4858 Fog 1 1001 100 600 1 0 05:51 07.11.2019
4859 Fog 1 1001 100 700 1.5 80 05:32 07.11.2019
4860 Fog 1 1001 89 600 1.5 120 04:53 07.11.2019
4861 Fog 1 1001 89 600 1.5 120 04:52 07.11.2019
4862 Fog 1 1001 89 700 1 0 04:31 07.11.2019
4863 -273 0 0 0 0 0 01:51 07.11.2019
4864 -273 0 0 0 0 0 01:49 07.11.2019
4865 Fog 2 1002 100 1100 1 0 00:46 07.11.2019
4866 Mist 3 1002 100 2000 1 0 00:19 07.11.2019
4867 Mist 3 1002 100 4000 1 160 23:47 06.11.2019
4868 Fog 3 1002 100 6000 0.5 0 23:21 06.11.2019
4869 Mist 4 1002 100 10000 0.5 180 22:55 06.11.2019
4870 Rain 4 1002 100 10000 0.5 230 22:37 06.11.2019
4871 Rain 4 1002 100 10000 0.5 230 22:18 06.11.2019
4872 Rain 5 1002 93 10000 0.5 220 21:42 06.11.2019
4873 Clouds 5 1002 93 10000 1.5 250 21:20 06.11.2019
4874 Rain 5 1002 93 10000 2.1 260 20:58 06.11.2019
4875 Rain 5 1002 93 10000 2.1 260 20:40 06.11.2019
4876 Clouds 6 1002 93 10000 2.1 260 20:21 06.11.2019
4877 Clouds 6 1002 93 10000 1.5 250 19:58 06.11.2019
4878 Clouds 6 1002 93 10000 1.5 230 19:39 06.11.2019
4879 Clouds 6 1002 93 10000 1.5 230 19:21 06.11.2019
4880 Clouds 6 1002 93 10000 1.5 230 18:58 06.11.2019
4881 Clouds 7 1002 93 10000 1.5 240 18:38 06.11.2019
4882 Clouds 6 1002 93 10000 1 0 18:19 06.11.2019
4883 Clouds 7 1002 93 10000 1 0 17:56 06.11.2019
4884 Clouds 7 1001 87 10000 1 0 17:56 06.11.2019
4885 Clouds 7 1001 87 10000 1 0 17:37 06.11.2019
4886 Clouds 7 1001 81 10000 1.5 310 17:18 06.11.2019
4887 Clouds 7 1001 81 10000 1.5 310 16:55 06.11.2019
4888 Rain 8 1001 87 10000 1.5 290 16:37 06.11.2019
4889 Rain 8 1001 87 10000 1.5 290 16:37 06.11.2019
4890 Clouds 8 1001 87 10000 1 270 16:18 06.11.2019
4891 Clouds 8 1001 87 10000 1 270 15:54 06.11.2019
4892 Clouds 8 1001 87 10000 2.1 270 15:36 06.11.2019
4893 Clouds 8 1001 87 10000 2.6 290 15:18 06.11.2019
4894 Clouds 8 1001 87 10000 2.6 290 14:55 06.11.2019
4895 Clouds 8 1001 87 10000 2.6 290 14:37 06.11.2019
4896 Clouds 8 1001 87 10000 2.6 290 14:37 06.11.2019
4897 Clouds 8 1001 81 10000 3.6 300 14:19 06.11.2019
4898 Clouds 8 1001 87 10000 3.1 310 13:40 06.11.2019
4899 Clouds 8 1001 87 10000 3.1 310 13:40 06.11.2019
4900 Clouds 8 1001 87 10000 2.6 260 13:22 06.11.2019
4901 Clouds 8 1001 87 10000 2.6 260 12:58 06.11.2019
4902 Clouds 8 1001 81 10000 3.6 250 12:39 06.11.2019
4903 Clouds 8 1001 81 10000 3.6 250 12:39 06.11.2019
4904 Clouds 8 1001 87 10000 3.1 280 12:21 06.11.2019
4905 Clouds 8 1001 87 10000 2.6 290 11:58 06.11.2019
4906 Clouds 8 1001 87 10000 2.6 290 11:38 06.11.2019
4907 Drizzle 8 1001 93 5000 2.6 280 11:18 06.11.2019
4908 Drizzle 8 1001 93 5000 2.6 280 10:56 06.11.2019
4909 Clouds 8 1001 93 9000 2.6 290 10:38 06.11.2019
4910 Drizzle 7 1000 93 6000 2.6 290 10:19 06.11.2019
4911 Drizzle 7 1000 93 6000 2.6 290 09:56 06.11.2019
4912 Clouds 7 1000 93 8000 2.6 280 09:36 06.11.2019
4913 Clouds 7 1000 93 10000 1.5 300 09:18 06.11.2019
4914 Clouds 7 1000 93 10000 1.5 300 08:54 06.11.2019
4915 Clouds 7 1000 93 10000 2.1 310 08:36 06.11.2019
4916 Clouds 7 999 93 10000 2.6 310 08:18 06.11.2019
4917 Clouds 7 999 93 10000 2.1 320 07:40 06.11.2019
4918 Clouds 7 999 100 10000 2.1 290 07:21 06.11.2019
4919 Clouds 7 999 93 10000 2.1 340 06:47 06.11.2019
4920 Rain 7 999 93 10000 3.6 350 06:27 06.11.2019
4921 Clouds 7 998 93 10000 2.6 30 04:52 06.11.2019
4922 Drizzle 8 998 93 10000 3.6 10 02:28 06.11.2019
4923 Drizzle 8 998 93 7000 4.1 20 01:39 06.11.2019
4924 Rain 8 997 93 10000 4.1 350 00:46 06.11.2019
4925 Rain 8 997 93 10000 4.1 350 00:46 06.11.2019
4926 Rain 9 997 93 6000 2.6 340 23:58 05.11.2019
4927 Drizzle 9 997 100 4000 2.1 240 23:39 05.11.2019
4928 Drizzle 9 997 100 4500 2.1 250 23:21 05.11.2019
4929 Drizzle 9 997 100 4500 2.1 250 22:55 05.11.2019
4930 Rain 9 997 100 5000 2.1 250 22:36 05.11.2019
4931 Rain 9 997 100 6000 2.6 250 22:18 05.11.2019
4932 Rain 9 997 100 6000 2.6 250 21:42 05.11.2019
4933 Rain 9 997 100 6000 2.6 250 21:21 05.11.2019
4934 Rain 9 997 100 6000 2.6 250 20:59 05.11.2019
4935 Rain 9 996 100 6000 2.6 250 20:39 05.11.2019
4936 Rain 9 996 100 6000 2.6 260 20:20 05.11.2019
4937 Rain 9 996 100 10000 1.5 250 19:58 05.11.2019
4938 Rain 9 996 100 10000 1.5 250 19:38 05.11.2019
4939 Clouds 9 996 93 10000 2.6 250 19:20 05.11.2019
4940 Clouds 9 996 93 10000 2.6 250 18:57 05.11.2019
4941 Clouds 10 996 93 10000 3.1 260 18:39 05.11.2019
4942 Clouds 10 996 93 10000 3.1 260 18:39 05.11.2019
4943 Clouds 10 996 93 10000 2.6 260 18:20 05.11.2019
4944 Clouds 10 996 93 10000 3.1 260 17:58 05.11.2019
4945 Clouds 10 996 93 10000 3.1 260 17:39 05.11.2019
4946 Clouds 10 996 93 10000 3.1 260 17:19 05.11.2019
4947 Clouds 10 996 93 10000 3.1 260 16:55 05.11.2019
4948 Clouds 10 996 93 10000 2.6 260 16:37 05.11.2019
4949 Clouds 10 995 87 10000 3.1 260 16:18 05.11.2019
4950 Clouds 10 995 81 10000 4.1 280 15:38 05.11.2019
4951 Clouds 10 995 87 10000 4.1 270 15:19 05.11.2019
4952 Clouds 10 995 87 10000 4.1 270 14:58 05.11.2019
4953 Clouds 10 995 87 10000 3.1 270 14:39 05.11.2019
4954 Clouds 10 995 87 10000 3.1 250 14:21 05.11.2019
4955 Clouds 10 995 87 10000 3.1 250 14:21 05.11.2019
4956 Clouds 10 995 87 10000 3.1 250 13:55 05.11.2019
4957 Clouds 10 995 87 10000 2.6 260 13:37 05.11.2019
4958 Clouds 10 995 87 7000 2.6 250 13:18 05.11.2019
4959 Mist 10 995 93 5000 2.6 260 12:39 05.11.2019
4960 Mist 10 995 100 4700 3.1 260 12:21 05.11.2019
4961 Drizzle 10 995 93 3600 2.6 260 11:56 05.11.2019
4962 Drizzle 10 995 93 3600 2.6 260 11:37 05.11.2019
4963 Drizzle 10 995 93 3500 2.1 260 11:19 05.11.2019
4964 Drizzle 9 995 93 4200 1.5 250 10:44 05.11.2019
4965 Drizzle 9 995 93 4200 1.5 250 10:25 05.11.2019
4966 Mist 9 994 100 4700 2.6 230 09:59 05.11.2019
4967 Mist 9 994 100 4500 1.5 220 09:40 05.11.2019
4968 Mist 9 994 100 4500 1.5 240 09:20 05.11.2019
4969 Mist 9 994 100 4500 1.5 240 08:56 05.11.2019
4970 Mist 9 993 100 4500 1 210 08:37 05.11.2019
4971 Mist 8 993 93 4500 2.1 200 08:18 05.11.2019
4972 Mist 9 993 100 4500 1.5 200 07:45 05.11.2019
4973 Mist 9 993 100 4500 1.5 200 07:25 05.11.2019
4974 Clouds 9 992 93 6000 2.6 220 06:51 05.11.2019
4975 Clouds 9 992 93 6000 2.6 220 06:30 05.11.2019
4976 Mist 9 992 100 5000 1.5 210 05:44 05.11.2019
4977 Mist 8 992 93 4000 2.6 160 05:20 05.11.2019
4978 Mist 8 992 100 2000 1 130 04:22 05.11.2019
4979 Rain 9 992 93 2000 1 0 03:31 05.11.2019
4980 Rain 9 992 100 6000 1.5 160 02:43 05.11.2019
4981 Rain 8 992 93 10000 2.1 160 01:55 05.11.2019
4982 Clouds 8 991 93 10000 2.1 150 00:48 05.11.2019
4983 Clouds 8 991 93 10000 2.1 150 00:27 05.11.2019
4984 Clouds 8 991 93 10000 1.5 150 23:43 04.11.2019
4985 Clouds 8 991 93 10000 0.5 0 23:19 04.11.2019
4986 Clouds 8 991 93 10000 0.5 0 22:57 04.11.2019
4987 Clouds 8 991 93 10000 1.5 140 22:39 04.11.2019
4988 Clouds 8 991 93 10000 1 0 22:20 04.11.2019
4989 Clouds 8 991 93 10000 1 0 21:55 04.11.2019
4990 Clouds 8 990 100 10000 1 110 21:37 04.11.2019
4991 Clouds 8 990 93 10000 1 120 21:18 04.11.2019
4992 Clouds 8 990 93 10000 1 120 21:18 04.11.2019
4993 Clouds 8 990 93 10000 1 120 20:56 04.11.2019
4994 Clouds 8 990 93 10000 0.5 140 20:56 04.11.2019
4995 Clouds 8 990 93 10000 0.5 140 20:37 04.11.2019
4996 Clouds 9 990 93 10000 1.5 170 20:19 04.11.2019
4997 Clouds 9 990 93 10000 1.5 170 19:57 04.11.2019
4998 Clouds 9 990 81 10000 1 0 19:38 04.11.2019
4999 Clouds 10 990 81 10000 1 130 19:20 04.11.2019
5000 Clouds 10 989 94 0 1.23 174 18:55 04.11.2019
5001 Clouds 10 990 81 10000 1.5 160 18:37 04.11.2019
5002 Clouds 10 989 81 10000 2.1 190 18:18 04.11.2019
5003 Clouds 11 989 87 10000 1.5 150 17:38 04.11.2019
5004 Clouds 11 989 87 10000 1.5 140 17:20 04.11.2019
5005 Clouds 11 989 87 10000 1.5 140 16:56 04.11.2019
5006 Clouds 12 989 81 10000 1 160 16:38 04.11.2019
5007 Clouds 12 989 81 10000 1.5 200 16:19 04.11.2019
5008 Clouds 12 989 81 10000 1.5 200 15:54 04.11.2019
5009 Clouds 12 989 82 10000 0.5 0 15:36 04.11.2019
5010 Clouds 11 988 87 10000 1 0 15:18 04.11.2019
5011 Clouds 11 988 87 10000 0.5 0 14:41 04.11.2019
5012 Clouds 11 988 93 10000 1.5 240 14:21 04.11.2019
5013 Clouds 11 988 93 10000 1.5 240 13:58 04.11.2019
5014 Drizzle 12 988 93 9000 0.5 0 13:40 04.11.2019
5015 Drizzle 12 988 87 5000 1.5 240 13:21 04.11.2019
5016 Drizzle 12 988 87 5000 1.5 240 13:21 04.11.2019
5017 Drizzle 12 988 87 5000 1.5 240 12:58 04.11.2019
5018 Clouds 12 988 81 10000 3.1 200 12:40 04.11.2019
5019 Clouds 11 988 81 10000 3.6 180 12:21 04.11.2019
5020 Clouds 11 988 81 10000 3.6 220 11:56 04.11.2019
5021 Clouds 11 988 81 10000 3.6 220 11:38 04.11.2019
5022 Clouds 11 988 87 10000 3.6 190 11:19 04.11.2019
5023 Clouds 11 988 87 10000 2.1 200 10:42 04.11.2019
5024 Clouds 11 988 87 10000 2.1 200 10:42 04.11.2019
5025 Clouds 11 988 87 10000 2.1 200 10:24 04.11.2019
5026 Clouds 10 988 93 10000 1 0 09:47 04.11.2019
5027 Clouds 10 988 93 10000 1 0 09:28 04.11.2019
5028 Clouds 10 988 87 10000 3.1 230 08:59 04.11.2019
5029 Clouds 9 988 93 10000 3.1 220 08:40 04.11.2019
5030 Clouds 9 987 93 10000 3.1 230 08:21 04.11.2019
5031 Clouds 10 987 93 10000 4.1 240 07:44 04.11.2019
5032 Clouds 10 987 93 10000 4.1 240 07:24 04.11.2019
5033 Clouds 10 987 93 10000 4.1 240 07:24 04.11.2019
5034 Clouds 10 987 93 10000 3.1 250 06:58 04.11.2019
5035 Clouds 10 986 93 10000 4.6 250 06:35 04.11.2019
5036 Clouds 11 986 93 10000 4.6 230 05:57 04.11.2019
5037 Rain 11 985 100 10000 2.1 180 04:45 04.11.2019
5038 Rain 11 985 100 10000 2.1 160 04:23 04.11.2019
5039 Rain 11 985 93 10000 3.6 140 02:44 04.11.2019
5040 Clouds 11 985 87 10000 3.1 130 01:22 04.11.2019
5041 Clouds 11 985 87 10000 3.6 130 00:49 04.11.2019
5042 Rain 11 984 94 0 3.63 144 00:21 04.11.2019
5043 Clouds 11 985 87 10000 3.6 120 23:56 03.11.2019
5044 Clouds 11 985 87 10000 3.6 130 23:36 03.11.2019
5045 Clouds 11 985 87 10000 3.6 120 23:18 03.11.2019
5046 Clouds 11 985 87 10000 3.6 120 22:54 03.11.2019
5047 Clouds 11 985 87 10000 3.6 120 22:36 03.11.2019
5048 Clouds 11 985 93 10000 3.6 120 22:18 03.11.2019
5049 Rain 11 985 93 10000 2.6 110 21:42 03.11.2019
5050 Clouds 11 986 93 10000 3.1 100 21:21 03.11.2019
5051 Rain 11 986 87 10000 2.6 90 20:57 03.11.2019
5052 Rain 11 986 87 10000 2.6 90 20:37 03.11.2019
5053 Rain 11 986 87 10000 3.1 90 20:18 03.11.2019
5054 Rain 11 986 87 10000 3.1 90 19:57 03.11.2019
5055 Clouds 11 986 87 10000 2.1 90 19:38 03.11.2019
5056 Clouds 11 986 87 10000 2.1 80 19:20 03.11.2019
5057 Clouds 12 986 81 10000 2.1 100 18:39 03.11.2019
5058 Clouds 12 986 81 10000 2.1 100 18:19 03.11.2019
5059 Clouds 12 986 81 10000 2.1 100 17:59 03.11.2019
5060 Clouds 12 986 81 10000 2.6 80 17:41 03.11.2019
5061 Clouds 12 986 81 10000 2.6 80 17:41 03.11.2019
5062 Clouds 12 986 87 10000 2.1 70 17:20 03.11.2019
5063 Clouds 12 986 81 10000 2.6 80 16:56 03.11.2019
5064 Clouds 12 986 81 10000 2.6 80 16:56 03.11.2019
5065 Clouds 12 986 81 10000 2.6 80 16:38 03.11.2019
5066 Clouds 13 986 76 10000 2.1 120 16:20 03.11.2019
5067 Clouds 13 986 76 10000 2.1 120 15:57 03.11.2019
5068 Clouds 13 986 76 10000 3.1 140 15:39 03.11.2019
5069 Clouds 14 986 71 10000 3.1 140 15:21 03.11.2019
5070 Clouds 13 986 71 10000 3.1 160 14:42 03.11.2019
5071 Clouds 13 986 82 10000 2.6 160 14:19 03.11.2019
5072 Clouds 13 986 82 10000 2.6 160 13:58 03.11.2019
5073 Clouds 13 986 76 10000 3.6 160 13:40 03.11.2019
5074 Clouds 13 986 76 10000 3.1 180 13:18 03.11.2019
5075 Clouds 13 986 76 10000 4.1 180 12:39 03.11.2019
5076 Clouds 13 987 76 10000 4.6 180 12:20 03.11.2019
5077 Clouds 13 987 76 10000 4.6 180 11:59 03.11.2019
5078 Clouds 13 987 76 10000 4.6 200 11:41 03.11.2019
5079 Clouds 13 987 76 10000 4.6 200 11:41 03.11.2019
5080 Clouds 12 987 76 10000 3.6 170 11:20 03.11.2019
5081 Clouds 12 987 76 10000 3.6 170 10:55 03.11.2019
5082 Clouds 12 986 81 10000 4.1 150 10:37 03.11.2019
5083 Clouds 11 986 81 10000 3.1 130 10:18 03.11.2019
5084 Clouds 11 986 81 10000 3.1 130 10:18 03.11.2019
5085 Clouds 10 986 87 10000 3.6 140 09:42 03.11.2019
5086 Clouds 10 986 87 10000 3.6 140 09:24 03.11.2019
5087 Rain 10 986 87 10000 1.5 140 08:56 03.11.2019
5088 Rain 10 986 87 10000 1.5 140 08:56 03.11.2019
5089 Rain 9 986 93 10000 3.1 160 08:36 03.11.2019
5090 Clouds 9 986 87 10000 2.6 140 08:18 03.11.2019
5091 Rain 9 986 87 10000 2.6 140 07:44 03.11.2019
5092 Rain 9 986 87 10000 2.6 130 07:20 03.11.2019
5093 Rain 9 986 87 10000 3.6 160 06:39 03.11.2019
5094 Rain 10 986 87 10000 3.6 170 05:54 03.11.2019
5095 Rain 10 986 81 10000 4.1 170 05:34 03.11.2019
5096 Rain 10 987 81 10000 4.1 170 04:52 03.11.2019
5097 Rain 10 987 81 10000 3.6 180 03:59 03.11.2019
5098 Clouds 11 987 76 10000 4.1 180 03:21 03.11.2019
5099 Clouds 11 987 76 10000 4.1 180 02:23 03.11.2019
5100 Clouds 11 987 76 10000 4.1 180 01:49 03.11.2019
5101 Clouds 11 987 76 10000 4.1 180 01:27 03.11.2019
5102 Clouds 11 987 76 10000 4.1 170 00:59 03.11.2019
5103 Clouds 11 987 76 10000 4.1 190 00:38 03.11.2019
5104 Clouds 11 987 76 10000 4.6 190 00:20 03.11.2019
5105 Clouds 11 987 76 10000 4.6 190 23:55 02.11.2019
5106 Clouds 11 987 76 10000 4.6 180 23:36 02.11.2019
5107 Rain 11 987 76 10000 4.6 180 23:18 02.11.2019
5108 Rain 11 987 76 10000 4.6 180 22:54 02.11.2019
5109 Rain 11 988 81 10000 4.6 180 22:36 02.11.2019
5110 Rain 11 988 81 10000 4.1 180 22:18 02.11.2019
5111 Rain 11 988 81 10000 4.1 180 21:55 02.11.2019
5112 Rain 11 988 81 10000 4.6 180 21:36 02.11.2019
5113 Rain 11 988 81 10000 4.1 180 21:18 02.11.2019
5114 Rain 11 988 81 10000 4.1 180 21:18 02.11.2019
5115 Rain 10 988 87 10000 4.1 170 20:42 02.11.2019
5116 Rain 11 988 93 10000 4.1 160 20:22 02.11.2019
5117 Rain 10 988 93 10000 4.1 160 19:59 02.11.2019
5118 Rain 10 988 93 10000 4.1 150 19:38 02.11.2019
5119 Rain 10 988 87 10000 4.1 160 19:20 02.11.2019
5120 Rain 10 988 87 10000 4.1 160 18:55 02.11.2019
5121 Rain 10 988 81 10000 4.1 160 18:36 02.11.2019
5122 Rain 10 988 87 10000 3.6 160 18:18 02.11.2019
5123 Rain 11 988 87 10000 3.6 160 17:55 02.11.2019
5124 Rain 11 988 81 10000 3.6 180 17:37 02.11.2019
5125 Rain 11 989 81 10000 4.1 200 17:18 02.11.2019
5126 Clouds 12 988 76 10000 3.6 210 16:40 02.11.2019
5127 Clouds 12 989 82 10000 4.6 220 16:21 02.11.2019
5128 Clouds 13 988 87 10000 4.6 220 15:44 02.11.2019
5129 Clouds 14 988 82 10000 5.1 240 15:22 02.11.2019
5130 Clouds 14 988 82 10000 5.1 240 14:59 02.11.2019
5131 Rain 14 988 93 8000 8.7 260 14:41 02.11.2019
5132 Clouds 14 988 82 10000 5.1 200 14:22 02.11.2019
5133 Clouds 14 988 82 10000 5.1 200 13:56 02.11.2019
5134 Clouds 15 988 87 10000 4.6 200 13:37 02.11.2019
5135 Clouds 15 988 87 10000 5.1 220 13:18 02.11.2019
5136 Clouds 15 988 87 10000 5.7 230 12:40 02.11.2019
5137 Clouds 15 988 93 10000 4.6 210 12:22 02.11.2019
5138 Clouds 15 988 93 10000 4.6 210 11:57 02.11.2019
5139 Clouds 14 988 93 10000 5.1 230 11:38 02.11.2019
5140 Drizzle 14 988 93 10000 6.7 240 11:20 02.11.2019
5141 Drizzle 13 988 93 8000 5.7 210 10:44 02.11.2019
5142 Rain 13 988 100 0 0.45 337 10:25 02.11.2019
5143 Drizzle 13 988 93 10000 4.6 200 09:56 02.11.2019
5144 Rain 12 988 93 10000 4.6 190 09:38 02.11.2019
5145 Clouds 12 988 100 10000 5.1 180 09:19 02.11.2019
5146 Rain 12 988 100 10000 5.1 170 08:44 02.11.2019
5147 Rain 11 988 100 2800 4.1 160 08:21 02.11.2019
5148 Rain 11 988 93 4500 3.1 140 07:47 02.11.2019
5149 Clouds 11 988 100 10000 3.1 140 07:28 02.11.2019
5150 Clouds 11 989 100 9000 3.1 140 06:54 02.11.2019
5151 Clouds 10 989 100 9000 3.1 140 06:29 02.11.2019
5152 Drizzle 10 990 100 10000 3.1 150 05:56 02.11.2019
5153 Drizzle 10 990 100 4200 3.1 140 05:20 02.11.2019
5154 Drizzle 10 991 100 10000 3.1 160 04:21 02.11.2019
5155 Clouds 9 992 93 10000 2.6 160 03:47 02.11.2019
5156 Drizzle 9 992 100 3500 3.1 150 02:40 02.11.2019
5157 Drizzle 8 994 100 2800 3.1 140 01:43 02.11.2019
5158 Drizzle 8 994 100 4000 2.6 140 01:21 02.11.2019
5159 Drizzle 8 995 93 5000 2.6 140 00:48 02.11.2019
5160 Drizzle 8 995 93 5000 2.6 140 00:26 02.11.2019
5161 Drizzle 7 996 100 5000 3.6 140 23:46 01.11.2019
5162 Drizzle 7 996 100 6000 3.6 140 23:22 01.11.2019
5163 Drizzle 7 996 100 6000 3.6 140 22:58 01.11.2019
5164 Clouds 7 997 100 10000 4.1 140 22:39 01.11.2019
5165 Rain 7 997 100 3000 3.1 130 22:20 01.11.2019
5166 Rain 6 998 100 2200 4.1 130 21:41 01.11.2019
5167 Drizzle 6 998 93 2000 3.1 140 21:23 01.11.2019
5168 Clouds 6 999 93 6000 3.1 130 20:57 01.11.2019
5169 Clouds 6 999 93 6000 3.1 130 20:39 01.11.2019
5170 Clouds 6 999 100 5000 4.1 140 20:19 01.11.2019
5171 Clouds 5 999 100 5000 4.1 140 19:55 01.11.2019
5172 Mist 5 1000 100 4800 4.1 140 19:37 01.11.2019
5173 Drizzle 5 1001 100 3200 4.1 140 19:18 01.11.2019
5174 Rain 5 1001 93 3200 3.6 130 18:39 01.11.2019
5175 Rain 5 1002 93 2800 4.1 140 18:20 01.11.2019
5176 Rain 5 1002 93 2800 3.6 130 17:55 01.11.2019
5177 Rain 5 1002 93 2800 3.6 130 17:37 01.11.2019
5178 Rain 5 1003 93 2500 3.6 130 17:18 01.11.2019
5179 Rain 5 1003 93 2800 3.6 130 16:38 01.11.2019
5180 Rain 5 1003 93 2800 3.6 130 16:38 01.11.2019
5181 Rain 5 1003 93 2800 3.6 130 16:38 01.11.2019
5182 Rain 5 1004 93 3500 3.1 140 16:19 01.11.2019
5183 Rain 5 1005 93 4000 3.6 140 15:54 01.11.2019
5184 Rain 5 1005 93 4000 3.6 140 15:36 01.11.2019
5185 Rain 5 1005 100 3800 4.1 140 15:18 01.11.2019
5186 Rain 5 1006 100 4000 4.1 140 14:41 01.11.2019
5187 Rain 4 1006 93 4500 4.1 140 14:23 01.11.2019
5188 Rain 4 1007 93 4500 4.6 150 13:57 01.11.2019
5189 Rain 4 1007 93 4500 4.6 150 13:38 01.11.2019
5190 Clouds 4 1008 86 10000 4.1 150 13:19 01.11.2019
5191 Rain 4 1008 86 8000 4.1 140 12:43 01.11.2019
5192 Rain 4 1008 86 8000 4.1 140 12:25 01.11.2019
5193 Rain 4 1009 86 7000 4.6 150 11:59 01.11.2019
5194 Clouds 4 1010 71 10000 5.1 140 11:40 01.11.2019
5195 Clouds 4 1010 86 7000 3.1 120 11:22 01.11.2019
5196 Clouds 3 1011 68 10000 3.6 150 10:42 01.11.2019
5197 Clouds 2 1011 86 9000 4.1 140 10:22 01.11.2019
5198 Clouds 2 1011 86 9000 4.1 140 09:57 01.11.2019
5199 Clouds 2 1011 86 9000 4.1 140 09:57 01.11.2019
5200 Clouds 2 1012 86 9000 4.1 130 09:38 01.11.2019
5201 Clouds 1 1012 68 8000 3.6 120 09:19 01.11.2019
5202 Clouds 0 1013 68 8000 4.1 130 08:43 01.11.2019
5203 Clouds -1 1013 77 8000 4.1 120 08:22 01.11.2019
5204 Clouds -1 1013 77 8000 4.1 120 07:56 01.11.2019
5205 Clouds -1 1014 92 8000 4.1 120 07:37 01.11.2019
5206 Clouds -1 1014 92 10000 3.6 130 07:18 01.11.2019
5207 Clouds -1 1015 92 10000 3.6 130 06:41 01.11.2019
5208 Clouds -1 1015 77 10000 3.6 120 06:21 01.11.2019
5209 Clouds -1 1016 77 10000 3.1 130 05:43 01.11.2019
5210 Clouds -1 1017 83 10000 3.6 120 03:57 01.11.2019
5211 Clouds -1 1019 80 10000 3.6 120 02:49 01.11.2019
5212 Clear 0 1019 80 10000 2.6 110 01:31 01.11.2019
5213 Clear 1 1021 74 10000 3.6 110 00:40 01.11.2019
5214 Clear 1 1021 74 10000 4.6 110 00:18 01.11.2019
5215 Clear 1 1021 74 10000 4.1 130 23:43 31.10.2019
5216 Clear 1 1022 74 10000 4.6 120 23:23 31.10.2019
5217 Clear 1 1022 74 10000 4.6 120 22:56 31.10.2019
5218 Clear 1 1022 74 10000 4.1 120 22:38 31.10.2019
5219 Clear 1 1022 74 10000 4.1 110 22:19 31.10.2019
5220 Clear 1 1022 69 10000 4.1 110 21:43 31.10.2019
5221 Clear 2 1023 74 10000 3.6 100 21:20 31.10.2019
5222 Clear 2 1023 74 10000 3.6 100 20:57 31.10.2019
5223 Clear 2 1023 74 10000 3.6 100 20:39 31.10.2019
5224 Clear 2 1023 69 10000 3.1 100 20:20 31.10.2019
5225 Clear 2 1023 74 10000 3.1 90 19:42 31.10.2019
5226 Clear 3 1023 74 10000 2.6 90 19:22 31.10.2019
5227 Clear 3 1023 74 10000 2.6 90 18:57 31.10.2019
5228 Clear 3 1024 75 10000 2.6 100 18:39 31.10.2019
5229 Clear 4 1024 75 10000 2.1 110 18:19 31.10.2019
5230 Clear 5 1024 75 10000 2.1 110 17:42 31.10.2019
5231 Clouds 5 1024 70 10000 2.1 120 17:22 31.10.2019
5232 Clouds 6 1024 70 10000 2.1 120 16:58 31.10.2019
5233 Clouds 7 1024 61 10000 3.1 130 16:40 31.10.2019
5234 Clouds 8 1024 70 10000 2.6 130 16:20 31.10.2019
5235 Clouds 8 1024 70 10000 2.6 130 15:56 31.10.2019
5236 Clouds 8 1024 70 10000 4.1 120 15:38 31.10.2019
5237 Clouds 8 1024 70 10000 3.6 120 15:19 31.10.2019
5238 Clouds 8 1024 70 10000 3.6 120 14:56 31.10.2019
5239 Clouds 8 1025 61 10000 4.1 110 14:38 31.10.2019
5240 Clear 8 1025 61 10000 3.6 110 14:19 31.10.2019
5241 Clear 8 1025 61 10000 3.6 110 13:55 31.10.2019
5242 Clear 8 1025 65 10000 3.1 120 13:37 31.10.2019
5243 Clear 8 1026 70 10000 4.1 120 13:19 31.10.2019
5244 Clear 8 1026 70 10000 3.6 110 12:43 31.10.2019
5245 Clear 7 1026 75 10000 3.6 110 12:23 31.10.2019
5246 Clear 7 1026 75 10000 3.6 110 11:57 31.10.2019
5247 Clear 6 1026 75 10000 4.1 120 11:38 31.10.2019
5248 Clear 5 1027 80 10000 3.6 110 11:18 31.10.2019
5249 Clear 4 1027 80 10000 3.6 110 10:57 31.10.2019
5250 Clear 4 1027 80 9000 3.1 110 10:38 31.10.2019
5251 Clear 2 1027 73 8000 2.1 110 10:18 31.10.2019
5252 Clear 0 1027 73 7000 0.5 0 09:42 31.10.2019
5253 Clear 0 1027 73 7000 0.5 190 09:18 31.10.2019
5254 Clear 0 1027 92 7000 1.5 90 08:49 31.10.2019
5255 Clear 0 1027 92 7000 1.5 90 08:31 31.10.2019
5256 Clear -2 1027 100 7000 2.1 80 07:56 31.10.2019
5257 Clear -2 1027 92 7000 2.1 80 07:56 31.10.2019
5258 Clear -2 1027 100 7000 2.1 80 07:38 31.10.2019
5259 Clear -2 1027 100 10000 1.5 90 07:19 31.10.2019
5260 Clear -2 1027 92 10000 2.1 60 06:38 31.10.2019
5261 Clear -2 1027 100 10000 1 70 06:19 31.10.2019
5262 Clear -2 1027 100 10000 1.5 80 04:35 31.10.2019
5263 Clear -1 1028 90 10000 1.5 70 02:44 31.10.2019
5264 Clear 0 1028 89 10000 1 0 01:53 31.10.2019
5265 Clear 0 1028 87 10000 2.1 120 00:40 31.10.2019
5266 Clear 0 1028 87 10000 2.1 100 00:22 31.10.2019
5267 Clear 0 1028 87 10000 2.1 100 23:33 30.10.2019
5268 Clear 1 1028 83 10000 2.1 110 22:55 30.10.2019
5269 Clear 1 1029 83 10000 2.6 90 22:37 30.10.2019
5270 Clear 1 1029 83 10000 2.6 100 22:18 30.10.2019
5271 Clear 1 1029 83 10000 2.6 100 21:54 30.10.2019
5272 Clear 1 1029 86 10000 2.6 90 21:36 30.10.2019
5273 Clear 2 1029 80 10000 2.6 80 21:18 30.10.2019
5274 Clear 2 1029 83 10000 2.6 70 20:42 30.10.2019
5275 Clear 2 1029 83 10000 2.6 70 20:42 30.10.2019
5276 Clouds 3 1029 80 10000 2.6 80 20:22 30.10.2019
5277 Clouds 3 1029 80 10000 2.6 80 20:22 30.10.2019
5278 Clouds 2 1029 80 10000 2.6 80 19:59 30.10.2019
5279 Clouds 2 1029 80 10000 2.1 70 19:40 30.10.2019
5280 Clouds 3 1029 75 10000 2.1 70 19:22 30.10.2019
5281 Clouds 3 1029 75 10000 2.1 70 18:59 30.10.2019
5282 Clouds 4 1029 75 10000 2.1 60 18:38 30.10.2019
5283 Clouds 4 1029 75 10000 1.5 80 18:18 30.10.2019
5284 Clouds 5 1029 75 10000 1.5 80 17:55 30.10.2019
5285 Clouds 5 1029 70 10000 2.6 50 17:37 30.10.2019
5286 Clouds 6 1029 61 10000 1 120 17:18 30.10.2019
5287 Clouds 8 1029 61 10000 2.6 130 16:42 30.10.2019
5288 Clouds 8 1029 61 10000 2.6 130 16:23 30.10.2019
5289 Clouds 8 1029 57 10000 1.5 100 15:59 30.10.2019
5290 Clouds 9 1029 57 10000 2.1 120 15:39 30.10.2019
5291 Clouds 9 1029 57 10000 2.6 100 15:20 30.10.2019
5292 Clouds 9 1029 57 10000 2.6 100 14:59 30.10.2019
5293 Clouds 9 1029 57 10000 2.6 120 14:40 30.10.2019
5294 Clouds 9 1030 57 10000 3.1 150 14:21 30.10.2019
5295 Clouds 9 1030 57 10000 3.1 100 13:55 30.10.2019
5296 Clouds 9 1030 57 10000 3.1 100 13:37 30.10.2019
5297 Clouds 9 1030 57 10000 3.1 100 13:37 30.10.2019
5298 Clouds 9 1030 57 10000 3.1 110 13:19 30.10.2019
5299 Clouds 9 1030 61 10000 3.1 90 12:45 30.10.2019
5300 Clouds 9 1030 61 10000 3.1 90 12:27 30.10.2019
5301 Clouds 8 1031 65 10000 2.6 120 11:59 30.10.2019
5302 Clouds 8 1031 70 10000 2.6 100 11:41 30.10.2019
5303 Clear 7 1031 70 10000 2.6 120 11:21 30.10.2019
5304 Clear 6 1031 70 10000 1.5 110 10:43 30.10.2019
5305 Clouds 4 1030 71 10000 1.5 0 10:23 30.10.2019
5306 Clear 3 1031 86 10000 1.5 70 09:43 30.10.2019
5307 Clear 2 1031 93 10000 0.5 0 09:24 30.10.2019
5308 Clear 2 1031 93 10000 0.5 0 08:58 30.10.2019
5309 Clear 1 1031 71 10000 0.5 0 08:40 30.10.2019
5310 Clear 0 1031 100 10000 0.5 0 08:20 30.10.2019
5311 Fog -1 1030 100 700 0.5 0 07:46 30.10.2019
5312 Fog -1 1030 100 700 0.5 0 07:28 30.10.2019
5313 Clear 0 1030 92 10000 0.5 0 06:43 30.10.2019
5314 Clear 0 1030 92 10000 1.5 70 06:21 30.10.2019
5315 Clear 0 1030 85 10000 1.5 60 05:46 30.10.2019
5316 Clear 0 1030 85 10000 1.5 60 05:24 30.10.2019
5317 Clear 0 1030 83 10000 1 70 03:45 30.10.2019
5318 Clear 0 1030 83 10000 1 70 03:18 30.10.2019
5319 Clear 1 1030 82 10000 1.5 50 02:19 30.10.2019
5320 Clouds 1 1030 81 10000 1.5 60 01:34 30.10.2019
5321 Clouds 1 1030 81 10000 1.5 60 00:31 30.10.2019
5322 Clouds 2 1030 86 10000 1.5 60 23:46 29.10.2019
5323 Clouds 2 1030 86 10000 1.5 60 23:27 29.10.2019
5324 Clouds 3 1030 86 10000 1.5 60 22:57 29.10.2019
5325 Clouds 2 1030 86 10000 2.1 60 22:37 29.10.2019
5326 Clouds 3 1030 80 10000 2.6 50 22:18 29.10.2019
5327 Clouds 3 1030 80 10000 2.6 50 22:18 29.10.2019
5328 Clouds 3 1030 80 10000 2.6 60 21:54 29.10.2019
5329 Clouds 3 1030 80 10000 2.6 60 21:36 29.10.2019
5330 Clouds 3 1029 80 10000 2.6 50 21:18 29.10.2019
5331 Clouds 4 1029 80 10000 2.6 50 20:41 29.10.2019
5332 Clouds 4 1029 80 10000 2.6 50 20:22 29.10.2019
5333 Clouds 4 1029 80 10000 2.6 50 19:58 29.10.2019
5334 Clouds 4 1029 70 10000 3.1 40 19:39 29.10.2019
5335 Clouds 5 1028 75 10000 2.6 40 19:20 29.10.2019
5336 Clouds 5 1028 75 10000 2.6 40 18:58 29.10.2019
5337 Clouds 6 1028 70 10000 3.1 40 18:38 29.10.2019
5338 Clouds 6 1028 70 10000 3.1 30 18:20 29.10.2019
5339 Clouds 6 1028 70 10000 3.1 30 17:56 29.10.2019
5340 Clouds 7 1028 65 10000 2.6 20 17:37 29.10.2019
5341 Clouds 7 1027 65 10000 3.1 30 17:19 29.10.2019
5342 Clouds 9 1027 61 10000 4.1 20 16:41 29.10.2019
5343 Clouds 9 1027 57 10000 3.6 30 16:22 29.10.2019
5344 Clouds 9 1027 57 10000 3.6 30 15:59 29.10.2019
5345 Clouds 10 1027 61 10000 3.6 40 15:41 29.10.2019
5346 Clouds 10 1026 66 10000 4.1 30 15:21 29.10.2019
5347 Clouds 10 1026 66 10000 4.1 30 14:57 29.10.2019
5348 Clouds 10 1026 66 10000 3.6 20 14:39 29.10.2019
5349 Clouds 10 1026 66 10000 3.1 30 14:21 29.10.2019
5350 Clouds 10 1026 66 10000 3.1 30 13:57 29.10.2019
5351 Clouds 10 1026 61 10000 4.1 40 13:36 29.10.2019
5352 Clouds 10 1026 71 10000 3.6 50 13:18 29.10.2019
5353 Clouds 10 1026 76 10000 3.6 70 12:42 29.10.2019
5354 Clouds 10 1026 76 10000 3.6 60 12:24 29.10.2019
5355 Clouds 9 1026 76 10000 3.6 60 11:55 29.10.2019
5356 Clouds 9 1026 76 10000 3.1 40 11:36 29.10.2019
5357 Clouds 9 1026 75 10000 2.6 30 11:18 29.10.2019
5358 Clouds 8 1026 75 10000 2.6 30 10:56 29.10.2019
5359 Clear 7 1026 75 10000 3.1 50 10:37 29.10.2019
5360 Clear 7 1026 81 10000 3.1 30 10:19 29.10.2019
5361 Clouds 6 1025 100 10000 0.5 260 09:41 29.10.2019
5362 Clouds 6 1025 100 10000 0.5 260 09:41 29.10.2019
5363 Mist 4 1025 100 6000 1 230 09:23 29.10.2019
5364 Mist 4 1025 100 6000 1 230 08:56 29.10.2019
5365 Fog 3 1025 100 4000 1 270 08:37 29.10.2019
5366 Fog 2 1024 100 3000 2.1 290 08:18 29.10.2019
5367 Fog 1 1024 100 4000 2.1 290 07:47 29.10.2019
5368 Fog 2 1023 100 6000 2.1 290 07:20 29.10.2019
5369 Fog 2 1023 100 7000 1.5 280 06:53 29.10.2019
5370 Fog 2 1023 100 7000 1.5 280 06:29 29.10.2019
5371 Fog 2 1023 100 8000 1.5 280 05:54 29.10.2019
5372 Fog 2 1023 100 8000 2.1 290 05:36 29.10.2019
5373 Fog 3 1022 100 10000 1.5 240 04:39 29.10.2019
5374 Fog 4 1022 100 5000 1.5 280 02:39 29.10.2019
5375 Fog 4 1022 93 6000 1 240 01:56 29.10.2019
5376 Fog 4 1022 100 10000 1 270 01:35 29.10.2019
5377 Clouds 4 1022 93 10000 1.5 280 00:52 29.10.2019
5378 Clouds 5 1022 93 10000 1.5 280 00:24 29.10.2019
5379 Clouds 5 1022 100 10000 1.5 270 23:38 28.10.2019
5380 Clouds 5 1022 100 10000 2.1 310 23:20 28.10.2019
5381 Clouds 5 1022 100 10000 2.1 310 23:20 28.10.2019
5382 Clouds 5 1022 100 10000 2.1 310 23:20 28.10.2019
5383 Clouds 5 1022 100 10000 2.1 280 22:40 28.10.2019
5384 Clouds 5 1022 93 10000 2.1 260 22:20 28.10.2019
5385 Clouds 6 1022 93 10000 2.1 260 21:59 28.10.2019
5386 Clouds 6 1022 93 10000 2.6 260 21:41 28.10.2019
5387 Rain 6 1022 87 10000 1.5 350 21:22 28.10.2019
5388 Rain 6 1022 87 10000 1.5 350 20:59 28.10.2019
5389 Rain 7 1022 87 10000 3.1 310 20:40 28.10.2019
5390 Clouds 7 1022 100 10000 1 0 20:21 28.10.2019
5391 Clouds 7 1022 100 10000 1 0 20:21 28.10.2019
5392 Clouds 7 1022 93 10000 1.5 230 19:55 28.10.2019
5393 Clouds 7 1022 93 10000 1.5 230 19:36 28.10.2019
5394 Clouds 7 1022 93 10000 1.5 230 19:36 28.10.2019
5395 Clouds 7 1022 93 10000 1.5 230 19:36 28.10.2019
5396 Clouds 7 1022 93 10000 1.5 250 19:18 28.10.2019
5397 Clouds 7 1022 93 10000 1.5 250 18:57 28.10.2019
5398 Clouds 7 1021 87 10000 2.1 280 18:38 28.10.2019
5399 Rain 8 1021 87 10000 3.6 300 18:20 28.10.2019
5400 Rain 8 1021 87 10000 3.6 300 17:56 28.10.2019
5401 Clouds 8 1021 87 10000 2.6 270 17:37 28.10.2019
5402 Clouds 9 1021 87 10000 3.1 250 17:18 28.10.2019
5403 Rain 9 1017 99 0 3.77 293 16:54 28.10.2019
5404 Clouds 9 1021 81 10000 3.1 270 16:36 28.10.2019
5405 Clouds 9 1021 81 10000 3.1 270 16:36 28.10.2019
5406 Clouds 10 1021 76 10000 4.1 280 16:18 28.10.2019
5407 Clouds 10 1021 76 10000 4.1 280 15:55 28.10.2019
5408 Clouds 10 1021 81 10000 3.6 260 15:37 28.10.2019
5409 Rain 11 1021 66 10000 3.6 270 15:18 28.10.2019
5410 Clouds 11 1021 66 10000 3.6 280 14:54 28.10.2019
5411 Clouds 11 1021 71 10000 4.1 280 14:36 28.10.2019
5412 Clouds 11 1021 81 10000 2.1 300 14:18 28.10.2019
5413 Clouds 11 1021 81 10000 3.1 300 13:41 28.10.2019
5414 Clouds 11 1022 66 10000 4.6 280 13:18 28.10.2019
5415 Clouds 11 1022 66 10000 4.6 280 13:18 28.10.2019
5416 Clouds 12 1022 66 10000 4.6 280 12:59 28.10.2019
5417 Clouds 12 1021 66 10000 6.2 280 12:40 28.10.2019
5418 Clouds 12 1021 71 10000 5.7 280 12:19 28.10.2019
5419 Clouds 11 1021 76 10000 4.6 260 11:38 28.10.2019
5420 Clouds 11 1021 76 10000 4.6 250 11:20 28.10.2019
5421 Clouds 10 1021 76 10000 3.6 260 10:42 28.10.2019
5422 Clouds 10 1021 76 10000 3.6 260 10:24 28.10.2019
5423 Clouds 9 1021 81 10000 4.1 260 09:58 28.10.2019
5424 Clouds 9 1021 87 10000 3.6 260 09:39 28.10.2019
5425 Clouds 8 1021 87 10000 3.1 270 09:20 28.10.2019
5426 Clouds 7 1021 87 10000 3.1 270 08:58 28.10.2019
5427 Clouds 7 1021 93 10000 2.6 250 08:39 28.10.2019
5428 Clouds 6 1020 100 10000 3.1 250 08:19 28.10.2019
5429 Clouds 6 1020 100 10000 3.1 250 07:59 28.10.2019
5430 Clouds 6 1021 93 10000 4.1 260 07:40 28.10.2019
5431 Clouds 6 1020 93 10000 2.1 250 07:20 28.10.2019
5432 Clouds 6 1020 93 10000 2.1 250 06:55 28.10.2019
5433 Clouds 6 1020 100 10000 2.1 240 06:34 28.10.2019
5434 Clouds 7 1020 87 10000 3.6 260 04:39 28.10.2019
5435 Clouds 7 1020 81 10000 6.2 260 03:43 28.10.2019
5436 Clouds 7 1019 87 10000 5.1 250 02:45 28.10.2019
5437 Clouds 7 1019 87 10000 5.1 250 01:36 28.10.2019
5438 Clouds 7 1019 87 10000 5.7 250 00:46 28.10.2019
5439 Clear 7 1019 87 10000 5.1 250 00:23 28.10.2019
5440 Clear 7 1019 87 10000 5.7 250 23:44 27.10.2019
5441 Clear 7 1019 87 10000 5.1 240 23:21 27.10.2019
5442 Clear 8 1019 81 10000 5.7 250 22:56 27.10.2019
5443 Clear 8 1019 81 10000 5.7 250 22:37 27.10.2019
5444 Clear 8 1019 81 10000 5.7 240 22:19 27.10.2019
5445 Clear 8 1019 81 10000 5.7 240 22:19 27.10.2019
5446 Clear 8 1019 81 10000 5.7 240 21:55 27.10.2019
5447 Clear 8 1019 87 10000 5.7 240 21:37 27.10.2019
5448 Clear 8 1019 81 10000 5.7 250 21:18 27.10.2019
5449 Clear 8 1019 87 10000 4.6 250 20:41 27.10.2019
5450 Clouds 8 1019 81 10000 5.1 240 20:23 27.10.2019
5451 Clouds 8 1019 81 10000 5.1 240 19:58 27.10.2019
5452 Clouds 9 1018 82 0 2.68 290 19:37 27.10.2019
5453 Clouds 9 1018 81 0 1.79 218 19:19 27.10.2019
5454 Clouds 9 1019 84 0 0.45 270 18:56 27.10.2019
5455 Clouds 9 1019 81 10000 4.1 240 18:38 27.10.2019
5456 Clouds 9 1018 78 0 1.34 236 18:20 27.10.2019
5457 Clouds 10 1017 77 0 1.34 253 17:55 27.10.2019
5458 Clouds 10 1018 76 10000 4.6 240 17:36 27.10.2019
5459 Clouds 10 1018 71 10000 5.1 250 17:18 27.10.2019
5460 Clouds 11 1018 71 10000 5.1 250 16:55 27.10.2019
5461 Clouds 11 1018 66 10000 6.2 250 16:37 27.10.2019
5462 Clouds 11 1018 66 10000 7.2 250 16:19 27.10.2019
5463 Clouds 12 1018 66 10000 7.2 250 15:55 27.10.2019
5464 Clouds 12 1018 62 10000 6.7 270 15:37 27.10.2019
5465 Clouds 12 1018 62 10000 6.7 270 15:18 27.10.2019
5466 Clouds 12 1018 54 10000 8.2 280 14:41 27.10.2019
5467 Clouds 12 1018 66 10000 7.2 260 14:20 27.10.2019
5468 Clouds 12 1018 66 10000 7.2 260 13:56 27.10.2019
5469 Clouds 12 1018 62 10000 6.7 260 13:37 27.10.2019
5470 Clouds 12 1018 66 10000 6.2 260 13:19 27.10.2019
5471 Clouds 12 1018 71 10000 7.7 260 12:43 27.10.2019
5472 Clouds 12 1018 71 10000 7.7 260 12:24 27.10.2019
5473 Clouds 12 1018 66 10000 6.7 250 11:55 27.10.2019
5474 Clouds 11 1017 66 10000 6.7 260 11:37 27.10.2019
5475 Clouds 11 1017 66 10000 6.7 260 11:18 27.10.2019
5476 Clouds 11 1017 71 10000 7.7 260 10:42 27.10.2019
5477 Clouds 10 1017 71 10000 7.7 260 10:23 27.10.2019
5478 Clouds 10 1016 71 10000 6.2 260 09:44 27.10.2019
5479 Clouds 9 1016 76 10000 5.1 260 09:20 27.10.2019
5480 Clouds 9 1016 76 10000 5.1 260 08:59 27.10.2019
5481 Clouds 9 1015 76 10000 5.1 260 08:41 27.10.2019
5482 Rain 9 1015 76 10000 5.7 260 08:20 27.10.2019
5483 Rain 9 1014 81 10000 5.7 270 07:50 27.10.2019
5484 Rain 9 1014 81 10000 5.7 270 07:29 27.10.2019
5485 Rain 9 1014 87 10000 5.1 270 06:59 27.10.2019
5486 Rain 9 1013 87 10000 5.7 270 06:40 27.10.2019
5487 Clouds 10 1013 87 10000 6.2 280 06:21 27.10.2019
5488 Drizzle 10 1012 93 10000 6.7 290 05:38 27.10.2019
5489 Drizzle 11 1011 93 6000 9.3 290 04:49 27.10.2019
5490 Rain 15 1008 87 10000 8.2 220 02:52 27.10.2019
5491 Clouds 16 1008 77 10000 8.7 230 02:19 27.10.2019
5492 Rain 17 1008 77 10000 9.8 230 01:24 27.10.2019
5493 Clouds 17 1008 59 10000 7.7 220 00:51 27.10.2019
5494 Clouds 18 1008 59 10000 7.7 220 00:32 27.10.2019
5495 Clouds 17 1008 59 10000 7.2 210 23:57 26.10.2019
5496 Clouds 17 1008 63 10000 6.2 210 23:39 26.10.2019
5497 Clouds 17 1008 63 10000 6.2 210 23:21 26.10.2019
5498 Clouds 17 1008 63 10000 6.2 210 22:57 26.10.2019
5499 Clouds 17 1008 67 10000 6.2 210 22:38 26.10.2019
5500 Clouds 17 1008 67 10000 5.1 200 22:19 26.10.2019
5501 Clouds 17 1008 67 10000 5.1 210 21:55 26.10.2019
5502 Clouds 17 1008 67 10000 5.1 210 21:36 26.10.2019
5503 Clouds 17 1008 67 10000 5.7 210 21:18 26.10.2019
5504 Clouds 17 1008 63 10000 5.7 210 20:42 26.10.2019
5505 Clouds 17 1009 59 10000 5.7 210 20:19 26.10.2019
5506 Clouds 17 1009 59 10000 5.7 210 19:43 26.10.2019
5507 Clouds 17 1009 63 10000 5.7 210 19:21 26.10.2019
5508 Clouds 17 1009 63 10000 5.7 210 19:21 26.10.2019
5509 Clouds 17 1009 63 10000 5.7 210 18:59 26.10.2019
5510 Clouds 17 1008 63 10000 5.1 200 18:40 26.10.2019
5511 Clouds 18 1009 63 10000 5.1 200 18:20 26.10.2019
5512 Clouds 18 1009 63 10000 5.1 200 17:59 26.10.2019
5513 Clouds 18 1009 63 10000 5.7 200 17:39 26.10.2019
5514 Clouds 18 1009 59 10000 5.1 210 17:20 26.10.2019
5515 Clouds 19 1009 59 10000 5.1 210 16:58 26.10.2019
5516 Clouds 19 1010 55 10000 8.2 230 16:39 26.10.2019
5517 Clouds 19 1010 59 10000 8.7 220 16:20 26.10.2019
5518 Clouds 19 1010 59 10000 8.7 220 15:40 26.10.2019
5519 Clouds 19 1010 63 10000 8.2 230 15:19 26.10.2019
5520 Clouds 19 1010 63 10000 8.2 230 15:19 26.10.2019
5521 Clouds 19 1011 63 10000 9.3 230 14:40 26.10.2019
5522 Clouds 19 1011 63 10000 9.3 230 14:40 26.10.2019
5523 Clouds 19 1011 63 10000 9.3 230 14:40 26.10.2019
5524 Clouds 19 1011 63 10000 9.3 220 14:21 26.10.2019
5525 Clouds 18 1012 66 0 8.43 226 13:59 26.10.2019
5526 Clouds 18 1012 66 0 8.43 226 13:40 26.10.2019
5527 Clouds 18 1012 66 0 8.43 226 13:20 26.10.2019
5528 Clouds 17 1011 91 0 4.47 191 12:46 26.10.2019
5529 Clouds 18 1011 78 0 3.13 232 12:23 26.10.2019
5530 Clouds 17 1012 72 10000 8.7 220 11:48 26.10.2019
5531 Clouds 17 1012 72 10000 8.7 220 11:28 26.10.2019
5532 Clouds 17 1012 72 10000 8.7 220 11:28 26.10.2019
5533 Clouds 17 1012 72 10000 8.7 220 11:28 26.10.2019
5534 Clouds 16 1012 72 10000 8.7 220 10:54 26.10.2019
5535 Clouds 16 1012 72 10000 6.7 210 10:36 26.10.2019
5536 Clouds 16 1012 72 10000 7.7 210 10:18 26.10.2019
5537 Clouds 16 1012 72 10000 8.2 220 09:41 26.10.2019
5538 Clouds 15 1012 77 10000 7.7 210 09:23 26.10.2019
5539 Clouds 15 1012 77 10000 7.7 210 08:43 26.10.2019
5540 Clouds 15 1012 77 10000 7.7 210 08:25 26.10.2019
5541 Clouds 15 1012 77 10000 7.7 210 07:46 26.10.2019
5542 Clouds 15 1012 77 10000 7.7 210 07:28 26.10.2019
5543 Clouds 14 1012 76 10000 8.2 220 06:45 26.10.2019
5544 Clouds 14 1012 76 10000 8.2 220 06:26 26.10.2019
5545 Clouds 14 1012 76 10000 7.7 210 05:21 26.10.2019
5546 Clouds 14 1012 76 10000 7.2 210 04:24 26.10.2019
5547 Clouds 14 1013 76 10000 7.2 200 02:47 26.10.2019
5548 Clouds 14 1014 76 10000 7.7 200 01:55 26.10.2019
5549 Clouds 14 1014 76 0 7.2 190 01:29 26.10.2019
5550 Clouds 14 1015 76 10000 5.1 200 00:25 26.10.2019
5551 Clouds 14 1015 76 10000 5.7 190 23:44 25.10.2019
5552 Clouds 13 1015 71 10000 5.7 180 23:21 25.10.2019
5553 Clouds 14 1015 71 10000 5.1 190 22:41 25.10.2019
5554 Clouds 13 1016 71 10000 5.1 190 22:23 25.10.2019
5555 Clouds 13 1016 71 10000 5.1 190 21:58 25.10.2019
5556 Clouds 13 1015 71 10000 4.6 180 21:40 25.10.2019
5557 Clouds 12 1016 76 10000 4.1 180 21:21 25.10.2019
5558 Clouds 12 1016 76 10000 4.1 180 20:57 25.10.2019
5559 Clouds 12 1017 76 10000 4.6 160 20:39 25.10.2019
5560 Clouds 12 1017 81 10000 3.6 180 20:19 25.10.2019
5561 Clouds 12 1017 81 10000 3.1 180 19:45 25.10.2019
5562 Clouds 13 1017 81 10000 3.1 180 19:26 25.10.2019
5563 Clouds 14 1017 76 10000 3.6 200 18:46 25.10.2019
5564 Clouds 14 1017 67 10000 3.1 210 18:24 25.10.2019
5565 Clouds 15 1017 67 10000 5.1 210 17:54 25.10.2019
5566 Clouds 15 1017 67 10000 5.1 210 17:36 25.10.2019
5567 Clouds 15 1017 67 10000 5.1 210 17:18 25.10.2019
5568 Clouds 15 1017 67 10000 6.2 220 16:42 25.10.2019
5569 Clouds 16 1017 63 10000 7.7 220 16:21 25.10.2019
5570 Clouds 16 1017 67 10000 6.2 220 15:41 25.10.2019
5571 Clouds 16 1017 67 10000 7.7 220 15:23 25.10.2019
5572 Clouds 16 1017 67 10000 7.7 220 15:23 25.10.2019
5573 Clouds 16 1017 67 10000 7.7 220 14:59 25.10.2019
5574 Clouds 16 1018 72 10000 5.7 220 14:41 25.10.2019
5575 Clouds 16 1018 72 10000 7.2 220 14:22 25.10.2019
5576 Clouds 15 1018 72 10000 8.2 220 13:44 25.10.2019
5577 Clouds 15 1018 72 10000 8.2 220 13:25 25.10.2019
5578 Clouds 15 1017 72 10000 6.7 220 12:59 25.10.2019
5579 Clouds 15 1017 77 10000 6.7 220 12:41 25.10.2019
5580 Clouds 14 1017 76 10000 7.7 230 12:20 25.10.2019
5581 Clouds 14 1017 76 10000 7.7 230 11:57 25.10.2019
5582 Clouds 14 1017 76 10000 6.2 230 11:38 25.10.2019
5583 Clouds 13 1017 82 10000 5.7 230 11:18 25.10.2019
5584 Clouds 13 1016 82 10000 5.7 220 10:40 25.10.2019
5585 Clouds 13 1016 87 10000 5.1 230 10:22 25.10.2019
5586 Clouds 12 1016 87 10000 5.1 230 09:57 25.10.2019
5587 Clouds 12 1016 87 10000 5.7 230 09:38 25.10.2019
5588 Clouds 12 1015 87 10000 5.7 230 09:19 25.10.2019
5589 Clouds 12 1015 87 10000 5.1 230 08:48 25.10.2019
5590 Clouds 13 1015 87 10000 5.1 230 08:29 25.10.2019
5591 Clouds 13 1014 93 10000 5.1 230 07:55 25.10.2019
5592 Clouds 13 1014 87 10000 7.2 240 07:34 25.10.2019
5593 Clouds 13 1013 82 10000 5.1 230 06:42 25.10.2019
5594 Clouds 14 1012 87 10000 3.6 230 05:57 25.10.2019
5595 Clouds 14 1012 82 10000 5.7 220 05:37 25.10.2019
5596 Clouds 14 1012 82 10000 4.6 230 04:52 25.10.2019
5597 Clouds 14 1011 82 10000 4.6 220 03:39 25.10.2019
5598 Clouds 15 1011 77 10000 4.6 210 01:54 25.10.2019
5599 Clouds 15 1010 77 10000 5.1 220 01:27 25.10.2019
5600 Clouds 15 1010 72 10000 5.1 210 00:22 25.10.2019
5601 Clouds 15 1009 77 10000 5.7 210 23:41 24.10.2019
5602 Clouds 15 1009 77 10000 5.7 210 23:23 24.10.2019
5603 Clouds 15 1009 77 10000 5.7 210 22:56 24.10.2019
5604 Clouds 15 1009 77 10000 4.1 210 22:37 24.10.2019
5605 Clouds 15 1008 82 10000 3.1 190 22:18 24.10.2019
5606 Clouds 15 1008 82 10000 3.1 190 21:56 24.10.2019
5607 Clouds 14 1008 87 10000 4.1 190 21:38 24.10.2019
5608 Clouds 14 1008 87 10000 3.1 180 21:19 24.10.2019
5609 Clouds 14 1008 87 10000 3.1 180 21:19 24.10.2019
5610 Clouds 14 1008 87 10000 3.1 180 20:57 24.10.2019
5611 Clouds 15 1008 87 10000 2.6 170 20:38 24.10.2019
5612 Clouds 15 1008 87 10000 2.6 160 20:20 24.10.2019
5613 Clouds 15 1008 87 10000 2.6 160 19:54 24.10.2019
5614 Clouds 15 1008 87 10000 2.1 160 19:36 24.10.2019
5615 Clouds 15 1008 82 10000 2.1 190 19:18 24.10.2019
5616 Clouds 15 1008 82 10000 2.1 190 19:18 24.10.2019
5617 Clouds 15 1007 82 10000 2.6 160 18:40 24.10.2019
5618 Clouds 15 1007 87 10000 3.1 160 18:22 24.10.2019
5619 Clouds 16 1007 87 10000 3.1 160 17:59 24.10.2019
5620 Clouds 16 1007 82 10000 3.6 170 17:39 24.10.2019
5621 Clouds 17 1006 77 10000 3.1 160 17:20 24.10.2019
5622 Clouds 17 1006 77 10000 3.1 160 17:20 24.10.2019
5623 Clouds 17 1006 77 10000 3.1 160 16:55 24.10.2019
5624 Clouds 17 1007 77 10000 4.1 180 16:37 24.10.2019
5625 Clouds 17 1007 77 10000 4.6 180 16:18 24.10.2019
5626 Clouds 17 1007 77 10000 4.6 180 15:55 24.10.2019
5627 Clouds 18 1007 77 10000 4.1 180 15:37 24.10.2019
5628 Clouds 17 1007 77 10000 4.6 210 15:19 24.10.2019
5629 Clouds 17 1007 77 10000 4.1 200 14:55 24.10.2019
5630 Clouds 17 1007 77 10000 4.1 200 14:36 24.10.2019
5631 Clouds 17 1007 77 10000 3.6 190 14:18 24.10.2019
5632 Clouds 17 1007 82 10000 4.1 180 13:40 24.10.2019
5633 Clouds 16 1007 77 10000 4.1 190 13:19 24.10.2019
5634 Clouds 16 1007 77 10000 4.1 190 12:57 24.10.2019
5635 Clouds 16 1007 82 10000 4.1 170 12:38 24.10.2019
5636 Clouds 15 1007 87 10000 3.6 150 12:19 24.10.2019
5637 Clouds 15 1007 87 10000 3.6 150 12:19 24.10.2019
5638 Clouds 14 1007 87 10000 3.6 150 11:56 24.10.2019
5639 Clouds 14 1008 93 6000 3.6 140 11:37 24.10.2019
5640 Mist 13 1008 93 5000 3.1 140 11:19 24.10.2019
5641 Mist 13 1008 93 5000 3.1 140 10:55 24.10.2019
5642 Mist 13 1008 93 4500 3.6 160 10:36 24.10.2019
5643 Mist 12 1008 100 4000 3.1 150 10:18 24.10.2019
5644 Mist 12 1008 100 3200 4.1 150 09:37 24.10.2019
5645 Mist 12 1007 100 3500 4.1 150 09:18 24.10.2019
5646 Mist 12 1007 93 3500 3.1 140 08:44 24.10.2019
5647 Mist 12 1007 93 4000 4.1 140 08:20 24.10.2019
5648 Mist 12 1007 93 4000 4.1 140 08:20 24.10.2019
5649 Mist 12 1007 93 4000 4.1 140 07:56 24.10.2019
5650 Mist 12 1007 93 4500 4.1 130 07:38 24.10.2019
5651 Clouds 12 1007 93 6000 3.1 140 07:20 24.10.2019
5652 Clouds 11 1008 93 6000 3.6 140 06:39 24.10.2019
5653 Clouds 12 1008 100 8000 3.1 140 05:57 24.10.2019
5654 Clouds 12 1008 100 8000 3.1 140 05:39 24.10.2019
5655 Clouds 12 1008 100 10000 4.1 130 04:49 24.10.2019
5656 Clouds 12 1009 93 10000 3.6 140 03:36 24.10.2019
5657 Clouds 12 1009 93 10000 3.1 130 02:51 24.10.2019
5658 Clouds 12 1009 100 10000 3.6 120 02:22 24.10.2019
5659 Clouds 12 1010 100 10000 3.6 130 01:33 24.10.2019
5660 Clouds 12 1010 93 10000 4.6 130 00:57 24.10.2019
5661 Clouds 12 1010 93 10000 4.1 120 00:38 24.10.2019
5662 Clouds 12 1010 93 10000 4.1 120 00:18 24.10.2019
5663 Clouds 13 1011 93 10000 4.6 130 23:42 23.10.2019
5664 Clouds 12 1011 93 10000 3.6 110 23:23 23.10.2019
5665 Clouds 12 1011 93 10000 3.6 110 22:57 23.10.2019
5666 Clouds 13 1011 93 10000 4.6 110 22:38 23.10.2019
5667 Clouds 13 1011 87 10000 4.1 120 22:18 23.10.2019
5668 Clouds 13 1011 87 10000 4.1 120 21:57 23.10.2019
5669 Clouds 13 1011 87 10000 4.1 120 21:57 23.10.2019
5670 Clouds 13 1012 87 10000 5.1 110 21:38 23.10.2019
5671 Clouds 13 1012 87 10000 5.1 110 21:19 23.10.2019
5672 Clouds 13 1012 87 10000 5.1 110 20:56 23.10.2019
5673 Clouds 13 1013 87 10000 3.6 100 20:38 23.10.2019
5674 Clouds 13 1013 87 10000 4.1 80 20:20 23.10.2019
5675 Clouds 13 1013 87 10000 4.1 80 19:55 23.10.2019
5676 Clouds 13 1014 87 10000 3.1 70 19:36 23.10.2019
5677 Clouds 13 1013 87 10000 4.1 90 19:18 23.10.2019
5678 Clouds 14 1013 87 10000 4.1 90 18:54 23.10.2019
5679 Clouds 14 1014 87 10000 3.6 90 18:36 23.10.2019
5680 Clouds 14 1014 87 10000 3.6 90 18:36 23.10.2019
5681 Clouds 14 1014 82 10000 3.1 100 18:18 23.10.2019
5682 Clouds 15 1014 82 10000 2.6 90 17:41 23.10.2019
5683 Clouds 15 1015 77 10000 4.1 70 17:20 23.10.2019
5684 Clouds 16 1015 77 10000 4.1 70 16:56 23.10.2019
5685 Clouds 16 1015 77 10000 4.1 80 16:37 23.10.2019
5686 Clouds 15 1015 77 10000 3.1 80 16:19 23.10.2019
5687 Clouds 15 1016 77 10000 3.6 100 15:41 23.10.2019
5688 Clouds 15 1016 77 10000 3.1 110 15:22 23.10.2019
5689 Clouds 15 1016 77 10000 3.1 110 14:58 23.10.2019
5690 Clouds 15 1016 77 10000 4.1 120 14:38 23.10.2019
5691 Clouds 15 1017 76 10000 3.6 100 14:19 23.10.2019
5692 Clouds 14 1017 82 10000 4.1 100 13:57 23.10.2019
5693 Clouds 14 1017 82 10000 4.1 100 13:39 23.10.2019
5694 Clouds 13 1018 76 10000 4.1 80 13:21 23.10.2019
5695 Clouds 13 1018 76 10000 4.1 80 12:55 23.10.2019
5696 Clouds 13 1018 81 10000 2.6 90 12:36 23.10.2019
5697 Clouds 12 1019 81 10000 2.6 90 12:18 23.10.2019
5698 Clouds 11 1019 81 10000 2.6 90 11:55 23.10.2019
5699 Clouds 11 1019 93 9000 2.1 100 11:37 23.10.2019
5700 Clouds 11 1019 100 8000 2.1 90 11:19 23.10.2019
5701 Clouds 10 1020 100 6000 1.5 90 10:42 23.10.2019
5702 Mist 10 1020 93 5000 1 0 10:24 23.10.2019
5703 Mist 9 1020 100 3800 1.5 90 09:42 23.10.2019
5704 Mist 9 1020 100 3800 1.5 90 09:24 23.10.2019
5705 Mist 9 1021 100 2000 0.5 0 08:59 23.10.2019
5706 Fog 9 1020 100 300 1 0 08:41 23.10.2019
5707 Fog 9 1020 100 150 1 0 08:23 23.10.2019
5708 Fog 9 1021 100 200 1 80 07:46 23.10.2019
5709 Fog 9 1021 100 250 1 90 07:22 23.10.2019
5710 Fog 9 1021 100 700 1.5 140 06:47 23.10.2019
5711 Mist 9 1021 100 4000 0.5 0 06:22 23.10.2019
5712 Mist 9 1021 100 3200 0.5 0 05:47 23.10.2019
5713 Mist 9 1021 100 1500 1 0 04:54 23.10.2019
5714 Fog 9 1022 100 500 1.5 150 03:35 23.10.2019
5715 Fog 9 1022 100 400 1.5 160 02:41 23.10.2019
5716 Fog 9 1023 100 800 1 0 01:33 23.10.2019
5717 Clouds 9 1023 100 400 1 150 00:56 23.10.2019
5718 Fog 10 1023 100 700 1 180 00:28 23.10.2019
5719 Fog 10 1023 93 700 2.1 160 23:40 22.10.2019
5720 Mist 10 1023 100 1500 1.5 170 23:19 22.10.2019
5721 Mist 10 1023 100 1500 1.5 170 22:57 22.10.2019
5722 Mist 10 1023 100 5000 1.5 170 22:39 22.10.2019
5723 Clouds 10 1023 100 8000 2.6 180 22:21 22.10.2019
5724 Clouds 10 1023 100 8000 2.6 180 21:56 22.10.2019
5725 Clouds 11 1023 100 8000 2.6 170 21:37 22.10.2019
5726 Clouds 11 1023 93 10000 2.6 160 21:18 22.10.2019
5727 Clouds 12 1023 93 10000 2.6 160 20:57 22.10.2019
5728 Clouds 12 1023 93 10000 2.1 170 20:39 22.10.2019
5729 Clouds 12 1023 93 10000 2.1 160 20:20 22.10.2019
5730 Clouds 12 1020 99 0 2.18 202 19:55 22.10.2019
5731 Clouds 13 1022 86 0 2.18 202 19:37 22.10.2019
5732 Clouds 13 1023 87 10000 1.5 200 19:19 22.10.2019
5733 Clouds 13 1023 87 10000 2.6 230 18:41 22.10.2019
5734 Clouds 13 1023 82 10000 3.1 210 18:22 22.10.2019
5735 Clouds 13 1023 82 10000 3.1 210 17:59 22.10.2019
5736 Clouds 13 1023 82 10000 2.6 230 17:39 22.10.2019
5737 Clouds 14 1023 82 10000 3.6 240 17:20 22.10.2019
5738 Clouds 14 1023 82 10000 3.6 240 17:20 22.10.2019
5739 Clouds 14 1023 82 10000 3.6 240 16:58 22.10.2019
5740 Clouds 14 1023 77 10000 2.6 220 16:39 22.10.2019
5741 Clouds 14 1023 82 10000 2.6 220 16:20 22.10.2019
5742 Clouds 14 1023 82 10000 2.6 220 15:58 22.10.2019
5743 Clouds 14 1023 82 10000 3.6 220 15:40 22.10.2019
5744 Clouds 14 1023 82 10000 3.6 230 15:18 22.10.2019
5745 Clouds 14 1023 82 10000 3.6 240 14:44 22.10.2019
5746 Clouds 14 1023 76 10000 4.6 230 14:21 22.10.2019
5747 Clouds 14 1023 76 10000 3.6 240 13:43 22.10.2019
5748 Clouds 14 1023 82 10000 5.1 230 13:23 22.10.2019
5749 Clouds 14 1023 82 10000 5.1 230 12:59 22.10.2019
5750 Clouds 14 1023 76 10000 5.7 230 12:41 22.10.2019
5751 Clouds 13 1023 82 10000 5.1 210 12:21 22.10.2019
5752 Clouds 13 1023 82 10000 5.1 210 11:59 22.10.2019
5753 Clouds 13 1023 82 10000 4.6 220 11:39 22.10.2019
5754 Clouds 13 1023 87 10000 3.6 200 11:21 22.10.2019
5755 Clouds 13 1023 87 10000 3.6 200 11:21 22.10.2019
5756 Clouds 12 1023 87 10000 3.6 200 10:58 22.10.2019
5757 Clouds 12 1022 81 10000 3.6 200 10:37 22.10.2019
5758 Clouds 12 1022 81 10000 3.6 200 10:37 22.10.2019
5759 Clouds 12 1022 81 10000 3.6 200 10:37 22.10.2019
5760 Clouds 12 1022 87 10000 4.1 200 10:19 22.10.2019
5761 Clouds 11 1022 87 10000 4.1 200 09:55 22.10.2019
5762 Clouds 11 1022 87 10000 3.6 200 09:37 22.10.2019
5763 Clouds 11 1022 87 10000 3.6 200 09:19 22.10.2019
5764 Clouds 11 1021 87 10000 3.1 190 08:43 22.10.2019
5765 Clouds 11 1021 87 10000 3.1 200 08:22 22.10.2019
5766 Clouds 11 1021 87 10000 2.6 190 07:50 22.10.2019
5767 Clouds 11 1021 87 10000 2.6 190 07:29 22.10.2019
5768 Clouds 11 1021 87 10000 2.6 190 06:52 22.10.2019
5769 Clouds 11 1021 87 10000 2.6 190 06:31 22.10.2019
5770 Clouds 11 1020 87 10000 2.6 210 05:59 22.10.2019
5771 Clouds 11 1020 87 10000 3.1 200 05:24 22.10.2019
5772 Clouds 11 1021 87 10000 2.1 180 03:38 22.10.2019
5773 Clouds 11 1021 87 10000 2.6 180 02:29 22.10.2019
5774 Clouds 11 1021 93 10000 2.6 170 01:32 22.10.2019
5775 Clouds 11 1021 87 10000 2.1 170 00:59 22.10.2019
5776 Clouds 11 1020 87 10000 2.1 190 00:40 22.10.2019
5777 Clouds 11 1020 87 10000 2.6 190 00:21 22.10.2019
5778 Clouds 11 1020 87 10000 2.6 190 23:57 21.10.2019
5779 Clouds 11 1020 87 10000 2.6 200 23:37 21.10.2019
5780 Clouds 12 1020 81 10000 2.6 200 23:19 21.10.2019
5781 Clouds 12 1020 81 10000 2.6 200 22:57 21.10.2019
5782 Clouds 12 1020 87 10000 2.6 190 22:38 21.10.2019
5783 Clouds 12 1020 87 10000 2.6 170 22:19 21.10.2019
5784 Clouds 12 1020 87 10000 2.6 170 21:56 21.10.2019
5785 Clouds 12 1020 87 10000 1.5 230 21:37 21.10.2019
5786 Clouds 13 1019 87 10000 2.6 250 21:19 21.10.2019
5787 Clouds 13 1019 87 10000 2.6 250 20:56 21.10.2019
5788 Clouds 13 1019 87 10000 4.1 260 20:37 21.10.2019
5789 Clouds 14 1019 77 10000 6.2 260 20:19 21.10.2019
5790 Clouds 14 1018 97 0 3.11 245 19:54 21.10.2019
5791 Clouds 14 1018 87 10000 3.1 230 19:36 21.10.2019
5792 Clouds 14 1018 100 10000 1 0 19:18 21.10.2019
5793 Clouds 14 1018 100 10000 1 0 19:18 21.10.2019
5794 Clouds 15 1018 100 10000 1 0 18:54 21.10.2019
5795 Clouds 15 1017 93 10000 0.5 0 18:36 21.10.2019
5796 Rain 16 1017 97 0 3.14 233 18:18 21.10.2019
5797 Clouds 17 1017 82 10000 1 0 17:39 21.10.2019
5798 Clouds 17 1016 82 10000 1.5 230 17:19 21.10.2019
5799 Clouds 17 1016 82 10000 1.5 230 16:58 21.10.2019
5800 Clouds 17 1016 82 10000 2.1 240 16:40 21.10.2019
5801 Clouds 17 1016 72 10000 3.6 230 16:21 21.10.2019
5802 Clouds 17 1016 72 10000 3.6 230 15:58 21.10.2019
5803 Clouds 17 1016 77 10000 2.6 220 15:39 21.10.2019
5804 Clouds 17 1016 82 10000 4.6 220 15:19 21.10.2019
5805 Clouds 16 1016 88 10000 4.1 220 14:40 21.10.2019
5806 Clouds 16 1016 87 10000 3.1 180 14:22 21.10.2019
5807 Clouds 16 1016 87 10000 3.1 180 13:59 21.10.2019
5808 Clouds 16 1016 87 10000 3.1 170 13:40 21.10.2019
5809 Clouds 15 1016 93 10000 2.6 140 13:20 21.10.2019
5810 Clouds 15 1016 93 10000 2.6 140 12:58 21.10.2019
5811 Clouds 14 1016 100 7000 2.6 140 12:40 21.10.2019
5812 Mist 14 1016 100 4500 2.1 150 12:20 21.10.2019
5813 Mist 13 1016 100 4500 2.1 150 11:54 21.10.2019
5814 Mist 13 1016 100 1500 2.6 130 11:54 21.10.2019
5815 Mist 13 1016 100 4500 2.1 150 11:54 21.10.2019
5816 Mist 13 1016 100 1500 2.6 130 11:36 21.10.2019
5817 Fog 13 1015 100 700 2.1 90 11:18 21.10.2019
5818 Fog 13 1015 100 800 2.1 100 10:54 21.10.2019
5819 Fog 13 1015 100 800 2.1 100 10:36 21.10.2019
5820 Fog 12 1014 100 700 3.1 80 10:18 21.10.2019
5821 Fog 12 1014 100 700 2.6 110 09:39 21.10.2019
5822 Fog 12 1014 100 700 3.1 90 09:21 21.10.2019
5823 Mist 12 1014 100 1100 1.5 80 08:41 21.10.2019
5824 Mist 12 1013 100 4500 4.1 80 08:23 21.10.2019
5825 Mist 12 1013 100 4500 4.1 80 07:55 21.10.2019
5826 Drizzle 12 1013 93 8000 3.6 90 07:36 21.10.2019
5827 Drizzle 12 1013 93 8000 3.6 80 07:18 21.10.2019
5828 Rain 12 1013 93 10000 3.6 70 06:43 21.10.2019
5829 Clouds 12 1013 93 10000 2.6 70 06:24 21.10.2019
5830 Clouds 11 1012 93 10000 2.1 60 05:33 21.10.2019
5831 Rain 11 1012 93 10000 6.2 70 03:41 21.10.2019
5832 Rain 11 1012 100 10000 4.6 50 02:40 21.10.2019
5833 Rain 11 1012 100 9000 4.6 50 02:20 21.10.2019
5834 Rain 11 1012 100 9000 4.6 50 02:20 21.10.2019
5835 Clouds 11 1013 100 10000 4.6 40 01:48 21.10.2019
5836 Clouds 11 1012 93 10000 5.1 50 01:20 21.10.2019
5837 Clouds 11 1012 93 10000 5.7 30 00:40 21.10.2019
5838 Clouds 11 1012 93 10000 5.7 30 00:22 21.10.2019
5839 Drizzle 11 1011 93 10000 5.1 20 23:40 20.10.2019
5840 Drizzle 11 1011 93 3500 5.1 30 23:21 20.10.2019
5841 Drizzle 11 1011 93 3500 5.1 30 22:55 20.10.2019
5842 Drizzle 11 1012 93 3500 5.1 40 22:36 20.10.2019
5843 Drizzle 11 1011 93 4000 4.6 30 22:18 20.10.2019
5844 Drizzle 11 1011 100 5000 4.1 30 21:40 20.10.2019
5845 Drizzle 11 1011 100 6000 3.6 40 21:22 20.10.2019
5846 Drizzle 11 1011 100 6000 3.6 40 20:59 20.10.2019
5847 Rain 11 1011 100 10000 3.6 30 20:39 20.10.2019
5848 Rain 11 1011 93 10000 3.6 50 20:18 20.10.2019
5849 Rain 11 1011 93 10000 3.6 50 19:56 20.10.2019
5850 Rain 11 1011 93 10000 3.1 40 19:37 20.10.2019
5851 Rain 11 1011 93 8000 3.1 40 19:19 20.10.2019
5852 Rain 12 1010 93 9000 2.6 40 18:42 20.10.2019
5853 Rain 12 1010 93 9000 1.5 80 18:23 20.10.2019
5854 Rain 12 1010 93 9000 1.5 80 17:59 20.10.2019
5855 Rain 12 1010 93 9000 2.1 50 17:40 20.10.2019
5856 Rain 12 1011 82 9000 1.5 30 17:21 20.10.2019
5857 Rain 13 1011 82 9000 1.5 30 16:56 20.10.2019
5858 Rain 13 1011 82 8000 1.5 340 16:37 20.10.2019
5859 Rain 13 1010 82 8000 2.1 20 16:18 20.10.2019
5860 Rain 13 1010 82 8000 2.1 20 15:54 20.10.2019
5861 Rain 13 1010 82 8000 2.1 20 15:54 20.10.2019
5862 Rain 13 1010 87 8000 2.1 30 15:36 20.10.2019
5863 Rain 13 1009 96 0 1.16 157.338 15:18 20.10.2019
5864 Rain 13 1010 82 9000 1 280 14:39 20.10.2019
5865 Rain 13 1010 87 9000 1 0 14:21 20.10.2019
5866 Rain 13 1010 87 9000 1 0 13:56 20.10.2019
5867 Rain 13 1010 87 10000 1.5 180 13:37 20.10.2019
5868 Rain 13 1010 87 10000 1.5 180 13:37 20.10.2019
5869 Clouds 13 1009 82 9000 2.1 150 13:19 20.10.2019
5870 Clouds 13 1009 82 9000 2.1 150 12:58 20.10.2019
5871 Clouds 13 1010 87 7000 2.6 170 12:39 20.10.2019
5872 Clouds 13 1010 87 7000 2.6 170 12:39 20.10.2019
5873 Clouds 13 1010 93 6000 2.1 190 12:21 20.10.2019
5874 Clouds 12 1010 93 6000 2.1 190 11:59 20.10.2019
5875 Clouds 12 1009 93 6000 2.6 160 11:40 20.10.2019
5876 Clouds 12 1009 93 6000 2.1 160 11:22 20.10.2019
5877 Clouds 12 1009 93 6000 2.1 160 10:58 20.10.2019
5878 Clouds 11 1009 93 6000 2.1 150 10:39 20.10.2019
5879 Clouds 11 1009 93 6000 2.1 150 10:39 20.10.2019
5880 Clouds 11 1009 93 6000 2.1 140 10:21 20.10.2019
5881 Clouds 11 1009 93 6000 2.1 140 09:55 20.10.2019
5882 Clouds 11 1009 100 6000 2.6 140 09:37 20.10.2019
5883 Rain 10 1009 100 5000 1 160 09:18 20.10.2019
5884 Rain 10 1008 100 4000 1.5 150 08:40 20.10.2019
5885 Mist 10 1008 100 4000 1.5 150 08:21 20.10.2019
5886 Clouds 10 1008 100 6000 1.5 120 07:47 20.10.2019
5887 Clouds 10 1008 100 6000 1.5 120 07:28 20.10.2019
5888 Clouds 9 1008 100 6000 2.1 160 06:30 20.10.2019
5889 Fog 9 1007 100 6000 2.1 160 04:30 20.10.2019
5890 Fog 10 1007 100 5000 1.5 150 03:51 20.10.2019
5891 Clouds 10 1006 93 0 3 199.1 03:22 20.10.2019
5892 Fog 10 1007 100 4500 1 0 02:49 20.10.2019
5893 Fog 9 1007 100 7000 1.5 170 02:22 20.10.2019
5894 Fog 10 1007 100 7000 2.1 170 01:50 20.10.2019
5895 Fog 10 1007 100 7000 1 150 01:22 20.10.2019
5896 Clear 10 1006 100 10000 1.5 190 00:49 20.10.2019
5897 Clear 10 1007 93 10000 2.1 190 00:21 20.10.2019
5898 Clear 10 1007 93 10000 2.1 190 00:21 20.10.2019
5899 Clear 10 1007 93 10000 2.1 190 00:21 20.10.2019
5900 Clear 10 1007 93 10000 2.1 190 23:55 19.10.2019
5901 Clear 11 1006 93 10000 2.6 190 23:36 19.10.2019
5902 Clear 11 1006 93 10000 2.6 190 23:18 19.10.2019
5903 Clear 11 1006 93 10000 2.6 200 22:41 19.10.2019
5904 Clear 11 1006 93 10000 2.6 170 22:22 19.10.2019
5905 Clear 11 1006 93 10000 2.6 170 21:57 19.10.2019
5906 Clouds 11 1005 100 10000 2.1 160 21:39 19.10.2019
5907 Clouds 12 1005 93 10000 2.1 180 21:20 19.10.2019
5908 Clouds 12 1005 93 10000 2.1 190 20:43 19.10.2019
5909 Clouds 12 1005 87 10000 2.6 210 20:21 19.10.2019
5910 Clouds 13 1005 87 10000 2.6 210 19:56 19.10.2019
5911 Clouds 13 1005 87 10000 3.1 200 19:37 19.10.2019
5912 Rain 13 1005 93 10000 4.1 210 19:19 19.10.2019
5913 Rain 13 1004 90 0 3.42 198.366 18:41 19.10.2019
5914 Rain 13 1004 87 10000 3.1 160 18:22 19.10.2019
5915 Rain 13 1004 87 10000 2.6 170 17:42 19.10.2019
5916 Rain 14 1004 87 10000 4.1 170 17:23 19.10.2019
5917 Rain 14 1004 87 10000 4.1 170 16:59 19.10.2019
5918 Clouds 14 1004 82 10000 4.6 170 16:38 19.10.2019
5919 Clouds 14 1004 77 10000 5.7 170 16:19 19.10.2019
5920 Clouds 14 1004 77 10000 6.7 180 15:44 19.10.2019
5921 Clouds 14 1004 77 10000 6.7 180 15:26 19.10.2019
5922 Clouds 14 1004 82 10000 6.7 160 14:40 19.10.2019
5923 Clouds 14 1005 82 10000 5.7 160 14:21 19.10.2019
5924 Clouds 14 1005 82 10000 5.7 160 13:59 19.10.2019
5925 Rain 14 1005 87 10000 4.6 170 13:41 19.10.2019
5926 Rain 14 1005 82 10000 5.7 170 13:23 19.10.2019
5927 Rain 14 1005 82 10000 5.7 170 12:59 19.10.2019
5928 Clouds 14 1005 71 10000 5.7 170 12:39 19.10.2019
5929 Clouds 14 1005 76 10000 5.1 180 12:21 19.10.2019
5930 Clouds 13 1005 76 10000 5.1 180 11:56 19.10.2019
5931 Clouds 13 1005 76 10000 4.6 170 11:36 19.10.2019
5932 Clear 13 1005 81 10000 4.1 160 11:18 19.10.2019
5933 Clear 12 1005 81 10000 4.1 170 10:40 19.10.2019
5934 Clear 11 1005 81 10000 4.1 170 10:22 19.10.2019
5935 Clear 11 1005 81 10000 3.6 160 09:58 19.10.2019
5936 Clear 11 1005 81 10000 3.6 150 09:39 19.10.2019
5937 Clear 10 1005 81 10000 3.6 150 09:21 19.10.2019
5938 Clear 10 1006 81 10000 3.6 170 08:41 19.10.2019
5939 Clear 10 1006 81 10000 3.6 170 08:22 19.10.2019
5940 Clear 10 1006 81 10000 4.6 170 07:59 19.10.2019
5941 Clear 10 1006 81 10000 4.1 160 07:41 19.10.2019
5942 Clear 10 1006 81 10000 4.1 160 07:23 19.10.2019
5943 Clear 9 1006 81 10000 3.6 160 06:35 19.10.2019
5944 Clear 9 1006 81 10000 3.6 160 05:51 19.10.2019
5945 Clear 9 1006 81 10000 4.6 160 04:26 19.10.2019
5946 Clear 9 1006 81 10000 4.6 160 04:26 19.10.2019
5947 Clear 9 1006 81 10000 4.6 170 03:18 19.10.2019
5948 Clear 10 1007 81 10000 4.6 180 02:21 19.10.2019
5949 Clear 10 1007 81 10000 4.1 180 01:49 19.10.2019
5950 Clear 10 1007 81 10000 4.1 200 00:52 19.10.2019
5951 Clear 10 1007 81 10000 4.1 200 00:29 19.10.2019
5952 Clear 11 1007 81 10000 4.1 190 23:59 18.10.2019
5953 Clear 11 1006 76 10000 4.6 190 23:38 18.10.2019
5954 Clear 11 1006 76 10000 4.6 190 23:20 18.10.2019
5955 Clear 11 1006 76 10000 4.6 190 22:55 18.10.2019
5956 Clear 11 1006 76 10000 5.1 180 22:36 18.10.2019
5957 Clear 11 1006 76 10000 5.1 190 22:18 18.10.2019
5958 Clear 11 1006 76 10000 5.1 190 21:55 18.10.2019
5959 Clear 11 1006 76 10000 6.2 200 21:36 18.10.2019
5960 Clear 11 1006 71 10000 5.7 200 21:18 18.10.2019
5961 Clouds 11 1006 76 10000 5.7 200 20:43 18.10.2019
5962 Clouds 11 1005 81 10000 5.1 200 20:24 18.10.2019
5963 Clouds 11 1005 81 10000 5.1 200 19:58 18.10.2019
5964 Clouds 12 1005 76 10000 5.1 200 19:40 18.10.2019
5965 Clouds 12 1005 76 10000 5.1 200 19:40 18.10.2019
5966 Clouds 12 1005 76 10000 5.1 210 19:22 18.10.2019
5967 Clouds 12 1005 76 10000 5.1 210 18:59 18.10.2019
5968 Clouds 12 1005 76 10000 5.1 210 18:59 18.10.2019
5969 Clouds 12 1004 76 10000 6.2 210 18:41 18.10.2019
5970 Clouds 12 1004 71 10000 6.2 220 18:23 18.10.2019
5971 Clouds 12 1004 71 10000 6.2 220 17:56 18.10.2019
5972 Clouds 13 1004 71 10000 6.7 210 17:37 18.10.2019
5973 Clouds 13 1004 71 10000 6.7 210 17:37 18.10.2019
5974 Clouds 13 1003 76 10000 8.2 210 17:19 18.10.2019
5975 Clouds 13 1003 76 10000 8.2 220 16:43 18.10.2019
5976 Clouds 13 1003 76 10000 8.2 220 16:43 18.10.2019
5977 Rain 13 1003 76 10000 8.2 210 16:21 18.10.2019
5978 Rain 12 1003 76 10000 8.2 210 15:58 18.10.2019
5979 Clouds 12 1002 82 10000 6.7 210 15:39 18.10.2019
5980 Thunderstorm 12 1002 76 10000 11.8 210 15:20 18.10.2019
5981 Thunderstorm 14 1002 76 10000 11.8 210 14:57 18.10.2019
5982 Clouds 15 1001 67 10000 8.2 170 14:38 18.10.2019
5983 Clouds 17 1002 72 10000 7.7 170 14:20 18.10.2019
5984 Clouds 17 1002 72 10000 7.7 170 13:57 18.10.2019
5985 Clouds 17 1003 72 10000 6.7 170 13:39 18.10.2019
5986 Clouds 17 1003 72 10000 7.2 160 13:20 18.10.2019
5987 Clouds 17 1003 72 10000 7.2 160 12:55 18.10.2019
5988 Clouds 16 1004 77 10000 5.7 170 12:37 18.10.2019
5989 Clouds 15 1005 82 10000 5.7 170 12:19 18.10.2019
5990 Clouds 14 1005 82 10000 5.7 160 11:42 18.10.2019
5991 Clouds 14 1005 82 10000 5.1 160 11:21 18.10.2019
5992 Clouds 14 1005 82 10000 5.1 160 11:21 18.10.2019
5993 Clouds 14 1006 82 10000 4.1 170 10:59 18.10.2019
5994 Clouds 13 1005 82 10000 5.1 160 10:41 18.10.2019
5995 Clouds 13 1005 87 10000 5.1 160 10:22 18.10.2019
5996 Clouds 13 1005 87 10000 5.1 160 09:58 18.10.2019
5997 Clouds 13 1006 87 10000 4.6 160 09:39 18.10.2019
5998 Clouds 12 1006 93 10000 4.6 170 09:20 18.10.2019
5999 Clouds 12 1006 100 10000 3.1 160 08:45 18.10.2019
6000 Clouds 12 1006 100 10000 3.1 160 08:26 18.10.2019
6001 Clear 12 1006 93 10000 3.6 160 07:59 18.10.2019
6002 Clear 12 1006 100 10000 3.1 150 07:41 18.10.2019
6003 Clear 12 1007 100 10000 3.1 160 07:18 18.10.2019
6004 Clouds 12 1007 100 10000 3.1 160 06:38 18.10.2019
6005 Clouds 12 1007 93 10000 3.1 180 06:19 18.10.2019
6006 Mist 12 1008 93 2500 3.1 170 05:54 18.10.2019
6007 Clouds 12 1008 100 6000 2.1 170 05:20 18.10.2019
6008 Clouds 13 1008 100 10000 2.6 200 03:42 18.10.2019
6009 Drizzle 13 1008 93 7000 1.5 200 03:19 18.10.2019
6010 Drizzle 13 1008 100 10000 1 210 02:32 18.10.2019
6011 Clouds 13 1008 93 10000 4.6 190 01:42 18.10.2019
6012 Drizzle 13 1008 93 10000 4.1 170 01:23 18.10.2019
6013 Drizzle 13 1008 100 3000 3.1 150 00:43 18.10.2019
6014 Rain 13 1008 100 6000 4.6 150 00:20 18.10.2019
6015 Rain 13 1009 93 10000 4.6 140 23:42 17.10.2019
6016 Rain 13 1009 93 10000 3.6 130 23:21 17.10.2019
6017 Rain 13 1009 93 10000 3.6 130 22:58 17.10.2019
6018 Rain 13 1009 93 10000 3.1 120 22:39 17.10.2019
6019 Clouds 13 1009 93 10000 3.6 120 22:20 17.10.2019
6020 Clouds 13 1009 93 10000 3.6 120 21:58 17.10.2019
6021 Clouds 13 1010 93 10000 3.6 140 21:40 17.10.2019
6022 Clouds 13 1010 93 10000 3.6 140 21:21 17.10.2019
6023 Clouds 13 1010 93 10000 3.6 140 20:58 17.10.2019
6024 Clouds 13 1010 93 10000 3.1 130 20:40 17.10.2019
6025 Clear 13 1010 93 10000 2.1 130 20:20 17.10.2019
6026 Clear 13 1010 93 10000 2.1 130 19:59 17.10.2019
6027 -273 0 0 0 0 0 19:41 17.10.2019
6028 Clouds 13 1010 87 10000 2.6 130 19:20 17.10.2019
6029 Clouds 13 1010 87 10000 2.6 130 19:20 17.10.2019
6030 Clouds 13 1010 87 10000 2.6 130 18:58 17.10.2019
6031 Clouds 14 1010 87 10000 2.6 170 18:38 17.10.2019
6032 Clouds 14 1010 82 10000 2.1 170 18:20 17.10.2019
6033 Clouds 15 1010 82 10000 1.5 200 17:43 17.10.2019
6034 Clouds 15 1010 82 10000 1.5 200 17:24 17.10.2019
6035 Clouds 15 1010 82 10000 1 0 16:58 17.10.2019
6036 Clouds 15 1010 77 10000 1.5 0 16:39 17.10.2019
6037 Clouds 15 1010 77 10000 2.1 210 16:18 17.10.2019
6038 Clouds 15 1010 77 10000 2.1 210 15:56 17.10.2019
6039 Clouds 15 1010 77 10000 2.6 220 15:38 17.10.2019
6040 Clouds 15 1010 77 10000 1.5 230 15:20 17.10.2019
6041 Clouds 15 1010 77 10000 1.5 230 14:56 17.10.2019
6042 Clouds 15 1010 82 10000 1.5 220 14:38 17.10.2019
6043 Clouds 15 1010 93 10000 2.1 270 14:19 17.10.2019
6044 Drizzle 15 1010 93 10000 4.6 300 13:39 17.10.2019
6045 Drizzle 14 1010 93 9000 5.1 210 13:20 17.10.2019
6046 Drizzle 14 1010 93 9000 5.1 210 12:58 17.10.2019
6047 Drizzle 14 1009 93 4500 5.7 220 12:37 17.10.2019
6048 Clouds 14 1009 87 10000 4.6 220 12:19 17.10.2019
6049 Drizzle 15 1009 93 7000 4.6 210 11:42 17.10.2019
6050 Drizzle 15 1009 93 7000 4.6 210 11:42 17.10.2019
6051 Drizzle 14 1009 100 7000 5.7 210 11:22 17.10.2019
6052 Drizzle 14 1009 100 7000 5.7 210 10:59 17.10.2019
6053 Clouds 14 1009 93 7000 4.6 210 10:41 17.10.2019
6054 Clouds 14 1009 93 7000 4.6 210 10:41 17.10.2019
6055 Clouds 14 1008 93 10000 5.1 210 10:19 17.10.2019
6056 Clouds 14 1008 93 10000 5.1 210 09:56 17.10.2019
6057 Clouds 14 1008 93 10000 5.1 210 09:56 17.10.2019
6058 Clouds 14 1008 93 10000 4.6 200 09:38 17.10.2019
6059 Clouds 14 1008 93 10000 4.6 210 09:19 17.10.2019
6060 Clouds 14 1007 93 7000 4.6 200 08:49 17.10.2019
6061 Clouds 13 1007 93 7000 4.6 200 08:27 17.10.2019
6062 Clouds 13 1007 100 7000 4.1 200 07:59 17.10.2019
6063 Drizzle 13 1007 100 7000 4.1 200 07:41 17.10.2019
6064 Drizzle 13 1007 100 7000 4.6 190 07:21 17.10.2019
6065 Drizzle 13 1007 100 7000 4.6 190 06:55 17.10.2019
6066 Drizzle 13 1007 93 5000 5.1 200 06:37 17.10.2019
6067 Clouds 13 1007 100 10000 4.1 190 06:18 17.10.2019
6068 Rain 13 1006 95 0 0.89 209 05:40 17.10.2019
6069 Clouds 13 1007 93 9000 4.6 200 05:19 17.10.2019
6070 Clouds 13 1007 93 10000 4.1 190 04:48 17.10.2019
6071 Rain 13 1005 67 0 6.26 225 03:46 17.10.2019
6072 Rain 14 1007 93 8000 4.1 190 01:57 17.10.2019
6073 Rain 14 1007 100 10000 4.1 180 00:42 17.10.2019
6074 Rain 14 1007 87 10000 4.1 180 00:21 17.10.2019
6075 Rain 14 1007 87 10000 4.1 180 23:59 16.10.2019
6076 Clouds 14 1008 87 10000 4.1 180 23:40 16.10.2019
6077 Clouds 14 1008 87 10000 4.6 190 23:19 16.10.2019
6078 Clouds 14 1008 87 10000 4.6 190 22:54 16.10.2019
6079 Clouds 13 1008 87 10000 5.1 190 22:36 16.10.2019
6080 Clouds 14 1008 87 10000 5.1 180 22:18 16.10.2019
6081 Clouds 14 1008 87 10000 5.1 180 21:54 16.10.2019
6082 Clouds 14 1008 87 10000 5.1 180 21:36 16.10.2019
6083 Clouds 14 1007 87 10000 5.1 180 21:18 16.10.2019
6084 Clouds 14 1007 87 10000 5.1 180 20:56 16.10.2019
6085 Clouds 14 1008 82 10000 4.6 180 20:38 16.10.2019
6086 Clouds 14 1008 82 10000 4.1 180 20:19 16.10.2019
6087 Clouds 14 1008 82 10000 2.6 190 19:42 16.10.2019
6088 Clouds 14 1008 77 10000 4.6 190 19:21 16.10.2019
6089 Clouds 14 1008 77 10000 4.6 190 19:21 16.10.2019
6090 Clouds 14 1008 77 10000 4.6 190 18:59 16.10.2019
6091 Clouds 14 1008 77 10000 2.6 150 18:39 16.10.2019
6092 Clouds 14 1008 77 10000 3.1 160 18:19 16.10.2019
6093 Clouds 14 1008 77 10000 3.1 160 18:19 16.10.2019
6094 Clouds 15 1008 77 10000 3.1 160 17:56 16.10.2019
6095 Clouds 15 1008 77 10000 2.1 190 17:37 16.10.2019
6096 Clouds 15 1008 72 10000 3.6 200 17:19 16.10.2019
6097 Clouds 16 1008 72 10000 3.6 200 16:58 16.10.2019
6098 Clouds 15 1008 72 10000 5.7 220 16:38 16.10.2019
6099 Clouds 16 1008 67 10000 5.1 230 16:20 16.10.2019
6100 Clouds 16 1008 67 10000 5.1 230 15:54 16.10.2019
6101 Clouds 16 1008 67 10000 5.1 230 15:54 16.10.2019
6102 Clouds 16 1008 67 10000 5.1 230 15:54 16.10.2019
6103 -273 0 0 0 0 0 15:54 16.10.2019
6104 Clouds 15 1008 72 10000 4.6 220 15:36 16.10.2019
6105 Clouds 15 1008 72 10000 6.2 230 15:18 16.10.2019
6106 Clouds 15 1008 72 10000 6.2 230 15:18 16.10.2019
6107 Clouds 15 1008 72 10000 6.2 230 14:55 16.10.2019
6108 Clouds 15 1008 72 10000 6.2 230 14:36 16.10.2019
6109 Clouds 14 1009 76 10000 5.1 240 14:18 16.10.2019
6110 Clouds 14 1009 82 10000 5.7 230 13:42 16.10.2019
6111 Clouds 14 1009 82 10000 5.7 230 13:23 16.10.2019
6112 Clouds 14 1009 82 10000 5.7 230 12:57 16.10.2019
6113 Clouds 13 1009 87 10000 6.2 220 12:39 16.10.2019
6114 Clouds 13 1009 87 10000 5.7 240 12:18 16.10.2019
6115 Clouds 13 1009 87 8000 4.6 240 11:42 16.10.2019
6116 Clouds 13 1008 87 7000 5.7 240 11:18 16.10.2019
6117 Clouds 12 1008 93 6000 5.1 240 10:38 16.10.2019
6118 Rain 13 1008 93 6000 5.7 240 10:20 16.10.2019
6119 Rain 13 1008 93 6000 5.7 240 09:55 16.10.2019
6120 Drizzle 12 1008 93 6000 5.7 240 09:36 16.10.2019
6121 Drizzle 12 1008 93 3100 4.1 250 09:18 16.10.2019
6122 Drizzle 12 1007 93 2500 4.6 260 08:42 16.10.2019
6123 Drizzle 12 1007 93 2500 4.6 260 08:23 16.10.2019
6124 Rain 13 1007 100 5000 3.6 260 07:45 16.10.2019
6125 Rain 13 1007 100 5000 3.6 260 07:45 16.10.2019
6126 Rain 13 1007 100 5000 3.6 260 07:25 16.10.2019
6127 Rain 13 1007 100 3500 3.1 240 06:58 16.10.2019
6128 Rain 13 1007 100 3500 3.1 240 06:58 16.10.2019
6129 Rain 13 1007 100 5000 2.6 230 06:39 16.10.2019
6130 Rain 13 1007 100 5000 2.6 230 06:39 16.10.2019
6131 Rain 13 1007 93 6000 3.1 240 05:48 16.10.2019
6132 Rain 13 1006 93 4000 3.1 270 03:24 16.10.2019
6133 Rain 14 1007 100 4000 2.6 290 02:47 16.10.2019
6134 Rain 14 1006 100 3500 3.6 300 01:19 16.10.2019
6135 Rain 14 1006 100 3500 3.1 290 00:49 16.10.2019
6136 Rain 14 1006 100 3500 3.1 290 00:27 16.10.2019
6137 Rain 15 1006 93 8000 4.1 300 23:41 15.10.2019
6138 Rain 15 1006 93 8000 4.1 300 23:22 15.10.2019
6139 Rain 15 1006 100 10000 5.7 280 22:56 15.10.2019
6140 Clouds 15 1006 100 10000 5.1 300 22:38 15.10.2019
6141 Rain 15 1006 93 10000 4.6 290 22:20 15.10.2019
6142 -273 0 0 0 0 0 21:56 15.10.2019
6143 -273 0 0 0 0 0 21:55 15.10.2019
6144 Rain 15 1006 93 10000 2.6 300 21:37 15.10.2019
6145 Rain 15 1006 87 10000 2.1 300 21:19 15.10.2019
6146 Rain 16 1006 87 10000 2.1 300 20:56 15.10.2019
6147 Clouds 16 1006 87 10000 2.1 290 20:37 15.10.2019
6148 Clouds 16 1006 93 10000 2.6 270 20:19 15.10.2019
6149 Clouds 16 1006 93 10000 2.6 270 19:56 15.10.2019
6150 Clouds 16 1005 80 0 2.567 334 19:37 15.10.2019
6151 Clouds 16 1005 82 10000 1 250 19:19 15.10.2019
6152 Clouds 17 1005 77 10000 1 280 18:44 15.10.2019
6153 Clouds 17 1005 77 10000 1 280 18:26 15.10.2019
6154 -273 0 0 0 0 0 17:56 15.10.2019
6155 Clouds 19 1005 68 10000 2.1 250 17:38 15.10.2019
6156 Clouds 19 1005 72 10000 2.6 250 17:19 15.10.2019
6157 Clouds 20 1005 64 10000 2.6 250 16:45 15.10.2019
6158 Clouds 20 1005 64 10000 2.6 250 16:22 15.10.2019
6159 Clouds 20 1005 68 10000 2.1 240 15:58 15.10.2019
6160 Clouds 20 1005 64 10000 1.5 230 15:40 15.10.2019
6161 Clouds 20 1005 60 10000 1.5 240 15:20 15.10.2019
6162 Clouds 20 1005 60 10000 1.5 240 14:57 15.10.2019
6163 Clouds 20 1005 64 10000 3.6 250 14:38 15.10.2019
6164 Clouds 20 1005 64 10000 3.6 250 14:38 15.10.2019
6165 Clouds 20 1005 68 10000 3.1 250 14:19 15.10.2019
6166 Clouds 20 1005 68 10000 3.6 270 13:44 15.10.2019
6167 Clouds 20 1006 68 10000 3.6 250 13:21 15.10.2019
6168 Clouds 20 1006 68 10000 3.6 250 12:59 15.10.2019
6169 Clouds 19 1006 72 10000 4.1 250 12:41 15.10.2019
6170 Clouds 19 1006 72 10000 4.1 250 12:21 15.10.2019
6171 Clouds 18 1006 72 10000 4.1 250 11:56 15.10.2019
6172 Clouds 18 1006 77 10000 3.1 220 11:37 15.10.2019
6173 Clouds 17 1006 82 10000 1.5 170 11:18 15.10.2019
6174 Clear 16 1005 82 10000 1.5 160 10:43 15.10.2019
6175 Clear 15 1005 87 10000 2.1 140 10:19 15.10.2019
6176 Clear 14 1005 87 10000 2.1 140 09:57 15.10.2019
6177 Clear 13 1005 93 10000 1.5 150 09:37 15.10.2019
6178 Clear 13 1005 93 10000 1.5 150 09:37 15.10.2019
6179 Clear 13 1005 93 10000 2.6 140 09:19 15.10.2019
6180 Fog 12 1005 93 10000 2.1 110 08:43 15.10.2019
6181 Fog 12 1005 93 10000 1.5 120 08:22 15.10.2019
6182 Fog 12 1005 93 10000 1.5 120 07:58 15.10.2019
6183 Fog 12 1005 93 10000 2.1 130 07:39 15.10.2019
6184 Fog 12 1005 93 10000 2.1 130 07:20 15.10.2019
6185 Fog 12 1005 100 10000 2.6 130 06:45 15.10.2019
6186 Clear 12 1005 100 10000 2.6 130 06:26 15.10.2019
6187 Clear 13 1005 93 10000 2.1 110 05:43 15.10.2019
6188 Clear 13 1005 93 10000 2.1 110 05:24 15.10.2019
6189 Clear 13 1006 93 10000 4.1 130 04:33 15.10.2019
6190 Clear 13 1006 93 10000 2.1 120 03:38 15.10.2019
6191 Clear 13 1006 93 10000 2.1 120 03:38 15.10.2019
6192 Clear 14 1007 93 10000 2.6 110 02:51 15.10.2019
6193 Clear 14 1007 93 10000 2.6 130 01:49 15.10.2019
6194 Clear 14 1007 87 10000 2.6 120 01:22 15.10.2019
6195 Clear 14 1008 87 10000 3.1 110 00:50 15.10.2019
6196 Clear 14 1008 87 10000 3.1 110 00:22 15.10.2019
6197 Clear 14 1008 87 10000 3.6 100 23:46 14.10.2019
6198 Clear 14 1008 87 10000 4.1 110 23:21 14.10.2019
6199 Clear 14 1008 87 10000 4.1 110 22:59 14.10.2019
6200 Clear 14 1009 87 10000 4.1 100 22:39 14.10.2019
6201 Clear 14 1009 87 10000 2.6 90 22:19 14.10.2019
6202 Clear 14 1009 87 10000 2.6 90 22:19 14.10.2019
6203 Clear 15 1009 87 10000 2.6 90 21:56 14.10.2019
6204 Clear 15 1009 87 10000 3.6 90 21:38 14.10.2019
6205 Clear 15 1010 82 10000 3.6 80 21:20 14.10.2019
6206 Clear 15 1010 82 10000 3.6 80 21:20 14.10.2019
6207 Clear 15 1010 82 10000 3.6 80 20:56 14.10.2019
6208 Clear 15 1010 82 10000 4.6 80 20:37 14.10.2019
6209 Clear 15 1010 82 10000 4.1 80 20:18 14.10.2019
6210 Rain 15 1010 77 10000 4.1 60 19:43 14.10.2019
6211 -273 0 0 0 0 0 19:24 14.10.2019
6212 Rain 16 1010 77 10000 4.1 60 19:24 14.10.2019
6213 Clear 16 1010 77 10000 4.1 60 18:59 14.10.2019
6214 Clear 16 1010 77 10000 4.1 60 18:59 14.10.2019
6215 Clouds 16 1010 72 10000 4.1 70 18:40 14.10.2019
6216 Clouds 16 1011 72 10000 4.1 70 18:20 14.10.2019
6217 Clouds 16 1011 72 10000 4.1 70 18:20 14.10.2019
6218 Clouds 17 1011 72 10000 4.1 70 17:58 14.10.2019
6219 Clouds 17 1011 68 10000 4.1 80 17:40 14.10.2019
6220 Clouds 17 1011 72 10000 4.1 80 17:21 14.10.2019
6221 Clouds 17 1011 72 10000 4.1 80 17:21 14.10.2019
6222 Clouds 18 1012 68 10000 4.1 100 16:44 14.10.2019
6223 Clear 18 1012 68 10000 4.6 90 16:22 14.10.2019
6224 Clear 18 1012 68 10000 4.6 90 15:57 14.10.2019
6225 Clear 18 1012 63 10000 4.1 110 15:38 14.10.2019
6226 Clear 18 1013 63 10000 3.6 120 15:20 14.10.2019
6227 Clear 17 1013 67 10000 2.6 110 14:43 14.10.2019
6228 Clear 17 1013 67 10000 2.6 110 14:24 14.10.2019
6229 Clouds 17 1014 67 10000 3.1 120 13:57 14.10.2019
6230 Clouds 18 1014 63 10000 1.5 0 13:38 14.10.2019
6231 Clouds 18 1014 67 10000 1.5 0 13:19 14.10.2019
6232 Clouds 17 1015 67 10000 1 0 12:41 14.10.2019
6233 Clouds 16 1015 72 10000 1.5 320 12:19 14.10.2019
6234 Clouds 16 1015 67 10000 1.5 320 11:48 14.10.2019
6235 Clouds 16 1015 72 10000 3.1 270 11:27 14.10.2019
6236 Clouds 15 1015 72 10000 3.1 270 10:59 14.10.2019
6237 Clouds 15 1015 82 10000 3.6 270 10:41 14.10.2019
6238 Clouds 14 1014 87 10000 2.6 250 10:21 14.10.2019
6239 Clouds 14 1014 87 10000 2.6 250 10:21 14.10.2019
6240 Clouds 14 1014 87 10000 2.6 250 09:57 14.10.2019
6241 Clouds 14 1014 87 10000 2.6 220 09:38 14.10.2019
6242 Clouds 13 1014 93 10000 2.1 220 09:19 14.10.2019
6243 Clouds 13 1014 93 10000 1.5 210 08:46 14.10.2019
6244 Clouds 12 1013 93 10000 2.6 220 08:23 14.10.2019
6245 Clouds 13 1013 87 10000 2.6 220 07:44 14.10.2019
6246 Clouds 13 1013 87 10000 2.6 210 07:21 14.10.2019
6247 Clouds 13 1012 87 10000 3.1 230 06:54 14.10.2019
6248 Clouds 13 1012 87 10000 3.1 230 06:27 14.10.2019
6249 Clouds 14 1012 82 10000 4.6 230 05:51 14.10.2019
6250 Clouds 14 1012 87 10000 5.1 240 04:50 14.10.2019
6251 Clouds 15 1011 82 10000 4.6 230 03:48 14.10.2019
6252 Clouds 15 1011 82 10000 7.2 250 03:22 14.10.2019
6253 Clouds 16 1009 82 10000 6.7 240 01:46 14.10.2019
6254 Clouds 16 1009 88 10000 4.6 230 01:18 14.10.2019
6255 Clear 17 1009 88 10000 6.2 230 00:36 14.10.2019
6256 Clear 17 1008 88 10000 5.7 240 00:18 14.10.2019
6257 Clouds 17 1008 93 10000 6.2 240 23:40 13.10.2019
6258 Rain 17 1007 93 10000 7.7 250 23:19 13.10.2019
6259 Rain 18 1007 93 10000 7.7 250 22:54 13.10.2019
6260 Rain 18 1006 72 10000 5.1 190 22:36 13.10.2019
6261 Clouds 19 1006 72 10000 4.6 180 22:18 13.10.2019
6262 Clouds 19 1006 72 10000 4.6 180 22:18 13.10.2019
6263 Clouds 19 1006 72 10000 4.6 180 21:55 13.10.2019
6264 Clouds 19 1006 77 10000 4.1 190 21:36 13.10.2019
6265 Clouds 19 1006 82 10000 3.6 180 21:18 13.10.2019
6266 Clouds 19 1006 82 10000 3.6 180 21:18 13.10.2019
6267 Clouds 19 1006 82 10000 3.6 180 20:55 13.10.2019
6268 Clouds 19 1006 82 10000 3.6 180 20:55 13.10.2019
6269 Clouds 19 1006 82 10000 4.6 190 20:36 13.10.2019
6270 Clouds 19 1006 82 10000 3.1 180 20:18 13.10.2019
6271 Clouds 19 1006 82 10000 3.1 180 19:54 13.10.2019
6272 Clouds 19 1006 82 10000 4.1 160 19:36 13.10.2019
6273 Clouds 19 1006 88 10000 3.1 160 19:18 13.10.2019
6274 Clouds 19 1006 88 10000 3.1 170 18:39 13.10.2019
6275 Clouds 19 1005 82 10000 4.1 170 18:20 13.10.2019
6276 Clouds 19 1005 82 10000 4.1 170 18:20 13.10.2019
6277 Clouds 19 1005 82 10000 4.1 170 17:59 13.10.2019
6278 Clouds 19 1005 94 0 1.79 170 17:41 13.10.2019
6279 Clouds 20 1005 95 0 1.79 174 17:22 13.10.2019
6280 Clouds 20 1006 77 10000 5.7 170 16:43 13.10.2019
6281 Clouds 20 1006 83 10000 5.1 170 16:19 13.10.2019
6282 Clouds 20 1006 83 10000 5.1 170 15:58 13.10.2019
6283 Clouds 20 1007 77 10000 5.1 170 15:39 13.10.2019
6284 Clouds 19 1007 82 10000 4.6 170 15:20 13.10.2019
6285 Clouds 19 1007 82 10000 4.6 170 14:58 13.10.2019
6286 Clouds 19 1007 88 10000 4.6 180 14:39 13.10.2019
6287 Clouds 18 1008 93 10000 4.6 170 14:20 13.10.2019
6288 Clouds 18 1008 93 10000 4.6 170 13:56 13.10.2019
6289 Clouds 18 1008 88 10000 4.6 170 13:37 13.10.2019
6290 Clouds 18 1008 88 10000 4.1 170 13:19 13.10.2019
6291 Clouds 17 1008 88 10000 4.1 170 12:56 13.10.2019
6292 Clouds 17 1008 93 10000 4.1 160 12:37 13.10.2019
6293 Rain 16 1009 93 10000 3.6 170 12:18 13.10.2019
6294 Rain 16 1009 93 10000 3.6 170 11:55 13.10.2019
6295 Clouds 16 1009 93 10000 2.6 150 11:37 13.10.2019
6296 Clear 15 1009 93 10000 3.1 150 11:18 13.10.2019
6297 Clear 15 1009 93 10000 3.1 150 11:18 13.10.2019
6298 Clear 15 1009 93 10000 2.6 140 10:41 13.10.2019
6299 Clear 15 1009 93 10000 2.6 140 10:41 13.10.2019
6300 Clouds 14 1009 93 10000 2.1 130 10:23 13.10.2019
6301 Clouds 14 1009 93 10000 2.1 130 10:23 13.10.2019
6302 Clouds 12 1009 100 10000 1.5 130 09:41 13.10.2019
6303 Clouds 12 1009 93 8000 1.5 120 09:22 13.10.2019
6304 Clouds 12 1009 93 8000 1.5 120 09:22 13.10.2019
6305 Clouds 11 1009 93 8000 1.5 120 08:59 13.10.2019
6306 Clouds 11 1009 93 7000 2.1 130 08:40 13.10.2019
6307 Mist 11 1009 100 4000 1.5 100 08:21 13.10.2019
6308 Clouds 11 1009 100 8000 1.5 100 07:46 13.10.2019
6309 Clouds 11 1009 100 6000 2.1 110 07:21 13.10.2019
6310 Clouds 11 1009 100 6000 1.5 100 06:41 13.10.2019
6311 Clouds 11 1010 100 6000 2.1 110 05:46 13.10.2019
6312 Clouds 11 1010 100 8000 2.1 90 04:49 13.10.2019
6313 Clouds 11 1010 100 8000 2.1 90 04:29 13.10.2019
6314 Clouds 11 1011 100 10000 1.5 50 02:42 13.10.2019
6315 Clouds 11 1011 100 8000 1 0 01:59 13.10.2019
6316 Rain 11 1011 100 10000 1 0 01:30 13.10.2019
6317 Clouds 11 1011 100 10000 0.5 0 00:49 13.10.2019
6318 Clouds 11 1011 100 10000 0.5 0 00:22 13.10.2019
6319 Clouds 11 1011 100 10000 0.5 0 23:57 12.10.2019
6320 Clouds 11 1011 100 10000 1 140 23:39 12.10.2019
6321 Clouds 11 1011 100 10000 1.5 140 23:20 12.10.2019
6322 Clouds 11 1011 100 10000 1.5 140 22:57 12.10.2019
6323 Clouds 11 1011 100 10000 0.5 0 22:38 12.10.2019
6324 Rain 11 1011 100 10000 0.5 0 22:20 12.10.2019
6325 Rain 11 1011 100 10000 0.5 0 21:55 12.10.2019
6326 Drizzle 11 1010 100 10000 0.5 0 21:37 12.10.2019
6327 Drizzle 11 1010 93 10000 0.5 0 21:18 12.10.2019
6328 Drizzle 11 1010 93 10000 1.5 320 20:41 12.10.2019
6329 Drizzle 11 1011 93 6000 1.5 290 20:23 12.10.2019
6330 Drizzle 11 1010 100 5000 2.1 290 19:40 12.10.2019
6331 Drizzle 11 1010 100 5000 2.1 290 19:40 12.10.2019
6332 Drizzle 11 1010 100 5000 2.6 280 19:22 12.10.2019
6333 Drizzle 11 1010 100 6000 2.1 250 18:59 12.10.2019
6334 Drizzle 11 1010 100 6000 2.1 250 18:40 12.10.2019
6335 Clouds 12 1010 100 10000 2.6 260 18:22 12.10.2019
6336 Clouds 12 1010 93 10000 2.6 250 17:44 12.10.2019
6337 Drizzle 12 1010 93 8000 3.6 260 17:19 12.10.2019
6338 Drizzle 12 1010 93 8000 3.6 260 16:55 12.10.2019
6339 Drizzle 13 1010 93 8000 2.6 280 16:37 12.10.2019
6340 Drizzle 13 1010 93 4500 5.1 280 16:18 12.10.2019
6341 Drizzle 13 1010 93 4000 2.6 240 15:44 12.10.2019
6342 Drizzle 13 1009 93 5000 3.1 240 15:25 12.10.2019
6343 Drizzle 13 1009 93 5000 3.1 240 15:25 12.10.2019
6344 Drizzle 13 1009 93 5000 3.1 240 14:57 12.10.2019
6345 Drizzle 13 1009 93 5000 3.6 240 14:38 12.10.2019
6346 Drizzle 13 1009 93 4500 4.1 240 14:19 12.10.2019
6347 Drizzle 13 1009 93 3000 3.1 230 13:44 12.10.2019
6348 Drizzle 13 1009 93 3000 3.1 230 13:26 12.10.2019
6349 Drizzle 12 1009 93 3500 2.1 200 12:40 12.10.2019
6350 Drizzle 12 1008 100 5000 2.1 210 12:22 12.10.2019
6351 Drizzle 12 1008 100 5000 2.1 210 12:22 12.10.2019
6352 Drizzle 12 1008 100 5000 2.1 210 12:22 12.10.2019
6353 Drizzle 12 1008 100 5000 2.1 210 11:59 12.10.2019
6354 Drizzle 12 1008 100 3200 2.1 210 11:40 12.10.2019
6355 Rain 12 1008 100 4000 2.1 210 11:22 12.10.2019
6356 Rain 11 1008 100 4000 2.1 210 10:56 12.10.2019
6357 Rain 11 1008 100 4000 2.1 210 10:56 12.10.2019
6358 Rain 11 1007 100 3500 2.1 230 10:37 12.10.2019
6359 Rain 11 1007 93 6000 2.1 210 10:18 12.10.2019
6360 Rain 11 1007 93 6000 2.1 210 09:56 12.10.2019
6361 Rain 11 1007 93 6000 2.1 210 09:56 12.10.2019
6362 -273 0 0 0 0 0 09:55 12.10.2019
6363 Rain 11 1007 93 10000 2.1 230 09:37 12.10.2019
6364 Rain 11 1006 93 6000 2.1 220 09:19 12.10.2019
6365 Rain 11 1006 93 6000 2.1 220 09:19 12.10.2019
6366 Rain 11 1006 93 9000 2.1 250 08:42 12.10.2019
6367 Rain 11 1006 93 9000 2.6 270 08:22 12.10.2019
6368 Rain 11 1006 93 9000 3.1 270 07:40 12.10.2019
6369 Rain 11 1006 93 10000 3.1 270 07:22 12.10.2019
6370 Rain 13 1005 93 10000 8.2 310 05:54 12.10.2019
6371 Rain 14 1005 93 10000 8.2 310 05:25 12.10.2019
6372 Clouds 16 1004 72 10000 7.7 230 04:29 12.10.2019
6373 Clouds 16 1005 77 10000 9.8 230 03:46 12.10.2019
6374 Rain 16 1005 77 10000 8.2 230 02:37 12.10.2019
6375 Rain 16 1004 85 0 2.68 280 01:31 12.10.2019
6376 Clouds 16 1005 77 10000 8.7 220 00:54 12.10.2019
6377 Clouds 16 1005 77 10000 8.7 220 00:35 12.10.2019
6378 Clouds 16 1005 77 10000 9.8 220 23:54 11.10.2019
6379 Clouds 16 1005 77 10000 9.8 220 23:36 11.10.2019
6380 Clouds 16 1005 77 10000 8.7 220 23:18 11.10.2019
6381 Clouds 15 1005 77 10000 8.7 220 22:37 11.10.2019
6382 Clouds 15 1005 82 10000 8.7 220 22:18 11.10.2019
6383 Clouds 15 1005 82 10000 8.2 220 21:42 11.10.2019
6384 Clouds 14 1006 87 10000 9.3 220 21:21 11.10.2019
6385 Clouds 14 1006 87 10000 9.3 220 20:57 11.10.2019
6386 Rain 14 1006 87 10000 8.7 220 20:38 11.10.2019
6387 Rain 14 1006 87 10000 8.7 220 20:38 11.10.2019
6388 Rain 14 1006 87 10000 9.8 220 20:19 11.10.2019
6389 Rain 14 1006 87 10000 9.8 220 19:55 11.10.2019
6390 Clouds 14 1006 82 10000 9.8 210 19:36 11.10.2019
6391 Rain 15 1006 82 10000 9.3 220 19:18 11.10.2019
6392 Rain 14 1006 82 10000 9.3 220 19:18 11.10.2019
6393 Rain 14 1006 82 10000 9.3 220 19:18 11.10.2019
6394 Rain 14 1006 82 10000 9.3 220 19:18 11.10.2019
6395 Rain 15 1006 82 10000 9.3 220 19:18 11.10.2019
6396 Rain 15 1007 82 10000 9.3 220 18:54 11.10.2019
6397 Rain 15 1007 82 10000 9.3 220 18:36 11.10.2019
6398 Rain 15 1007 82 10000 8.7 220 18:18 11.10.2019
6399 Clouds 15 1007 82 10000 10.3 220 17:55 11.10.2019
6400 Clouds 15 1007 82 10000 10.3 220 17:36 11.10.2019
6401 Clouds 15 1008 82 10000 9.3 230 17:18 11.10.2019
6402 Clouds 15 1007 82 10000 8.2 220 16:40 11.10.2019
6403 Rain 15 1008 77 10000 8.7 210 16:20 11.10.2019
6404 Rain 15 1008 77 10000 8.7 210 16:20 11.10.2019
6405 Rain 15 1008 77 10000 8.7 210 15:58 11.10.2019
6406 Rain 15 1008 82 10000 7.7 220 15:38 11.10.2019
6407 Rain 15 1008 82 10000 8.7 220 15:19 11.10.2019
6408 Rain 15 1008 82 10000 10.3 220 14:47 11.10.2019
6409 Rain 15 1008 82 10000 10.3 220 14:29 11.10.2019
6410 Clouds 15 1008 82 10000 7.7 220 13:56 11.10.2019
6411 Clouds 14 1009 87 10000 7.7 220 13:37 11.10.2019
6412 Rain 14 1009 87 10000 7.7 210 13:19 11.10.2019
6413 Rain 14 1009 82 10000 9.3 210 12:54 11.10.2019
6414 Rain 14 1009 82 10000 9.3 210 12:36 11.10.2019
6415 Rain 14 1010 82 10000 8.2 220 12:18 11.10.2019
6416 Rain 14 1009 82 10000 7.7 210 11:41 11.10.2019
6417 Rain 14 1009 82 10000 8.7 220 11:22 11.10.2019
6418 Clouds 13 1009 82 10000 8.7 220 10:58 11.10.2019
6419 Rain 13 1009 87 10000 9.3 220 10:40 11.10.2019
6420 Clouds 13 1009 82 10000 9.3 220 10:22 11.10.2019
6421 Clouds 13 1009 82 10000 9.3 220 09:55 11.10.2019
6422 Clouds 12 1009 82 10000 7.2 220 09:37 11.10.2019
6423 Clouds 12 1009 87 10000 7.2 220 09:18 11.10.2019
6424 Rain 12 1009 87 10000 7.2 220 08:55 11.10.2019
6425 Rain 12 1009 87 10000 7.2 220 08:36 11.10.2019
6426 Rain 12 1009 93 8000 8.7 220 08:18 11.10.2019
6427 Rain 12 1009 87 10000 8.2 220 07:41 11.10.2019
6428 Rain 12 1009 87 10000 8.7 220 07:22 11.10.2019
6429 Rain 12 1009 81 10000 9.8 220 06:47 11.10.2019
6430 Rain 12 1009 76 10000 8.2 210 06:22 11.10.2019
6431 Clear 13 1009 76 10000 6.7 210 05:39 11.10.2019
6432 Clear 12 1010 76 10000 6.7 210 04:59 11.10.2019
6433 Clear 12 1010 81 10000 6.2 220 04:24 11.10.2019
6434 Clouds 11 1011 81 10000 6.2 220 02:32 11.10.2019
6435 Clear 11 1012 81 10000 4.6 210 00:50 11.10.2019
6436 Clear 11 1012 81 10000 4.1 210 00:29 11.10.2019
6437 Clear 10 1012 81 10000 4.1 210 23:44 10.10.2019
6438 Clear 10 1012 81 10000 4.1 210 23:22 10.10.2019
6439 Clear 10 1012 81 10000 4.1 210 22:58 10.10.2019
6440 Clear 11 1012 87 10000 4.6 210 22:39 10.10.2019
6441 Clear 11 1012 87 10000 4.6 220 22:21 10.10.2019
6442 Clear 11 1012 87 10000 4.6 220 21:58 10.10.2019
6443 Clear 11 1012 87 10000 4.1 220 21:40 10.10.2019
6444 Clear 11 1012 87 10000 4.6 230 21:21 10.10.2019
6445 Clear 11 1012 87 10000 4.6 230 20:57 10.10.2019
6446 Clouds 11 1011 87 10000 4.1 240 20:38 10.10.2019
6447 Clouds 11 1011 87 10000 5.7 230 20:18 10.10.2019
6448 -273 0 0 0 0 0 19:54 10.10.2019
6449 Clouds 11 1011 81 10000 4.6 220 19:36 10.10.2019
6450 Clouds 11 1011 87 10000 4.1 230 19:18 10.10.2019
6451 Clouds 11 1011 87 10000 5.1 230 18:41 10.10.2019
6452 Clouds 12 1010 81 10000 5.1 220 18:20 10.10.2019
6453 Clouds 12 1010 81 10000 5.1 230 17:55 10.10.2019
6454 Clouds 12 1010 81 10000 5.1 230 17:37 10.10.2019
6455 Clouds 12 1010 81 10000 5.7 230 17:18 10.10.2019
6456 Rain 12 1010 76 10000 5.7 250 16:47 10.10.2019
6457 Rain 12 1010 76 10000 5.7 250 16:26 10.10.2019
6458 Rain 12 1010 76 10000 5.7 250 16:26 10.10.2019
6459 Rain 12 1010 93 10000 4.1 240 15:58 10.10.2019
6460 Rain 12 1010 76 10000 12.9 270 15:38 10.10.2019
6461 Rain 13 1009 71 10000 8.2 230 15:20 10.10.2019
6462 Rain 14 1009 71 10000 8.2 230 14:55 10.10.2019
6463 Clouds 14 1009 71 10000 7.7 230 14:36 10.10.2019
6464 Clouds 14 1009 76 10000 6.7 240 14:18 10.10.2019
6465 Clouds 13 1009 76 10000 8.2 240 13:46 10.10.2019
6466 Clouds 13 1009 76 10000 8.2 240 13:27 10.10.2019
6467 Clouds 13 1008 76 10000 7.2 230 12:59 10.10.2019
6468 Clouds 12 1008 81 10000 6.2 230 12:40 10.10.2019
6469 Clouds 12 1008 81 10000 7.2 230 12:20 10.10.2019
6470 Clouds 12 1008 81 10000 7.2 230 11:58 10.10.2019
6471 Clouds 11 1008 87 10000 6.2 230 11:38 10.10.2019
6472 Clouds 11 1008 87 10000 6.7 230 11:19 10.10.2019
6473 Clouds 10 1007 93 10000 6.7 230 10:45 10.10.2019
6474 Clouds 10 1007 93 10000 6.7 230 10:26 10.10.2019
6475 Clouds 10 1007 87 10000 6.7 240 09:58 10.10.2019
6476 Clouds 10 1007 93 10000 6.2 230 09:39 10.10.2019
6477 Clouds 9 1006 93 10000 6.2 230 09:21 10.10.2019
6478 Clouds 9 1006 93 10000 6.2 230 08:58 10.10.2019
6479 Clouds 9 1006 93 10000 4.6 220 08:38 10.10.2019
6480 Clouds 8 1005 93 10000 4.6 230 08:19 10.10.2019
6481 Clouds 8 1005 93 10000 4.6 230 08:19 10.10.2019
6482 Clear 8 1005 93 10000 5.1 230 07:45 10.10.2019
6483 Clear 8 1005 93 10000 5.1 230 07:23 10.10.2019
6484 Clear 8 1005 93 10000 5.7 240 06:49 10.10.2019
6485 Clear 8 1005 93 10000 5.7 240 06:49 10.10.2019
6486 Clear 8 1005 93 10000 5.7 240 06:29 10.10.2019
6487 Clear 9 1004 87 10000 5.7 230 05:28 10.10.2019
6488 Clear 9 1004 93 10000 6.2 230 04:55 10.10.2019
6489 Clear 9 1004 87 10000 6.2 240 04:33 10.10.2019
6490 Clear 9 1004 93 10000 4.6 220 02:19 10.10.2019
6491 Clear 9 1003 93 10000 4.1 210 01:36 10.10.2019
6492 Clear 9 1003 93 10000 4.1 210 01:36 10.10.2019
6493 Clouds 9 1003 93 10000 4.6 230 01:18 10.10.2019
6494 Clear 10 1003 93 10000 5.1 240 00:25 10.10.2019
6495 Clouds 10 1003 93 10000 4.1 220 23:42 09.10.2019
6496 Clouds 10 1003 93 10000 3.6 210 23:23 09.10.2019
6497 Clouds 10 1003 93 10000 3.6 210 22:59 09.10.2019
6498 Rain 10 1003 93 10000 3.1 210 22:41 09.10.2019
6499 Rain 9 1003 100 10000 2.1 210 22:22 09.10.2019
6500 Rain 9 1003 100 10000 2.1 210 22:22 09.10.2019
6501 Rain 9 1003 100 10000 2.1 210 21:56 09.10.2019
6502 Clouds 9 1003 93 10000 2.6 210 21:38 09.10.2019
6503 Clouds 9 1003 93 10000 2.6 210 21:19 09.10.2019
6504 Clouds 9 1003 93 10000 2.6 210 20:55 09.10.2019
6505 Clear 9 1003 93 10000 2.6 210 20:36 09.10.2019
6506 Clear 10 1003 100 10000 2.6 220 20:18 09.10.2019
6507 Clear 9 1003 100 10000 2.6 220 20:18 09.10.2019
6508 Clear 10 1003 100 10000 2.6 220 20:18 09.10.2019
6509 Clouds 10 1003 93 10000 3.1 230 19:43 09.10.2019
6510 Rain 10 1003 93 10000 2.6 260 19:23 09.10.2019
6511 Rain 11 1003 93 10000 7.7 250 18:40 09.10.2019
6512 Rain 11 1002 76 10000 5.7 210 18:21 09.10.2019
6513 Clouds 12 1002 76 10000 4.6 210 17:59 09.10.2019
6514 Clouds 12 1002 76 10000 4.6 210 17:40 09.10.2019
6515 Clouds 13 1003 76 10000 6.2 230 17:22 09.10.2019
6516 Clouds 13 1003 76 10000 6.2 230 16:57 09.10.2019
6517 Rain 13 1003 71 10000 6.2 230 16:39 09.10.2019
6518 Rain 13 1003 71 10000 6.2 220 16:21 09.10.2019
6519 Rain 13 1003 82 10000 5.1 210 15:57 09.10.2019
6520 Rain 13 1003 82 10000 5.1 210 15:38 09.10.2019
6521 Rain 13 1003 82 10000 5.1 210 15:38 09.10.2019
6522 Rain 13 1003 76 10000 5.7 220 15:19 09.10.2019
6523 Rain 13 1004 76 10000 7.7 220 14:55 09.10.2019
6524 Rain 13 1004 76 10000 7.7 220 14:37 09.10.2019
6525 Clouds 14 1004 71 10000 7.2 220 14:18 09.10.2019
6526 Clouds 14 1004 71 10000 8.7 220 13:39 09.10.2019
6527 Clouds 14 1004 71 10000 8.7 220 13:39 09.10.2019
6528 Rain 14 1004 71 10000 7.7 220 13:20 09.10.2019
6529 Rain 14 1004 71 10000 7.7 220 12:57 09.10.2019
6530 Rain 14 1004 71 10000 7.7 220 12:38 09.10.2019
6531 Clouds 14 1005 76 10000 6.7 210 12:20 09.10.2019
6532 Clouds 13 1005 76 10000 6.7 210 11:55 09.10.2019
6533 Clouds 13 1005 82 10000 6.2 220 11:36 09.10.2019
6534 Clouds 13 1005 87 10000 6.2 220 11:18 09.10.2019
6535 Clouds 12 1005 87 10000 5.7 210 10:43 09.10.2019
6536 Clouds 12 1005 87 10000 6.2 220 10:20 09.10.2019
6537 Clouds 12 1005 87 10000 6.2 220 09:57 09.10.2019
6538 Clouds 12 1005 87 10000 6.2 220 09:38 09.10.2019
6539 Clouds 12 1005 87 10000 6.2 220 09:38 09.10.2019
6540 Clouds 11 1005 87 10000 6.7 220 09:18 09.10.2019
6541 Clouds 11 1005 87 10000 5.7 210 08:39 09.10.2019
6542 Clouds 11 1005 87 10000 4.1 210 08:21 09.10.2019
6543 Clouds 11 1005 87 10000 4.6 220 07:54 09.10.2019
6544 Clouds 11 1005 87 10000 4.6 220 07:36 09.10.2019
6545 Clouds 11 1005 87 10000 5.7 220 07:18 09.10.2019
6546 Clouds 11 1005 87 10000 5.1 230 06:47 09.10.2019
6547 Clouds 11 1004 93 10000 5.1 230 05:55 09.10.2019
6548 Clouds 11 1004 93 10000 5.1 230 05:19 09.10.2019
6549 Clouds 11 1004 93 10000 5.7 230 04:20 09.10.2019
6550 Clouds 11 1004 93 10000 5.1 220 02:45 09.10.2019
6551 Rain 12 1003 87 10000 6.7 230 01:42 09.10.2019
6552 Clouds 12 1003 93 10000 4.6 230 01:19 09.10.2019
6553 Clouds 12 1003 93 10000 4.6 230 01:19 09.10.2019
6554 Clear 11 1003 87 10000 4.6 220 00:56 09.10.2019
6555 Clear 11 1003 87 10000 4.6 220 00:38 09.10.2019
6556 Clear 11 1003 87 10000 4.6 220 00:38 09.10.2019
6557 Clear 11 1003 93 10000 3.6 220 00:19 09.10.2019
6558 Clear 11 1003 87 10000 4.1 220 23:39 08.10.2019
6559 Clouds 11 1003 93 10000 3.6 220 23:18 08.10.2019
6560 Clouds 11 1003 93 10000 3.6 220 22:56 08.10.2019
6561 Clouds 11 1003 93 10000 3.6 220 22:38 08.10.2019
6562 Clear 11 1004 87 10000 3.1 220 22:19 08.10.2019
6563 Clear 12 1004 87 10000 3.1 220 21:57 08.10.2019
6564 Clear 12 1002 92 0 4.23 215.65 21:39 08.10.2019
6565 Clear 12 1003 87 10000 3.1 240 21:19 08.10.2019
6566 Clear 12 1003 87 10000 3.1 240 21:19 08.10.2019
6567 Clear 12 1003 87 10000 3.1 240 20:56 08.10.2019
6568 Rain 13 1003 87 0 4.1 230 20:37 08.10.2019
6569 Clouds 13 1003 87 10000 4.1 240 20:19 08.10.2019
6570 Clouds 13 1003 87 10000 4.1 240 19:57 08.10.2019
6571 Clouds 13 1003 82 10000 5.1 240 19:38 08.10.2019
6572 Clouds 13 1003 82 10000 5.7 230 19:20 08.10.2019
6573 Clouds 14 1003 82 10000 5.7 230 18:46 08.10.2019
6574 Clouds 14 1003 82 10000 5.7 230 18:28 08.10.2019
6575 Clouds 14 1003 82 10000 5.7 230 17:59 08.10.2019
6576 Clouds 14 1003 82 10000 4.6 230 17:40 08.10.2019
6577 Clouds 15 1003 82 10000 5.1 230 17:20 08.10.2019
6578 Clouds 15 1003 82 10000 5.1 230 16:57 08.10.2019
6579 Clouds 15 1003 82 10000 5.1 230 16:38 08.10.2019
6580 Clouds 15 1004 82 10000 5.7 230 16:20 08.10.2019
6581 Clouds 15 1004 82 10000 5.1 230 15:41 08.10.2019
6582 Clouds 15 1004 82 10000 5.1 230 15:41 08.10.2019
6583 Clouds 15 1003 82 10000 4.6 240 15:21 08.10.2019
6584 Clouds 15 1003 82 10000 4.6 240 14:58 08.10.2019
6585 Clouds 15 1004 82 10000 4.6 240 14:39 08.10.2019
6586 Clouds 15 1004 82 10000 5.1 240 14:20 08.10.2019
6587 Clouds 14 1004 82 10000 5.1 240 13:57 08.10.2019
6588 Clouds 14 1004 87 10000 5.7 240 13:38 08.10.2019
6589 Clouds 14 1004 82 10000 5.7 250 13:19 08.10.2019
6590 Clouds 14 1004 82 10000 5.7 250 13:19 08.10.2019
6591 Clouds 14 1004 87 10000 6.2 250 12:56 08.10.2019
6592 Clouds 14 1004 87 10000 6.2 250 12:37 08.10.2019
6593 Clouds 14 1004 87 10000 5.7 250 12:18 08.10.2019
6594 Clouds 13 1004 87 10000 4.6 250 11:41 08.10.2019
6595 Clouds 13 1004 87 10000 4.6 250 11:41 08.10.2019
6596 Clouds 13 1004 93 10000 5.7 240 11:23 08.10.2019
6597 Clouds 13 1004 93 10000 5.7 240 10:56 08.10.2019
6598 Clouds 12 1004 93 10000 5.7 250 10:37 08.10.2019
6599 Clouds 12 1004 93 10000 6.2 240 10:19 08.10.2019
6600 Clouds 12 1004 93 10000 6.2 240 09:55 08.10.2019
6601 Clouds 12 1004 93 10000 6.2 230 09:37 08.10.2019
6602 Drizzle 12 1004 93 6000 5.7 230 09:19 08.10.2019
6603 Drizzle 12 1004 93 5000 6.2 220 08:42 08.10.2019
6604 Drizzle 11 1004 100 6000 5.7 210 08:23 08.10.2019
6605 Drizzle 11 1005 100 6000 5.1 210 07:44 08.10.2019
6606 Drizzle 11 1005 100 6000 4.6 200 07:21 08.10.2019
6607 Rain 11 1006 93 10000 5.1 190 06:51 08.10.2019
6608 Rain 11 1006 93 10000 5.1 190 06:28 08.10.2019
6609 Rain 11 1007 100 10000 4.1 180 05:46 08.10.2019
6610 Rain 11 1007 100 10000 4.1 180 05:26 08.10.2019
6611 Rain 11 1008 87 10000 3.6 190 04:31 08.10.2019
6612 Rain 10 1009 81 10000 4.1 180 03:28 08.10.2019
6613 Clouds 10 1010 81 10000 4.6 180 02:37 08.10.2019
6614 Clouds 10 1011 81 10000 2.6 150 01:47 08.10.2019
6615 Clouds 10 1011 81 10000 2.6 150 01:28 08.10.2019
6616 Clouds 10 1012 87 10000 2.6 150 00:48 08.10.2019
6617 Clouds 10 1013 81 10000 2.6 140 00:21 08.10.2019
6618 Clouds 9 1013 81 10000 3.6 130 23:41 07.10.2019
6619 Clouds 9 1014 81 10000 3.6 150 23:20 07.10.2019
6620 Clouds 9 1014 81 10000 3.6 150 23:20 07.10.2019
6621 Clouds 9 1014 81 10000 3.6 150 22:57 07.10.2019
6622 Clouds 9 1014 76 10000 3.6 150 22:39 07.10.2019
6623 Clouds 9 1014 76 10000 3.6 140 22:20 07.10.2019
6624 Clouds 9 1014 76 10000 3.6 140 21:57 07.10.2019
6625 Clouds 9 1015 76 10000 4.1 130 21:38 07.10.2019
6626 Clear 9 1016 76 10000 3.6 130 21:20 07.10.2019
6627 Clear 9 1016 76 10000 3.6 130 21:20 07.10.2019
6628 Clear 9 1016 76 10000 3.6 130 20:57 07.10.2019
6629 Clear 9 1016 76 10000 3.6 130 20:39 07.10.2019
6630 Clear 9 1016 71 10000 3.1 130 20:20 07.10.2019
6631 Clear 9 1016 71 10000 3.1 130 19:58 07.10.2019
6632 Clear 9 1017 71 10000 3.1 130 19:39 07.10.2019
6633 Clear 9 1017 71 10000 3.1 120 19:19 07.10.2019
6634 Clear 10 1017 71 10000 3.1 130 18:56 07.10.2019
6635 Clear 10 1017 71 10000 3.1 130 18:38 07.10.2019
6636 Clear 11 1017 62 10000 3.1 130 18:18 07.10.2019
6637 Clear 11 1017 62 10000 3.1 130 18:18 07.10.2019
6638 Clear 11 1017 62 10000 3.1 130 17:43 07.10.2019
6639 Clear 11 1017 62 10000 4.1 130 17:20 07.10.2019
6640 Clear 12 1018 54 10000 4.6 130 16:58 07.10.2019
6641 Clear 12 1018 54 10000 4.6 130 16:39 07.10.2019
6642 Clear 12 1018 54 10000 3.6 130 16:20 07.10.2019
6643 Clear 12 1018 50 10000 4.6 130 15:45 07.10.2019
6644 Clear 12 1018 50 10000 4.6 130 15:26 07.10.2019
6645 Clear 12 1019 54 10000 4.1 140 14:55 07.10.2019
6646 Clear 12 1019 54 10000 3.1 140 14:37 07.10.2019
6647 Clear 12 1020 53 10000 4.6 120 14:19 07.10.2019
6648 Clear 12 1020 50 10000 4.6 120 13:43 07.10.2019
6649 Clear 11 1020 57 10000 4.6 140 13:20 07.10.2019
6650 Clear 11 1020 57 10000 4.6 140 12:56 07.10.2019
6651 Clear 11 1020 57 10000 5.1 140 12:38 07.10.2019
6652 Clear 11 1020 61 10000 5.1 120 12:19 07.10.2019
6653 Clear 10 1020 61 10000 5.1 120 11:57 07.10.2019
6654 Clear 9 1021 66 10000 4.6 120 11:37 07.10.2019
6655 Clear 8 1021 65 10000 4.6 120 11:18 07.10.2019
6656 Clear 7 1021 70 10000 4.1 120 10:41 07.10.2019
6657 Clear 6 1021 81 10000 2.6 90 10:20 07.10.2019
6658 Clear 5 1021 80 10000 3.6 70 09:43 07.10.2019
6659 Clear 3 1021 86 10000 2.6 70 09:24 07.10.2019
6660 Clear 3 1021 86 10000 2.6 70 08:58 07.10.2019
6661 Clear 2 1021 93 10000 0.5 50 08:39 07.10.2019
6662 Clear 2 1020 88 10000 2.6 80 08:20 07.10.2019
6663 Clear 2 1020 88 10000 3.1 80 07:43 07.10.2019
6664 Clear 2 1020 93 10000 3.6 80 07:25 07.10.2019
6665 Clear 2 1020 93 10000 3.6 80 06:55 07.10.2019
6666 Clear 2 1020 93 10000 4.1 80 06:37 07.10.2019
6667 Clear 3 1020 86 10000 4.1 60 05:54 07.10.2019
6668 Clear 3 1020 86 10000 4.1 60 05:25 07.10.2019
6669 Clear 3 1019 86 10000 3.1 60 04:44 07.10.2019
6670 Clear 4 1019 86 10000 3.6 60 03:45 07.10.2019
6671 Clear 4 1019 86 10000 3.6 60 03:23 07.10.2019
6672 Clear 4 1019 86 10000 3.6 60 02:23 07.10.2019
6673 Clear 4 1019 86 10000 3.6 60 02:23 07.10.2019
6674 Clear 4 1019 86 10000 3.6 60 01:58 07.10.2019
6675 Clear 5 1018 86 10000 4.1 70 01:23 07.10.2019
6676 Clear 5 1018 86 10000 3.1 60 00:45 07.10.2019
6677 Clear 6 1018 87 10000 4.1 70 00:23 07.10.2019
6678 Clear 6 1018 81 10000 4.6 80 23:59 06.10.2019
6679 Clear 7 1018 81 10000 4.6 80 23:39 06.10.2019
6680 Clear 7 1017 81 10000 5.1 80 23:18 06.10.2019
6681 Clear 7 1017 81 10000 5.1 80 22:54 06.10.2019
6682 Clear 8 1017 81 10000 5.1 80 22:36 06.10.2019
6683 Clear 8 1017 81 10000 5.7 80 22:18 06.10.2019
6684 Clear 8 1017 81 10000 5.7 80 21:54 06.10.2019
6685 Clear 8 1017 81 10000 5.7 80 21:36 06.10.2019
6686 Clear 8 1017 81 10000 5.7 80 21:36 06.10.2019
6687 Clear 8 1016 81 10000 5.1 80 21:18 06.10.2019
6688 Clear 8 1016 81 10000 5.1 80 20:54 06.10.2019
6689 Clear 8 1016 81 10000 5.7 90 20:36 06.10.2019
6690 Clear 8 1016 81 10000 5.7 90 20:36 06.10.2019
6691 Clear 9 1016 76 10000 6.2 90 20:18 06.10.2019
6692 Clear 9 1016 76 10000 6.2 90 19:55 06.10.2019
6693 Clouds 9 1016 76 10000 6.2 90 19:36 06.10.2019
6694 Clouds 9 1016 76 10000 5.7 90 19:18 06.10.2019
6695 Clouds 9 1016 76 10000 5.7 90 18:54 06.10.2019
6696 Clouds 10 1015 71 10000 4.6 100 18:36 06.10.2019
6697 Clouds 10 1015 71 10000 4.1 100 18:18 06.10.2019
6698 Clouds 10 1015 71 10000 5.1 100 17:42 06.10.2019
6699 Clouds 10 1015 66 10000 6.2 110 17:20 06.10.2019
6700 Clouds 11 1015 66 10000 6.2 110 16:55 06.10.2019
6701 Clouds 11 1015 66 10000 6.2 110 16:55 06.10.2019
6702 Clouds 11 1015 66 10000 6.7 100 16:37 06.10.2019
6703 Clouds 11 1016 66 10000 6.2 100 16:18 06.10.2019
6704 Clouds 11 1016 71 10000 6.7 100 15:42 06.10.2019
6705 Clouds 11 1016 71 10000 6.7 100 15:42 06.10.2019
6706 Clouds 11 1016 71 10000 6.7 100 15:21 06.10.2019
6707 Clouds 10 1017 76 10000 5.7 100 14:44 06.10.2019
6708 Clouds 10 1017 76 10000 5.7 100 14:26 06.10.2019
6709 Clouds 10 1017 76 10000 5.7 100 13:59 06.10.2019
6710 Clouds 10 1017 76 10000 5.7 100 13:40 06.10.2019
6711 Clouds 10 1018 76 10000 5.1 110 13:22 06.10.2019